GFSSE_prec_precacc24_024.txt.gz
Total_Precipitation_Accumulation
0.02 0.00 0.00 0.00 0.01 0.04 0.03 0.00 0.00 0.00 0.02 0.06 0.08 0.12 0.16 0.16 0.23 0.30 0.25 0.22 0.23 0.23 0.29 0.25 0.21 0.11 0.00 0.02 0.02 0.02 0.02 0.03 0.03 0.01 0.01 0.01 0.02 0.05 0.05 0.08 0.05 0.08 0.16
0.01 0.00 0.00 0.00 0.01 0.06 0.11 0.05 0.02 0.01 0.01 0.03 0.07 0.10 0.15 0.19 0.30 0.36 0.34 0.32 0.35 0.30 0.33 0.27 0.23 0.19 0.12 0.12 0.08 0.05 0.05 0.05 0.03 0.02 0.01 0.00 0.01 0.01 0.02 0.03 0.02 0.05 0.10
0.01 0.00 0.00 0.00 0.00 0.02 0.05 0.06 0.04 0.02 0.01 0.04 0.06 0.13 0.23 0.29 0.48 0.51 0.37 0.33 0.54 0.69 0.54 0.40 0.37 0.49 0.45 0.27 0.11 0.07 0.06 0.06 0.04 0.02 0.01 0.00 0.00 0.01 0.01 0.01 0.01 0.04 0.08
0.00 0.00 0.00 0.00 0.00 0.00 0.00 0.00 0.00 0.00 0.01 0.02 0.03 0.07 0.25 0.32 0.33 0.31 0.44 0.41 0.43 0.46 0.58 0.50 0.75 1.15 0.97 0.72 0.33 0.17 0.11 0.05 0.02 0.02 0.01 0.00 0.02 0.03 0.02 0.00 0.02 0.04 0.05
0.00 0.00 0.00 0.00 0.00 0.00 0.00 0.00 0.00 0.00 0.00 0.00 0.01 0.04 0.12 0.12 0.25 0.24 0.44 0.33 0.19 0.15 0.40 0.59 0.70 0.93 0.82 0.98 1.07 0.69 0.31 0.08 0.02 0.01 0.03 0.00 0.00 0.03 0.02 0.01 0.03 0.05 0.04
0.00 0.00 0.00 0.00 0.00 0.00 0.00 0.00 0.00 0.00 0.00 0.00 0.00 0.01 0.07 0.08 0.13 0.18 0.39 0.46 0.51 0.43 0.75 1.15 1.76 1.28 0.72 1.05 1.11 0.71 0.30 0.04 0.01 0.02 0.07 0.03 0.03 0.04 0.07 0.09 0.07 0.06 0.06
0.00 0.00 0.00 0.00 0.00 0.00 0.00 0.00 0.00 0.00 0.00 0.00 0.00 0.00 0.00 0.01 0.03 0.05 0.07 0.19 0.52 1.17 1.32 1.12 1.24 1.41 0.98 0.29 0.15 0.21 0.14 0.05 0.07 0.13 0.13 0.09 0.08 0.10 0.13 0.15 0.11 0.08 0.06
0.00 0.00 0.00 0.00 0.00 0.00 0.00 0.00 0.00 0.00 0.00 0.00 0.00 0.00 0.00 0.00 0.00 0.00 0.01 0.04 0.07 0.10 0.15 0.16 0.14 0.11 0.16 0.09 0.03 0.03 0.04 0.05 0.05 0.16 0.17 0.15 0.12 0.08 0.07 0.11 0.06 0.04 0.05
0.00 0.00 0.00 0.00 0.00 0.00 0.00 0.00 0.00 0.00 0.00 0.00 0.00 0.00 0.01 0.01 0.00 0.00 0.00 0.00 0.00 0.03 0.06 0.09 0.08 0.02 0.01 0.01 0.01 0.01 0.01 0.01 0.05 0.08 0.07 0.06 0.08 0.11 0.16 0.16 0.06 0.05 0.04
0.00 0.00 0.00 0.00 0.00 0.00 0.00 0.00 0.00 0.00 0.00 0.00 0.00 0.00 0.00 0.00 0.00 0.00 0.01 0.01 0.01 0.03 0.05 0.07 0.08 0.03 0.02 0.00 0.00 0.00 0.00 0.00 0.00 0.00 0.00 0.01 0.04 0.07 0.17 0.28 0.21 0.17 0.12
0.00 0.00 0.00 0.00 0.00 0.00 0.00 0.00 0.00 0.00 0.00 0.00 0.00 0.00 0.00 0.02 0.00 0.00 0.02 0.03 0.04 0.03 0.04 0.06 0.09 0.05 0.01 0.00 0.00 0.00 0.00 0.00 0.00 0.00 0.00 0.00 0.02 0.06 0.13 0.19 0.24 0.24 0.21
0.01 0.00 0.00 0.00 0.00 0.00 0.00 0.00 0.02 0.02 0.00 0.00 0.01 0.00 0.00 0.01 0.00 0.00 0.01 0.04 0.07 0.06 0.06 0.13 0.15 0.08 0.04 0.04 0.02 0.00 0.00 0.00 0.00 0.00 0.01 0.00 0.02 0.03 0.10 0.16 0.17 0.16 0.16
0.00 0.00 0.00 0.00 0.00 0.00 0.00 0.00 0.02 0.01 0.00 0.00 0.00 0.00 0.00 0.00 0.00 0.00 0.00 0.02 0.08 0.10 0.18 0.18 0.37 0.41 0.34 0.20 0.11 0.09 0.03 0.00 0.00 0.00 0.00 0.00 0.02 0.02 0.10 0.17 0.18 0.20 0.21
0.00 0.00 0.00 0.00 0.00 0.00 0.00 0.00 0.00 0.00 0.00 0.00 0.00 0.00 0.00 0.00 0.00 0.00 0.00 0.00 0.04 0.08 0.10 0.19 0.39 0.33 0.26 0.31 0.28 0.16 0.08 0.04 0.01 0.01 0.01 0.01 0.01 0.00 0.00 0.04 0.15 0.25 0.24
0.00 0.00 0.00 0.00 0.00 0.00 0.00 0.00 0.00 0.00 0.00 0.00 0.00 0.00 0.00 0.00 0.00 0.00 0.00 0.00 0.00 0.00 0.03 0.04 0.06 0.12 0.14 0.13 0.11 0.11 0.07 0.05 0.03 0.01 0.00 0.01 0.01 0.01 0.00 0.00 0.04 0.17 0.27
0.00 0.00 0.00 0.00 0.00 0.00 0.00 0.00 0.00 0.00 0.00 0.00 0.00 0.00 0.00 0.00 0.00 0.00 0.00 0.00 0.00 0.01 0.01 0.02 0.03 0.04 0.05 0.06 0.10 0.10 0.06 0.05 0.03 0.03 0.02 0.02 0.02 0.01 0.00 0.01 0.01 0.08 0.22
0.00 0.00 0.00 0.00 0.00 0.00 0.00 0.00 0.00 0.00 0.00 0.00 0.00 0.00 0.00 0.00 0.00 0.00 0.00 0.00 0.00 0.00 0.00 0.00 0.00 0.02 0.04 0.07 0.12 0.19 0.16 0.09 0.06 0.05 0.04 0.05 0.06 0.08 0.07 0.01 0.00 0.03 0.10
0.00 0.00 0.00 0.00 0.00 0.00 0.00 0.00 0.00 0.00 0.00 0.00 0.00 0.00 0.00 0.00 0.00 0.00 0.00 0.00 0.00 0.00 0.00 0.00 0.00 0.00 0.01 0.04 0.05 0.04 0.02 0.04 0.04 0.03 0.02 0.03 0.07 0.11 0.16 0.15 0.08 0.04 0.05
0.00 0.00 0.00 0.00 0.00 0.00 0.00 0.00 0.00 0.00 0.00 0.00 0.00 0.00 0.00 0.00 0.00 0.00 0.00 0.00 0.00 0.00 0.00 0.00 0.00 0.00 0.00 0.00 0.00 0.01 0.01 0.01 0.02 0.03 0.02 0.01 0.01 0.03 0.08 0.10 0.13 0.13 0.11
0.00 0.00 0.00 0.00 0.00 0.00 0.00 0.00 0.00 0.00 0.00 0.00 0.00 0.00 0.00 0.00 0.00 0.00 0.00 0.00 0.00 0.00 0.00 0.00 0.00 0.00 0.00 0.00 0.00 0.00 0.00 0.02 0.02 0.03 0.03 0.02 0.02 0.02 0.02 0.04 0.05 0.07 0.11
0.00 0.00 0.00 0.00 0.00 0.00 0.00 0.00 0.00 0.00 0.00 0.00 0.00 0.00 0.00 0.00 0.00 0.00 0.00 0.00 0.00 0.00 0.00 0.00 0.00 0.00 0.00 0.00 0.00 0.00 0.00 0.00 0.01 0.04 0.05 0.08 0.08 0.07 0.05 0.05 0.06 0.04 0.04
0.00 0.00 0.00 0.00 0.00 0.00 0.00 0.00 0.00 0.00 0.00 0.00 0.00 0.00 0.00 0.00 0.00 0.00 0.00 0.00 0.00 0.00 0.00 0.00 0.00 0.00 0.00 0.00 0.00 0.00 0.00 0.00 0.00 0.01 0.03 0.07 0.08 0.10 0.11 0.07 0.08 0.07 0.03
0.00 0.00 0.00 0.00 0.00 0.00 0.00 0.00 0.00 0.00 0.00 0.00 0.00 0.00 0.00 0.00 0.00 0.00 0.00 0.00 0.00 0.00 0.00 0.00 0.00 0.00 0.00 0.00 0.00 0.00 0.00 0.00 0.00 0.00 0.01 0.02 0.05 0.05 0.06 0.07 0.06 0.09 0.06
0.00 0.00 0.00 0.00 0.00 0.00 0.00 0.00 0.00 0.00 0.00 0.00 0.00 0.00 0.00 0.00 0.00 0.00 0.00 0.00 0.00 0.00 0.00 0.00 0.00 0.00 0.00 0.00 0.00 0.00 0.00 0.00 0.00 0.00 0.00 0.00 0.01 0.02 0.04 0.04 0.04 0.04 0.07
0.00 0.00 0.00 0.00 0.00 0.00 0.00 0.00 0.00 0.00 0.00 0.00 0.00 0.00 0.00 0.00 0.00 0.00 0.00 0.00 0.00 0.00 0.00 0.00 0.00 0.00 0.00 0.00 0.00 0.00 0.00 0.00 0.00 0.00 0.00 0.00 0.00 0.00 0.01 0.04 0.05 0.06 0.06
0.00 0.00 0.00 0.00 0.00 0.00 0.00 0.00 0.00 0.00 0.00 0.00 0.00 0.00 0.00 0.00 0.00 0.00 0.00 0.00 0.00 0.00 0.00 0.00 0.00 0.00 0.00 0.00 0.00 0.00 0.00 0.00 0.00 0.01 0.01 0.00 0.00 0.00 0.00 0.00 0.01 0.03 0.04

GFSSE_prec_precacc24_027.txt.gz
Total_Precipitation_Accumulation
0.02 0.00 0.00 0.00 0.01 0.04 0.03 0.00 0.00 0.00 0.01 0.00 0.02 0.03 0.05 0.07 0.15 0.21 0.18 0.17 0.19 0.16 0.15 0.12 0.13 0.10 0.00 0.02 0.02 0.01 0.02 0.02 0.03 0.01 0.01 0.01 0.02 0.05 0.05 0.08 0.05 0.12 0.22
0.00 0.00 0.00 0.00 0.01 0.06 0.11 0.05 0.02 0.01 0.01 0.04 0.06 0.05 0.06 0.09 0.12 0.20 0.15 0.13 0.18 0.19 0.22 0.15 0.12 0.13 0.11 0.10 0.05 0.03 0.03 0.04 0.03 0.02 0.01 0.00 0.01 0.01 0.02 0.03 0.02 0.07 0.11
0.00 0.00 0.00 0.00 0.00 0.02 0.06 0.07 0.05 0.03 0.02 0.04 0.07 0.08 0.10 0.07 0.07 0.15 0.13 0.07 0.07 0.36 0.36 0.25 0.28 0.41 0.38 0.20 0.08 0.06 0.05 0.06 0.04 0.02 0.01 0.01 0.02 0.01 0.01 0.01 0.01 0.04 0.08
0.00 0.00 0.00 0.00 0.00 0.00 0.00 0.00 0.00 0.00 0.01 0.02 0.03 0.04 0.08 0.08 0.04 0.03 0.13 0.12 0.19 0.15 0.21 0.22 0.59 1.04 0.88 0.66 0.30 0.16 0.11 0.05 0.02 0.02 0.01 0.00 0.02 0.03 0.02 0.00 0.02 0.04 0.05
0.00 0.00 0.00 0.00 0.00 0.00 0.00 0.00 0.00 0.00 0.00 0.00 0.01 0.04 0.07 0.06 0.07 0.07 0.21 0.20 0.09 0.03 0.11 0.29 0.48 0.78 0.77 0.93 1.01 0.67 0.31 0.08 0.02 0.02 0.04 0.01 0.01 0.05 0.02 0.01 0.03 0.05 0.04
0.00 0.00 0.00 0.00 0.00 0.00 0.00 0.00 0.00 0.00 0.00 0.00 0.00 0.00 0.01 0.01 0.05 0.07 0.22 0.23 0.11 0.03 0.39 0.84 1.51 1.15 0.67 1.03 1.09 0.68 0.29 0.04 0.01 0.02 0.08 0.04 0.04 0.07 0.07 0.09 0.04 0.04 0.05
0.00 0.00 0.00 0.00 0.00 0.00 0.00 0.00 0.00 0.00 0.00 0.00 0.00 0.00 0.00 0.00 0.00 0.00 0.01 0.03 0.02 0.04 0.31 0.88 1.14 1.27 0.94 0.29 0.14 0.20 0.13 0.05 0.07 0.13 0.14 0.09 0.13 0.12 0.13 0.15 0.10 0.06 0.06
0.00 0.00 0.00 0.00 0.00 0.00 0.00 0.00 0.00 0.00 0.00 0.00 0.00 0.00 0.00 0.00 0.00 0.00 0.00 0.00 0.01 0.02 0.05 0.13 0.14 0.11 0.16 0.09 0.02 0.02 0.03 0.05 0.05 0.16 0.17 0.16 0.14 0.09 0.07 0.11 0.08 0.06 0.06
0.00 0.00 0.00 0.00 0.00 0.00 0.00 0.00 0.00 0.00 0.00 0.00 0.00 0.00 0.00 0.00 0.00 0.00 0.00 0.00 0.00 0.00 0.01 0.04 0.06 0.02 0.01 0.01 0.01 0.01 0.01 0.01 0.05 0.08 0.07 0.06 0.08 0.11 0.17 0.16 0.13 0.10 0.05
0.00 0.00 0.00 0.00 0.00 0.00 0.00 0.00 0.00 0.00 0.00 0.00 0.00 0.00 0.00 0.00 0.00 0.00 0.00 0.00 0.00 0.00 0.00 0.00 0.01 0.01 0.02 0.00 0.00 0.00 0.00 0.00 0.00 0.00 0.00 0.01 0.04 0.07 0.17 0.24 0.23 0.22 0.13
0.00 0.00 0.00 0.00 0.00 0.00 0.00 0.00 0.00 0.00 0.00 0.00 0.00 0.00 0.00 0.01 0.00 0.00 0.00 0.00 0.00 0.00 0.00 0.00 0.00 0.00 0.01 0.00 0.00 0.00 0.00 0.00 0.00 0.00 0.00 0.00 0.02 0.06 0.13 0.15 0.20 0.23 0.23
0.01 0.00 0.00 0.00 0.00 0.00 0.00 0.00 0.01 0.01 0.00 0.00 0.01 0.00 0.00 0.01 0.00 0.00 0.00 0.00 0.00 0.00 0.00 0.00 0.00 0.00 0.00 0.01 0.01 0.00 0.00 0.00 0.00 0.00 0.01 0.00 0.02 0.03 0.10 0.14 0.14 0.14 0.15
0.00 0.00 0.00 0.00 0.00 0.00 0.00 0.00 0.01 0.01 0.00 0.00 0.00 0.00 0.00 0.00 0.00 0.00 0.00 0.00 0.00 0.00 0.00 0.00 0.00 0.00 0.00 0.02 0.03 0.06 0.03 0.00 0.00 0.00 0.00 0.00 0.02 0.02 0.10 0.16 0.16 0.17 0.21
0.00 0.00 0.00 0.00 0.00 0.00 0.00 0.00 0.00 0.00 0.00 0.00 0.00 0.00 0.00 0.00 0.00 0.00 0.00 0.00 0.00 0.00 0.00 0.00 0.00 0.02 0.06 0.10 0.09 0.09 0.07 0.04 0.01 0.00 0.00 0.00 0.01 0.00 0.00 0.04 0.13 0.23 0.23
0.00 0.00 0.00 0.00 0.00 0.00 0.00 0.00 0.00 0.00 0.00 0.00 0.00 0.00 0.00 0.00 0.00 0.00 0.00 0.00 0.00 0.00 0.00 0.00 0.00 0.00 0.01 0.03 0.03 0.05 0.06 0.05 0.03 0.01 0.00 0.00 0.00 0.00 0.00 0.00 0.02 0.12 0.24
0.00 0.00 0.00 0.00 0.00 0.00 0.00 0.00 0.00 0.00 0.00 0.00 0.00 0.00 0.00 0.00 0.00 0.00 0.00 0.00 0.00 0.00 0.00 0.01 0.01 0.01 0.01 0.01 0.00 0.03 0.01 0.02 0.02 0.03 0.02 0.01 0.01 0.00 0.00 0.00 0.00 0.03 0.14
0.00 0.00 0.00 0.00 0.00 0.00 0.00 0.00 0.00 0.00 0.00 0.00 0.00 0.00 0.00 0.00 0.00 0.00 0.00 0.00 0.00 0.00 0.00 0.00 0.00 0.00 0.01 0.01 0.02 0.06 0.07 0.05 0.04 0.04 0.04 0.05 0.06 0.08 0.07 0.01 0.00 0.01 0.04
0.00 0.00 0.00 0.00 0.00 0.00 0.00 0.00 0.00 0.00 0.00 0.00 0.00 0.00 0.00 0.00 0.00 0.00 0.00 0.00 0.00 0.00 0.00 0.00 0.00 0.00 0.00 0.00 0.00 0.00 0.01 0.03 0.03 0.02 0.02 0.02 0.07 0.11 0.16 0.15 0.08 0.04 0.03
0.00 0.00 0.00 0.00 0.00 0.00 0.00 0.00 0.00 0.00 0.00 0.00 0.00 0.00 0.00 0.00 0.00 0.00 0.00 0.00 0.00 0.00 0.00 0.00 0.00 0.00 0.00 0.00 0.00 0.00 0.00 0.00 0.01 0.01 0.01 0.01 0.01 0.03 0.07 0.10 0.13 0.13 0.10
0.00 0.00 0.00 0.00 0.00 0.00 0.00 0.00 0.00 0.00 0.00 0.00 0.00 0.00 0.00 0.00 0.00 0.00 0.00 0.00 0.00 0.00 0.00 0.00 0.00 0.00 0.00 0.00 0.00 0.00 0.00 0.00 0.00 0.00 0.01 0.01 0.02 0.02 0.02 0.02 0.04 0.07 0.11
0.00 0.00 0.00 0.00 0.00 0.00 0.00 0.00 0.00 0.00 0.00 0.00 0.00 0.00 0.00 0.00 0.00 0.00 0.00 0.00 0.00 0.00 0.00 0.00 0.00 0.00 0.00 0.00 0.00 0.00 0.00 0.00 0.00 0.00 0.01 0.04 0.06 0.07 0.05 0.04 0.03 0.03 0.04
0.00 0.00 0.00 0.00 0.00 0.00 0.00 0.00 0.00 0.00 0.00 0.00 0.00 0.00 0.00 0.00 0.00 0.00 0.00 0.00 0.00 0.00 0.00 0.00 0.00 0.00 0.00 0.00 0.01 0.01 0.00 0.00 0.00 0.00 0.00 0.02 0.04 0.08 0.10 0.07 0.05 0.04 0.03
0.00 0.00 0.00 0.00 0.00 0.00 0.00 0.00 0.00 0.00 0.00 0.00 0.00 0.00 0.00 0.00 0.00 0.00 0.00 0.00 0.00 0.00 0.00 0.00 0.00 0.00 0.00 0.00 0.00 0.01 0.01 0.00 0.00 0.00 0.00 0.00 0.00 0.01 0.04 0.06 0.05 0.04 0.04
0.00 0.00 0.00 0.00 0.00 0.00 0.00 0.00 0.00 0.00 0.00 0.00 0.00 0.00 0.00 0.00 0.00 0.00 0.00 0.00 0.00 0.00 0.00 0.00 0.00 0.00 0.00 0.00 0.00 0.00 0.01 0.02 0.02 0.01 0.00 0.00 0.00 0.00 0.00 0.02 0.04 0.03 0.03
0.00 0.00 0.00 0.00 0.00 0.00 0.00 0.00 0.00 0.00 0.00 0.00 0.00 0.00 0.00 0.00 0.00 0.00 0.00 0.00 0.00 0.00 0.00 0.00 0.00 0.00 0.00 0.00 0.00 0.00 0.01 0.01 0.01 0.02 0.01 0.01 0.02 0.00 0.00 0.00 0.01 0.04 0.05
0.00 0.00 0.00 0.00 0.00 0.00 0.00 0.00 0.00 0.00 0.00 0.00 0.00 0.00 0.00 0.00 0.00 0.00 0.00 0.00 0.00 0.00 0.00 0.00 0.00 0.00 0.00 0.00 0.00 0.00 0.00 0.00 0.00 0.01 0.01 0.00 0.03 0.05 0.02 0.01 0.01 0.00 0.01

GFSSE_prec_precacc24_030.txt.gz
Total_Precipitation_Accumulation
0.01 0.00 0.00 0.00 0.01 0.04 0.03 0.00 0.00 0.00 0.01 0.00 0.02 0.03 0.04 0.06 0.12 0.17 0.14 0.14 0.16 0.11 0.09 0.05 0.04 0.04 0.00 0.02 0.02 0.01 0.02 0.02 0.03 0.01 0.01 0.01 0.02 0.05 0.05 0.08 0.05 0.11 0.23
0.00 0.00 0.00 0.00 0.01 0.06 0.11 0.05 0.02 0.01 0.01 0.03 0.06 0.05 0.06 0.09 0.08 0.10 0.10 0.08 0.09 0.05 0.03 0.02 0.03 0.09 0.11 0.08 0.05 0.02 0.03 0.04 0.03 0.02 0.01 0.00 0.01 0.02 0.02 0.03 0.02 0.08 0.13
0.00 0.00 0.00 0.00 0.00 0.02 0.06 0.07 0.05 0.03 0.01 0.02 0.05 0.06 0.08 0.07 0.04 0.02 0.01 0.00 0.01 0.01 0.00 0.00 0.08 0.27 0.29 0.16 0.07 0.06 0.05 0.05 0.04 0.02 0.01 0.05 0.09 0.06 0.02 0.01 0.01 0.04 0.09
0.00 0.00 0.00 0.00 0.00 0.00 0.00 0.00 0.00 0.00 0.01 0.01 0.02 0.03 0.06 0.07 0.03 0.00 0.01 0.07 0.16 0.01 0.00 0.00 0.08 0.74 0.74 0.59 0.26 0.14 0.10 0.05 0.02 0.02 0.02 0.08 0.11 0.08 0.03 0.00 0.02 0.03 0.06
0.00 0.00 0.00 0.00 0.00 0.00 0.00 0.00 0.00 0.00 0.00 0.00 0.01 0.01 0.02 0.03 0.07 0.06 0.20 0.19 0.10 0.03 0.07 0.05 0.03 0.38 0.54 0.76 0.93 0.62 0.28 0.08 0.02 0.02 0.04 0.01 0.08 0.09 0.02 0.02 0.03 0.05 0.04
0.00 0.00 0.00 0.00 0.00 0.00 0.00 0.00 0.00 0.00 0.00 0.00 0.00 0.00 0.00 0.01 0.04 0.07 0.20 0.22 0.10 0.01 0.09 0.09 0.05 0.07 0.20 0.63 0.88 0.61 0.26 0.04 0.01 0.02 0.08 0.06 0.11 0.11 0.10 0.09 0.06 0.04 0.05
0.00 0.00 0.00 0.00 0.00 0.00 0.00 0.00 0.00 0.00 0.00 0.00 0.00 0.00 0.00 0.00 0.00 0.00 0.01 0.01 0.00 0.00 0.02 0.02 0.00 0.02 0.24 0.16 0.10 0.19 0.12 0.04 0.07 0.13 0.14 0.10 0.14 0.12 0.13 0.15 0.13 0.07 0.06
0.00 0.00 0.00 0.00 0.00 0.00 0.00 0.00 0.00 0.00 0.00 0.00 0.00 0.00 0.00 0.00 0.00 0.00 0.00 0.00 0.00 0.00 0.00 0.00 0.00 0.00 0.09 0.09 0.02 0.02 0.03 0.05 0.05 0.16 0.17 0.16 0.14 0.08 0.07 0.11 0.09 0.06 0.06
0.00 0.00 0.00 0.00 0.00 0.00 0.00 0.00 0.00 0.00 0.00 0.00 0.00 0.00 0.00 0.00 0.00 0.00 0.00 0.00 0.00 0.00 0.00 0.00 0.00 0.01 0.01 0.01 0.01 0.01 0.01 0.01 0.05 0.08 0.07 0.06 0.08 0.10 0.16 0.16 0.14 0.11 0.07
0.00 0.00 0.00 0.00 0.00 0.00 0.00 0.00 0.00 0.00 0.00 0.00 0.00 0.00 0.00 0.00 0.00 0.00 0.00 0.00 0.00 0.00 0.00 0.00 0.00 0.00 0.01 0.00 0.00 0.00 0.00 0.00 0.00 0.00 0.00 0.01 0.03 0.07 0.16 0.24 0.23 0.22 0.16
0.00 0.00 0.00 0.00 0.00 0.00 0.00 0.00 0.00 0.00 0.00 0.00 0.00 0.00 0.00 0.01 0.00 0.00 0.00 0.00 0.00 0.00 0.00 0.00 0.00 0.00 0.00 0.00 0.00 0.00 0.00 0.00 0.00 0.00 0.00 0.00 0.02 0.06 0.13 0.15 0.19 0.22 0.23
0.01 0.00 0.00 0.00 0.00 0.00 0.00 0.00 0.00 0.01 0.00 0.00 0.00 0.00 0.00 0.01 0.00 0.00 0.00 0.00 0.00 0.00 0.00 0.00 0.00 0.00 0.00 0.00 0.00 0.00 0.00 0.00 0.00 0.00 0.00 0.00 0.02 0.03 0.10 0.14 0.14 0.13 0.15
0.00 0.00 0.00 0.00 0.00 0.00 0.00 0.00 0.00 0.01 0.00 0.00 0.00 0.00 0.00 0.00 0.00 0.00 0.00 0.00 0.01 0.00 0.00 0.00 0.00 0.00 0.00 0.00 0.00 0.00 0.00 0.00 0.00 0.00 0.00 0.00 0.02 0.02 0.10 0.16 0.16 0.17 0.20
0.00 0.00 0.00 0.00 0.00 0.00 0.00 0.00 0.00 0.00 0.00 0.00 0.00 0.00 0.00 0.00 0.00 0.00 0.00 0.00 0.00 0.00 0.00 0.00 0.00 0.00 0.00 0.00 0.00 0.01 0.01 0.01 0.00 0.00 0.00 0.00 0.01 0.00 0.00 0.04 0.13 0.23 0.22
0.00 0.00 0.00 0.00 0.00 0.00 0.00 0.00 0.00 0.00 0.00 0.00 0.00 0.00 0.00 0.00 0.00 0.00 0.00 0.00 0.00 0.00 0.00 0.00 0.00 0.00 0.00 0.00 0.00 0.00 0.01 0.00 0.01 0.01 0.00 0.00 0.00 0.00 0.00 0.00 0.02 0.12 0.24
0.00 0.00 0.00 0.00 0.00 0.00 0.00 0.00 0.00 0.00 0.00 0.00 0.00 0.00 0.00 0.00 0.00 0.00 0.00 0.00 0.00 0.00 0.00 0.00 0.00 0.00 0.00 0.00 0.00 0.00 0.00 0.00 0.00 0.01 0.02 0.01 0.01 0.00 0.00 0.00 0.00 0.03 0.13
0.00 0.00 0.00 0.00 0.00 0.00 0.00 0.00 0.00 0.00 0.00 0.00 0.00 0.00 0.00 0.00 0.00 0.00 0.00 0.00 0.00 0.00 0.00 0.00 0.00 0.00 0.00 0.00 0.00 0.00 0.01 0.00 0.00 0.00 0.02 0.04 0.06 0.08 0.07 0.01 0.00 0.01 0.03
0.00 0.00 0.00 0.00 0.00 0.00 0.00 0.00 0.00 0.00 0.00 0.00 0.00 0.00 0.00 0.00 0.00 0.00 0.00 0.00 0.00 0.00 0.00 0.00 0.00 0.00 0.00 0.00 0.00 0.00 0.00 0.00 0.00 0.01 0.01 0.02 0.06 0.11 0.16 0.15 0.08 0.04 0.03
0.00 0.00 0.00 0.00 0.00 0.00 0.00 0.00 0.00 0.00 0.00 0.00 0.00 0.00 0.00 0.00 0.00 0.00 0.00 0.00 0.00 0.00 0.00 0.00 0.00 0.00 0.00 0.00 0.00 0.00 0.00 0.00 0.00 0.00 0.00 0.00 0.01 0.03 0.07 0.10 0.13 0.13 0.10
0.00 0.00 0.00 0.00 0.00 0.00 0.01 0.00 0.00 0.00 0.00 0.00 0.00 0.00 0.00 0.00 0.00 0.00 0.00 0.00 0.00 0.00 0.00 0.00 0.00 0.00 0.00 0.00 0.00 0.00 0.00 0.00 0.00 0.00 0.00 0.00 0.01 0.02 0.02 0.02 0.04 0.07 0.11
0.00 0.00 0.00 0.00 0.03 0.02 0.00 0.00 0.00 0.00 0.00 0.00 0.00 0.00 0.00 0.00 0.00 0.00 0.00 0.00 0.00 0.00 0.00 0.00 0.00 0.00 0.00 0.00 0.01 0.00 0.00 0.00 0.00 0.00 0.00 0.00 0.00 0.02 0.04 0.04 0.03 0.03 0.04
0.00 0.00 0.00 0.00 0.00 0.00 0.00 0.00 0.00 0.00 0.00 0.00 0.00 0.00 0.00 0.00 0.00 0.00 0.00 0.00 0.00 0.00 0.00 0.00 0.00 0.00 0.00 0.00 0.01 0.01 0.00 0.00 0.00 0.00 0.00 0.00 0.00 0.00 0.01 0.04 0.05 0.04 0.02
0.00 0.00 0.00 0.00 0.00 0.00 0.00 0.00 0.00 0.00 0.00 0.00 0.00 0.00 0.00 0.00 0.00 0.00 0.00 0.00 0.00 0.00 0.00 0.00 0.00 0.00 0.00 0.00 0.00 0.02 0.02 0.01 0.01 0.00 0.00 0.02 0.01 0.01 0.00 0.00 0.02 0.04 0.04
0.00 0.00 0.00 0.00 0.00 0.00 0.00 0.00 0.00 0.00 0.00 0.00 0.00 0.00 0.00 0.00 0.00 0.00 0.00 0.00 0.00 0.00 0.00 0.00 0.00 0.00 0.00 0.00 0.00 0.00 0.02 0.04 0.04 0.02 0.00 0.00 0.03 0.05 0.04 0.04 0.03 0.03 0.02
0.00 0.00 0.00 0.00 0.00 0.00 0.00 0.00 0.00 0.00 0.00 0.00 0.00 0.00 0.00 0.00 0.00 0.00 0.00 0.00 0.00 0.00 0.00 0.00 0.00 0.00 0.00 0.00 0.00 0.00 0.01 0.01 0.01 0.03 0.01 0.01 0.03 0.05 0.04 0.05 0.05 0.05 0.03
0.00 0.00 0.00 0.00 0.00 0.00 0.00 0.00 0.00 0.00 0.00 0.00 0.00 0.00 0.00 0.00 0.00 0.00 0.00 0.00 0.00 0.00 0.00 0.00 0.00 0.00 0.00 0.00 0.00 0.00 0.00 0.00 0.00 0.01 0.01 0.00 0.03 0.07 0.04 0.06 0.07 0.06 0.06

GFSSE_prec_precacc24_033.txt.gz
Total_Precipitation_Accumulation
0.00 0.00 0.00 0.00 0.01 0.04 0.03 0.00 0.00 0.00 0.01 0.00 0.02 0.02 0.03 0.06 0.12 0.17 0.14 0.14 0.16 0.11 0.08 0.02 0.00 0.00 0.00 0.02 0.02 0.01 0.02 0.02 0.03 0.01 0.01 0.02 0.06 0.05 0.05 0.08 0.04 0.11 0.23
0.00 0.00 0.00 0.00 0.01 0.06 0.11 0.05 0.02 0.01 0.01 0.02 0.06 0.05 0.05 0.07 0.08 0.10 0.10 0.08 0.07 0.03 0.00 0.01 0.00 0.00 0.00 0.01 0.02 0.02 0.03 0.04 0.03 0.02 0.01 0.00 0.03 0.04 0.03 0.04 0.03 0.07 0.12
0.00 0.00 0.00 0.00 0.00 0.02 0.06 0.07 0.04 0.02 0.01 0.02 0.04 0.05 0.06 0.06 0.04 0.02 0.01 0.00 0.01 0.00 0.00 0.00 0.03 0.08 0.05 0.02 0.02 0.04 0.04 0.05 0.04 0.02 0.01 0.08 0.17 0.10 0.08 0.04 0.03 0.04 0.08
0.00 0.00 0.00 0.00 0.00 0.00 0.00 0.00 0.00 0.00 0.01 0.01 0.02 0.03 0.05 0.07 0.03 0.00 0.01 0.07 0.16 0.01 0.01 0.00 0.03 0.08 0.08 0.08 0.11 0.08 0.06 0.04 0.02 0.02 0.02 0.10 0.18 0.16 0.12 0.05 0.06 0.05 0.06
0.00 0.00 0.00 0.00 0.00 0.00 0.00 0.00 0.00 0.00 0.00 0.00 0.01 0.01 0.00 0.02 0.07 0.06 0.20 0.19 0.10 0.04 0.05 0.01 0.02 0.00 0.01 0.01 0.30 0.37 0.17 0.05 0.02 0.02 0.04 0.02 0.10 0.17 0.12 0.07 0.07 0.09 0.05
0.00 0.00 0.00 0.00 0.00 0.00 0.00 0.00 0.00 0.00 0.00 0.00 0.00 0.00 0.00 0.01 0.04 0.07 0.20 0.22 0.10 0.01 0.08 0.07 0.03 0.00 0.00 0.00 0.02 0.06 0.06 0.02 0.01 0.02 0.08 0.06 0.11 0.18 0.14 0.11 0.07 0.06 0.06
0.00 0.00 0.00 0.00 0.00 0.00 0.00 0.00 0.00 0.00 0.00 0.00 0.00 0.00 0.00 0.00 0.00 0.00 0.01 0.01 0.00 0.00 0.00 0.01 0.00 0.00 0.00 0.00 0.00 0.01 0.04 0.02 0.07 0.13 0.14 0.10 0.14 0.15 0.14 0.16 0.13 0.07 0.06
0.00 0.00 0.00 0.00 0.00 0.00 0.00 0.00 0.00 0.00 0.00 0.00 0.00 0.00 0.00 0.00 0.00 0.00 0.00 0.00 0.00 0.00 0.00 0.00 0.00 0.00 0.00 0.00 0.00 0.00 0.01 0.03 0.05 0.16 0.17 0.16 0.13 0.06 0.06 0.12 0.10 0.07 0.06
0.00 0.00 0.00 0.00 0.00 0.00 0.00 0.00 0.00 0.00 0.00 0.00 0.00 0.00 0.00 0.00 0.00 0.00 0.00 0.00 0.00 0.00 0.00 0.00 0.00 0.00 0.00 0.00 0.00 0.00 0.01 0.01 0.05 0.08 0.07 0.06 0.07 0.08 0.14 0.16 0.15 0.13 0.08
0.00 0.00 0.00 0.00 0.00 0.00 0.00 0.00 0.00 0.00 0.00 0.00 0.00 0.00 0.00 0.00 0.00 0.00 0.00 0.00 0.00 0.00 0.00 0.00 0.00 0.00 0.01 0.00 0.00 0.00 0.00 0.00 0.00 0.00 0.00 0.01 0.03 0.05 0.12 0.20 0.22 0.23 0.17
0.00 0.00 0.00 0.00 0.00 0.00 0.00 0.00 0.00 0.00 0.00 0.00 0.00 0.00 0.00 0.00 0.00 0.00 0.00 0.00 0.00 0.00 0.00 0.00 0.00 0.00 0.00 0.00 0.00 0.00 0.00 0.00 0.00 0.00 0.00 0.00 0.01 0.04 0.10 0.12 0.16 0.21 0.22
0.01 0.00 0.00 0.00 0.00 0.00 0.00 0.00 0.00 0.00 0.00 0.00 0.00 0.00 0.00 0.00 0.00 0.00 0.00 0.00 0.00 0.00 0.00 0.00 0.00 0.00 0.00 0.00 0.00 0.00 0.00 0.00 0.00 0.00 0.00 0.00 0.01 0.02 0.08 0.10 0.11 0.12 0.14
0.00 0.00 0.00 0.00 0.00 0.00 0.00 0.00 0.00 0.00 0.00 0.00 0.00 0.00 0.00 0.00 0.00 0.00 0.00 0.00 0.01 0.00 0.00 0.00 0.00 0.00 0.00 0.00 0.00 0.00 0.00 0.00 0.00 0.00 0.00 0.00 0.00 0.01 0.08 0.12 0.12 0.15 0.19
0.00 0.00 0.00 0.00 0.00 0.00 0.00 0.00 0.00 0.00 0.00 0.00 0.00 0.00 0.00 0.00 0.00 0.00 0.00 0.00 0.00 0.00 0.00 0.00 0.00 0.00 0.00 0.00 0.00 0.00 0.00 0.00 0.00 0.00 0.00 0.00 0.01 0.00 0.00 0.03 0.11 0.18 0.20
0.00 0.00 0.00 0.00 0.00 0.00 0.00 0.00 0.00 0.00 0.00 0.00 0.00 0.00 0.00 0.00 0.00 0.00 0.00 0.00 0.00 0.00 0.00 0.00 0.00 0.00 0.00 0.00 0.00 0.00 0.00 0.00 0.00 0.00 0.00 0.00 0.00 0.00 0.00 0.00 0.02 0.09 0.20
0.00 0.00 0.00 0.00 0.00 0.00 0.00 0.00 0.00 0.00 0.00 0.00 0.00 0.00 0.00 0.00 0.00 0.00 0.00 0.00 0.00 0.00 0.00 0.00 0.00 0.00 0.00 0.00 0.00 0.00 0.00 0.00 0.00 0.00 0.00 0.00 0.00 0.00 0.00 0.00 0.00 0.01 0.07
0.00 0.00 0.00 0.00 0.00 0.00 0.00 0.00 0.00 0.00 0.00 0.00 0.00 0.00 0.00 0.00 0.00 0.00 0.00 0.00 0.00 0.00 0.00 0.00 0.00 0.00 0.00 0.00 0.00 0.00 0.00 0.00 0.00 0.00 0.00 0.00 0.01 0.03 0.05 0.01 0.00 0.01 0.02
0.00 0.00 0.00 0.00 0.10 0.06 0.02 0.00 0.00 0.00 0.00 0.00 0.00 0.00 0.00 0.00 0.00 0.00 0.00 0.00 0.00 0.00 0.00 0.00 0.00 0.00 0.00 0.00 0.00 0.00 0.00 0.00 0.00 0.00 0.00 0.00 0.01 0.04 0.09 0.12 0.08 0.04 0.03
0.00 0.00 0.01 0.00 0.04 0.14 0.11 0.03 0.00 0.00 0.00 0.00 0.00 0.00 0.00 0.00 0.00 0.00 0.00 0.00 0.00 0.00 0.00 0.00 0.00 0.00 0.00 0.00 0.00 0.00 0.00 0.00 0.00 0.00 0.00 0.00 0.00 0.01 0.03 0.06 0.12 0.13 0.10
0.00 0.00 0.02 0.01 0.06 0.08 0.07 0.02 0.01 0.00 0.00 0.00 0.00 0.00 0.00 0.00 0.00 0.00 0.00 0.00 0.00 0.00 0.00 0.00 0.00 0.00 0.00 0.00 0.00 0.00 0.00 0.00 0.00 0.00 0.00 0.00 0.00 0.00 0.00 0.01 0.04 0.07 0.11
0.01 0.01 0.01 0.00 0.06 0.05 0.02 0.01 0.00 0.00 0.00 0.00 0.00 0.00 0.00 0.00 0.00 0.00 0.00 0.00 0.00 0.00 0.00 0.00 0.00 0.00 0.00 0.00 0.01 0.00 0.00 0.00 0.00 0.00 0.00 0.00 0.00 0.00 0.00 0.00 0.01 0.02 0.04
0.01 0.00 0.00 0.00 0.00 0.00 0.00 0.00 0.00 0.00 0.00 0.00 0.00 0.00 0.00 0.00 0.00 0.00 0.00 0.00 0.00 0.00 0.00 0.00 0.00 0.00 0.00 0.00 0.01 0.01 0.00 0.00 0.00 0.00 0.00 0.00 0.00 0.01 0.01 0.01 0.00 0.00 0.01
0.00 0.00 0.00 0.00 0.00 0.00 0.00 0.00 0.00 0.00 0.00 0.00 0.00 0.00 0.00 0.00 0.00 0.00 0.00 0.00 0.00 0.00 0.00 0.00 0.00 0.00 0.00 0.00 0.00 0.02 0.02 0.01 0.01 0.00 0.00 0.02 0.02 0.02 0.02 0.02 0.02 0.00 0.00
0.00 0.00 0.00 0.00 0.00 0.00 0.00 0.00 0.00 0.00 0.00 0.00 0.00 0.00 0.00 0.00 0.00 0.00 0.00 0.00 0.00 0.00 0.00 0.00 0.00 0.00 0.00 0.00 0.00 0.00 0.02 0.05 0.04 0.02 0.00 0.00 0.03 0.05 0.07 0.09 0.10 0.09 0.04
0.00 0.00 0.00 0.00 0.00 0.00 0.00 0.00 0.00 0.00 0.00 0.00 0.00 0.00 0.00 0.00 0.00 0.00 0.00 0.00 0.00 0.00 0.00 0.00 0.00 0.00 0.00 0.00 0.00 0.00 0.01 0.01 0.01 0.03 0.01 0.01 0.03 0.05 0.04 0.07 0.10 0.15 0.19
0.00 0.00 0.00 0.00 0.00 0.00 0.00 0.00 0.00 0.00 0.00 0.00 0.00 0.00 0.00 0.00 0.00 0.00 0.00 0.00 0.00 0.00 0.00 0.00 0.00 0.00 0.00 0.00 0.00 0.00 0.00 0.00 0.00 0.01 0.01 0.00 0.03 0.07 0.04 0.06 0.07 0.09 0.14

GFSSE_prec_precacc24_036.txt.gz
Total_Precipitation_Accumulation
0.00 0.00 0.00 0.00 0.01 0.04 0.03 0.00 0.00 0.00 0.01 0.00 0.02 0.02 0.03 0.06 0.12 0.17 0.15 0.15 0.16 0.11 0.08 0.02 0.00 0.00 0.00 0.00 0.00 0.00 0.00 0.01 0.01 0.00 0.00 0.01 0.06 0.03 0.04 0.14 0.05 0.11 0.23
0.00 0.00 0.00 0.00 0.01 0.06 0.11 0.05 0.02 0.01 0.01 0.02 0.06 0.05 0.05 0.07 0.08 0.10 0.10 0.08 0.07 0.03 0.00 0.01 0.00 0.00 0.00 0.00 0.00 0.00 0.00 0.01 0.02 0.01 0.00 0.01 0.06 0.10 0.05 0.07 0.03 0.07 0.11
0.00 0.00 0.00 0.00 0.00 0.02 0.06 0.07 0.04 0.02 0.01 0.02 0.04 0.05 0.06 0.06 0.04 0.02 0.01 0.00 0.01 0.00 0.00 0.00 0.03 0.08 0.05 0.01 0.00 0.00 0.00 0.00 0.01 0.01 0.01 0.12 0.21 0.12 0.12 0.07 0.06 0.05 0.07
0.00 0.00 0.00 0.00 0.00 0.00 0.00 0.00 0.00 0.00 0.01 0.01 0.02 0.03 0.05 0.07 0.03 0.00 0.01 0.06 0.16 0.01 0.01 0.00 0.03 0.08 0.07 0.02 0.01 0.01 0.02 0.01 0.00 0.01 0.02 0.12 0.21 0.14 0.11 0.06 0.09 0.08 0.05
0.00 0.00 0.00 0.00 0.00 0.00 0.00 0.00 0.00 0.00 0.00 0.00 0.01 0.01 0.00 0.02 0.07 0.06 0.20 0.19 0.10 0.04 0.05 0.01 0.02 0.00 0.01 0.00 0.01 0.02 0.02 0.01 0.00 0.02 0.04 0.03 0.12 0.18 0.13 0.09 0.08 0.10 0.04
0.00 0.00 0.00 0.00 0.00 0.00 0.00 0.00 0.00 0.00 0.00 0.00 0.00 0.00 0.00 0.01 0.04 0.07 0.20 0.22 0.10 0.01 0.08 0.07 0.03 0.00 0.00 0.00 0.00 0.00 0.00 0.00 0.00 0.02 0.08 0.06 0.12 0.19 0.16 0.14 0.07 0.06 0.06
0.00 0.00 0.00 0.00 0.00 0.00 0.00 0.00 0.00 0.00 0.00 0.00 0.00 0.00 0.00 0.00 0.00 0.00 0.01 0.01 0.00 0.00 0.00 0.01 0.00 0.00 0.00 0.00 0.00 0.00 0.00 0.00 0.06 0.13 0.14 0.10 0.14 0.18 0.19 0.18 0.14 0.09 0.08
0.00 0.00 0.00 0.00 0.00 0.00 0.00 0.00 0.00 0.00 0.00 0.00 0.00 0.00 0.00 0.00 0.00 0.00 0.00 0.00 0.00 0.00 0.00 0.00 0.00 0.00 0.00 0.00 0.00 0.00 0.00 0.00 0.03 0.10 0.14 0.16 0.14 0.07 0.06 0.12 0.11 0.08 0.08
0.00 0.00 0.00 0.00 0.00 0.00 0.00 0.00 0.00 0.00 0.00 0.00 0.00 0.00 0.00 0.00 0.00 0.00 0.00 0.00 0.00 0.00 0.00 0.00 0.00 0.00 0.00 0.00 0.00 0.00 0.00 0.01 0.05 0.06 0.04 0.06 0.07 0.06 0.10 0.13 0.14 0.14 0.09
0.00 0.00 0.00 0.00 0.00 0.00 0.00 0.00 0.00 0.00 0.00 0.00 0.00 0.00 0.00 0.00 0.00 0.00 0.00 0.00 0.00 0.00 0.00 0.00 0.00 0.00 0.00 0.00 0.00 0.00 0.00 0.00 0.00 0.00 0.00 0.01 0.02 0.01 0.07 0.14 0.17 0.19 0.17
0.00 0.00 0.00 0.00 0.00 0.00 0.00 0.00 0.00 0.00 0.00 0.00 0.00 0.00 0.00 0.00 0.00 0.00 0.00 0.00 0.00 0.00 0.00 0.00 0.00 0.00 0.00 0.00 0.00 0.00 0.00 0.00 0.00 0.00 0.00 0.00 0.00 0.01 0.07 0.07 0.11 0.16 0.19
0.00 0.00 0.00 0.00 0.00 0.00 0.00 0.00 0.00 0.00 0.00 0.00 0.00 0.00 0.00 0.00 0.00 0.00 0.00 0.00 0.00 0.00 0.00 0.00 0.00 0.00 0.00 0.00 0.00 0.00 0.00 0.00 0.00 0.00 0.00 0.00 0.00 0.01 0.04 0.05 0.06 0.08 0.10
0.00 0.00 0.00 0.00 0.00 0.00 0.00 0.00 0.00 0.00 0.00 0.00 0.00 0.00 0.00 0.00 0.00 0.00 0.00 0.00 0.01 0.00 0.00 0.00 0.00 0.00 0.00 0.00 0.00 0.00 0.00 0.00 0.00 0.00 0.00 0.00 0.00 0.00 0.02 0.05 0.05 0.07 0.12
0.00 0.00 0.00 0.00 0.00 0.00 0.00 0.00 0.00 0.00 0.00 0.00 0.00 0.00 0.00 0.00 0.00 0.00 0.00 0.00 0.00 0.00 0.00 0.00 0.00 0.00 0.00 0.00 0.00 0.00 0.00 0.00 0.00 0.00 0.00 0.00 0.00 0.00 0.00 0.00 0.02 0.06 0.10
0.00 0.00 0.00 0.00 0.00 0.00 0.00 0.00 0.00 0.00 0.00 0.00 0.00 0.00 0.00 0.00 0.00 0.00 0.00 0.00 0.00 0.00 0.00 0.00 0.00 0.00 0.00 0.00 0.00 0.00 0.00 0.00 0.00 0.00 0.00 0.00 0.00 0.00 0.00 0.00 0.00 0.01 0.06
0.00 0.00 0.00 0.00 0.00 0.00 0.00 0.00 0.00 0.00 0.00 0.00 0.00 0.00 0.00 0.00 0.00 0.00 0.00 0.00 0.00 0.00 0.00 0.00 0.00 0.00 0.00 0.00 0.00 0.00 0.00 0.00 0.00 0.00 0.00 0.00 0.00 0.00 0.00 0.00 0.00 0.00 0.00
0.00 0.00 0.00 0.00 0.01 0.04 0.01 0.00 0.00 0.00 0.00 0.00 0.00 0.00 0.00 0.00 0.00 0.00 0.00 0.00 0.00 0.00 0.00 0.00 0.00 0.00 0.00 0.00 0.00 0.00 0.00 0.00 0.00 0.00 0.00 0.00 0.00 0.00 0.00 0.00 0.00 0.01 0.01
0.00 0.00 0.00 0.03 0.17 0.18 0.10 0.01 0.00 0.00 0.00 0.00 0.00 0.00 0.00 0.00 0.00 0.00 0.00 0.00 0.00 0.00 0.00 0.00 0.00 0.00 0.00 0.00 0.00 0.00 0.00 0.00 0.00 0.00 0.00 0.00 0.00 0.00 0.00 0.00 0.00 0.01 0.02
0.00 0.00 0.03 0.12 0.12 0.27 0.19 0.06 0.01 0.00 0.00 0.00 0.00 0.00 0.00 0.00 0.00 0.00 0.00 0.00 0.00 0.00 0.00 0.00 0.00 0.00 0.00 0.00 0.00 0.00 0.00 0.00 0.00 0.00 0.00 0.00 0.00 0.00 0.00 0.00 0.00 0.00 0.02
0.00 0.01 0.09 0.15 0.21 0.22 0.19 0.06 0.02 0.00 0.00 0.00 0.00 0.00 0.00 0.00 0.00 0.00 0.00 0.00 0.00 0.00 0.00 0.00 0.00 0.00 0.00 0.00 0.00 0.00 0.00 0.00 0.00 0.00 0.00 0.00 0.00 0.00 0.00 0.00 0.00 0.00 0.00
0.04 0.07 0.08 0.11 0.18 0.14 0.07 0.03 0.01 0.00 0.00 0.00 0.00 0.00 0.00 0.00 0.00 0.00 0.00 0.00 0.00 0.00 0.00 0.00 0.00 0.00 0.00 0.00 0.01 0.00 0.00 0.00 0.00 0.00 0.00 0.00 0.00 0.00 0.00 0.00 0.00 0.00 0.00
0.07 0.07 0.04 0.01 0.00 0.00 0.00 0.00 0.00 0.00 0.00 0.00 0.00 0.00 0.00 0.00 0.00 0.00 0.00 0.00 0.00 0.00 0.00 0.00 0.00 0.00 0.00 0.00 0.01 0.01 0.00 0.00 0.00 0.00 0.00 0.00 0.00 0.01 0.01 0.01 0.00 0.00 0.00
0.01 0.00 0.00 0.00 0.00 0.00 0.00 0.00 0.00 0.00 0.00 0.00 0.00 0.00 0.00 0.00 0.00 0.00 0.00 0.00 0.00 0.00 0.00 0.00 0.00 0.00 0.00 0.00 0.00 0.02 0.02 0.01 0.01 0.00 0.00 0.02 0.02 0.02 0.02 0.02 0.02 0.00 0.00
0.00 0.00 0.00 0.00 0.00 0.00 0.00 0.00 0.00 0.00 0.00 0.00 0.00 0.00 0.00 0.00 0.00 0.00 0.00 0.00 0.00 0.00 0.00 0.00 0.00 0.00 0.00 0.00 0.00 0.00 0.02 0.05 0.04 0.03 0.00 0.00 0.03 0.05 0.07 0.09 0.10 0.10 0.06
0.00 0.00 0.00 0.00 0.00 0.00 0.00 0.00 0.00 0.00 0.00 0.00 0.00 0.00 0.00 0.00 0.00 0.00 0.00 0.00 0.00 0.00 0.00 0.00 0.00 0.00 0.00 0.00 0.00 0.00 0.01 0.01 0.01 0.03 0.01 0.01 0.03 0.05 0.04 0.07 0.10 0.15 0.20
0.00 0.00 0.00 0.00 0.00 0.00 0.00 0.00 0.00 0.00 0.00 0.00 0.00 0.00 0.00 0.00 0.00 0.00 0.00 0.00 0.00 0.00 0.00 0.00 0.00 0.00 0.00 0.00 0.00 0.00 0.00 0.00 0.00 0.01 0.02 0.00 0.03 0.07 0.04 0.06 0.07 0.09 0.14

GFSSE_prec_precacc24_039.txt.gz
Total_Precipitation_Accumulation
0.00 0.00 0.00 0.00 0.01 0.04 0.03 0.00 0.00 0.00 0.01 0.00 0.02 0.02 0.03 0.06 0.10 0.15 0.14 0.15 0.16 0.11 0.08 0.02 0.00 0.00 0.00 0.00 0.00 0.00 0.00 0.00 0.00 0.00 0.00 0.01 0.06 0.01 0.01 0.08 0.04 0.09 0.17
0.00 0.00 0.00 0.00 0.01 0.06 0.11 0.05 0.02 0.01 0.01 0.02 0.06 0.05 0.05 0.07 0.08 0.10 0.10 0.08 0.07 0.03 0.00 0.01 0.00 0.00 0.00 0.00 0.00 0.00 0.00 0.00 0.00 0.00 0.00 0.01 0.06 0.08 0.03 0.05 0.02 0.06 0.08
0.00 0.00 0.00 0.00 0.00 0.02 0.06 0.07 0.04 0.02 0.01 0.02 0.04 0.05 0.06 0.06 0.04 0.02 0.01 0.00 0.01 0.00 0.00 0.00 0.03 0.08 0.05 0.01 0.00 0.00 0.00 0.00 0.00 0.00 0.00 0.12 0.21 0.12 0.11 0.07 0.07 0.07 0.05
0.00 0.00 0.00 0.00 0.00 0.00 0.00 0.00 0.00 0.00 0.01 0.01 0.02 0.03 0.05 0.06 0.03 0.00 0.00 0.04 0.11 0.00 0.01 0.00 0.03 0.08 0.07 0.02 0.01 0.01 0.02 0.01 0.00 0.00 0.01 0.12 0.21 0.14 0.10 0.06 0.08 0.08 0.06
0.00 0.00 0.00 0.00 0.00 0.00 0.00 0.00 0.00 0.00 0.00 0.00 0.01 0.01 0.00 0.02 0.07 0.05 0.15 0.19 0.09 0.04 0.05 0.01 0.02 0.00 0.01 0.00 0.01 0.02 0.02 0.01 0.00 0.02 0.04 0.03 0.12 0.18 0.11 0.08 0.07 0.09 0.04
0.00 0.00 0.00 0.00 0.00 0.00 0.00 0.00 0.00 0.00 0.00 0.00 0.00 0.00 0.00 0.01 0.04 0.07 0.16 0.14 0.07 0.01 0.08 0.07 0.03 0.00 0.00 0.00 0.00 0.00 0.00 0.00 0.00 0.02 0.08 0.06 0.12 0.19 0.16 0.12 0.06 0.05 0.06
0.00 0.00 0.00 0.00 0.00 0.00 0.00 0.00 0.00 0.00 0.00 0.00 0.00 0.00 0.00 0.00 0.00 0.00 0.01 0.01 0.00 0.00 0.00 0.01 0.00 0.00 0.00 0.00 0.00 0.00 0.00 0.00 0.00 0.03 0.04 0.08 0.14 0.18 0.16 0.14 0.13 0.08 0.07
0.00 0.00 0.00 0.00 0.00 0.00 0.00 0.00 0.00 0.00 0.00 0.00 0.00 0.00 0.00 0.00 0.00 0.00 0.00 0.00 0.00 0.00 0.00 0.00 0.00 0.00 0.00 0.00 0.00 0.00 0.00 0.00 0.00 0.00 0.03 0.09 0.14 0.09 0.05 0.09 0.10 0.08 0.08
0.00 0.00 0.00 0.00 0.00 0.00 0.00 0.00 0.00 0.00 0.00 0.00 0.00 0.00 0.00 0.00 0.00 0.00 0.00 0.00 0.00 0.00 0.00 0.00 0.00 0.00 0.00 0.00 0.00 0.00 0.00 0.00 0.00 0.01 0.01 0.02 0.06 0.08 0.12 0.11 0.12 0.13 0.09
0.00 0.00 0.00 0.00 0.00 0.00 0.00 0.00 0.00 0.00 0.00 0.00 0.00 0.00 0.00 0.00 0.00 0.00 0.00 0.00 0.00 0.00 0.00 0.00 0.00 0.00 0.00 0.00 0.00 0.00 0.00 0.00 0.00 0.00 0.00 0.00 0.01 0.01 0.07 0.12 0.13 0.15 0.14
0.00 0.00 0.00 0.00 0.00 0.00 0.00 0.00 0.00 0.00 0.00 0.00 0.00 0.00 0.00 0.00 0.00 0.00 0.00 0.00 0.00 0.00 0.00 0.00 0.00 0.00 0.00 0.00 0.00 0.00 0.00 0.00 0.00 0.00 0.00 0.00 0.00 0.00 0.03 0.03 0.05 0.09 0.13
0.00 0.00 0.00 0.00 0.00 0.00 0.00 0.00 0.00 0.00 0.00 0.00 0.00 0.00 0.00 0.00 0.00 0.00 0.00 0.00 0.00 0.00 0.00 0.00 0.00 0.00 0.00 0.00 0.00 0.00 0.00 0.00 0.00 0.00 0.00 0.00 0.00 0.00 0.01 0.01 0.01 0.01 0.03
0.00 0.00 0.00 0.00 0.00 0.00 0.00 0.00 0.00 0.00 0.00 0.00 0.00 0.00 0.00 0.00 0.00 0.00 0.00 0.00 0.01 0.00 0.00 0.00 0.00 0.00 0.00 0.00 0.00 0.00 0.00 0.00 0.00 0.00 0.00 0.00 0.00 0.00 0.00 0.01 0.02 0.03 0.05
0.00 0.00 0.00 0.00 0.00 0.00 0.00 0.00 0.00 0.00 0.00 0.00 0.00 0.00 0.00 0.00 0.00 0.00 0.00 0.00 0.00 0.00 0.00 0.00 0.00 0.00 0.00 0.00 0.00 0.00 0.00 0.00 0.00 0.00 0.00 0.00 0.00 0.00 0.00 0.00 0.00 0.01 0.03
0.00 0.00 0.00 0.00 0.00 0.00 0.00 0.00 0.00 0.00 0.00 0.00 0.00 0.00 0.00 0.00 0.00 0.00 0.00 0.00 0.00 0.00 0.00 0.00 0.00 0.00 0.00 0.00 0.00 0.00 0.00 0.00 0.00 0.00 0.00 0.00 0.00 0.00 0.00 0.00 0.00 0.00 0.00
0.00 0.00 0.00 0.00 0.00 0.00 0.00 0.00 0.00 0.00 0.00 0.00 0.00 0.00 0.00 0.00 0.00 0.00 0.00 0.00 0.00 0.00 0.00 0.00 0.00 0.00 0.00 0.00 0.00 0.00 0.00 0.00 0.00 0.00 0.00 0.00 0.00 0.00 0.00 0.00 0.00 0.00 0.00
0.00 0.00 0.00 0.00 0.01 0.06 0.02 0.00 0.00 0.00 0.00 0.00 0.00 0.00 0.00 0.00 0.00 0.00 0.00 0.00 0.00 0.00 0.00 0.00 0.00 0.00 0.00 0.00 0.00 0.00 0.00 0.00 0.00 0.00 0.00 0.00 0.00 0.00 0.00 0.00 0.00 0.00 0.00
0.00 0.00 0.00 0.03 0.18 0.24 0.18 0.02 0.00 0.00 0.00 0.00 0.00 0.00 0.00 0.00 0.00 0.00 0.00 0.00 0.00 0.00 0.00 0.00 0.00 0.00 0.00 0.00 0.00 0.00 0.00 0.00 0.00 0.00 0.00 0.00 0.00 0.00 0.00 0.00 0.00 0.00 0.00
0.00 0.00 0.08 0.22 0.23 0.39 0.30 0.10 0.03 0.00 0.00 0.00 0.00 0.00 0.00 0.00 0.00 0.00 0.00 0.00 0.00 0.00 0.00 0.00 0.00 0.00 0.00 0.00 0.00 0.00 0.00 0.00 0.00 0.00 0.00 0.00 0.00 0.00 0.00 0.00 0.00 0.00 0.00
0.00 0.03 0.23 0.39 0.41 0.38 0.33 0.16 0.04 0.01 0.00 0.00 0.00 0.00 0.00 0.00 0.00 0.00 0.00 0.00 0.00 0.00 0.00 0.00 0.00 0.00 0.00 0.00 0.00 0.00 0.00 0.00 0.00 0.00 0.00 0.00 0.00 0.00 0.00 0.00 0.00 0.00 0.00
0.06 0.18 0.30 0.34 0.35 0.21 0.13 0.07 0.02 0.01 0.01 0.00 0.00 0.00 0.00 0.00 0.00 0.00 0.00 0.00 0.00 0.00 0.00 0.00 0.00 0.00 0.00 0.00 0.01 0.00 0.00 0.00 0.00 0.00 0.00 0.00 0.00 0.00 0.00 0.00 0.00 0.00 0.00
0.15 0.16 0.09 0.04 0.01 0.01 0.00 0.00 0.00 0.00 0.00 0.00 0.00 0.00 0.00 0.00 0.00 0.00 0.00 0.00 0.00 0.00 0.00 0.00 0.00 0.00 0.00 0.00 0.01 0.01 0.00 0.00 0.00 0.00 0.00 0.00 0.00 0.01 0.01 0.01 0.00 0.00 0.00
0.04 0.01 0.00 0.00 0.00 0.00 0.00 0.00 0.00 0.00 0.00 0.00 0.00 0.00 0.00 0.00 0.00 0.00 0.00 0.00 0.00 0.00 0.00 0.00 0.00 0.00 0.00 0.00 0.00 0.02 0.02 0.01 0.01 0.00 0.00 0.02 0.02 0.02 0.02 0.02 0.02 0.00 0.00
0.00 0.00 0.00 0.00 0.00 0.00 0.00 0.00 0.00 0.00 0.00 0.00 0.00 0.00 0.00 0.00 0.00 0.00 0.00 0.00 0.00 0.00 0.00 0.00 0.00 0.00 0.00 0.00 0.00 0.00 0.02 0.05 0.04 0.03 0.00 0.00 0.03 0.05 0.07 0.09 0.10 0.10 0.06
0.00 0.00 0.00 0.00 0.00 0.00 0.00 0.00 0.00 0.00 0.00 0.00 0.00 0.00 0.00 0.00 0.00 0.00 0.00 0.00 0.00 0.00 0.00 0.00 0.00 0.00 0.00 0.00 0.00 0.00 0.01 0.01 0.01 0.03 0.01 0.01 0.03 0.05 0.04 0.07 0.10 0.15 0.20
0.00 0.00 0.00 0.00 0.00 0.00 0.00 0.00 0.00 0.00 0.00 0.00 0.00 0.00 0.00 0.00 0.00 0.00 0.00 0.00 0.00 0.00 0.00 0.00 0.00 0.00 0.00 0.00 0.00 0.00 0.00 0.00 0.00 0.01 0.02 0.00 0.03 0.07 0.04 0.06 0.07 0.09 0.14

GFSSE_prec_precacc24_045.txt.gz
Total_Precipitation_Accumulation
0.00 0.00 0.00 0.01 0.01 0.01 0.00 0.00 0.00 0.00 0.01 0.00 0.02 0.02 0.02 0.01 0.01 0.02 0.05 0.08 0.11 0.07 0.06 0.02 0.00 0.00 0.00 0.00 0.00 0.00 0.00 0.00 0.00 0.00 0.00 0.01 0.06 0.01 0.01 0.08 0.03 0.09 0.14
0.00 0.00 0.00 0.02 0.01 0.01 0.01 0.01 0.01 0.00 0.01 0.02 0.06 0.05 0.03 0.02 0.02 0.03 0.04 0.05 0.06 0.03 0.00 0.01 0.00 0.00 0.00 0.00 0.00 0.00 0.00 0.00 0.00 0.00 0.00 0.01 0.06 0.08 0.03 0.05 0.04 0.07 0.06
0.00 0.00 0.00 0.00 0.00 0.00 0.02 0.03 0.01 0.01 0.01 0.02 0.04 0.05 0.05 0.05 0.02 0.00 0.00 0.00 0.00 0.00 0.00 0.00 0.00 0.03 0.01 0.00 0.00 0.00 0.00 0.00 0.00 0.00 0.00 0.12 0.21 0.12 0.11 0.07 0.07 0.09 0.07
0.00 0.00 0.00 0.00 0.00 0.00 0.00 0.00 0.00 0.00 0.01 0.01 0.02 0.03 0.04 0.03 0.00 0.00 0.00 0.00 0.00 0.00 0.01 0.00 0.00 0.02 0.01 0.00 0.01 0.00 0.00 0.01 0.00 0.00 0.01 0.12 0.21 0.14 0.10 0.06 0.08 0.08 0.06
0.00 0.00 0.00 0.00 0.00 0.00 0.00 0.00 0.00 0.00 0.00 0.00 0.01 0.01 0.00 0.01 0.02 0.01 0.03 0.01 0.01 0.04 0.05 0.01 0.02 0.00 0.01 0.00 0.01 0.01 0.02 0.01 0.00 0.00 0.01 0.03 0.12 0.17 0.11 0.08 0.05 0.06 0.02
0.00 0.00 0.00 0.00 0.00 0.00 0.00 0.00 0.00 0.00 0.00 0.00 0.00 0.00 0.00 0.00 0.00 0.00 0.02 0.02 0.00 0.01 0.08 0.07 0.03 0.00 0.00 0.00 0.00 0.00 0.00 0.00 0.00 0.00 0.01 0.03 0.10 0.18 0.11 0.08 0.04 0.03 0.03
0.00 0.00 0.00 0.00 0.00 0.00 0.00 0.00 0.00 0.00 0.00 0.00 0.00 0.00 0.00 0.00 0.00 0.00 0.00 0.00 0.00 0.00 0.00 0.01 0.00 0.00 0.00 0.00 0.00 0.00 0.00 0.00 0.00 0.00 0.01 0.01 0.09 0.13 0.10 0.11 0.09 0.04 0.04
0.00 0.00 0.00 0.00 0.00 0.00 0.00 0.00 0.00 0.00 0.00 0.00 0.00 0.00 0.00 0.00 0.00 0.00 0.00 0.00 0.00 0.00 0.00 0.00 0.00 0.00 0.00 0.00 0.00 0.00 0.00 0.00 0.00 0.00 0.00 0.01 0.03 0.05 0.05 0.07 0.08 0.05 0.05
0.00 0.00 0.00 0.00 0.00 0.00 0.00 0.00 0.00 0.00 0.00 0.00 0.00 0.00 0.00 0.00 0.00 0.00 0.00 0.00 0.00 0.00 0.00 0.00 0.00 0.00 0.00 0.00 0.00 0.00 0.00 0.00 0.00 0.00 0.00 0.00 0.00 0.03 0.12 0.10 0.10 0.09 0.06
0.00 0.00 0.00 0.00 0.00 0.00 0.00 0.00 0.00 0.00 0.00 0.00 0.00 0.00 0.00 0.00 0.00 0.00 0.00 0.00 0.00 0.00 0.00 0.00 0.00 0.00 0.00 0.00 0.00 0.00 0.00 0.00 0.00 0.00 0.00 0.00 0.00 0.00 0.06 0.07 0.09 0.09 0.09
0.00 0.00 0.00 0.00 0.00 0.00 0.00 0.00 0.00 0.00 0.00 0.00 0.00 0.00 0.00 0.00 0.00 0.00 0.00 0.00 0.00 0.00 0.00 0.00 0.00 0.00 0.00 0.00 0.00 0.00 0.00 0.00 0.00 0.00 0.00 0.00 0.00 0.00 0.00 0.01 0.00 0.01 0.04
0.00 0.00 0.00 0.00 0.00 0.00 0.00 0.00 0.00 0.00 0.00 0.00 0.00 0.00 0.00 0.00 0.00 0.00 0.00 0.00 0.00 0.00 0.00 0.00 0.00 0.00 0.00 0.00 0.00 0.00 0.00 0.00 0.00 0.00 0.00 0.00 0.00 0.00 0.00 0.00 0.00 0.00 0.00
0.00 0.00 0.00 0.00 0.00 0.00 0.00 0.00 0.00 0.00 0.00 0.00 0.00 0.00 0.00 0.00 0.00 0.00 0.00 0.00 0.01 0.00 0.00 0.00 0.00 0.00 0.00 0.00 0.00 0.00 0.00 0.00 0.00 0.00 0.00 0.00 0.00 0.00 0.00 0.00 0.00 0.00 0.00
0.00 0.00 0.00 0.00 0.00 0.00 0.00 0.00 0.00 0.00 0.00 0.00 0.00 0.00 0.00 0.00 0.00 0.00 0.00 0.00 0.00 0.00 0.00 0.00 0.00 0.00 0.00 0.00 0.00 0.00 0.00 0.00 0.00 0.00 0.00 0.00 0.00 0.00 0.00 0.00 0.00 0.00 0.00
0.00 0.00 0.00 0.00 0.00 0.00 0.00 0.00 0.00 0.00 0.00 0.00 0.00 0.00 0.00 0.00 0.00 0.00 0.00 0.00 0.00 0.00 0.00 0.00 0.00 0.00 0.00 0.00 0.00 0.00 0.00 0.00 0.00 0.00 0.00 0.00 0.00 0.00 0.00 0.00 0.00 0.00 0.00
0.00 0.00 0.00 0.00 0.00 0.00 0.00 0.00 0.00 0.01 0.01 0.03 0.04 0.06 0.07 0.03 0.03 0.00 0.00 0.00 0.00 0.00 0.00 0.00 0.00 0.00 0.00 0.00 0.00 0.00 0.00 0.00 0.00 0.00 0.00 0.00 0.00 0.00 0.00 0.00 0.00 0.00 0.00
0.00 0.00 0.00 0.00 0.01 0.06 0.02 0.00 0.00 0.00 0.01 0.03 0.07 0.08 0.09 0.08 0.04 0.01 0.00 0.00 0.00 0.00 0.00 0.00 0.00 0.00 0.00 0.00 0.00 0.00 0.00 0.00 0.00 0.00 0.00 0.00 0.00 0.00 0.00 0.00 0.00 0.00 0.00
0.00 0.00 0.03 0.16 0.26 0.27 0.19 0.02 0.01 0.01 0.01 0.07 0.09 0.07 0.09 0.07 0.03 0.00 0.00 0.00 0.00 0.00 0.00 0.00 0.00 0.00 0.00 0.00 0.00 0.00 0.00 0.00 0.00 0.00 0.00 0.00 0.00 0.00 0.00 0.00 0.00 0.00 0.00
0.00 0.01 0.21 0.49 0.49 0.53 0.49 0.42 0.37 0.14 0.05 0.07 0.04 0.01 0.00 0.00 0.00 0.00 0.00 0.00 0.00 0.00 0.00 0.00 0.00 0.00 0.00 0.00 0.00 0.00 0.00 0.00 0.00 0.00 0.00 0.00 0.00 0.00 0.00 0.00 0.00 0.00 0.00
0.01 0.06 0.42 0.67 0.69 0.88 1.09 0.67 0.35 0.11 0.03 0.00 0.00 0.00 0.00 0.00 0.00 0.00 0.00 0.00 0.00 0.00 0.00 0.00 0.00 0.00 0.00 0.00 0.00 0.00 0.00 0.00 0.00 0.00 0.00 0.00 0.00 0.00 0.00 0.00 0.00 0.00 0.00
0.07 0.27 0.61 0.78 0.90 0.68 0.37 0.16 0.04 0.01 0.01 0.00 0.00 0.00 0.00 0.00 0.00 0.00 0.00 0.00 0.00 0.00 0.00 0.00 0.00 0.00 0.00 0.00 0.01 0.00 0.00 0.00 0.00 0.00 0.00 0.00 0.00 0.00 0.00 0.00 0.00 0.00 0.00
0.26 0.34 0.26 0.17 0.08 0.02 0.00 0.00 0.00 0.00 0.00 0.00 0.00 0.00 0.00 0.00 0.00 0.00 0.00 0.00 0.00 0.00 0.00 0.00 0.00 0.00 0.00 0.00 0.01 0.01 0.00 0.00 0.00 0.00 0.00 0.00 0.00 0.01 0.01 0.01 0.00 0.00 0.00
0.11 0.03 0.00 0.00 0.00 0.00 0.00 0.00 0.00 0.00 0.00 0.00 0.00 0.00 0.00 0.00 0.00 0.00 0.00 0.00 0.00 0.00 0.00 0.00 0.00 0.00 0.00 0.00 0.00 0.02 0.02 0.01 0.01 0.00 0.00 0.02 0.02 0.02 0.02 0.02 0.02 0.00 0.00
0.00 0.00 0.00 0.00 0.00 0.00 0.00 0.00 0.00 0.00 0.00 0.00 0.00 0.00 0.00 0.00 0.00 0.00 0.00 0.00 0.00 0.00 0.00 0.00 0.00 0.00 0.00 0.00 0.00 0.00 0.02 0.05 0.05 0.03 0.00 0.00 0.03 0.05 0.07 0.09 0.10 0.10 0.06
0.00 0.00 0.00 0.00 0.00 0.00 0.00 0.00 0.00 0.00 0.00 0.00 0.00 0.00 0.00 0.00 0.00 0.00 0.00 0.00 0.00 0.00 0.00 0.00 0.00 0.00 0.00 0.00 0.00 0.00 0.01 0.01 0.01 0.03 0.01 0.01 0.03 0.05 0.04 0.07 0.10 0.15 0.20
0.00 0.00 0.00 0.00 0.00 0.00 0.00 0.00 0.00 0.00 0.00 0.00 0.00 0.00 0.00 0.00 0.00 0.00 0.00 0.00 0.00 0.00 0.00 0.00 0.00 0.00 0.00 0.00 0.00 0.00 0.00 0.00 0.00 0.01 0.02 0.02 0.03 0.07 0.04 0.06 0.07 0.09 0.14

GFSSE_prec_precacc24_048.txt.gz
Total_Precipitation_Accumulation
0.00 0.00 0.01 0.01 0.01 0.00 0.00 0.00 0.00 0.00 0.00 0.00 0.01 0.01 0.01 0.00 0.00 0.02 0.05 0.09 0.10 0.06 0.01 0.00 0.00 0.00 0.00 0.00 0.00 0.00 0.00 0.00 0.00 0.00 0.00 0.01 0.06 0.01 0.01 0.07 0.02 0.06 0.12
0.00 0.00 0.02 0.03 0.00 0.00 0.00 0.00 0.00 0.00 0.00 0.01 0.03 0.03 0.02 0.02 0.02 0.03 0.04 0.05 0.06 0.03 0.00 0.00 0.00 0.00 0.00 0.00 0.00 0.00 0.00 0.00 0.00 0.00 0.00 0.01 0.06 0.08 0.03 0.05 0.04 0.05 0.04
0.00 0.00 0.01 0.01 0.00 0.00 0.00 0.01 0.01 0.01 0.01 0.01 0.02 0.03 0.04 0.05 0.02 0.00 0.00 0.00 0.00 0.00 0.00 0.00 0.00 0.00 0.00 0.00 0.00 0.00 0.00 0.00 0.00 0.00 0.00 0.12 0.21 0.12 0.11 0.07 0.08 0.08 0.05
0.00 0.00 0.00 0.00 0.00 0.00 0.00 0.00 0.00 0.00 0.00 0.00 0.00 0.00 0.02 0.03 0.00 0.00 0.00 0.00 0.00 0.00 0.01 0.00 0.00 0.00 0.00 0.00 0.01 0.00 0.00 0.00 0.00 0.00 0.01 0.12 0.21 0.14 0.11 0.06 0.08 0.08 0.04
0.01 0.00 0.00 0.00 0.00 0.00 0.00 0.00 0.00 0.00 0.00 0.00 0.00 0.00 0.00 0.00 0.00 0.00 0.00 0.00 0.01 0.04 0.05 0.01 0.01 0.00 0.01 0.00 0.00 0.00 0.00 0.00 0.00 0.00 0.01 0.03 0.13 0.19 0.12 0.08 0.05 0.05 0.01
0.00 0.00 0.00 0.00 0.01 0.00 0.00 0.00 0.00 0.00 0.00 0.00 0.00 0.00 0.00 0.00 0.00 0.00 0.00 0.00 0.00 0.00 0.02 0.01 0.00 0.00 0.00 0.00 0.00 0.00 0.00 0.00 0.00 0.00 0.01 0.03 0.12 0.20 0.12 0.06 0.03 0.02 0.02
0.00 0.01 0.00 0.01 0.01 0.00 0.00 0.00 0.00 0.00 0.00 0.00 0.00 0.00 0.00 0.00 0.00 0.00 0.00 0.00 0.00 0.00 0.00 0.00 0.00 0.00 0.00 0.00 0.00 0.00 0.00 0.00 0.00 0.00 0.01 0.01 0.07 0.12 0.08 0.05 0.06 0.03 0.03
0.00 0.00 0.00 0.00 0.00 0.00 0.00 0.00 0.00 0.00 0.00 0.00 0.00 0.00 0.00 0.00 0.00 0.00 0.00 0.00 0.00 0.00 0.00 0.00 0.00 0.00 0.00 0.00 0.00 0.00 0.00 0.00 0.00 0.00 0.00 0.01 0.02 0.05 0.05 0.04 0.06 0.05 0.05
0.00 0.00 0.00 0.00 0.00 0.00 0.00 0.00 0.00 0.00 0.00 0.00 0.00 0.00 0.00 0.00 0.00 0.00 0.00 0.00 0.00 0.00 0.00 0.00 0.00 0.00 0.00 0.00 0.00 0.00 0.00 0.00 0.00 0.00 0.00 0.00 0.00 0.02 0.04 0.06 0.09 0.09 0.05
0.00 0.00 0.00 0.00 0.00 0.00 0.00 0.00 0.00 0.00 0.00 0.00 0.00 0.00 0.00 0.00 0.00 0.00 0.00 0.00 0.00 0.00 0.00 0.00 0.00 0.00 0.00 0.00 0.00 0.00 0.00 0.00 0.00 0.00 0.00 0.00 0.00 0.00 0.04 0.02 0.06 0.07 0.06
0.00 0.00 0.00 0.00 0.00 0.00 0.00 0.00 0.00 0.00 0.00 0.00 0.00 0.00 0.00 0.00 0.00 0.00 0.00 0.00 0.00 0.00 0.00 0.00 0.00 0.00 0.00 0.00 0.00 0.00 0.00 0.00 0.00 0.00 0.00 0.00 0.00 0.00 0.00 0.01 0.00 0.00 0.03
0.00 0.00 0.00 0.00 0.00 0.00 0.00 0.00 0.00 0.00 0.00 0.00 0.00 0.00 0.00 0.00 0.00 0.00 0.00 0.00 0.00 0.00 0.00 0.00 0.00 0.00 0.00 0.00 0.00 0.00 0.00 0.00 0.00 0.00 0.00 0.00 0.00 0.00 0.00 0.00 0.00 0.00 0.00
0.00 0.00 0.00 0.00 0.00 0.00 0.00 0.00 0.00 0.00 0.00 0.00 0.00 0.00 0.00 0.00 0.00 0.01 0.01 0.00 0.01 0.00 0.00 0.00 0.00 0.00 0.00 0.00 0.00 0.00 0.00 0.00 0.00 0.00 0.00 0.00 0.00 0.00 0.00 0.00 0.00 0.00 0.00
0.00 0.00 0.00 0.00 0.00 0.00 0.00 0.00 0.00 0.00 0.00 0.00 0.00 0.00 0.00 0.05 0.06 0.04 0.02 0.01 0.00 0.00 0.00 0.00 0.00 0.00 0.00 0.00 0.00 0.00 0.00 0.00 0.00 0.00 0.00 0.00 0.00 0.00 0.00 0.00 0.00 0.00 0.00
0.00 0.00 0.00 0.00 0.00 0.00 0.00 0.00 0.00 0.00 0.00 0.00 0.00 0.00 0.00 0.02 0.04 0.02 0.01 0.00 0.00 0.00 0.00 0.00 0.00 0.00 0.00 0.00 0.00 0.00 0.00 0.00 0.00 0.00 0.00 0.00 0.00 0.00 0.00 0.00 0.00 0.00 0.00
0.00 0.00 0.00 0.00 0.00 0.00 0.00 0.00 0.00 0.01 0.01 0.04 0.04 0.06 0.09 0.09 0.10 0.04 0.01 0.00 0.00 0.00 0.00 0.00 0.00 0.00 0.00 0.00 0.00 0.00 0.00 0.00 0.00 0.00 0.00 0.00 0.00 0.00 0.00 0.00 0.00 0.00 0.00
0.00 0.00 0.00 0.01 0.01 0.06 0.02 0.00 0.00 0.00 0.01 0.03 0.08 0.08 0.10 0.14 0.12 0.07 0.02 0.00 0.00 0.00 0.00 0.00 0.00 0.00 0.00 0.00 0.00 0.00 0.00 0.00 0.00 0.00 0.00 0.00 0.00 0.00 0.00 0.00 0.00 0.00 0.00
0.00 0.00 0.04 0.21 0.35 0.31 0.21 0.03 0.01 0.01 0.03 0.09 0.09 0.08 0.11 0.11 0.07 0.02 0.00 0.01 0.00 0.00 0.00 0.00 0.00 0.00 0.00 0.00 0.00 0.00 0.00 0.00 0.00 0.00 0.00 0.00 0.00 0.00 0.00 0.00 0.00 0.00 0.00
0.00 0.01 0.21 0.51 0.62 0.73 0.56 0.47 0.47 0.35 0.16 0.08 0.04 0.01 0.01 0.01 0.00 0.00 0.00 0.00 0.00 0.00 0.00 0.00 0.00 0.00 0.00 0.00 0.00 0.00 0.00 0.00 0.00 0.00 0.00 0.00 0.00 0.00 0.00 0.00 0.00 0.00 0.00
0.01 0.06 0.42 0.68 0.76 1.03 1.53 1.31 0.62 0.15 0.03 0.00 0.00 0.00 0.00 0.00 0.00 0.00 0.00 0.00 0.00 0.00 0.00 0.00 0.00 0.00 0.00 0.00 0.00 0.00 0.00 0.00 0.00 0.00 0.00 0.00 0.00 0.00 0.00 0.00 0.00 0.00 0.00
0.08 0.27 0.62 0.80 0.98 0.87 0.59 0.20 0.04 0.01 0.01 0.00 0.00 0.00 0.00 0.00 0.00 0.00 0.00 0.00 0.00 0.00 0.00 0.00 0.00 0.00 0.00 0.00 0.01 0.00 0.00 0.00 0.00 0.00 0.00 0.00 0.00 0.00 0.00 0.00 0.00 0.00 0.00
0.26 0.34 0.26 0.18 0.08 0.02 0.00 0.00 0.00 0.00 0.00 0.00 0.00 0.00 0.00 0.00 0.00 0.00 0.00 0.00 0.00 0.00 0.00 0.00 0.00 0.00 0.00 0.00 0.01 0.01 0.00 0.00 0.00 0.00 0.00 0.00 0.00 0.01 0.01 0.01 0.00 0.00 0.00
0.11 0.03 0.00 0.00 0.00 0.00 0.00 0.00 0.00 0.00 0.00 0.00 0.00 0.00 0.00 0.00 0.00 0.00 0.00 0.00 0.00 0.00 0.00 0.00 0.00 0.00 0.00 0.00 0.00 0.02 0.02 0.01 0.01 0.00 0.00 0.02 0.02 0.02 0.02 0.02 0.02 0.00 0.00
0.00 0.00 0.00 0.00 0.00 0.00 0.00 0.00 0.00 0.00 0.00 0.00 0.00 0.00 0.00 0.00 0.00 0.00 0.00 0.00 0.00 0.00 0.00 0.00 0.00 0.00 0.00 0.00 0.00 0.00 0.02 0.05 0.05 0.03 0.00 0.00 0.03 0.05 0.07 0.09 0.10 0.10 0.06
0.00 0.00 0.00 0.00 0.00 0.00 0.00 0.00 0.00 0.00 0.00 0.00 0.00 0.00 0.00 0.00 0.00 0.00 0.00 0.00 0.00 0.00 0.00 0.00 0.00 0.00 0.00 0.00 0.00 0.00 0.01 0.01 0.01 0.04 0.02 0.01 0.03 0.05 0.04 0.07 0.10 0.15 0.20
0.00 0.00 0.00 0.00 0.00 0.00 0.00 0.00 0.00 0.00 0.00 0.00 0.00 0.00 0.00 0.00 0.00 0.00 0.00 0.00 0.00 0.00 0.00 0.00 0.00 0.00 0.00 0.00 0.00 0.01 0.01 0.01 0.01 0.03 0.06 0.04 0.04 0.07 0.04 0.06 0.07 0.09 0.14

GFSSE_prec_precacc24_051.txt.gz
Total_Precipitation_Accumulation
0.00 0.00 0.01 0.01 0.01 0.00 0.00 0.00 0.00 0.00 0.00 0.00 0.00 0.01 0.01 0.00 0.00 0.01 0.03 0.07 0.08 0.04 0.01 0.00 0.00 0.00 0.00 0.00 0.00 0.00 0.00 0.00 0.00 0.00 0.00 0.01 0.06 0.01 0.01 0.07 0.03 0.02 0.05
0.00 0.01 0.02 0.03 0.00 0.00 0.00 0.00 0.00 0.00 0.00 0.00 0.00 0.01 0.01 0.00 0.00 0.00 0.01 0.02 0.03 0.00 0.00 0.00 0.00 0.00 0.00 0.00 0.00 0.00 0.00 0.00 0.00 0.00 0.00 0.01 0.06 0.08 0.03 0.05 0.03 0.03 0.03
0.01 0.02 0.01 0.01 0.00 0.00 0.00 0.00 0.00 0.00 0.00 0.00 0.00 0.00 0.00 0.00 0.00 0.00 0.00 0.00 0.00 0.00 0.00 0.00 0.00 0.00 0.00 0.00 0.00 0.00 0.00 0.00 0.00 0.00 0.00 0.11 0.19 0.12 0.11 0.08 0.08 0.08 0.05
0.01 0.01 0.01 0.00 0.00 0.00 0.00 0.01 0.00 0.01 0.01 0.00 0.00 0.00 0.00 0.00 0.00 0.00 0.00 0.00 0.00 0.00 0.01 0.00 0.00 0.00 0.00 0.00 0.00 0.00 0.00 0.00 0.00 0.00 0.01 0.12 0.20 0.14 0.11 0.06 0.09 0.08 0.04
0.04 0.05 0.02 0.00 0.00 0.00 0.00 0.00 0.01 0.02 0.01 0.00 0.00 0.00 0.00 0.00 0.00 0.00 0.00 0.00 0.01 0.03 0.05 0.00 0.00 0.00 0.00 0.00 0.00 0.00 0.00 0.00 0.00 0.00 0.00 0.02 0.13 0.16 0.13 0.08 0.05 0.05 0.01
0.09 0.08 0.00 0.00 0.01 0.01 0.01 0.01 0.02 0.01 0.00 0.00 0.00 0.00 0.00 0.00 0.00 0.00 0.00 0.00 0.00 0.00 0.02 0.00 0.00 0.00 0.00 0.00 0.00 0.00 0.00 0.00 0.00 0.00 0.00 0.02 0.10 0.19 0.13 0.06 0.03 0.02 0.01
0.12 0.07 0.00 0.01 0.02 0.02 0.02 0.02 0.00 0.00 0.00 0.00 0.00 0.00 0.00 0.00 0.00 0.00 0.00 0.00 0.00 0.00 0.00 0.00 0.00 0.00 0.00 0.00 0.00 0.00 0.00 0.00 0.00 0.00 0.00 0.00 0.02 0.10 0.08 0.05 0.05 0.03 0.03
0.10 0.04 0.01 0.01 0.04 0.03 0.02 0.00 0.00 0.00 0.00 0.00 0.00 0.00 0.00 0.00 0.00 0.00 0.00 0.00 0.00 0.00 0.00 0.00 0.00 0.00 0.00 0.00 0.00 0.00 0.00 0.00 0.00 0.00 0.00 0.00 0.01 0.04 0.05 0.04 0.04 0.03 0.04
0.01 0.00 0.00 0.01 0.02 0.01 0.00 0.00 0.00 0.00 0.00 0.00 0.00 0.00 0.00 0.00 0.00 0.00 0.00 0.00 0.00 0.00 0.00 0.00 0.00 0.00 0.00 0.00 0.00 0.00 0.00 0.00 0.00 0.00 0.00 0.00 0.00 0.02 0.03 0.01 0.02 0.04 0.03
0.02 0.00 0.00 0.00 0.00 0.00 0.00 0.00 0.00 0.00 0.00 0.00 0.00 0.00 0.00 0.00 0.00 0.00 0.00 0.00 0.00 0.00 0.00 0.00 0.00 0.00 0.00 0.00 0.00 0.00 0.00 0.00 0.00 0.00 0.00 0.00 0.00 0.00 0.03 0.01 0.01 0.01 0.04
0.11 0.00 0.00 0.00 0.00 0.00 0.00 0.00 0.00 0.00 0.00 0.00 0.00 0.00 0.00 0.00 0.00 0.00 0.00 0.00 0.00 0.00 0.00 0.00 0.00 0.00 0.00 0.00 0.00 0.00 0.00 0.00 0.00 0.00 0.00 0.00 0.00 0.00 0.00 0.01 0.00 0.00 0.00
0.01 0.00 0.00 0.00 0.00 0.00 0.00 0.00 0.00 0.00 0.00 0.00 0.00 0.00 0.00 0.00 0.00 0.00 0.00 0.00 0.00 0.00 0.00 0.00 0.00 0.00 0.00 0.00 0.00 0.00 0.00 0.00 0.00 0.00 0.00 0.00 0.00 0.00 0.00 0.00 0.00 0.00 0.00
0.00 0.00 0.00 0.00 0.00 0.00 0.00 0.00 0.00 0.00 0.00 0.00 0.00 0.00 0.00 0.00 0.01 0.01 0.02 0.00 0.01 0.00 0.00 0.00 0.00 0.00 0.00 0.00 0.00 0.00 0.00 0.00 0.00 0.00 0.00 0.00 0.00 0.00 0.00 0.00 0.00 0.00 0.00
0.00 0.00 0.00 0.00 0.00 0.00 0.00 0.00 0.00 0.00 0.00 0.00 0.00 0.00 0.02 0.09 0.11 0.06 0.03 0.01 0.00 0.00 0.00 0.00 0.00 0.00 0.00 0.00 0.00 0.00 0.00 0.00 0.00 0.00 0.00 0.00 0.00 0.00 0.00 0.00 0.00 0.00 0.00
0.00 0.00 0.00 0.00 0.00 0.00 0.00 0.00 0.00 0.00 0.02 0.03 0.04 0.09 0.16 0.28 0.28 0.17 0.09 0.00 0.00 0.00 0.00 0.00 0.00 0.00 0.00 0.00 0.00 0.00 0.00 0.00 0.00 0.00 0.00 0.00 0.00 0.00 0.00 0.00 0.00 0.00 0.00
0.00 0.00 0.00 0.00 0.00 0.00 0.00 0.01 0.03 0.04 0.05 0.08 0.10 0.14 0.13 0.14 0.12 0.05 0.01 0.00 0.00 0.00 0.00 0.00 0.00 0.00 0.00 0.00 0.00 0.00 0.00 0.00 0.00 0.00 0.00 0.00 0.00 0.00 0.00 0.00 0.00 0.00 0.00
0.00 0.00 0.00 0.01 0.01 0.06 0.02 0.00 0.00 0.00 0.01 0.03 0.08 0.08 0.10 0.14 0.12 0.07 0.02 0.01 0.01 0.00 0.00 0.00 0.00 0.00 0.00 0.00 0.00 0.00 0.00 0.00 0.00 0.00 0.00 0.00 0.00 0.00 0.00 0.00 0.00 0.00 0.00
0.00 0.00 0.04 0.21 0.35 0.32 0.22 0.03 0.01 0.01 0.04 0.11 0.10 0.08 0.11 0.11 0.07 0.02 0.00 0.01 0.00 0.00 0.00 0.00 0.00 0.00 0.00 0.00 0.00 0.00 0.00 0.00 0.00 0.00 0.00 0.00 0.00 0.00 0.00 0.00 0.00 0.00 0.00
0.00 0.01 0.21 0.51 0.65 0.85 0.61 0.52 0.64 0.59 0.32 0.17 0.05 0.02 0.02 0.01 0.00 0.00 0.00 0.00 0.00 0.00 0.00 0.00 0.00 0.00 0.00 0.00 0.00 0.00 0.00 0.00 0.00 0.00 0.00 0.00 0.00 0.00 0.00 0.00 0.00 0.00 0.00
0.01 0.06 0.42 0.68 0.77 1.08 1.62 1.48 0.85 0.26 0.08 0.02 0.00 0.00 0.00 0.00 0.00 0.00 0.00 0.00 0.00 0.00 0.00 0.00 0.00 0.00 0.00 0.00 0.00 0.00 0.00 0.00 0.00 0.00 0.00 0.00 0.00 0.00 0.00 0.00 0.00 0.00 0.00
0.08 0.27 0.62 0.80 0.99 0.90 0.61 0.22 0.05 0.01 0.01 0.00 0.00 0.00 0.00 0.00 0.00 0.00 0.00 0.00 0.00 0.00 0.00 0.00 0.00 0.00 0.00 0.00 0.00 0.00 0.00 0.00 0.00 0.00 0.00 0.00 0.00 0.00 0.00 0.00 0.00 0.00 0.00
0.26 0.34 0.27 0.18 0.09 0.02 0.00 0.00 0.00 0.00 0.00 0.00 0.00 0.00 0.00 0.00 0.00 0.00 0.00 0.00 0.00 0.00 0.00 0.00 0.00 0.00 0.00 0.00 0.00 0.00 0.00 0.00 0.00 0.00 0.00 0.00 0.00 0.01 0.01 0.01 0.00 0.00 0.00
0.12 0.04 0.00 0.00 0.00 0.00 0.00 0.00 0.00 0.00 0.00 0.00 0.00 0.00 0.00 0.00 0.00 0.00 0.00 0.00 0.00 0.00 0.00 0.00 0.00 0.00 0.00 0.00 0.00 0.01 0.01 0.01 0.00 0.00 0.00 0.02 0.02 0.02 0.02 0.02 0.02 0.00 0.00
0.00 0.00 0.00 0.00 0.00 0.00 0.00 0.00 0.00 0.00 0.00 0.00 0.00 0.00 0.00 0.00 0.00 0.00 0.00 0.00 0.00 0.00 0.00 0.00 0.00 0.00 0.00 0.00 0.00 0.00 0.01 0.03 0.03 0.02 0.00 0.00 0.03 0.05 0.07 0.09 0.10 0.10 0.06
0.00 0.00 0.00 0.00 0.00 0.00 0.00 0.00 0.00 0.00 0.00 0.00 0.00 0.00 0.00 0.00 0.00 0.00 0.00 0.00 0.00 0.00 0.00 0.00 0.00 0.00 0.00 0.00 0.00 0.00 0.00 0.00 0.01 0.04 0.03 0.01 0.01 0.04 0.04 0.07 0.10 0.15 0.20
0.00 0.00 0.00 0.00 0.00 0.00 0.00 0.00 0.00 0.00 0.00 0.00 0.00 0.00 0.00 0.00 0.00 0.00 0.00 0.00 0.00 0.00 0.00 0.00 0.00 0.00 0.00 0.00 0.01 0.02 0.04 0.05 0.05 0.08 0.11 0.07 0.02 0.01 0.02 0.05 0.07 0.09 0.14

GFSSE_prec_precacc24_054.txt.gz
Total_Precipitation_Accumulation
0.00 0.00 0.01 0.01 0.01 0.00 0.00 0.00 0.00 0.00 0.00 0.00 0.00 0.00 0.01 0.00 0.00 0.00 0.02 0.05 0.06 0.03 0.00 0.00 0.00 0.00 0.00 0.00 0.00 0.00 0.00 0.00 0.00 0.00 0.00 0.01 0.06 0.01 0.01 0.08 0.03 0.02 0.04
0.02 0.01 0.02 0.03 0.00 0.00 0.00 0.00 0.00 0.00 0.00 0.00 0.00 0.00 0.00 0.00 0.00 0.00 0.00 0.01 0.00 0.00 0.00 0.00 0.00 0.00 0.00 0.00 0.00 0.00 0.00 0.00 0.00 0.00 0.00 0.02 0.08 0.09 0.03 0.05 0.04 0.02 0.01
0.02 0.02 0.01 0.01 0.00 0.00 0.00 0.00 0.00 0.00 0.00 0.00 0.00 0.00 0.00 0.00 0.00 0.00 0.00 0.00 0.00 0.00 0.00 0.00 0.00 0.00 0.00 0.00 0.00 0.00 0.00 0.00 0.00 0.00 0.00 0.10 0.14 0.09 0.11 0.08 0.09 0.08 0.05
0.01 0.01 0.01 0.00 0.00 0.00 0.00 0.01 0.01 0.01 0.01 0.00 0.00 0.00 0.00 0.00 0.00 0.00 0.00 0.00 0.00 0.00 0.00 0.00 0.00 0.00 0.00 0.00 0.00 0.00 0.00 0.00 0.00 0.00 0.00 0.07 0.12 0.09 0.10 0.06 0.09 0.08 0.04
0.06 0.06 0.02 0.00 0.01 0.00 0.00 0.01 0.01 0.02 0.01 0.00 0.00 0.00 0.00 0.00 0.00 0.00 0.00 0.00 0.00 0.00 0.00 0.00 0.00 0.00 0.00 0.00 0.00 0.00 0.00 0.00 0.00 0.00 0.01 0.02 0.06 0.13 0.13 0.07 0.05 0.05 0.01
0.18 0.14 0.03 0.04 0.05 0.02 0.01 0.01 0.02 0.01 0.00 0.00 0.00 0.00 0.00 0.00 0.00 0.00 0.00 0.00 0.00 0.00 0.00 0.00 0.00 0.00 0.00 0.00 0.00 0.00 0.00 0.00 0.00 0.00 0.00 0.00 0.04 0.15 0.10 0.06 0.01 0.02 0.01
0.37 0.16 0.03 0.08 0.08 0.02 0.02 0.03 0.00 0.00 0.00 0.00 0.00 0.00 0.00 0.00 0.00 0.00 0.00 0.00 0.00 0.00 0.00 0.00 0.00 0.00 0.00 0.00 0.00 0.00 0.00 0.00 0.00 0.00 0.00 0.00 0.01 0.10 0.08 0.05 0.02 0.02 0.02
0.58 0.18 0.04 0.07 0.08 0.04 0.03 0.00 0.00 0.00 0.00 0.00 0.00 0.00 0.00 0.00 0.00 0.00 0.00 0.00 0.00 0.00 0.00 0.00 0.00 0.00 0.00 0.00 0.00 0.00 0.00 0.00 0.00 0.00 0.00 0.00 0.01 0.04 0.05 0.04 0.03 0.02 0.02
0.67 0.38 0.08 0.04 0.02 0.01 0.00 0.00 0.00 0.00 0.00 0.00 0.00 0.00 0.00 0.00 0.00 0.00 0.00 0.00 0.00 0.00 0.00 0.00 0.00 0.00 0.00 0.00 0.00 0.00 0.00 0.00 0.00 0.00 0.00 0.00 0.00 0.02 0.03 0.01 0.01 0.02 0.01
0.28 0.09 0.02 0.01 0.00 0.00 0.00 0.00 0.00 0.00 0.00 0.00 0.00 0.00 0.00 0.00 0.00 0.00 0.00 0.00 0.00 0.00 0.00 0.00 0.00 0.00 0.00 0.00 0.00 0.00 0.00 0.00 0.00 0.00 0.00 0.00 0.00 0.00 0.03 0.01 0.00 0.00 0.02
0.44 0.12 0.02 0.00 0.00 0.00 0.00 0.00 0.00 0.00 0.00 0.00 0.00 0.00 0.00 0.00 0.00 0.00 0.00 0.00 0.00 0.00 0.00 0.00 0.00 0.00 0.00 0.00 0.00 0.00 0.00 0.00 0.00 0.00 0.00 0.00 0.00 0.00 0.00 0.01 0.00 0.00 0.00
0.39 0.06 0.00 0.00 0.00 0.00 0.00 0.00 0.00 0.00 0.00 0.00 0.00 0.00 0.00 0.00 0.00 0.00 0.00 0.00 0.00 0.00 0.00 0.00 0.00 0.00 0.00 0.00 0.00 0.00 0.00 0.00 0.00 0.00 0.00 0.00 0.00 0.00 0.00 0.00 0.00 0.00 0.00
0.04 0.01 0.00 0.00 0.00 0.00 0.00 0.00 0.00 0.00 0.00 0.00 0.00 0.01 0.01 0.01 0.03 0.04 0.09 0.11 0.02 0.01 0.00 0.00 0.00 0.00 0.00 0.00 0.00 0.00 0.00 0.00 0.00 0.00 0.00 0.00 0.00 0.00 0.00 0.00 0.00 0.00 0.00
0.00 0.00 0.00 0.00 0.00 0.00 0.00 0.00 0.00 0.00 0.00 0.00 0.03 0.04 0.09 0.16 0.21 0.12 0.05 0.03 0.02 0.01 0.00 0.00 0.00 0.00 0.00 0.00 0.00 0.00 0.00 0.00 0.00 0.00 0.00 0.00 0.00 0.00 0.00 0.00 0.00 0.00 0.00
0.00 0.00 0.00 0.00 0.00 0.00 0.00 0.00 0.01 0.01 0.05 0.09 0.13 0.17 0.25 0.40 0.43 0.28 0.19 0.02 0.01 0.00 0.00 0.00 0.00 0.00 0.00 0.00 0.00 0.00 0.00 0.00 0.00 0.00 0.00 0.00 0.00 0.00 0.00 0.00 0.00 0.00 0.00
0.00 0.00 0.00 0.00 0.00 0.00 0.00 0.02 0.03 0.05 0.06 0.09 0.12 0.15 0.14 0.19 0.18 0.09 0.07 0.05 0.02 0.01 0.00 0.00 0.00 0.00 0.00 0.00 0.00 0.00 0.00 0.00 0.00 0.00 0.00 0.00 0.00 0.00 0.00 0.00 0.00 0.00 0.00
0.00 0.00 0.00 0.01 0.01 0.06 0.02 0.00 0.00 0.00 0.01 0.03 0.08 0.08 0.10 0.14 0.12 0.08 0.04 0.02 0.01 0.00 0.00 0.00 0.00 0.00 0.00 0.00 0.00 0.00 0.00 0.00 0.00 0.00 0.00 0.00 0.00 0.00 0.00 0.00 0.00 0.00 0.00
0.00 0.00 0.04 0.21 0.35 0.32 0.22 0.03 0.02 0.02 0.05 0.12 0.10 0.08 0.11 0.11 0.07 0.02 0.00 0.01 0.00 0.00 0.00 0.00 0.00 0.00 0.00 0.00 0.00 0.00 0.00 0.00 0.00 0.00 0.00 0.00 0.00 0.00 0.00 0.00 0.00 0.00 0.00
0.00 0.01 0.21 0.53 0.77 0.89 0.65 0.56 0.69 0.64 0.36 0.17 0.06 0.02 0.02 0.01 0.00 0.00 0.00 0.00 0.00 0.00 0.00 0.00 0.00 0.00 0.00 0.00 0.00 0.00 0.00 0.00 0.00 0.00 0.00 0.00 0.00 0.00 0.00 0.00 0.00 0.00 0.00
0.01 0.06 0.42 0.74 0.92 1.09 1.64 1.49 0.86 0.27 0.08 0.02 0.00 0.00 0.00 0.00 0.00 0.00 0.00 0.00 0.00 0.00 0.00 0.00 0.00 0.00 0.00 0.00 0.00 0.00 0.00 0.00 0.00 0.00 0.00 0.00 0.00 0.00 0.00 0.00 0.00 0.00 0.00
0.08 0.27 0.69 0.85 0.96 0.88 0.62 0.22 0.05 0.01 0.01 0.00 0.00 0.00 0.00 0.00 0.00 0.00 0.00 0.00 0.00 0.00 0.00 0.00 0.00 0.00 0.00 0.00 0.00 0.00 0.00 0.00 0.00 0.00 0.00 0.00 0.00 0.00 0.00 0.00 0.00 0.00 0.00
0.26 0.35 0.32 0.19 0.09 0.03 0.00 0.00 0.00 0.00 0.00 0.00 0.00 0.00 0.00 0.00 0.00 0.00 0.00 0.00 0.00 0.00 0.00 0.00 0.00 0.00 0.00 0.00 0.00 0.00 0.00 0.00 0.00 0.00 0.00 0.00 0.00 0.01 0.01 0.01 0.00 0.00 0.00
0.13 0.09 0.02 0.00 0.00 0.00 0.00 0.00 0.00 0.00 0.00 0.00 0.00 0.00 0.00 0.00 0.00 0.00 0.00 0.00 0.00 0.00 0.00 0.00 0.00 0.00 0.00 0.00 0.00 0.00 0.00 0.00 0.00 0.00 0.00 0.00 0.01 0.01 0.01 0.02 0.02 0.00 0.00
0.00 0.00 0.00 0.00 0.00 0.00 0.00 0.00 0.00 0.00 0.00 0.00 0.00 0.00 0.00 0.00 0.00 0.00 0.00 0.00 0.00 0.00 0.00 0.00 0.00 0.00 0.00 0.00 0.00 0.00 0.00 0.01 0.01 0.01 0.00 0.00 0.00 0.01 0.04 0.05 0.07 0.07 0.06
0.00 0.00 0.00 0.00 0.00 0.00 0.00 0.00 0.00 0.00 0.00 0.00 0.00 0.00 0.00 0.00 0.00 0.00 0.00 0.00 0.00 0.00 0.00 0.00 0.00 0.00 0.00 0.00 0.00 0.00 0.00 0.00 0.01 0.04 0.03 0.01 0.00 0.00 0.00 0.02 0.05 0.10 0.17
0.00 0.00 0.00 0.00 0.00 0.00 0.00 0.00 0.00 0.00 0.00 0.00 0.00 0.00 0.00 0.00 0.00 0.00 0.00 0.00 0.00 0.00 0.00 0.00 0.00 0.00 0.00 0.01 0.01 0.03 0.05 0.06 0.06 0.09 0.12 0.07 0.02 0.00 0.00 0.00 0.01 0.03 0.08

GFSSE_prec_precacc24_060.txt.gz
Total_Precipitation_Accumulation
0.01 0.00 0.01 0.02 0.01 0.00 0.00 0.00 0.00 0.00 0.00 0.00 0.00 0.00 0.01 0.00 0.00 0.00 0.02 0.04 0.05 0.03 0.00 0.00 0.00 0.00 0.00 0.00 0.00 0.00 0.00 0.00 0.00 0.00 0.01 0.03 0.01 0.00 0.01 0.04 0.04 0.01 0.04
0.06 0.01 0.02 0.03 0.01 0.00 0.00 0.00 0.00 0.00 0.00 0.00 0.00 0.00 0.00 0.00 0.00 0.00 0.00 0.01 0.00 0.00 0.00 0.00 0.00 0.00 0.00 0.00 0.00 0.00 0.00 0.00 0.00 0.00 0.02 0.06 0.13 0.05 0.00 0.03 0.04 0.02 0.01
0.13 0.02 0.01 0.01 0.00 0.00 0.00 0.00 0.00 0.00 0.00 0.00 0.00 0.00 0.00 0.00 0.00 0.00 0.00 0.00 0.00 0.00 0.00 0.00 0.00 0.00 0.00 0.00 0.00 0.00 0.00 0.00 0.00 0.00 0.01 0.05 0.05 0.07 0.01 0.02 0.03 0.06 0.04
0.05 0.02 0.01 0.00 0.00 0.00 0.01 0.01 0.02 0.02 0.01 0.00 0.00 0.00 0.00 0.00 0.00 0.00 0.00 0.00 0.00 0.00 0.00 0.00 0.00 0.00 0.00 0.00 0.00 0.00 0.00 0.00 0.00 0.00 0.04 0.08 0.00 0.01 0.00 0.00 0.01 0.04 0.03
0.09 0.06 0.02 0.01 0.01 0.00 0.00 0.02 0.02 0.02 0.01 0.00 0.00 0.00 0.00 0.00 0.00 0.00 0.00 0.00 0.00 0.00 0.00 0.00 0.00 0.00 0.00 0.00 0.00 0.00 0.00 0.00 0.00 0.01 0.04 0.02 0.01 0.02 0.02 0.00 0.00 0.00 0.00
0.20 0.19 0.07 0.09 0.09 0.03 0.02 0.02 0.02 0.01 0.00 0.00 0.00 0.00 0.00 0.00 0.00 0.00 0.00 0.00 0.00 0.00 0.00 0.00 0.00 0.00 0.00 0.00 0.00 0.00 0.00 0.00 0.00 0.01 0.00 0.00 0.03 0.05 0.03 0.01 0.00 0.00 0.00
0.68 0.51 0.26 0.22 0.24 0.12 0.06 0.05 0.02 0.00 0.00 0.00 0.00 0.00 0.00 0.00 0.00 0.00 0.00 0.00 0.00 0.00 0.00 0.00 0.00 0.00 0.00 0.00 0.00 0.00 0.00 0.00 0.00 0.00 0.00 0.00 0.00 0.02 0.01 0.02 0.01 0.00 0.00
1.23 0.82 0.60 0.48 0.43 0.25 0.10 0.03 0.00 0.00 0.00 0.00 0.00 0.00 0.00 0.00 0.00 0.00 0.00 0.00 0.00 0.00 0.00 0.00 0.00 0.00 0.00 0.00 0.00 0.00 0.00 0.00 0.00 0.00 0.00 0.00 0.00 0.02 0.02 0.01 0.00 0.00 0.00
0.97 1.09 0.92 0.46 0.32 0.12 0.01 0.00 0.00 0.00 0.00 0.00 0.00 0.00 0.00 0.00 0.00 0.00 0.00 0.00 0.00 0.00 0.00 0.00 0.00 0.00 0.00 0.00 0.00 0.00 0.00 0.00 0.00 0.00 0.00 0.00 0.00 0.02 0.03 0.01 0.00 0.00 0.00
1.02 0.58 0.54 0.35 0.21 0.02 0.00 0.00 0.00 0.00 0.00 0.00 0.00 0.00 0.00 0.00 0.00 0.00 0.00 0.00 0.00 0.00 0.00 0.00 0.00 0.00 0.00 0.00 0.00 0.00 0.00 0.00 0.00 0.00 0.00 0.00 0.00 0.00 0.03 0.01 0.00 0.00 0.00
1.22 0.90 0.62 0.32 0.12 0.00 0.00 0.00 0.00 0.00 0.00 0.00 0.00 0.00 0.00 0.00 0.00 0.00 0.00 0.00 0.00 0.00 0.00 0.00 0.00 0.00 0.00 0.00 0.00 0.00 0.00 0.00 0.00 0.00 0.00 0.00 0.00 0.00 0.00 0.01 0.00 0.00 0.00
0.90 0.57 0.34 0.24 0.01 0.00 0.00 0.00 0.00 0.00 0.00 0.00 0.00 0.00 0.00 0.01 0.00 0.00 0.00 0.00 0.00 0.00 0.00 0.00 0.00 0.00 0.00 0.00 0.00 0.00 0.00 0.00 0.00 0.00 0.00 0.00 0.00 0.00 0.00 0.00 0.00 0.00 0.00
0.19 0.32 0.23 0.05 0.00 0.00 0.00 0.00 0.00 0.00 0.00 0.00 0.00 0.02 0.02 0.01 0.04 0.05 0.11 0.13 0.03 0.01 0.00 0.00 0.00 0.00 0.00 0.00 0.00 0.00 0.00 0.00 0.00 0.00 0.00 0.00 0.00 0.00 0.00 0.00 0.00 0.00 0.00
0.09 0.16 0.13 0.03 0.00 0.00 0.00 0.00 0.00 0.00 0.00 0.01 0.04 0.05 0.10 0.16 0.21 0.12 0.08 0.09 0.04 0.01 0.00 0.00 0.00 0.00 0.00 0.00 0.00 0.00 0.00 0.00 0.00 0.00 0.00 0.00 0.00 0.00 0.00 0.00 0.00 0.00 0.00
0.11 0.03 0.01 0.00 0.00 0.00 0.00 0.00 0.01 0.02 0.05 0.10 0.13 0.17 0.25 0.40 0.44 0.30 0.20 0.03 0.01 0.01 0.01 0.00 0.00 0.00 0.00 0.00 0.00 0.00 0.00 0.00 0.00 0.00 0.00 0.00 0.00 0.00 0.00 0.00 0.00 0.00 0.00
0.02 0.01 0.00 0.00 0.00 0.00 0.00 0.02 0.03 0.05 0.06 0.09 0.12 0.15 0.14 0.19 0.21 0.12 0.08 0.06 0.04 0.02 0.00 0.00 0.00 0.00 0.00 0.00 0.00 0.00 0.00 0.00 0.00 0.00 0.00 0.00 0.00 0.00 0.00 0.00 0.00 0.00 0.00
0.00 0.00 0.00 0.01 0.00 0.02 0.01 0.00 0.00 0.00 0.01 0.03 0.08 0.08 0.10 0.14 0.12 0.08 0.04 0.02 0.01 0.00 0.00 0.00 0.00 0.00 0.00 0.00 0.00 0.00 0.00 0.00 0.00 0.00 0.00 0.00 0.00 0.00 0.00 0.00 0.00 0.00 0.00
0.00 0.00 0.04 0.18 0.18 0.14 0.12 0.02 0.01 0.02 0.05 0.12 0.10 0.08 0.11 0.11 0.07 0.02 0.00 0.01 0.00 0.00 0.00 0.00 0.00 0.00 0.00 0.00 0.00 0.00 0.00 0.00 0.00 0.00 0.00 0.00 0.00 0.00 0.00 0.00 0.00 0.00 0.00
0.00 0.01 0.18 0.41 0.66 0.63 0.46 0.51 0.68 0.65 0.36 0.17 0.06 0.02 0.02 0.01 0.00 0.00 0.00 0.00 0.00 0.00 0.00 0.00 0.00 0.00 0.00 0.00 0.00 0.00 0.00 0.00 0.00 0.00 0.00 0.00 0.00 0.00 0.00 0.00 0.00 0.00 0.00
0.00 0.05 0.33 0.61 0.75 0.87 1.47 1.43 0.85 0.27 0.08 0.02 0.00 0.00 0.00 0.00 0.00 0.00 0.00 0.00 0.00 0.00 0.00 0.00 0.00 0.00 0.00 0.00 0.00 0.00 0.00 0.00 0.00 0.00 0.00 0.00 0.00 0.00 0.00 0.00 0.00 0.00 0.00
0.03 0.20 0.63 0.80 0.87 0.76 0.55 0.20 0.03 0.01 0.01 0.00 0.00 0.00 0.00 0.00 0.00 0.00 0.00 0.00 0.00 0.00 0.00 0.00 0.00 0.00 0.00 0.00 0.00 0.00 0.00 0.00 0.00 0.00 0.00 0.00 0.00 0.00 0.00 0.00 0.00 0.00 0.00
0.19 0.29 0.35 0.21 0.16 0.04 0.01 0.00 0.00 0.00 0.00 0.00 0.00 0.00 0.00 0.00 0.00 0.00 0.00 0.00 0.00 0.00 0.00 0.00 0.00 0.00 0.00 0.00 0.00 0.00 0.00 0.00 0.00 0.00 0.00 0.00 0.00 0.00 0.00 0.00 0.00 0.00 0.00
0.13 0.16 0.06 0.04 0.04 0.00 0.00 0.00 0.00 0.00 0.00 0.00 0.00 0.00 0.00 0.00 0.00 0.00 0.00 0.00 0.00 0.00 0.00 0.00 0.00 0.00 0.00 0.00 0.00 0.00 0.00 0.00 0.00 0.00 0.00 0.00 0.00 0.00 0.00 0.00 0.00 0.00 0.00
0.01 0.03 0.02 0.03 0.02 0.00 0.00 0.00 0.00 0.00 0.00 0.00 0.00 0.00 0.00 0.00 0.00 0.00 0.00 0.00 0.00 0.00 0.00 0.00 0.00 0.00 0.00 0.00 0.00 0.00 0.00 0.00 0.01 0.01 0.00 0.00 0.00 0.00 0.00 0.00 0.00 0.00 0.00
0.00 0.02 0.08 0.04 0.01 0.00 0.00 0.00 0.00 0.00 0.00 0.00 0.00 0.00 0.00 0.00 0.00 0.00 0.00 0.00 0.00 0.00 0.00 0.00 0.00 0.00 0.00 0.00 0.00 0.00 0.00 0.00 0.01 0.04 0.03 0.01 0.00 0.00 0.00 0.00 0.00 0.00 0.00
0.03 0.06 0.04 0.00 0.00 0.00 0.00 0.00 0.00 0.00 0.00 0.00 0.00 0.00 0.00 0.00 0.00 0.00 0.00 0.00 0.00 0.00 0.00 0.00 0.00 0.00 0.00 0.01 0.01 0.03 0.05 0.06 0.05 0.08 0.12 0.07 0.02 0.00 0.00 0.00 0.00 0.00 0.00

GFSSE_prec_precacc24_063.txt.gz
Total_Precipitation_Accumulation
0.01 0.00 0.01 0.02 0.01 0.00 0.00 0.00 0.00 0.00 0.00 0.00 0.00 0.00 0.01 0.00 0.00 0.00 0.02 0.03 0.03 0.02 0.00 0.00 0.00 0.00 0.00 0.00 0.00 0.00 0.00 0.00 0.00 0.00 0.03 0.05 0.01 0.00 0.01 0.04 0.04 0.01 0.04
0.07 0.02 0.02 0.03 0.01 0.00 0.00 0.00 0.00 0.00 0.00 0.00 0.00 0.00 0.00 0.00 0.00 0.00 0.00 0.00 0.00 0.00 0.00 0.00 0.00 0.00 0.00 0.00 0.00 0.00 0.00 0.00 0.00 0.01 0.04 0.08 0.13 0.05 0.00 0.03 0.03 0.01 0.01
0.14 0.03 0.01 0.01 0.00 0.00 0.00 0.00 0.01 0.01 0.00 0.00 0.00 0.00 0.00 0.00 0.00 0.00 0.00 0.00 0.00 0.00 0.00 0.00 0.00 0.00 0.00 0.00 0.00 0.00 0.00 0.00 0.00 0.01 0.02 0.05 0.06 0.06 0.00 0.01 0.02 0.02 0.03
0.05 0.02 0.01 0.00 0.00 0.00 0.01 0.01 0.02 0.02 0.01 0.00 0.00 0.00 0.00 0.00 0.00 0.00 0.00 0.00 0.00 0.00 0.00 0.00 0.00 0.00 0.00 0.00 0.00 0.00 0.00 0.00 0.00 0.00 0.04 0.08 0.00 0.01 0.00 0.00 0.01 0.03 0.00
0.10 0.07 0.03 0.05 0.02 0.00 0.00 0.02 0.02 0.02 0.01 0.00 0.00 0.00 0.00 0.00 0.00 0.00 0.00 0.00 0.00 0.00 0.00 0.00 0.00 0.00 0.00 0.00 0.00 0.00 0.00 0.00 0.00 0.01 0.04 0.02 0.01 0.02 0.02 0.00 0.00 0.00 0.00
0.22 0.23 0.14 0.28 0.13 0.03 0.03 0.02 0.03 0.01 0.00 0.00 0.00 0.00 0.00 0.00 0.00 0.00 0.00 0.00 0.00 0.00 0.00 0.00 0.00 0.00 0.00 0.00 0.00 0.00 0.00 0.00 0.00 0.01 0.00 0.00 0.03 0.05 0.03 0.01 0.00 0.00 0.00
0.83 0.75 0.60 0.48 0.38 0.19 0.08 0.06 0.02 0.00 0.00 0.00 0.00 0.00 0.00 0.00 0.00 0.00 0.00 0.00 0.00 0.00 0.00 0.00 0.00 0.00 0.00 0.00 0.00 0.00 0.00 0.00 0.00 0.00 0.00 0.00 0.00 0.01 0.00 0.01 0.01 0.00 0.00
1.35 0.95 0.85 0.78 0.79 0.52 0.18 0.04 0.00 0.00 0.00 0.00 0.00 0.00 0.00 0.00 0.00 0.00 0.00 0.00 0.00 0.00 0.00 0.00 0.00 0.00 0.00 0.00 0.00 0.00 0.00 0.00 0.00 0.00 0.00 0.00 0.00 0.00 0.00 0.00 0.00 0.00 0.00
1.09 1.17 1.18 0.81 0.75 0.34 0.01 0.00 0.00 0.00 0.00 0.00 0.00 0.00 0.00 0.00 0.00 0.00 0.00 0.00 0.00 0.00 0.00 0.00 0.00 0.00 0.00 0.00 0.00 0.00 0.00 0.00 0.00 0.00 0.00 0.00 0.00 0.00 0.01 0.00 0.00 0.00 0.00
1.18 0.77 0.73 0.50 0.40 0.09 0.00 0.00 0.00 0.00 0.00 0.00 0.00 0.00 0.00 0.00 0.00 0.00 0.00 0.00 0.00 0.00 0.00 0.00 0.00 0.00 0.00 0.00 0.00 0.00 0.00 0.00 0.00 0.00 0.00 0.00 0.00 0.00 0.01 0.01 0.00 0.00 0.00
1.98 2.32 1.13 0.48 0.36 0.10 0.00 0.00 0.00 0.00 0.00 0.00 0.00 0.00 0.00 0.00 0.00 0.00 0.00 0.00 0.00 0.00 0.00 0.00 0.00 0.00 0.00 0.00 0.00 0.00 0.00 0.00 0.00 0.00 0.00 0.00 0.00 0.00 0.00 0.00 0.00 0.00 0.00
1.30 1.22 0.76 0.48 0.13 0.01 0.00 0.00 0.00 0.00 0.00 0.00 0.00 0.00 0.00 0.01 0.00 0.00 0.00 0.00 0.00 0.00 0.00 0.00 0.00 0.00 0.00 0.00 0.00 0.00 0.00 0.00 0.00 0.00 0.00 0.00 0.00 0.00 0.00 0.00 0.00 0.00 0.00
0.68 0.59 0.46 0.20 0.10 0.00 0.00 0.00 0.00 0.00 0.00 0.00 0.00 0.02 0.02 0.01 0.04 0.05 0.11 0.13 0.03 0.01 0.00 0.00 0.00 0.00 0.00 0.00 0.00 0.00 0.00 0.00 0.00 0.00 0.00 0.00 0.00 0.00 0.00 0.00 0.00 0.00 0.00
0.22 0.27 0.24 0.14 0.02 0.00 0.00 0.00 0.00 0.00 0.00 0.01 0.04 0.05 0.10 0.16 0.21 0.12 0.08 0.09 0.04 0.01 0.00 0.00 0.00 0.00 0.00 0.00 0.00 0.00 0.00 0.00 0.00 0.00 0.00 0.00 0.00 0.00 0.00 0.00 0.00 0.00 0.00
0.14 0.07 0.07 0.02 0.00 0.00 0.00 0.00 0.01 0.02 0.05 0.10 0.13 0.17 0.25 0.40 0.44 0.30 0.20 0.03 0.01 0.01 0.01 0.00 0.00 0.00 0.00 0.00 0.00 0.00 0.00 0.00 0.00 0.00 0.00 0.00 0.00 0.00 0.00 0.00 0.00 0.00 0.00
0.02 0.01 0.01 0.00 0.00 0.00 0.00 0.02 0.03 0.05 0.06 0.09 0.12 0.15 0.14 0.19 0.21 0.12 0.08 0.06 0.04 0.02 0.00 0.00 0.00 0.00 0.00 0.00 0.00 0.00 0.00 0.00 0.00 0.00 0.00 0.00 0.00 0.00 0.00 0.00 0.00 0.00 0.00
0.00 0.00 0.00 0.01 0.00 0.00 0.00 0.00 0.00 0.00 0.01 0.04 0.09 0.08 0.10 0.14 0.12 0.08 0.04 0.02 0.01 0.00 0.00 0.00 0.00 0.00 0.00 0.00 0.00 0.00 0.00 0.00 0.00 0.00 0.00 0.00 0.00 0.00 0.00 0.00 0.00 0.00 0.00
0.00 0.00 0.03 0.18 0.17 0.07 0.04 0.01 0.01 0.02 0.05 0.13 0.11 0.08 0.11 0.11 0.07 0.02 0.00 0.01 0.00 0.00 0.00 0.00 0.00 0.00 0.00 0.00 0.00 0.00 0.00 0.00 0.00 0.00 0.00 0.00 0.00 0.00 0.00 0.00 0.00 0.00 0.00
0.00 0.00 0.13 0.30 0.56 0.50 0.36 0.46 0.66 0.64 0.36 0.17 0.06 0.02 0.02 0.01 0.00 0.00 0.00 0.00 0.00 0.00 0.00 0.00 0.00 0.00 0.00 0.00 0.00 0.00 0.00 0.00 0.00 0.00 0.00 0.00 0.00 0.00 0.00 0.00 0.00 0.00 0.00
0.00 0.03 0.20 0.36 0.55 0.71 1.32 1.34 0.82 0.26 0.08 0.02 0.00 0.00 0.00 0.00 0.00 0.00 0.00 0.00 0.00 0.00 0.00 0.00 0.00 0.00 0.00 0.00 0.00 0.00 0.00 0.00 0.00 0.00 0.00 0.00 0.00 0.00 0.00 0.00 0.00 0.00 0.00
0.02 0.09 0.40 0.57 0.70 0.69 0.50 0.16 0.02 0.00 0.00 0.00 0.00 0.00 0.00 0.00 0.00 0.00 0.00 0.00 0.00 0.00 0.00 0.00 0.00 0.00 0.00 0.00 0.00 0.00 0.00 0.00 0.00 0.00 0.00 0.00 0.00 0.00 0.00 0.00 0.00 0.00 0.00
0.11 0.20 0.30 0.18 0.15 0.03 0.00 0.00 0.00 0.00 0.00 0.00 0.00 0.00 0.00 0.00 0.00 0.00 0.00 0.00 0.00 0.00 0.00 0.00 0.00 0.00 0.00 0.00 0.00 0.00 0.00 0.00 0.00 0.00 0.00 0.00 0.00 0.00 0.00 0.00 0.00 0.00 0.00
0.10 0.16 0.06 0.04 0.04 0.01 0.02 0.03 0.02 0.00 0.00 0.00 0.00 0.00 0.00 0.00 0.00 0.00 0.00 0.00 0.00 0.00 0.00 0.00 0.00 0.00 0.00 0.00 0.00 0.00 0.00 0.00 0.00 0.00 0.00 0.00 0.00 0.00 0.00 0.00 0.00 0.00 0.00
0.01 0.03 0.02 0.06 0.09 0.06 0.06 0.09 0.04 0.00 0.00 0.00 0.00 0.00 0.00 0.00 0.00 0.00 0.00 0.00 0.00 0.00 0.00 0.00 0.00 0.00 0.00 0.00 0.00 0.00 0.00 0.00 0.01 0.01 0.00 0.00 0.00 0.00 0.00 0.00 0.00 0.00 0.00
0.03 0.03 0.09 0.12 0.10 0.04 0.05 0.04 0.00 0.00 0.00 0.00 0.00 0.00 0.00 0.00 0.00 0.00 0.00 0.00 0.00 0.00 0.00 0.00 0.00 0.00 0.00 0.00 0.00 0.00 0.00 0.00 0.01 0.04 0.03 0.01 0.00 0.00 0.00 0.00 0.00 0.00 0.00
0.10 0.15 0.13 0.08 0.04 0.02 0.03 0.00 0.00 0.00 0.00 0.00 0.00 0.00 0.00 0.00 0.00 0.00 0.00 0.00 0.00 0.00 0.00 0.00 0.00 0.00 0.00 0.01 0.01 0.03 0.05 0.06 0.05 0.08 0.12 0.07 0.02 0.00 0.00 0.00 0.00 0.00 0.00

GFSSE_prec_precacc24_066.txt.gz
Total_Precipitation_Accumulation
0.01 0.01 0.02 0.02 0.01 0.00 0.00 0.00 0.00 0.00 0.00 0.00 0.00 0.01 0.01 0.00 0.00 0.00 0.00 0.01 0.01 0.01 0.00 0.00 0.00 0.00 0.00 0.00 0.00 0.00 0.00 0.00 0.00 0.02 0.03 0.05 0.01 0.00 0.01 0.04 0.04 0.01 0.03
0.07 0.02 0.02 0.03 0.01 0.00 0.00 0.00 0.00 0.00 0.00 0.00 0.00 0.00 0.00 0.00 0.00 0.00 0.00 0.00 0.00 0.00 0.00 0.00 0.00 0.00 0.00 0.00 0.00 0.00 0.00 0.00 0.00 0.01 0.04 0.08 0.13 0.05 0.00 0.02 0.02 0.01 0.00
0.15 0.04 0.01 0.01 0.00 0.00 0.00 0.00 0.01 0.01 0.00 0.00 0.00 0.00 0.00 0.00 0.00 0.00 0.00 0.00 0.00 0.00 0.00 0.00 0.00 0.00 0.00 0.00 0.00 0.00 0.00 0.00 0.00 0.01 0.02 0.05 0.06 0.06 0.00 0.01 0.02 0.01 0.01
0.06 0.03 0.02 0.01 0.00 0.00 0.01 0.01 0.02 0.02 0.01 0.00 0.00 0.00 0.00 0.00 0.00 0.00 0.00 0.00 0.00 0.00 0.00 0.00 0.00 0.00 0.00 0.00 0.00 0.00 0.00 0.00 0.00 0.00 0.04 0.08 0.00 0.01 0.00 0.00 0.01 0.01 0.00
0.11 0.07 0.04 0.10 0.02 0.00 0.00 0.02 0.02 0.02 0.01 0.00 0.00 0.00 0.00 0.00 0.00 0.00 0.00 0.00 0.00 0.00 0.00 0.00 0.00 0.00 0.00 0.00 0.00 0.00 0.00 0.00 0.00 0.01 0.04 0.02 0.01 0.02 0.02 0.00 0.00 0.00 0.00
0.25 0.26 0.23 0.45 0.18 0.03 0.03 0.03 0.03 0.01 0.00 0.00 0.00 0.00 0.00 0.00 0.00 0.00 0.00 0.00 0.00 0.00 0.00 0.00 0.00 0.00 0.00 0.00 0.00 0.00 0.00 0.00 0.00 0.01 0.00 0.00 0.03 0.05 0.03 0.01 0.00 0.00 0.00
0.88 0.93 0.71 0.63 0.54 0.24 0.16 0.10 0.03 0.00 0.00 0.00 0.00 0.00 0.00 0.00 0.00 0.00 0.00 0.00 0.00 0.00 0.00 0.00 0.00 0.00 0.00 0.00 0.00 0.00 0.00 0.00 0.00 0.00 0.00 0.00 0.00 0.01 0.00 0.00 0.00 0.00 0.00
1.59 1.24 1.05 0.93 0.95 0.70 0.42 0.13 0.00 0.00 0.00 0.00 0.00 0.00 0.00 0.00 0.00 0.00 0.00 0.00 0.00 0.00 0.00 0.00 0.00 0.00 0.00 0.00 0.00 0.00 0.00 0.00 0.00 0.00 0.00 0.00 0.00 0.00 0.00 0.00 0.00 0.00 0.00
1.38 1.36 1.32 0.99 0.91 0.59 0.18 0.00 0.00 0.00 0.00 0.00 0.00 0.00 0.00 0.00 0.00 0.00 0.00 0.00 0.00 0.00 0.00 0.00 0.00 0.00 0.00 0.00 0.00 0.00 0.00 0.00 0.00 0.00 0.00 0.00 0.00 0.00 0.00 0.00 0.00 0.00 0.00
1.37 0.92 0.97 1.08 0.87 0.41 0.07 0.00 0.00 0.00 0.00 0.00 0.00 0.00 0.00 0.00 0.00 0.00 0.00 0.00 0.00 0.00 0.00 0.00 0.00 0.00 0.00 0.00 0.00 0.00 0.00 0.00 0.00 0.00 0.00 0.00 0.00 0.00 0.00 0.00 0.00 0.00 0.00
2.07 2.63 1.61 1.00 0.67 0.23 0.04 0.00 0.00 0.00 0.00 0.00 0.00 0.00 0.00 0.00 0.00 0.00 0.00 0.00 0.00 0.00 0.00 0.00 0.00 0.00 0.00 0.00 0.00 0.00 0.00 0.00 0.00 0.00 0.00 0.00 0.00 0.00 0.00 0.00 0.00 0.00 0.00
1.60 1.62 1.40 0.92 0.38 0.15 0.01 0.00 0.00 0.00 0.00 0.00 0.00 0.00 0.00 0.01 0.00 0.00 0.00 0.00 0.00 0.00 0.00 0.00 0.00 0.00 0.00 0.00 0.00 0.00 0.00 0.00 0.00 0.00 0.00 0.00 0.00 0.00 0.00 0.00 0.00 0.00 0.00
1.02 0.85 0.68 0.40 0.28 0.10 0.00 0.00 0.00 0.00 0.00 0.00 0.00 0.02 0.02 0.01 0.04 0.05 0.11 0.13 0.03 0.01 0.00 0.00 0.00 0.00 0.00 0.00 0.00 0.00 0.00 0.00 0.00 0.00 0.00 0.00 0.00 0.00 0.00 0.00 0.00 0.00 0.00
0.43 0.48 0.39 0.25 0.09 0.04 0.00 0.00 0.00 0.00 0.00 0.01 0.04 0.05 0.10 0.16 0.21 0.12 0.08 0.09 0.04 0.01 0.00 0.00 0.00 0.00 0.00 0.00 0.00 0.00 0.00 0.00 0.00 0.00 0.00 0.00 0.00 0.00 0.00 0.00 0.00 0.00 0.00
0.18 0.14 0.13 0.04 0.03 0.01 0.00 0.00 0.01 0.02 0.05 0.10 0.13 0.17 0.25 0.40 0.44 0.30 0.20 0.03 0.01 0.01 0.01 0.00 0.00 0.00 0.00 0.00 0.00 0.00 0.00 0.00 0.00 0.00 0.00 0.00 0.00 0.00 0.00 0.00 0.00 0.00 0.00
0.02 0.02 0.01 0.01 0.02 0.00 0.00 0.02 0.03 0.05 0.06 0.09 0.12 0.15 0.15 0.20 0.21 0.12 0.08 0.06 0.04 0.02 0.00 0.00 0.00 0.00 0.00 0.00 0.00 0.00 0.00 0.00 0.00 0.00 0.00 0.00 0.00 0.00 0.00 0.00 0.00 0.00 0.00
0.00 0.00 0.00 0.01 0.00 0.00 0.00 0.00 0.00 0.00 0.01 0.04 0.09 0.08 0.10 0.15 0.12 0.08 0.04 0.02 0.01 0.00 0.00 0.00 0.00 0.00 0.00 0.00 0.00 0.00 0.00 0.00 0.00 0.00 0.00 0.00 0.00 0.00 0.00 0.00 0.00 0.00 0.00
0.00 0.00 0.02 0.10 0.16 0.07 0.03 0.01 0.01 0.02 0.05 0.12 0.11 0.08 0.11 0.10 0.07 0.02 0.00 0.01 0.00 0.00 0.00 0.00 0.00 0.00 0.00 0.00 0.00 0.00 0.00 0.00 0.00 0.00 0.00 0.00 0.00 0.00 0.00 0.00 0.00 0.00 0.00
0.00 0.00 0.01 0.16 0.52 0.47 0.20 0.28 0.61 0.62 0.39 0.19 0.07 0.02 0.02 0.01 0.00 0.00 0.00 0.00 0.00 0.00 0.00 0.00 0.00 0.00 0.00 0.00 0.00 0.00 0.00 0.00 0.00 0.00 0.00 0.00 0.00 0.00 0.00 0.00 0.00 0.00 0.00
0.00 0.00 0.03 0.19 0.43 0.47 1.01 1.18 0.70 0.24 0.10 0.04 0.01 0.00 0.00 0.00 0.00 0.00 0.00 0.00 0.00 0.00 0.00 0.00 0.00 0.00 0.00 0.00 0.00 0.00 0.00 0.00 0.00 0.00 0.00 0.00 0.00 0.00 0.00 0.00 0.00 0.00 0.00
0.01 0.03 0.16 0.31 0.45 0.53 0.37 0.09 0.01 0.01 0.01 0.01 0.00 0.00 0.00 0.00 0.00 0.00 0.00 0.00 0.00 0.00 0.00 0.00 0.00 0.00 0.00 0.00 0.00 0.00 0.00 0.00 0.00 0.00 0.00 0.00 0.00 0.00 0.00 0.00 0.00 0.00 0.00
0.04 0.07 0.18 0.11 0.12 0.02 0.00 0.00 0.00 0.01 0.00 0.00 0.00 0.00 0.00 0.00 0.00 0.00 0.00 0.00 0.00 0.00 0.00 0.00 0.00 0.00 0.00 0.00 0.00 0.00 0.00 0.00 0.00 0.00 0.00 0.00 0.00 0.00 0.00 0.00 0.00 0.00 0.00
0.04 0.14 0.06 0.04 0.04 0.02 0.02 0.06 0.09 0.04 0.01 0.00 0.00 0.00 0.00 0.00 0.00 0.00 0.00 0.00 0.00 0.00 0.00 0.00 0.00 0.00 0.00 0.00 0.00 0.00 0.00 0.00 0.00 0.00 0.00 0.00 0.00 0.00 0.00 0.00 0.00 0.00 0.00
0.01 0.03 0.02 0.06 0.09 0.09 0.10 0.19 0.16 0.07 0.01 0.00 0.00 0.00 0.00 0.00 0.00 0.00 0.00 0.00 0.00 0.00 0.00 0.00 0.00 0.00 0.00 0.00 0.00 0.00 0.00 0.00 0.01 0.01 0.00 0.00 0.00 0.00 0.00 0.00 0.00 0.00 0.00
0.04 0.04 0.09 0.13 0.14 0.09 0.13 0.20 0.12 0.07 0.02 0.00 0.00 0.00 0.00 0.00 0.00 0.00 0.00 0.00 0.00 0.00 0.00 0.00 0.00 0.00 0.00 0.00 0.00 0.00 0.00 0.00 0.01 0.04 0.03 0.01 0.00 0.00 0.00 0.00 0.00 0.00 0.00
0.11 0.17 0.15 0.13 0.12 0.08 0.13 0.17 0.13 0.05 0.01 0.00 0.00 0.00 0.00 0.00 0.00 0.00 0.00 0.00 0.00 0.00 0.00 0.00 0.00 0.00 0.00 0.01 0.01 0.03 0.05 0.06 0.05 0.08 0.11 0.07 0.02 0.00 0.00 0.00 0.00 0.00 0.00

GFSSE_prec_precacc24_069.txt.gz
Total_Precipitation_Accumulation
0.02 0.01 0.01 0.00 0.01 0.00 0.00 0.00 0.00 0.00 0.00 0.00 0.00 0.00 0.00 0.00 0.00 0.00 0.00 0.01 0.00 0.00 0.00 0.00 0.00 0.00 0.00 0.00 0.00 0.00 0.00 0.00 0.00 0.02 0.03 0.05 0.01 0.00 0.01 0.03 0.04 0.01 0.03
0.09 0.02 0.02 0.02 0.01 0.00 0.00 0.00 0.00 0.00 0.00 0.00 0.00 0.00 0.00 0.00 0.00 0.00 0.00 0.00 0.00 0.00 0.00 0.00 0.00 0.00 0.00 0.00 0.00 0.00 0.00 0.00 0.00 0.01 0.04 0.08 0.13 0.05 0.00 0.01 0.01 0.00 0.00
0.16 0.05 0.01 0.01 0.00 0.00 0.00 0.00 0.01 0.01 0.00 0.00 0.00 0.00 0.00 0.00 0.00 0.00 0.00 0.00 0.00 0.00 0.00 0.00 0.00 0.00 0.00 0.00 0.00 0.00 0.00 0.00 0.00 0.01 0.02 0.05 0.06 0.06 0.00 0.01 0.01 0.00 0.00
0.08 0.05 0.03 0.01 0.00 0.00 0.01 0.01 0.02 0.02 0.01 0.00 0.00 0.00 0.00 0.00 0.00 0.00 0.00 0.00 0.00 0.00 0.00 0.00 0.00 0.00 0.00 0.00 0.00 0.00 0.00 0.00 0.00 0.00 0.04 0.08 0.00 0.01 0.00 0.00 0.01 0.00 0.00
0.13 0.08 0.05 0.14 0.04 0.00 0.01 0.03 0.02 0.02 0.01 0.00 0.00 0.00 0.00 0.00 0.00 0.00 0.00 0.00 0.00 0.00 0.00 0.00 0.00 0.00 0.00 0.00 0.00 0.00 0.00 0.00 0.00 0.01 0.04 0.02 0.01 0.01 0.02 0.00 0.00 0.00 0.00
0.26 0.27 0.29 0.51 0.28 0.04 0.03 0.03 0.03 0.01 0.00 0.00 0.00 0.00 0.00 0.00 0.00 0.00 0.00 0.00 0.00 0.00 0.00 0.00 0.00 0.00 0.00 0.00 0.00 0.00 0.00 0.00 0.00 0.01 0.00 0.00 0.03 0.05 0.03 0.00 0.00 0.00 0.00
0.92 0.97 0.74 0.74 0.68 0.25 0.17 0.11 0.03 0.00 0.00 0.00 0.00 0.00 0.00 0.00 0.00 0.00 0.00 0.00 0.00 0.00 0.00 0.00 0.00 0.00 0.00 0.00 0.00 0.00 0.00 0.00 0.00 0.00 0.00 0.00 0.00 0.01 0.00 0.00 0.00 0.00 0.00
1.80 1.50 1.24 1.09 1.25 0.88 0.53 0.15 0.00 0.00 0.00 0.00 0.00 0.00 0.00 0.00 0.00 0.00 0.00 0.00 0.00 0.00 0.00 0.00 0.00 0.00 0.00 0.00 0.00 0.00 0.00 0.00 0.00 0.00 0.00 0.00 0.00 0.00 0.00 0.00 0.00 0.00 0.00
1.69 1.80 1.59 1.14 1.01 0.63 0.26 0.02 0.00 0.00 0.00 0.00 0.00 0.00 0.00 0.00 0.00 0.00 0.00 0.00 0.00 0.00 0.00 0.00 0.00 0.00 0.00 0.00 0.00 0.00 0.00 0.00 0.00 0.00 0.00 0.00 0.00 0.00 0.00 0.00 0.00 0.00 0.00
1.68 1.16 1.17 1.29 1.06 0.54 0.21 0.08 0.00 0.00 0.00 0.00 0.00 0.00 0.00 0.00 0.00 0.00 0.00 0.00 0.00 0.00 0.00 0.00 0.00 0.00 0.00 0.00 0.00 0.00 0.00 0.00 0.00 0.00 0.00 0.00 0.00 0.00 0.00 0.00 0.00 0.00 0.00
2.24 3.03 2.44 1.93 1.50 0.59 0.16 0.08 0.00 0.00 0.00 0.00 0.00 0.00 0.00 0.00 0.00 0.00 0.00 0.00 0.00 0.00 0.00 0.00 0.00 0.00 0.00 0.00 0.00 0.00 0.00 0.00 0.00 0.00 0.00 0.00 0.00 0.00 0.00 0.00 0.00 0.00 0.00
1.62 1.71 1.80 1.32 0.68 0.50 0.11 0.01 0.00 0.00 0.00 0.00 0.00 0.00 0.00 0.01 0.00 0.00 0.00 0.00 0.00 0.00 0.00 0.00 0.00 0.00 0.00 0.00 0.00 0.00 0.00 0.00 0.00 0.00 0.00 0.00 0.00 0.00 0.00 0.00 0.00 0.00 0.00
1.12 1.10 1.04 0.54 0.41 0.25 0.04 0.00 0.00 0.00 0.00 0.00 0.00 0.02 0.02 0.01 0.04 0.05 0.11 0.13 0.03 0.01 0.00 0.00 0.00 0.00 0.00 0.00 0.00 0.00 0.00 0.00 0.00 0.00 0.00 0.00 0.00 0.00 0.00 0.00 0.00 0.00 0.00
0.75 0.76 0.71 0.41 0.24 0.19 0.01 0.00 0.00 0.00 0.00 0.01 0.04 0.05 0.10 0.16 0.21 0.12 0.08 0.09 0.04 0.01 0.00 0.00 0.00 0.00 0.00 0.00 0.00 0.00 0.00 0.00 0.00 0.00 0.00 0.00 0.00 0.00 0.00 0.00 0.00 0.00 0.00
0.45 0.26 0.25 0.12 0.11 0.04 0.00 0.00 0.01 0.02 0.05 0.10 0.13 0.17 0.25 0.40 0.44 0.30 0.20 0.04 0.02 0.01 0.01 0.00 0.00 0.00 0.00 0.00 0.00 0.00 0.00 0.00 0.00 0.00 0.00 0.00 0.00 0.00 0.00 0.00 0.00 0.00 0.00
0.09 0.04 0.03 0.04 0.03 0.01 0.00 0.02 0.03 0.04 0.05 0.06 0.08 0.09 0.08 0.19 0.20 0.13 0.09 0.06 0.04 0.02 0.00 0.00 0.00 0.00 0.00 0.00 0.00 0.00 0.00 0.00 0.00 0.00 0.00 0.00 0.00 0.00 0.00 0.00 0.00 0.00 0.00
0.00 0.00 0.00 0.01 0.00 0.01 0.00 0.00 0.00 0.00 0.01 0.02 0.03 0.03 0.06 0.11 0.12 0.08 0.04 0.02 0.01 0.00 0.00 0.00 0.00 0.00 0.00 0.00 0.00 0.00 0.00 0.00 0.00 0.00 0.00 0.00 0.00 0.00 0.00 0.00 0.00 0.00 0.00
0.00 0.00 0.01 0.05 0.10 0.05 0.03 0.01 0.00 0.01 0.07 0.13 0.07 0.05 0.05 0.05 0.04 0.02 0.00 0.01 0.00 0.00 0.00 0.00 0.00 0.00 0.00 0.00 0.00 0.00 0.00 0.00 0.00 0.00 0.00 0.00 0.00 0.00 0.00 0.00 0.00 0.00 0.00
0.00 0.00 0.00 0.04 0.30 0.36 0.16 0.15 0.32 0.51 0.41 0.23 0.11 0.03 0.02 0.01 0.00 0.00 0.00 0.00 0.00 0.00 0.00 0.00 0.00 0.00 0.00 0.00 0.00 0.00 0.00 0.00 0.00 0.00 0.00 0.00 0.00 0.00 0.00 0.00 0.00 0.00 0.00
0.00 0.00 0.01 0.09 0.27 0.22 0.56 0.82 0.52 0.20 0.13 0.12 0.08 0.04 0.00 0.00 0.00 0.00 0.00 0.00 0.00 0.00 0.00 0.00 0.00 0.00 0.00 0.00 0.00 0.00 0.00 0.00 0.00 0.00 0.00 0.00 0.00 0.00 0.00 0.00 0.00 0.00 0.00
0.00 0.00 0.09 0.14 0.17 0.22 0.26 0.07 0.01 0.04 0.06 0.09 0.03 0.01 0.00 0.00 0.00 0.00 0.00 0.00 0.00 0.00 0.00 0.00 0.00 0.00 0.00 0.00 0.00 0.00 0.00 0.00 0.00 0.00 0.00 0.00 0.00 0.00 0.00 0.00 0.00 0.00 0.00
0.00 0.01 0.13 0.05 0.08 0.02 0.00 0.00 0.00 0.02 0.03 0.03 0.01 0.00 0.00 0.00 0.00 0.00 0.00 0.00 0.00 0.00 0.00 0.00 0.00 0.00 0.00 0.00 0.00 0.00 0.00 0.00 0.00 0.00 0.00 0.00 0.00 0.00 0.00 0.00 0.00 0.00 0.00
0.03 0.14 0.06 0.04 0.04 0.02 0.02 0.06 0.09 0.09 0.06 0.02 0.01 0.00 0.00 0.00 0.00 0.00 0.00 0.00 0.00 0.00 0.00 0.00 0.00 0.00 0.00 0.00 0.00 0.00 0.00 0.00 0.00 0.00 0.00 0.00 0.00 0.00 0.00 0.00 0.00 0.00 0.00
0.01 0.03 0.02 0.06 0.09 0.09 0.11 0.20 0.18 0.13 0.11 0.05 0.00 0.00 0.00 0.00 0.00 0.00 0.00 0.00 0.00 0.00 0.00 0.00 0.00 0.00 0.00 0.00 0.00 0.00 0.00 0.00 0.00 0.01 0.00 0.00 0.00 0.00 0.00 0.00 0.00 0.00 0.00
0.04 0.04 0.09 0.13 0.14 0.10 0.15 0.23 0.17 0.15 0.12 0.05 0.00 0.00 0.00 0.00 0.00 0.00 0.00 0.00 0.00 0.00 0.00 0.00 0.00 0.00 0.00 0.00 0.00 0.00 0.00 0.00 0.01 0.03 0.03 0.01 0.00 0.00 0.00 0.00 0.00 0.00 0.00
0.11 0.17 0.15 0.13 0.14 0.14 0.20 0.23 0.22 0.16 0.09 0.03 0.00 0.00 0.00 0.00 0.00 0.00 0.00 0.00 0.00 0.00 0.00 0.00 0.00 0.00 0.00 0.01 0.01 0.03 0.05 0.05 0.05 0.07 0.10 0.06 0.02 0.00 0.00 0.00 0.00 0.00 0.00

GFSSE_prec_precacc24_072.txt.gz
Total_Precipitation_Accumulation
0.03 0.01 0.00 0.01 0.01 0.01 0.00 0.00 0.00 0.00 0.00 0.00 0.00 0.00 0.00 0.00 0.00 0.00 0.00 0.00 0.00 0.00 0.00 0.00 0.00 0.00 0.00 0.00 0.00 0.00 0.00 0.00 0.00 0.02 0.03 0.05 0.01 0.00 0.01 0.03 0.03 0.01 0.03
0.09 0.02 0.00 0.00 0.01 0.01 0.00 0.00 0.00 0.00 0.00 0.00 0.00 0.00 0.00 0.00 0.00 0.00 0.00 0.00 0.00 0.00 0.00 0.00 0.00 0.00 0.00 0.00 0.00 0.00 0.00 0.00 0.00 0.01 0.04 0.08 0.13 0.05 0.00 0.01 0.01 0.00 0.00
0.17 0.05 0.01 0.00 0.00 0.00 0.00 0.00 0.01 0.01 0.00 0.00 0.00 0.00 0.00 0.00 0.00 0.00 0.00 0.00 0.00 0.00 0.00 0.00 0.00 0.00 0.00 0.00 0.00 0.00 0.00 0.00 0.00 0.01 0.02 0.05 0.06 0.06 0.00 0.01 0.01 0.00 0.00
0.09 0.05 0.02 0.01 0.00 0.00 0.01 0.01 0.02 0.02 0.01 0.00 0.00 0.00 0.00 0.00 0.00 0.00 0.00 0.00 0.00 0.00 0.00 0.00 0.00 0.00 0.00 0.00 0.00 0.00 0.00 0.00 0.00 0.00 0.04 0.08 0.00 0.00 0.00 0.00 0.00 0.00 0.00
0.14 0.08 0.05 0.14 0.04 0.00 0.01 0.03 0.02 0.02 0.01 0.00 0.00 0.00 0.00 0.00 0.00 0.00 0.00 0.00 0.00 0.00 0.00 0.00 0.00 0.00 0.00 0.00 0.00 0.00 0.00 0.00 0.00 0.01 0.04 0.02 0.00 0.00 0.01 0.00 0.00 0.00 0.00
0.29 0.27 0.29 0.52 0.30 0.04 0.03 0.03 0.03 0.01 0.00 0.00 0.00 0.00 0.00 0.00 0.00 0.00 0.00 0.00 0.00 0.00 0.00 0.00 0.00 0.00 0.00 0.00 0.00 0.00 0.00 0.00 0.00 0.01 0.00 0.00 0.00 0.02 0.01 0.00 0.00 0.00 0.00
0.96 0.97 0.74 0.77 0.73 0.24 0.17 0.11 0.03 0.00 0.00 0.00 0.00 0.00 0.00 0.00 0.00 0.00 0.00 0.00 0.00 0.00 0.00 0.00 0.00 0.00 0.00 0.00 0.00 0.00 0.00 0.00 0.00 0.00 0.00 0.00 0.00 0.00 0.00 0.00 0.00 0.00 0.00
2.04 1.65 1.31 1.30 1.45 0.98 0.62 0.15 0.00 0.00 0.00 0.00 0.00 0.00 0.00 0.00 0.00 0.00 0.00 0.00 0.00 0.00 0.00 0.00 0.00 0.00 0.00 0.00 0.00 0.00 0.00 0.00 0.00 0.00 0.00 0.00 0.00 0.00 0.00 0.00 0.00 0.00 0.00
2.13 2.06 1.80 1.32 1.26 0.87 0.46 0.02 0.00 0.00 0.00 0.00 0.00 0.00 0.00 0.00 0.00 0.00 0.00 0.00 0.00 0.00 0.00 0.00 0.00 0.00 0.00 0.00 0.00 0.00 0.00 0.00 0.00 0.00 0.00 0.00 0.00 0.00 0.00 0.00 0.00 0.00 0.00
2.10 1.49 1.38 1.52 1.34 0.84 0.36 0.14 0.00 0.00 0.00 0.00 0.00 0.00 0.00 0.00 0.00 0.00 0.00 0.00 0.00 0.00 0.00 0.00 0.00 0.00 0.00 0.00 0.00 0.00 0.00 0.00 0.00 0.00 0.00 0.00 0.00 0.00 0.00 0.00 0.00 0.00 0.00
2.53 3.41 2.77 2.21 1.84 0.82 0.26 0.17 0.01 0.00 0.00 0.00 0.00 0.00 0.00 0.00 0.00 0.00 0.00 0.00 0.00 0.00 0.00 0.00 0.00 0.00 0.00 0.00 0.00 0.00 0.00 0.00 0.00 0.00 0.00 0.00 0.00 0.00 0.00 0.00 0.00 0.00 0.00
1.68 1.96 2.26 1.87 1.28 0.94 0.37 0.12 0.04 0.00 0.00 0.00 0.00 0.00 0.00 0.01 0.00 0.00 0.00 0.00 0.00 0.00 0.00 0.00 0.00 0.00 0.00 0.00 0.00 0.00 0.00 0.00 0.00 0.00 0.00 0.00 0.00 0.00 0.00 0.00 0.00 0.00 0.00
1.16 1.19 1.18 0.66 0.49 0.41 0.27 0.22 0.10 0.01 0.00 0.00 0.00 0.02 0.02 0.01 0.03 0.05 0.09 0.13 0.03 0.01 0.00 0.00 0.00 0.00 0.00 0.00 0.00 0.00 0.00 0.00 0.00 0.00 0.00 0.00 0.00 0.00 0.00 0.00 0.00 0.00 0.00
0.93 0.90 0.80 0.48 0.27 0.21 0.03 0.01 0.01 0.00 0.00 0.01 0.04 0.05 0.09 0.11 0.15 0.08 0.06 0.08 0.04 0.01 0.00 0.00 0.00 0.00 0.00 0.00 0.00 0.00 0.00 0.00 0.00 0.00 0.00 0.00 0.00 0.00 0.00 0.00 0.00 0.00 0.00
0.82 0.90 0.62 0.37 0.25 0.13 0.05 0.01 0.01 0.02 0.05 0.10 0.13 0.17 0.25 0.38 0.40 0.29 0.20 0.04 0.02 0.01 0.01 0.00 0.00 0.00 0.00 0.00 0.00 0.00 0.00 0.00 0.00 0.00 0.00 0.00 0.00 0.00 0.00 0.00 0.00 0.00 0.00
0.31 0.35 0.34 0.27 0.14 0.10 0.03 0.03 0.03 0.04 0.05 0.05 0.08 0.09 0.06 0.13 0.14 0.11 0.10 0.07 0.05 0.02 0.00 0.00 0.00 0.00 0.00 0.00 0.00 0.00 0.00 0.00 0.00 0.00 0.00 0.00 0.00 0.00 0.00 0.00 0.00 0.00 0.00
0.06 0.10 0.09 0.04 0.06 0.08 0.02 0.00 0.00 0.00 0.00 0.02 0.03 0.04 0.06 0.10 0.10 0.05 0.03 0.02 0.01 0.00 0.00 0.00 0.00 0.00 0.00 0.00 0.00 0.00 0.00 0.00 0.00 0.00 0.00 0.00 0.00 0.00 0.00 0.00 0.00 0.00 0.00
0.02 0.01 0.01 0.00 0.04 0.08 0.01 0.00 0.00 0.01 0.05 0.13 0.09 0.08 0.08 0.05 0.03 0.01 0.00 0.00 0.00 0.00 0.00 0.00 0.00 0.00 0.00 0.00 0.00 0.00 0.00 0.00 0.00 0.00 0.00 0.00 0.00 0.00 0.00 0.00 0.00 0.00 0.00
0.00 0.00 0.00 0.02 0.23 0.21 0.10 0.10 0.22 0.31 0.31 0.23 0.14 0.06 0.06 0.02 0.00 0.00 0.00 0.00 0.00 0.00 0.00 0.00 0.00 0.00 0.00 0.00 0.00 0.00 0.00 0.00 0.00 0.00 0.00 0.00 0.00 0.00 0.00 0.00 0.00 0.00 0.00
0.00 0.00 0.00 0.09 0.26 0.07 0.13 0.18 0.25 0.16 0.14 0.14 0.11 0.11 0.10 0.01 0.00 0.00 0.00 0.00 0.00 0.00 0.00 0.00 0.00 0.00 0.00 0.00 0.00 0.00 0.00 0.00 0.00 0.00 0.00 0.00 0.00 0.00 0.00 0.00 0.00 0.00 0.00
0.00 0.00 0.08 0.12 0.10 0.03 0.03 0.02 0.01 0.04 0.09 0.14 0.08 0.08 0.04 0.00 0.00 0.00 0.00 0.00 0.00 0.00 0.00 0.00 0.00 0.00 0.00 0.00 0.00 0.00 0.00 0.00 0.00 0.00 0.00 0.00 0.00 0.00 0.00 0.00 0.00 0.00 0.00
0.00 0.01 0.13 0.04 0.09 0.03 0.00 0.00 0.00 0.02 0.06 0.08 0.04 0.02 0.00 0.00 0.00 0.00 0.00 0.00 0.00 0.00 0.00 0.00 0.00 0.00 0.00 0.00 0.00 0.00 0.00 0.00 0.00 0.00 0.00 0.00 0.00 0.00 0.00 0.00 0.00 0.00 0.00
0.03 0.14 0.06 0.04 0.05 0.03 0.03 0.06 0.09 0.09 0.06 0.05 0.04 0.03 0.00 0.00 0.00 0.00 0.00 0.00 0.00 0.00 0.00 0.00 0.00 0.00 0.00 0.00 0.00 0.00 0.00 0.00 0.00 0.00 0.00 0.00 0.00 0.00 0.00 0.00 0.00 0.00 0.00
0.01 0.03 0.02 0.06 0.09 0.09 0.11 0.20 0.18 0.13 0.13 0.09 0.05 0.02 0.00 0.00 0.00 0.00 0.00 0.00 0.00 0.00 0.00 0.00 0.00 0.00 0.00 0.00 0.00 0.00 0.00 0.00 0.00 0.00 0.00 0.00 0.00 0.00 0.00 0.00 0.00 0.00 0.00
0.04 0.04 0.09 0.13 0.14 0.10 0.15 0.23 0.18 0.15 0.14 0.12 0.07 0.04 0.00 0.00 0.00 0.00 0.00 0.00 0.00 0.00 0.00 0.00 0.00 0.00 0.00 0.00 0.00 0.00 0.00 0.00 0.01 0.03 0.02 0.01 0.00 0.00 0.00 0.00 0.00 0.00 0.00
0.11 0.17 0.15 0.13 0.14 0.14 0.20 0.25 0.24 0.18 0.12 0.09 0.07 0.04 0.01 0.00 0.00 0.00 0.00 0.00 0.00 0.00 0.00 0.00 0.00 0.00 0.00 0.00 0.00 0.02 0.04 0.04 0.04 0.06 0.06 0.04 0.01 0.00 0.00 0.00 0.00 0.00 0.00

GFSSE_prec_precacc24_075.txt.gz
Total_Precipitation_Accumulation
0.03 0.01 0.01 0.01 0.02 0.01 0.00 0.00 0.00 0.00 0.00 0.00 0.00 0.00 0.00 0.00 0.00 0.00 0.00 0.00 0.00 0.00 0.00 0.00 0.00 0.00 0.00 0.00 0.00 0.00 0.00 0.00 0.00 0.02 0.03 0.05 0.01 0.00 0.01 0.03 0.03 0.00 0.03
0.09 0.02 0.00 0.01 0.02 0.01 0.00 0.00 0.00 0.00 0.00 0.00 0.00 0.00 0.00 0.00 0.00 0.00 0.00 0.00 0.00 0.00 0.00 0.00 0.00 0.00 0.00 0.00 0.00 0.00 0.00 0.00 0.00 0.01 0.04 0.08 0.13 0.05 0.00 0.01 0.01 0.00 0.00
0.16 0.03 0.01 0.01 0.01 0.00 0.00 0.00 0.01 0.00 0.00 0.00 0.00 0.00 0.00 0.00 0.00 0.00 0.00 0.00 0.00 0.00 0.00 0.00 0.00 0.00 0.00 0.00 0.00 0.00 0.00 0.00 0.00 0.01 0.02 0.04 0.06 0.06 0.00 0.00 0.00 0.00 0.00
0.08 0.04 0.01 0.01 0.01 0.00 0.00 0.00 0.02 0.02 0.00 0.00 0.00 0.00 0.00 0.00 0.00 0.00 0.00 0.00 0.00 0.00 0.00 0.00 0.00 0.00 0.00 0.00 0.00 0.00 0.00 0.00 0.00 0.00 0.04 0.08 0.00 0.00 0.00 0.00 0.00 0.00 0.00
0.10 0.04 0.04 0.15 0.04 0.01 0.01 0.02 0.01 0.00 0.00 0.00 0.00 0.00 0.00 0.00 0.00 0.00 0.00 0.00 0.00 0.00 0.00 0.00 0.00 0.00 0.00 0.00 0.00 0.00 0.00 0.00 0.00 0.01 0.04 0.02 0.00 0.00 0.00 0.00 0.00 0.00 0.00
0.20 0.19 0.29 0.52 0.30 0.04 0.03 0.02 0.01 0.00 0.00 0.00 0.00 0.00 0.00 0.00 0.00 0.00 0.00 0.00 0.00 0.00 0.00 0.00 0.00 0.00 0.00 0.00 0.00 0.00 0.00 0.00 0.00 0.01 0.00 0.00 0.00 0.00 0.00 0.00 0.00 0.00 0.00
0.87 0.93 0.73 0.79 0.76 0.24 0.15 0.09 0.02 0.00 0.00 0.00 0.00 0.00 0.00 0.00 0.00 0.00 0.00 0.00 0.00 0.00 0.00 0.00 0.00 0.00 0.00 0.00 0.00 0.00 0.00 0.00 0.00 0.00 0.00 0.00 0.00 0.00 0.00 0.00 0.00 0.00 0.00
2.23 1.74 1.30 1.35 1.56 1.01 0.61 0.14 0.00 0.00 0.00 0.00 0.00 0.00 0.00 0.00 0.00 0.00 0.00 0.00 0.00 0.00 0.00 0.00 0.00 0.00 0.00 0.00 0.00 0.00 0.00 0.00 0.00 0.00 0.00 0.00 0.00 0.00 0.00 0.00 0.00 0.00 0.00
3.29 2.62 1.88 1.44 1.46 1.03 0.55 0.07 0.00 0.00 0.00 0.00 0.00 0.00 0.00 0.00 0.00 0.00 0.00 0.00 0.00 0.00 0.00 0.00 0.00 0.00 0.00 0.00 0.00 0.00 0.00 0.00 0.00 0.00 0.00 0.00 0.00 0.00 0.00 0.00 0.00 0.00 0.00
3.17 2.93 1.60 1.69 1.54 1.02 0.52 0.21 0.00 0.00 0.00 0.00 0.00 0.00 0.00 0.00 0.00 0.00 0.00 0.00 0.00 0.00 0.00 0.00 0.00 0.00 0.00 0.00 0.00 0.00 0.00 0.00 0.00 0.00 0.00 0.00 0.00 0.00 0.00 0.00 0.00 0.00 0.00
2.83 3.82 3.02 2.41 1.98 1.00 0.47 0.26 0.01 0.00 0.00 0.00 0.00 0.00 0.00 0.00 0.00 0.00 0.00 0.00 0.00 0.00 0.00 0.00 0.00 0.00 0.00 0.00 0.00 0.00 0.00 0.00 0.00 0.00 0.00 0.00 0.00 0.00 0.00 0.00 0.00 0.00 0.00
1.76 2.07 2.52 2.15 1.54 1.10 0.52 0.26 0.05 0.00 0.00 0.00 0.00 0.00 0.00 0.01 0.00 0.00 0.00 0.00 0.00 0.00 0.00 0.00 0.00 0.00 0.00 0.00 0.00 0.00 0.00 0.00 0.00 0.00 0.00 0.00 0.00 0.00 0.00 0.00 0.00 0.00 0.00
1.24 1.27 1.29 0.88 0.83 0.72 0.50 0.32 0.15 0.02 0.00 0.00 0.00 0.02 0.01 0.01 0.03 0.04 0.09 0.13 0.03 0.01 0.00 0.00 0.00 0.00 0.00 0.00 0.00 0.00 0.00 0.00 0.00 0.00 0.00 0.00 0.00 0.00 0.00 0.00 0.00 0.00 0.00
1.06 1.00 0.91 0.61 0.36 0.26 0.05 0.02 0.03 0.02 0.01 0.01 0.04 0.05 0.07 0.06 0.10 0.06 0.05 0.08 0.04 0.01 0.00 0.00 0.00 0.00 0.00 0.00 0.00 0.00 0.00 0.00 0.00 0.00 0.00 0.00 0.00 0.00 0.01 0.00 0.00 0.00 0.00
0.91 1.02 0.82 0.49 0.34 0.16 0.06 0.02 0.01 0.01 0.03 0.06 0.09 0.08 0.09 0.13 0.20 0.17 0.12 0.04 0.02 0.01 0.01 0.00 0.00 0.00 0.00 0.00 0.00 0.00 0.00 0.00 0.00 0.00 0.00 0.00 0.00 0.00 0.00 0.00 0.00 0.00 0.00
0.43 0.42 0.48 0.53 0.33 0.23 0.09 0.06 0.04 0.01 0.01 0.01 0.03 0.02 0.05 0.16 0.19 0.14 0.10 0.07 0.05 0.02 0.00 0.00 0.00 0.00 0.00 0.00 0.00 0.00 0.00 0.00 0.00 0.00 0.00 0.00 0.00 0.00 0.00 0.00 0.00 0.00 0.00
0.13 0.24 0.28 0.33 0.39 0.31 0.13 0.03 0.01 0.00 0.00 0.03 0.07 0.10 0.10 0.16 0.13 0.07 0.03 0.01 0.00 0.00 0.00 0.00 0.00 0.00 0.00 0.00 0.00 0.00 0.00 0.00 0.00 0.00 0.00 0.00 0.00 0.00 0.00 0.00 0.00 0.00 0.00
0.06 0.13 0.14 0.17 0.23 0.20 0.04 0.00 0.00 0.01 0.05 0.13 0.12 0.13 0.08 0.05 0.02 0.01 0.00 0.00 0.00 0.00 0.00 0.00 0.00 0.00 0.00 0.00 0.00 0.00 0.00 0.00 0.00 0.00 0.00 0.00 0.00 0.00 0.00 0.00 0.00 0.00 0.00
0.01 0.02 0.06 0.10 0.35 0.18 0.09 0.04 0.05 0.08 0.19 0.21 0.19 0.14 0.06 0.01 0.00 0.00 0.00 0.00 0.00 0.00 0.00 0.00 0.00 0.00 0.00 0.00 0.00 0.00 0.00 0.00 0.00 0.00 0.00 0.00 0.00 0.00 0.00 0.00 0.00 0.00 0.00
0.00 0.00 0.00 0.13 0.36 0.13 0.08 0.01 0.01 0.07 0.16 0.18 0.16 0.17 0.11 0.02 0.00 0.00 0.00 0.00 0.00 0.00 0.00 0.00 0.00 0.00 0.00 0.00 0.00 0.00 0.00 0.00 0.00 0.00 0.00 0.00 0.00 0.00 0.00 0.00 0.00 0.00 0.00
0.00 0.00 0.08 0.16 0.20 0.06 0.04 0.01 0.01 0.05 0.11 0.17 0.12 0.10 0.05 0.02 0.00 0.00 0.00 0.00 0.00 0.00 0.00 0.00 0.00 0.00 0.00 0.00 0.00 0.00 0.00 0.00 0.00 0.00 0.00 0.00 0.00 0.00 0.00 0.00 0.00 0.00 0.00
0.00 0.01 0.13 0.08 0.16 0.07 0.01 0.00 0.00 0.02 0.07 0.11 0.11 0.04 0.01 0.01 0.00 0.00 0.00 0.00 0.00 0.00 0.00 0.00 0.00 0.00 0.00 0.00 0.00 0.00 0.00 0.00 0.00 0.00 0.00 0.00 0.00 0.00 0.00 0.00 0.00 0.00 0.00
0.02 0.13 0.06 0.04 0.11 0.09 0.05 0.06 0.09 0.14 0.08 0.07 0.09 0.04 0.02 0.01 0.00 0.00 0.00 0.00 0.00 0.00 0.00 0.00 0.00 0.00 0.00 0.00 0.00 0.00 0.00 0.00 0.00 0.00 0.00 0.00 0.00 0.00 0.00 0.00 0.00 0.00 0.00
0.01 0.03 0.02 0.06 0.10 0.13 0.17 0.21 0.18 0.15 0.14 0.09 0.05 0.04 0.03 0.02 0.00 0.00 0.00 0.00 0.00 0.00 0.00 0.00 0.00 0.00 0.00 0.00 0.00 0.00 0.00 0.00 0.00 0.00 0.00 0.00 0.00 0.00 0.00 0.00 0.00 0.00 0.00
0.04 0.04 0.09 0.13 0.14 0.11 0.16 0.26 0.18 0.16 0.16 0.15 0.08 0.07 0.07 0.05 0.01 0.00 0.00 0.00 0.00 0.00 0.00 0.00 0.00 0.00 0.00 0.00 0.00 0.00 0.00 0.00 0.00 0.01 0.01 0.00 0.00 0.00 0.00 0.00 0.00 0.00 0.00
0.11 0.17 0.15 0.13 0.14 0.14 0.20 0.26 0.24 0.18 0.13 0.09 0.08 0.07 0.04 0.01 0.00 0.00 0.00 0.00 0.00 0.00 0.00 0.00 0.00 0.00 0.00 0.00 0.00 0.00 0.01 0.01 0.01 0.01 0.01 0.00 0.00 0.00 0.00 0.00 0.00 0.00 0.00

GFSSE_prec_precacc24_081.txt.gz
Total_Precipitation_Accumulation
0.17 0.01 0.01 0.01 0.02 0.01 0.00 0.00 0.00 0.00 0.00 0.00 0.00 0.00 0.00 0.00 0.00 0.00 0.00 0.00 0.00 0.00 0.00 0.00 0.00 0.00 0.00 0.00 0.00 0.00 0.00 0.00 0.00 0.02 0.02 0.04 0.01 0.00 0.01 0.02 0.02 0.00 0.03
0.15 0.04 0.01 0.01 0.02 0.01 0.00 0.00 0.00 0.00 0.00 0.00 0.00 0.00 0.00 0.00 0.00 0.00 0.00 0.00 0.00 0.00 0.00 0.00 0.00 0.00 0.00 0.00 0.00 0.00 0.00 0.00 0.00 0.01 0.03 0.06 0.07 0.01 0.00 0.00 0.01 0.00 0.00
0.42 0.44 0.12 0.01 0.01 0.00 0.01 0.00 0.01 0.01 0.00 0.00 0.00 0.00 0.00 0.00 0.00 0.00 0.00 0.00 0.00 0.01 0.00 0.00 0.00 0.00 0.00 0.00 0.00 0.00 0.00 0.00 0.00 0.01 0.00 0.00 0.03 0.00 0.00 0.00 0.00 0.00 0.00
1.26 0.80 0.36 0.05 0.03 0.01 0.01 0.01 0.02 0.01 0.00 0.00 0.00 0.00 0.00 0.00 0.00 0.00 0.00 0.00 0.00 0.01 0.00 0.00 0.00 0.00 0.00 0.00 0.00 0.00 0.00 0.00 0.00 0.00 0.00 0.00 0.00 0.00 0.00 0.00 0.00 0.00 0.00
0.80 0.82 0.68 0.40 0.17 0.07 0.03 0.02 0.02 0.00 0.00 0.00 0.00 0.00 0.00 0.00 0.00 0.00 0.00 0.00 0.00 0.01 0.00 0.00 0.00 0.00 0.00 0.00 0.00 0.00 0.00 0.00 0.00 0.00 0.00 0.00 0.00 0.00 0.00 0.00 0.00 0.00 0.00
0.55 0.69 1.12 0.85 0.44 0.12 0.10 0.04 0.01 0.00 0.00 0.00 0.00 0.00 0.00 0.00 0.00 0.00 0.00 0.00 0.00 0.00 0.00 0.00 0.00 0.00 0.00 0.00 0.00 0.00 0.00 0.00 0.00 0.00 0.00 0.00 0.00 0.00 0.00 0.00 0.00 0.00 0.00
0.67 1.09 1.28 1.02 0.73 0.27 0.18 0.08 0.02 0.00 0.00 0.00 0.00 0.00 0.00 0.00 0.00 0.00 0.00 0.00 0.00 0.00 0.00 0.00 0.00 0.00 0.00 0.00 0.00 0.00 0.00 0.00 0.00 0.00 0.00 0.00 0.00 0.00 0.00 0.00 0.00 0.00 0.00
1.96 1.92 1.82 1.47 1.53 1.10 0.65 0.14 0.00 0.00 0.00 0.00 0.00 0.00 0.00 0.00 0.00 0.00 0.00 0.00 0.00 0.00 0.00 0.00 0.00 0.00 0.00 0.00 0.00 0.00 0.00 0.00 0.00 0.00 0.00 0.00 0.00 0.00 0.00 0.00 0.00 0.00 0.00
4.66 4.57 2.68 2.03 1.91 1.32 0.65 0.09 0.01 0.00 0.00 0.00 0.00 0.00 0.00 0.00 0.00 0.00 0.00 0.00 0.00 0.00 0.00 0.00 0.00 0.00 0.00 0.00 0.00 0.00 0.00 0.00 0.00 0.00 0.00 0.00 0.00 0.00 0.00 0.00 0.00 0.00 0.00
5.92 8.47 5.42 3.65 2.20 1.31 0.62 0.27 0.00 0.00 0.00 0.00 0.00 0.00 0.00 0.00 0.00 0.00 0.00 0.00 0.00 0.00 0.00 0.00 0.00 0.00 0.00 0.00 0.00 0.00 0.00 0.00 0.00 0.00 0.00 0.00 0.00 0.00 0.00 0.00 0.00 0.00 0.00
2.86 4.53 5.15 5.46 3.55 1.24 0.55 0.32 0.01 0.00 0.00 0.00 0.00 0.00 0.00 0.00 0.00 0.00 0.00 0.00 0.00 0.00 0.00 0.00 0.00 0.00 0.00 0.00 0.00 0.00 0.00 0.00 0.00 0.00 0.00 0.00 0.00 0.01 0.00 0.00 0.00 0.00 0.00
1.17 1.92 3.02 3.21 3.20 1.70 0.61 0.29 0.05 0.00 0.00 0.00 0.00 0.00 0.00 0.00 0.00 0.00 0.00 0.00 0.00 0.00 0.00 0.00 0.00 0.00 0.00 0.00 0.00 0.00 0.00 0.00 0.00 0.00 0.00 0.00 0.00 0.00 0.00 0.00 0.00 0.00 0.00
1.17 1.16 1.29 1.09 1.10 1.03 0.64 0.43 0.19 0.04 0.01 0.00 0.00 0.00 0.00 0.00 0.00 0.00 0.00 0.00 0.00 0.00 0.00 0.00 0.00 0.00 0.00 0.00 0.00 0.00 0.00 0.00 0.00 0.00 0.00 0.00 0.00 0.00 0.01 0.00 0.00 0.00 0.00
1.14 1.05 1.02 0.73 0.50 0.33 0.15 0.14 0.08 0.05 0.03 0.01 0.00 0.00 0.00 0.00 0.00 0.00 0.00 0.00 0.00 0.00 0.00 0.00 0.00 0.00 0.00 0.00 0.00 0.00 0.00 0.00 0.00 0.00 0.00 0.00 0.00 0.00 0.01 0.00 0.00 0.00 0.00
1.08 1.14 0.98 0.67 0.50 0.22 0.10 0.03 0.01 0.02 0.00 0.00 0.01 0.02 0.00 0.01 0.04 0.04 0.02 0.01 0.01 0.00 0.00 0.00 0.00 0.00 0.00 0.00 0.00 0.00 0.00 0.00 0.00 0.00 0.00 0.00 0.00 0.00 0.00 0.00 0.00 0.00 0.00
0.59 0.55 0.56 0.71 0.56 0.39 0.16 0.09 0.05 0.02 0.02 0.02 0.06 0.09 0.11 0.14 0.13 0.09 0.04 0.01 0.01 0.00 0.00 0.00 0.00 0.00 0.00 0.00 0.00 0.00 0.00 0.00 0.00 0.00 0.00 0.00 0.00 0.00 0.00 0.00 0.00 0.00 0.00
0.24 0.43 0.43 0.44 0.55 0.48 0.30 0.11 0.05 0.04 0.04 0.06 0.13 0.21 0.24 0.21 0.16 0.08 0.04 0.01 0.00 0.00 0.00 0.00 0.00 0.00 0.00 0.00 0.00 0.00 0.00 0.00 0.00 0.00 0.00 0.00 0.00 0.00 0.00 0.00 0.00 0.00 0.00
0.08 0.20 0.22 0.30 0.41 0.37 0.20 0.13 0.07 0.04 0.09 0.18 0.17 0.24 0.24 0.16 0.08 0.08 0.05 0.01 0.00 0.00 0.00 0.00 0.00 0.00 0.00 0.00 0.00 0.00 0.00 0.00 0.00 0.00 0.00 0.00 0.00 0.00 0.00 0.00 0.00 0.00 0.00
0.02 0.03 0.11 0.17 0.30 0.21 0.11 0.05 0.02 0.04 0.19 0.26 0.28 0.29 0.18 0.14 0.06 0.06 0.04 0.02 0.01 0.00 0.00 0.00 0.00 0.00 0.00 0.00 0.00 0.00 0.00 0.00 0.00 0.00 0.00 0.00 0.00 0.00 0.00 0.00 0.00 0.00 0.00
0.01 0.00 0.01 0.06 0.18 0.13 0.09 0.01 0.01 0.08 0.19 0.24 0.23 0.31 0.25 0.17 0.17 0.17 0.09 0.03 0.01 0.00 0.00 0.00 0.00 0.00 0.00 0.00 0.00 0.00 0.00 0.00 0.00 0.00 0.00 0.00 0.00 0.00 0.00 0.00 0.00 0.00 0.00
0.00 0.00 0.00 0.06 0.16 0.08 0.05 0.00 0.01 0.06 0.14 0.23 0.21 0.22 0.15 0.17 0.09 0.13 0.04 0.03 0.00 0.00 0.00 0.00 0.00 0.00 0.00 0.00 0.00 0.00 0.00 0.00 0.00 0.00 0.00 0.00 0.00 0.00 0.00 0.00 0.00 0.00 0.00
0.00 0.00 0.02 0.06 0.15 0.09 0.04 0.00 0.00 0.03 0.09 0.16 0.23 0.12 0.11 0.19 0.17 0.06 0.01 0.01 0.00 0.00 0.00 0.00 0.00 0.00 0.00 0.00 0.00 0.00 0.00 0.00 0.00 0.00 0.00 0.00 0.00 0.00 0.00 0.00 0.00 0.00 0.00
0.00 0.00 0.00 0.02 0.13 0.11 0.05 0.06 0.09 0.15 0.14 0.13 0.28 0.20 0.09 0.18 0.25 0.19 0.02 0.00 0.00 0.00 0.00 0.00 0.00 0.00 0.00 0.00 0.00 0.00 0.00 0.00 0.00 0.00 0.00 0.00 0.00 0.00 0.00 0.00 0.00 0.00 0.00
0.00 0.00 0.02 0.06 0.11 0.15 0.19 0.23 0.18 0.16 0.14 0.09 0.09 0.06 0.07 0.07 0.03 0.03 0.01 0.00 0.00 0.00 0.00 0.00 0.00 0.00 0.00 0.00 0.00 0.00 0.00 0.00 0.00 0.00 0.00 0.00 0.00 0.00 0.00 0.00 0.00 0.00 0.00
0.04 0.04 0.09 0.13 0.14 0.11 0.17 0.31 0.19 0.17 0.18 0.18 0.09 0.09 0.08 0.09 0.06 0.06 0.02 0.00 0.00 0.00 0.00 0.00 0.00 0.00 0.00 0.00 0.00 0.00 0.00 0.00 0.00 0.00 0.00 0.00 0.00 0.00 0.00 0.00 0.00 0.00 0.00
0.11 0.17 0.15 0.13 0.14 0.14 0.21 0.26 0.26 0.18 0.14 0.10 0.08 0.09 0.07 0.04 0.03 0.02 0.01 0.00 0.00 0.00 0.00 0.00 0.00 0.00 0.00 0.00 0.00 0.00 0.00 0.00 0.00 0.00 0.00 0.00 0.00 0.00 0.00 0.00 0.00 0.00 0.00

GFSSE_prec_precacc24_084.txt.gz
Total_Precipitation_Accumulation
0.22 0.02 0.01 0.02 0.02 0.01 0.00 0.00 0.00 0.00 0.00 0.00 0.00 0.00 0.00 0.00 0.00 0.00 0.00 0.00 0.00 0.00 0.00 0.00 0.00 0.00 0.00 0.00 0.00 0.00 0.00 0.00 0.00 0.02 0.02 0.02 0.00 0.00 0.00 0.00 0.00 0.00 0.00
0.16 0.08 0.03 0.01 0.02 0.01 0.00 0.00 0.00 0.00 0.00 0.00 0.00 0.00 0.00 0.00 0.00 0.00 0.00 0.00 0.00 0.00 0.00 0.00 0.00 0.00 0.00 0.00 0.00 0.00 0.00 0.00 0.00 0.01 0.02 0.03 0.00 0.00 0.00 0.00 0.00 0.00 0.00
0.42 0.47 0.38 0.08 0.02 0.00 0.00 0.00 0.00 0.00 0.00 0.00 0.00 0.00 0.00 0.00 0.00 0.00 0.00 0.00 0.00 0.01 0.00 0.00 0.00 0.00 0.00 0.00 0.00 0.00 0.00 0.00 0.00 0.01 0.00 0.00 0.00 0.00 0.00 0.00 0.00 0.00 0.00
1.25 0.82 0.83 0.57 0.09 0.01 0.00 0.00 0.00 0.01 0.00 0.00 0.00 0.00 0.00 0.00 0.00 0.00 0.00 0.00 0.00 0.01 0.00 0.00 0.00 0.00 0.00 0.00 0.00 0.00 0.00 0.00 0.00 0.00 0.00 0.00 0.00 0.00 0.00 0.00 0.00 0.00 0.00
0.80 0.88 0.94 1.07 0.78 0.15 0.03 0.01 0.01 0.00 0.00 0.00 0.00 0.00 0.00 0.00 0.00 0.00 0.00 0.00 0.00 0.01 0.00 0.00 0.00 0.00 0.00 0.00 0.00 0.00 0.00 0.00 0.00 0.00 0.00 0.00 0.00 0.00 0.00 0.00 0.00 0.00 0.00
0.55 0.65 1.16 1.23 0.80 0.29 0.10 0.04 0.01 0.00 0.00 0.00 0.00 0.00 0.00 0.00 0.00 0.00 0.00 0.00 0.00 0.00 0.00 0.00 0.00 0.00 0.00 0.00 0.00 0.00 0.00 0.00 0.00 0.00 0.00 0.00 0.00 0.00 0.00 0.00 0.00 0.00 0.00
0.61 0.87 1.35 1.47 1.28 0.40 0.19 0.06 0.01 0.00 0.00 0.00 0.00 0.00 0.00 0.00 0.00 0.00 0.00 0.00 0.00 0.00 0.00 0.00 0.00 0.00 0.00 0.00 0.00 0.00 0.00 0.00 0.00 0.00 0.00 0.00 0.00 0.00 0.00 0.00 0.00 0.00 0.00
1.92 1.83 2.22 2.03 2.09 1.63 0.71 0.12 0.00 0.00 0.00 0.00 0.00 0.00 0.00 0.00 0.00 0.00 0.00 0.00 0.00 0.00 0.00 0.00 0.00 0.00 0.00 0.00 0.00 0.00 0.00 0.00 0.00 0.00 0.00 0.00 0.00 0.00 0.00 0.00 0.00 0.00 0.00
4.73 4.56 3.27 3.64 2.29 1.83 1.03 0.13 0.02 0.00 0.00 0.00 0.00 0.00 0.00 0.00 0.00 0.00 0.00 0.00 0.00 0.00 0.00 0.00 0.00 0.00 0.00 0.00 0.00 0.00 0.00 0.00 0.00 0.00 0.00 0.00 0.00 0.00 0.00 0.00 0.00 0.00 0.00
5.42 8.58 5.94 5.61 3.80 2.30 0.97 0.36 0.05 0.00 0.00 0.00 0.00 0.00 0.00 0.00 0.00 0.00 0.00 0.00 0.00 0.00 0.00 0.00 0.00 0.00 0.00 0.00 0.00 0.00 0.00 0.00 0.00 0.00 0.00 0.00 0.00 0.00 0.00 0.00 0.00 0.00 0.00
2.38 4.20 5.13 6.75 5.50 2.60 0.97 0.43 0.10 0.03 0.00 0.00 0.00 0.00 0.00 0.00 0.00 0.00 0.00 0.00 0.00 0.00 0.00 0.00 0.00 0.00 0.00 0.00 0.00 0.00 0.00 0.00 0.00 0.00 0.00 0.00 0.00 0.01 0.00 0.00 0.00 0.00 0.00
1.09 1.76 2.94 4.50 6.00 3.27 1.33 0.41 0.09 0.00 0.00 0.00 0.00 0.00 0.00 0.00 0.00 0.01 0.00 0.00 0.00 0.00 0.00 0.00 0.00 0.00 0.00 0.00 0.00 0.00 0.00 0.00 0.00 0.00 0.00 0.00 0.00 0.00 0.00 0.00 0.00 0.00 0.00
1.13 1.06 1.22 1.40 2.50 2.46 1.79 0.56 0.19 0.04 0.01 0.00 0.00 0.00 0.00 0.00 0.00 0.00 0.00 0.00 0.00 0.00 0.00 0.00 0.00 0.00 0.00 0.00 0.00 0.00 0.00 0.00 0.00 0.00 0.00 0.00 0.00 0.00 0.01 0.00 0.00 0.00 0.00
1.11 0.95 0.91 0.72 0.64 0.64 0.59 0.28 0.08 0.05 0.03 0.01 0.00 0.00 0.00 0.00 0.00 0.00 0.00 0.00 0.00 0.00 0.00 0.00 0.00 0.00 0.00 0.00 0.00 0.00 0.00 0.00 0.00 0.00 0.00 0.00 0.00 0.00 0.01 0.00 0.00 0.00 0.00
0.99 1.11 0.98 0.67 0.50 0.24 0.13 0.07 0.02 0.02 0.00 0.00 0.01 0.02 0.00 0.01 0.04 0.04 0.02 0.01 0.01 0.00 0.00 0.00 0.00 0.00 0.00 0.00 0.00 0.00 0.00 0.00 0.00 0.00 0.00 0.00 0.00 0.00 0.00 0.00 0.00 0.00 0.00
0.62 0.55 0.56 0.71 0.57 0.40 0.17 0.09 0.05 0.02 0.03 0.02 0.06 0.09 0.11 0.14 0.13 0.09 0.04 0.01 0.01 0.00 0.00 0.00 0.00 0.00 0.00 0.00 0.00 0.00 0.00 0.00 0.00 0.00 0.00 0.00 0.00 0.00 0.00 0.00 0.00 0.00 0.00
0.28 0.43 0.43 0.47 0.57 0.51 0.39 0.12 0.05 0.04 0.05 0.06 0.13 0.21 0.24 0.22 0.16 0.08 0.04 0.01 0.00 0.00 0.00 0.00 0.00 0.00 0.00 0.00 0.00 0.00 0.00 0.00 0.00 0.00 0.00 0.00 0.00 0.00 0.00 0.00 0.00 0.00 0.00
0.11 0.26 0.23 0.31 0.44 0.38 0.22 0.13 0.07 0.04 0.10 0.18 0.17 0.24 0.26 0.20 0.08 0.08 0.05 0.01 0.00 0.00 0.00 0.00 0.00 0.00 0.00 0.00 0.00 0.00 0.00 0.00 0.00 0.00 0.00 0.00 0.00 0.00 0.00 0.00 0.00 0.00 0.00
0.02 0.06 0.17 0.21 0.31 0.24 0.13 0.07 0.05 0.06 0.19 0.26 0.28 0.29 0.18 0.20 0.08 0.07 0.04 0.02 0.01 0.00 0.00 0.00 0.00 0.00 0.00 0.00 0.00 0.00 0.00 0.00 0.00 0.00 0.00 0.00 0.00 0.00 0.00 0.00 0.00 0.00 0.00
0.02 0.01 0.04 0.12 0.19 0.16 0.10 0.04 0.04 0.10 0.19 0.24 0.23 0.31 0.25 0.18 0.24 0.21 0.11 0.03 0.02 0.00 0.00 0.00 0.00 0.00 0.00 0.00 0.00 0.00 0.00 0.00 0.00 0.00 0.00 0.00 0.00 0.00 0.00 0.00 0.00 0.00 0.00
0.00 0.00 0.00 0.07 0.17 0.09 0.06 0.00 0.01 0.06 0.14 0.23 0.21 0.22 0.15 0.17 0.10 0.15 0.07 0.04 0.00 0.00 0.00 0.00 0.00 0.00 0.00 0.00 0.00 0.00 0.00 0.00 0.00 0.00 0.00 0.00 0.00 0.00 0.00 0.00 0.00 0.00 0.00
0.00 0.00 0.01 0.05 0.13 0.09 0.04 0.00 0.00 0.03 0.09 0.16 0.23 0.12 0.11 0.19 0.18 0.07 0.02 0.07 0.00 0.00 0.00 0.00 0.00 0.00 0.00 0.00 0.00 0.00 0.00 0.00 0.00 0.00 0.00 0.00 0.00 0.00 0.00 0.00 0.00 0.00 0.00
0.00 0.00 0.00 0.01 0.11 0.10 0.05 0.06 0.09 0.15 0.14 0.13 0.28 0.20 0.09 0.18 0.28 0.22 0.02 0.02 0.00 0.00 0.00 0.00 0.00 0.00 0.00 0.00 0.00 0.00 0.00 0.00 0.00 0.00 0.00 0.00 0.00 0.00 0.00 0.00 0.00 0.00 0.00
0.00 0.00 0.00 0.03 0.09 0.15 0.19 0.23 0.18 0.16 0.14 0.09 0.09 0.06 0.07 0.08 0.09 0.07 0.01 0.01 0.00 0.00 0.00 0.00 0.00 0.00 0.00 0.00 0.00 0.00 0.00 0.00 0.00 0.00 0.00 0.00 0.00 0.00 0.00 0.00 0.00 0.00 0.00
0.03 0.02 0.01 0.09 0.13 0.11 0.17 0.31 0.19 0.17 0.18 0.18 0.09 0.09 0.08 0.10 0.08 0.08 0.02 0.03 0.02 0.00 0.00 0.00 0.00 0.00 0.00 0.00 0.00 0.00 0.00 0.00 0.00 0.00 0.00 0.00 0.00 0.00 0.00 0.00 0.00 0.00 0.00
0.09 0.12 0.12 0.12 0.14 0.14 0.21 0.26 0.26 0.18 0.14 0.10 0.08 0.09 0.07 0.05 0.06 0.02 0.01 0.00 0.01 0.01 0.02 0.01 0.00 0.00 0.00 0.00 0.00 0.00 0.00 0.00 0.00 0.00 0.00 0.00 0.00 0.00 0.00 0.00 0.00 0.00 0.00

GFSSE_prec_precacc24_087.txt.gz
Total_Precipitation_Accumulation
0.21 0.02 0.01 0.02 0.02 0.01 0.00 0.00 0.00 0.00 0.00 0.00 0.00 0.00 0.00 0.00 0.00 0.00 0.00 0.00 0.00 0.00 0.00 0.00 0.00 0.00 0.00 0.00 0.00 0.00 0.00 0.00 0.00 0.01 0.00 0.00 0.00 0.00 0.00 0.00 0.00 0.00 0.00
0.16 0.07 0.03 0.01 0.02 0.01 0.00 0.00 0.00 0.00 0.00 0.00 0.00 0.00 0.00 0.00 0.00 0.00 0.00 0.00 0.00 0.00 0.00 0.00 0.00 0.00 0.00 0.00 0.00 0.00 0.00 0.00 0.00 0.00 0.00 0.00 0.00 0.00 0.00 0.00 0.00 0.00 0.00
0.42 0.47 0.38 0.08 0.02 0.00 0.00 0.00 0.00 0.00 0.00 0.00 0.00 0.00 0.00 0.00 0.00 0.00 0.00 0.00 0.00 0.01 0.00 0.00 0.00 0.00 0.00 0.00 0.00 0.00 0.00 0.00 0.00 0.00 0.00 0.00 0.00 0.00 0.00 0.00 0.00 0.00 0.00
1.26 0.85 0.83 0.57 0.09 0.02 0.00 0.00 0.00 0.00 0.00 0.00 0.00 0.00 0.00 0.00 0.00 0.00 0.00 0.00 0.00 0.01 0.00 0.00 0.00 0.00 0.00 0.00 0.00 0.00 0.00 0.00 0.00 0.00 0.00 0.00 0.00 0.00 0.00 0.00 0.00 0.00 0.01
0.89 1.08 1.00 1.03 0.85 0.31 0.13 0.02 0.01 0.00 0.00 0.00 0.00 0.00 0.00 0.00 0.00 0.00 0.00 0.00 0.00 0.01 0.00 0.00 0.00 0.00 0.00 0.00 0.00 0.00 0.00 0.00 0.00 0.00 0.00 0.00 0.00 0.00 0.00 0.00 0.00 0.00 0.00
0.67 0.70 1.24 1.13 0.80 0.52 0.47 0.17 0.03 0.00 0.00 0.00 0.00 0.00 0.00 0.00 0.00 0.00 0.00 0.00 0.00 0.00 0.00 0.00 0.00 0.00 0.00 0.00 0.00 0.00 0.00 0.00 0.00 0.00 0.00 0.00 0.00 0.00 0.00 0.00 0.00 0.00 0.00
0.49 0.78 1.14 1.27 1.22 0.36 0.37 0.30 0.12 0.01 0.00 0.00 0.00 0.00 0.00 0.00 0.00 0.00 0.00 0.00 0.00 0.00 0.00 0.00 0.00 0.00 0.00 0.00 0.00 0.00 0.00 0.00 0.00 0.00 0.00 0.00 0.00 0.00 0.00 0.00 0.00 0.00 0.00
1.81 1.72 2.01 1.78 1.89 1.50 0.82 0.42 0.22 0.09 0.00 0.00 0.00 0.00 0.00 0.00 0.00 0.00 0.00 0.00 0.00 0.00 0.00 0.00 0.00 0.00 0.00 0.00 0.00 0.00 0.00 0.00 0.00 0.00 0.00 0.00 0.00 0.00 0.00 0.00 0.00 0.00 0.00
4.66 4.50 3.03 3.29 1.99 2.01 1.90 0.53 0.30 0.16 0.01 0.00 0.00 0.00 0.00 0.00 0.00 0.00 0.00 0.00 0.00 0.00 0.00 0.00 0.00 0.00 0.00 0.00 0.00 0.00 0.00 0.00 0.00 0.00 0.00 0.00 0.00 0.00 0.00 0.00 0.00 0.00 0.00
5.30 8.47 5.80 5.47 3.68 2.49 1.94 1.41 0.36 0.23 0.04 0.00 0.00 0.00 0.00 0.00 0.00 0.00 0.00 0.00 0.00 0.00 0.00 0.00 0.00 0.00 0.00 0.00 0.00 0.00 0.00 0.00 0.00 0.00 0.00 0.00 0.00 0.00 0.00 0.00 0.00 0.00 0.00
1.65 2.83 4.64 6.67 5.38 2.86 1.72 1.70 0.72 0.47 0.09 0.00 0.00 0.00 0.00 0.00 0.00 0.00 0.00 0.00 0.00 0.00 0.00 0.00 0.00 0.00 0.00 0.00 0.00 0.00 0.00 0.00 0.00 0.00 0.00 0.00 0.00 0.01 0.00 0.00 0.00 0.00 0.00
0.71 1.12 2.53 4.78 6.53 3.95 2.22 0.98 0.70 0.62 0.21 0.01 0.00 0.00 0.00 0.00 0.00 0.01 0.00 0.00 0.00 0.00 0.00 0.00 0.00 0.00 0.00 0.00 0.00 0.00 0.00 0.00 0.00 0.00 0.00 0.00 0.00 0.00 0.00 0.00 0.00 0.00 0.00
0.67 0.81 1.00 2.18 3.91 3.32 2.57 1.13 0.58 0.57 0.16 0.00 0.00 0.00 0.00 0.00 0.00 0.00 0.00 0.00 0.00 0.00 0.00 0.00 0.00 0.00 0.00 0.00 0.00 0.00 0.00 0.00 0.00 0.00 0.00 0.00 0.00 0.00 0.01 0.00 0.00 0.00 0.00
0.98 0.86 0.80 0.67 1.56 1.73 1.31 0.79 0.36 0.21 0.06 0.01 0.00 0.00 0.00 0.00 0.00 0.00 0.00 0.00 0.00 0.00 0.00 0.00 0.00 0.00 0.00 0.00 0.00 0.00 0.00 0.00 0.00 0.00 0.00 0.00 0.00 0.00 0.02 0.00 0.00 0.00 0.00
0.96 1.08 0.92 0.65 0.67 0.77 0.76 0.54 0.20 0.06 0.00 0.00 0.01 0.02 0.00 0.01 0.04 0.04 0.02 0.01 0.01 0.00 0.00 0.00 0.00 0.00 0.00 0.00 0.00 0.00 0.00 0.00 0.00 0.00 0.00 0.00 0.00 0.00 0.00 0.00 0.00 0.00 0.00
0.64 0.54 0.55 0.71 0.58 0.47 0.41 0.32 0.15 0.03 0.03 0.02 0.06 0.09 0.11 0.14 0.13 0.09 0.04 0.01 0.01 0.00 0.00 0.00 0.00 0.00 0.00 0.00 0.00 0.00 0.00 0.00 0.00 0.00 0.00 0.00 0.00 0.00 0.00 0.00 0.00 0.00 0.00
0.39 0.43 0.43 0.47 0.57 0.51 0.41 0.15 0.07 0.04 0.04 0.06 0.13 0.21 0.24 0.22 0.16 0.08 0.04 0.01 0.00 0.00 0.00 0.00 0.00 0.00 0.00 0.00 0.00 0.00 0.00 0.00 0.00 0.00 0.00 0.00 0.00 0.00 0.00 0.00 0.00 0.00 0.00
0.18 0.28 0.24 0.31 0.45 0.38 0.22 0.15 0.07 0.04 0.10 0.17 0.17 0.24 0.26 0.20 0.08 0.08 0.05 0.01 0.00 0.00 0.00 0.00 0.00 0.00 0.00 0.00 0.00 0.00 0.00 0.00 0.00 0.00 0.00 0.00 0.00 0.00 0.00 0.00 0.00 0.00 0.00
0.07 0.11 0.26 0.24 0.34 0.24 0.14 0.07 0.05 0.06 0.19 0.26 0.28 0.29 0.18 0.20 0.08 0.07 0.04 0.02 0.01 0.00 0.00 0.00 0.00 0.00 0.00 0.00 0.00 0.00 0.00 0.00 0.00 0.00 0.00 0.00 0.00 0.00 0.00 0.00 0.00 0.00 0.00
0.08 0.03 0.18 0.27 0.23 0.17 0.13 0.05 0.05 0.10 0.21 0.24 0.23 0.31 0.25 0.18 0.24 0.23 0.12 0.03 0.02 0.00 0.00 0.00 0.00 0.00 0.00 0.00 0.00 0.00 0.00 0.00 0.00 0.00 0.00 0.00 0.00 0.00 0.00 0.00 0.00 0.00 0.00
0.02 0.02 0.04 0.16 0.24 0.10 0.08 0.01 0.02 0.08 0.18 0.24 0.21 0.22 0.15 0.17 0.10 0.18 0.08 0.04 0.00 0.00 0.00 0.00 0.00 0.00 0.00 0.00 0.00 0.00 0.00 0.00 0.00 0.00 0.00 0.00 0.00 0.00 0.00 0.00 0.00 0.00 0.00
0.00 0.00 0.01 0.07 0.15 0.10 0.06 0.00 0.00 0.03 0.10 0.17 0.23 0.12 0.11 0.19 0.18 0.07 0.02 0.07 0.00 0.00 0.00 0.00 0.00 0.00 0.00 0.00 0.00 0.00 0.00 0.00 0.00 0.00 0.00 0.00 0.00 0.00 0.00 0.00 0.00 0.00 0.00
0.00 0.00 0.00 0.02 0.11 0.09 0.03 0.04 0.07 0.15 0.14 0.13 0.28 0.20 0.09 0.18 0.28 0.22 0.02 0.02 0.02 0.01 0.00 0.00 0.00 0.00 0.00 0.00 0.00 0.00 0.00 0.00 0.00 0.00 0.00 0.00 0.00 0.00 0.00 0.00 0.00 0.00 0.00
0.00 0.00 0.00 0.00 0.02 0.09 0.13 0.14 0.14 0.16 0.14 0.09 0.09 0.06 0.07 0.08 0.09 0.07 0.01 0.01 0.01 0.00 0.01 0.00 0.00 0.00 0.00 0.00 0.00 0.00 0.00 0.00 0.00 0.00 0.00 0.00 0.00 0.00 0.00 0.00 0.00 0.00 0.00
0.01 0.01 0.00 0.01 0.04 0.07 0.12 0.28 0.18 0.17 0.18 0.18 0.09 0.09 0.08 0.10 0.08 0.08 0.02 0.03 0.02 0.00 0.01 0.01 0.01 0.00 0.00 0.00 0.00 0.00 0.00 0.00 0.00 0.00 0.00 0.00 0.00 0.00 0.00 0.00 0.00 0.00 0.00
0.01 0.02 0.02 0.04 0.10 0.12 0.18 0.26 0.26 0.18 0.14 0.10 0.08 0.09 0.07 0.05 0.06 0.02 0.01 0.00 0.01 0.02 0.05 0.05 0.04 0.02 0.00 0.00 0.00 0.00 0.00 0.00 0.00 0.00 0.00 0.00 0.00 0.00 0.00 0.00 0.00 0.00 0.00

GFSSE_prec_precacc24_093.txt.gz
Total_Precipitation_Accumulation
0.24 0.01 0.01 0.02 0.02 0.01 0.00 0.00 0.00 0.00 0.00 0.00 0.00 0.00 0.00 0.00 0.00 0.00 0.00 0.00 0.00 0.00 0.00 0.00 0.00 0.00 0.00 0.00 0.00 0.00 0.00 0.00 0.00 0.00 0.00 0.00 0.00 0.00 0.00 0.00 0.00 0.00 0.00
0.15 0.07 0.03 0.02 0.02 0.01 0.00 0.00 0.00 0.00 0.00 0.00 0.00 0.00 0.00 0.00 0.00 0.00 0.00 0.00 0.00 0.00 0.00 0.00 0.00 0.00 0.00 0.00 0.00 0.00 0.00 0.00 0.00 0.00 0.00 0.00 0.00 0.01 0.01 0.01 0.02 0.02 0.02
0.40 0.45 0.37 0.08 0.02 0.01 0.00 0.00 0.00 0.00 0.00 0.00 0.00 0.00 0.00 0.00 0.00 0.00 0.00 0.00 0.00 0.01 0.00 0.00 0.00 0.00 0.00 0.00 0.00 0.00 0.00 0.00 0.00 0.00 0.00 0.00 0.00 0.00 0.01 0.01 0.02 0.02 0.02
1.24 0.83 0.82 0.56 0.09 0.02 0.01 0.01 0.00 0.00 0.00 0.00 0.00 0.00 0.00 0.00 0.00 0.00 0.00 0.00 0.00 0.01 0.00 0.00 0.00 0.00 0.00 0.00 0.00 0.00 0.00 0.00 0.00 0.00 0.00 0.00 0.00 0.00 0.00 0.01 0.01 0.01 0.02
1.01 1.09 0.98 0.96 0.83 0.31 0.12 0.03 0.02 0.00 0.00 0.00 0.00 0.00 0.00 0.00 0.00 0.00 0.00 0.00 0.00 0.01 0.00 0.00 0.00 0.00 0.00 0.00 0.00 0.00 0.00 0.00 0.00 0.00 0.00 0.00 0.00 0.00 0.00 0.00 0.00 0.00 0.01
0.86 0.95 1.11 0.90 0.67 0.52 0.47 0.17 0.04 0.01 0.00 0.00 0.00 0.00 0.00 0.00 0.00 0.00 0.00 0.00 0.00 0.01 0.00 0.00 0.00 0.00 0.00 0.00 0.00 0.00 0.00 0.00 0.00 0.00 0.00 0.00 0.00 0.00 0.00 0.00 0.00 0.00 0.00
0.89 1.31 1.72 1.21 1.05 0.36 0.28 0.25 0.12 0.04 0.01 0.00 0.00 0.00 0.00 0.00 0.00 0.00 0.00 0.01 0.01 0.00 0.00 0.00 0.00 0.00 0.00 0.00 0.00 0.00 0.00 0.00 0.00 0.00 0.00 0.00 0.00 0.00 0.00 0.00 0.00 0.00 0.00
1.56 1.84 3.00 2.39 2.12 1.78 0.75 0.33 0.23 0.14 0.07 0.02 0.00 0.00 0.00 0.00 0.00 0.00 0.00 0.00 0.00 0.00 0.00 0.00 0.00 0.00 0.00 0.00 0.00 0.00 0.00 0.00 0.00 0.00 0.00 0.00 0.00 0.00 0.00 0.00 0.00 0.00 0.00
4.15 4.05 3.53 4.46 2.29 2.03 2.20 0.82 0.37 0.22 0.15 0.10 0.03 0.01 0.00 0.00 0.00 0.01 0.00 0.00 0.00 0.00 0.00 0.00 0.00 0.00 0.00 0.00 0.00 0.00 0.00 0.00 0.00 0.00 0.00 0.00 0.00 0.00 0.00 0.00 0.00 0.00 0.00
4.90 8.17 5.54 5.21 3.34 2.23 2.08 1.69 0.48 0.30 0.23 0.15 0.10 0.05 0.01 0.00 0.00 0.00 0.00 0.00 0.00 0.00 0.00 0.00 0.00 0.00 0.00 0.00 0.00 0.00 0.00 0.00 0.00 0.00 0.00 0.00 0.00 0.00 0.00 0.00 0.00 0.00 0.00
1.45 2.23 3.39 5.35 4.53 2.73 1.84 2.00 0.98 0.66 0.35 0.22 0.20 0.14 0.02 0.00 0.00 0.00 0.00 0.00 0.00 0.00 0.00 0.00 0.00 0.00 0.00 0.00 0.00 0.00 0.00 0.00 0.00 0.00 0.00 0.00 0.00 0.01 0.00 0.00 0.00 0.00 0.00
0.45 0.68 1.52 4.02 6.23 3.80 2.64 1.69 1.16 0.88 0.57 0.33 0.21 0.16 0.02 0.00 0.00 0.01 0.00 0.00 0.00 0.00 0.00 0.00 0.00 0.00 0.00 0.00 0.00 0.00 0.00 0.00 0.00 0.00 0.00 0.00 0.00 0.00 0.00 0.00 0.00 0.00 0.00
0.24 0.30 0.43 1.92 3.79 3.40 2.97 2.36 1.50 0.94 0.61 0.40 0.22 0.16 0.05 0.00 0.00 0.00 0.00 0.00 0.00 0.00 0.00 0.00 0.00 0.00 0.00 0.00 0.00 0.00 0.00 0.00 0.00 0.00 0.00 0.00 0.00 0.00 0.01 0.00 0.00 0.00 0.00
0.46 0.37 0.36 0.41 1.60 1.74 1.63 1.86 1.25 0.64 0.42 0.28 0.21 0.22 0.07 0.00 0.00 0.00 0.00 0.00 0.00 0.00 0.00 0.00 0.00 0.00 0.00 0.00 0.00 0.00 0.00 0.00 0.00 0.00 0.00 0.00 0.00 0.00 0.01 0.00 0.00 0.00 0.00
0.66 0.90 0.78 0.56 0.74 1.36 1.50 1.44 0.87 0.24 0.16 0.12 0.13 0.19 0.08 0.01 0.04 0.04 0.01 0.00 0.00 0.00 0.00 0.00 0.00 0.00 0.00 0.00 0.00 0.00 0.00 0.00 0.00 0.00 0.00 0.00 0.00 0.00 0.00 0.00 0.00 0.00 0.00
0.61 0.53 0.55 0.68 0.56 0.83 1.34 0.95 0.72 0.22 0.07 0.07 0.14 0.18 0.18 0.13 0.11 0.07 0.03 0.01 0.01 0.00 0.00 0.00 0.00 0.00 0.00 0.00 0.00 0.00 0.00 0.00 0.00 0.00 0.00 0.00 0.00 0.00 0.00 0.00 0.00 0.00 0.00
0.48 0.45 0.45 0.47 0.58 0.91 1.14 0.84 0.63 0.37 0.13 0.07 0.17 0.29 0.37 0.20 0.11 0.07 0.04 0.01 0.00 0.00 0.00 0.00 0.00 0.00 0.00 0.00 0.00 0.00 0.00 0.00 0.00 0.00 0.00 0.00 0.00 0.00 0.00 0.00 0.00 0.00 0.00
0.37 0.30 0.27 0.32 0.45 0.57 0.75 0.72 0.62 0.45 0.23 0.14 0.17 0.30 0.39 0.24 0.08 0.08 0.05 0.01 0.00 0.00 0.00 0.00 0.00 0.00 0.00 0.00 0.00 0.00 0.00 0.00 0.00 0.00 0.00 0.00 0.00 0.00 0.00 0.00 0.00 0.00 0.00
0.12 0.15 0.29 0.28 0.37 0.35 0.37 0.37 0.43 0.35 0.24 0.19 0.23 0.34 0.22 0.22 0.09 0.07 0.04 0.02 0.01 0.00 0.00 0.00 0.00 0.00 0.00 0.00 0.00 0.00 0.00 0.00 0.00 0.00 0.00 0.00 0.00 0.00 0.00 0.00 0.00 0.00 0.00
0.11 0.06 0.24 0.30 0.36 0.25 0.22 0.18 0.18 0.16 0.21 0.18 0.18 0.30 0.27 0.19 0.25 0.23 0.12 0.03 0.02 0.00 0.00 0.00 0.00 0.00 0.00 0.00 0.00 0.00 0.00 0.00 0.00 0.00 0.00 0.00 0.00 0.00 0.00 0.00 0.00 0.00 0.00
0.04 0.04 0.11 0.29 0.45 0.22 0.11 0.10 0.11 0.09 0.15 0.17 0.19 0.22 0.16 0.18 0.12 0.19 0.08 0.04 0.00 0.00 0.00 0.00 0.00 0.01 0.01 0.00 0.00 0.00 0.00 0.00 0.00 0.00 0.00 0.00 0.00 0.00 0.00 0.00 0.00 0.00 0.00
0.00 0.01 0.02 0.14 0.37 0.16 0.09 0.07 0.11 0.06 0.07 0.15 0.23 0.13 0.12 0.20 0.20 0.09 0.02 0.07 0.00 0.00 0.00 0.01 0.01 0.02 0.01 0.00 0.00 0.00 0.00 0.00 0.00 0.00 0.00 0.00 0.00 0.00 0.00 0.00 0.00 0.00 0.00
0.00 0.00 0.00 0.02 0.22 0.19 0.05 0.04 0.05 0.15 0.10 0.12 0.27 0.20 0.09 0.18 0.31 0.24 0.04 0.03 0.02 0.01 0.01 0.01 0.01 0.01 0.01 0.00 0.00 0.00 0.00 0.00 0.00 0.00 0.00 0.00 0.00 0.00 0.00 0.00 0.00 0.00 0.00
0.00 0.00 0.00 0.00 0.03 0.08 0.08 0.03 0.01 0.04 0.05 0.04 0.08 0.06 0.07 0.08 0.10 0.10 0.03 0.02 0.02 0.02 0.01 0.03 0.03 0.03 0.02 0.01 0.00 0.00 0.00 0.00 0.00 0.00 0.00 0.00 0.00 0.00 0.00 0.00 0.00 0.00 0.00
0.00 0.00 0.00 0.00 0.00 0.01 0.02 0.08 0.01 0.02 0.06 0.14 0.09 0.09 0.08 0.10 0.09 0.08 0.04 0.05 0.04 0.01 0.06 0.06 0.03 0.04 0.05 0.04 0.02 0.01 0.00 0.00 0.00 0.00 0.00 0.00 0.00 0.00 0.00 0.00 0.00 0.00 0.00
0.00 0.00 0.00 0.00 0.00 0.01 0.01 0.03 0.04 0.02 0.04 0.07 0.08 0.09 0.07 0.05 0.06 0.02 0.01 0.01 0.01 0.02 0.06 0.08 0.13 0.10 0.08 0.05 0.03 0.02 0.01 0.01 0.03 0.03 0.02 0.01 0.01 0.00 0.00 0.00 0.00 0.00 0.00

GFSSE_prec_precacc24_099.txt.gz
Total_Precipitation_Accumulation
0.23 0.01 0.01 0.01 0.01 0.00 0.00 0.00 0.00 0.00 0.00 0.00 0.00 0.00 0.00 0.00 0.00 0.00 0.00 0.00 0.00 0.01 0.00 0.00 0.00 0.00 0.00 0.00 0.00 0.00 0.00 0.00 0.00 0.00 0.00 0.00 0.00 0.00 0.00 0.00 0.00 0.00 0.00
0.15 0.06 0.04 0.01 0.01 0.01 0.00 0.00 0.00 0.00 0.00 0.00 0.00 0.00 0.00 0.00 0.00 0.00 0.00 0.00 0.00 0.01 0.00 0.00 0.00 0.00 0.00 0.00 0.00 0.00 0.00 0.00 0.00 0.00 0.00 0.00 0.01 0.01 0.01 0.01 0.02 0.02 0.02
0.40 0.44 0.39 0.08 0.01 0.02 0.01 0.00 0.00 0.00 0.00 0.00 0.00 0.00 0.00 0.00 0.00 0.00 0.00 0.00 0.00 0.01 0.00 0.00 0.00 0.00 0.00 0.00 0.00 0.00 0.00 0.00 0.00 0.00 0.00 0.00 0.01 0.02 0.02 0.01 0.03 0.03 0.03
1.23 0.83 0.82 0.56 0.09 0.03 0.02 0.01 0.00 0.00 0.00 0.00 0.00 0.00 0.00 0.00 0.00 0.00 0.00 0.00 0.00 0.01 0.00 0.00 0.00 0.00 0.00 0.00 0.00 0.00 0.00 0.00 0.00 0.00 0.00 0.00 0.01 0.02 0.02 0.01 0.01 0.01 0.02
0.99 1.09 0.98 0.96 0.82 0.31 0.15 0.03 0.01 0.00 0.00 0.00 0.00 0.00 0.00 0.00 0.01 0.00 0.00 0.00 0.00 0.01 0.00 0.00 0.00 0.00 0.00 0.00 0.00 0.00 0.00 0.00 0.00 0.00 0.00 0.00 0.00 0.01 0.00 0.00 0.00 0.00 0.01
0.83 0.98 1.16 0.93 0.66 0.54 0.52 0.18 0.04 0.01 0.00 0.00 0.00 0.00 0.01 0.01 0.00 0.00 0.00 0.00 0.00 0.01 0.00 0.00 0.00 0.00 0.00 0.00 0.00 0.00 0.00 0.00 0.00 0.00 0.00 0.00 0.00 0.00 0.00 0.00 0.00 0.00 0.00
0.84 1.55 2.57 2.17 1.62 0.84 0.72 0.42 0.14 0.04 0.01 0.00 0.00 0.00 0.01 0.03 0.00 0.00 0.00 0.01 0.01 0.01 0.00 0.00 0.00 0.00 0.00 0.00 0.00 0.00 0.00 0.00 0.00 0.00 0.00 0.00 0.00 0.00 0.00 0.00 0.00 0.00 0.00
1.03 1.67 3.80 4.36 3.82 3.17 2.01 1.43 0.53 0.15 0.08 0.02 0.00 0.00 0.00 0.00 0.00 0.00 0.00 0.00 0.00 0.00 0.00 0.00 0.00 0.00 0.00 0.00 0.00 0.00 0.00 0.00 0.00 0.00 0.00 0.00 0.00 0.00 0.00 0.00 0.00 0.00 0.00
2.54 3.23 3.37 6.07 3.66 2.98 3.64 3.08 2.37 0.68 0.24 0.15 0.03 0.02 0.00 0.00 0.00 0.01 0.00 0.00 0.00 0.00 0.00 0.00 0.00 0.00 0.00 0.00 0.00 0.00 0.00 0.00 0.00 0.00 0.00 0.00 0.00 0.00 0.00 0.00 0.00 0.00 0.00
3.39 6.41 5.14 5.02 3.70 2.48 2.89 3.61 2.43 1.89 1.09 0.30 0.13 0.06 0.01 0.00 0.00 0.00 0.00 0.00 0.00 0.00 0.00 0.00 0.00 0.00 0.00 0.00 0.00 0.00 0.00 0.00 0.00 0.00 0.00 0.00 0.00 0.00 0.00 0.00 0.00 0.00 0.00
0.75 1.44 2.81 4.89 4.13 2.63 2.02 3.03 2.37 2.31 1.58 0.57 0.28 0.14 0.02 0.00 0.00 0.00 0.00 0.00 0.00 0.00 0.00 0.00 0.00 0.00 0.00 0.00 0.00 0.00 0.00 0.00 0.00 0.00 0.00 0.00 0.00 0.00 0.00 0.00 0.00 0.00 0.00
0.32 0.33 0.81 3.19 5.39 3.29 2.40 1.79 1.80 1.88 2.78 0.77 0.24 0.16 0.02 0.01 0.00 0.01 0.00 0.00 0.00 0.00 0.00 0.00 0.00 0.00 0.00 0.00 0.00 0.00 0.00 0.00 0.00 0.00 0.00 0.00 0.00 0.00 0.00 0.00 0.00 0.00 0.00
0.13 0.19 0.18 1.60 3.39 2.99 2.59 2.22 1.59 1.24 2.11 1.46 0.35 0.17 0.05 0.03 0.04 0.01 0.00 0.01 0.00 0.00 0.00 0.00 0.00 0.00 0.00 0.00 0.00 0.00 0.00 0.00 0.00 0.00 0.00 0.00 0.00 0.00 0.00 0.00 0.00 0.00 0.00
0.16 0.18 0.21 0.25 1.52 1.72 1.70 2.01 1.54 0.90 0.86 1.38 0.42 0.30 0.10 0.04 0.06 0.02 0.00 0.00 0.00 0.00 0.00 0.00 0.00 0.00 0.00 0.00 0.00 0.00 0.00 0.00 0.00 0.00 0.00 0.00 0.00 0.00 0.01 0.00 0.00 0.00 0.00
0.20 0.14 0.25 0.30 0.59 1.31 1.53 1.61 1.17 0.59 0.52 0.60 0.40 0.31 0.12 0.04 0.05 0.03 0.00 0.00 0.00 0.00 0.00 0.00 0.00 0.00 0.00 0.00 0.00 0.00 0.00 0.00 0.00 0.00 0.00 0.00 0.00 0.00 0.00 0.00 0.00 0.00 0.00
0.27 0.15 0.12 0.23 0.30 0.65 1.31 0.97 0.98 0.56 0.30 0.54 0.54 0.28 0.22 0.09 0.05 0.02 0.01 0.00 0.00 0.00 0.00 0.00 0.00 0.00 0.00 0.00 0.00 0.00 0.00 0.00 0.00 0.00 0.00 0.00 0.00 0.00 0.00 0.00 0.00 0.00 0.00
0.36 0.21 0.18 0.15 0.21 0.62 1.04 0.90 0.80 0.66 0.37 0.32 0.57 0.47 0.40 0.16 0.04 0.01 0.03 0.00 0.00 0.00 0.00 0.00 0.00 0.00 0.00 0.00 0.00 0.00 0.00 0.00 0.00 0.00 0.00 0.00 0.00 0.00 0.00 0.00 0.00 0.00 0.00
0.31 0.18 0.14 0.15 0.23 0.40 0.75 0.83 0.88 0.70 0.45 0.33 0.38 0.51 0.50 0.27 0.06 0.07 0.05 0.01 0.00 0.00 0.00 0.00 0.00 0.00 0.00 0.00 0.00 0.00 0.00 0.00 0.00 0.00 0.00 0.00 0.00 0.00 0.00 0.00 0.00 0.00 0.00
0.12 0.13 0.24 0.20 0.17 0.32 0.52 0.56 0.80 0.59 0.44 0.35 0.43 0.51 0.37 0.28 0.09 0.07 0.04 0.02 0.01 0.00 0.00 0.00 0.00 0.00 0.00 0.00 0.00 0.00 0.00 0.00 0.00 0.00 0.00 0.00 0.00 0.00 0.00 0.00 0.00 0.00 0.00
0.11 0.06 0.25 0.25 0.20 0.18 0.36 0.39 0.78 0.62 0.50 0.49 0.41 0.49 0.42 0.26 0.28 0.23 0.12 0.03 0.02 0.00 0.00 0.00 0.00 0.00 0.00 0.00 0.00 0.00 0.00 0.00 0.00 0.00 0.00 0.00 0.00 0.00 0.00 0.00 0.00 0.00 0.00
0.05 0.04 0.11 0.24 0.32 0.19 0.11 0.32 0.77 0.72 0.59 0.57 0.49 0.46 0.40 0.31 0.17 0.21 0.08 0.05 0.00 0.00 0.00 0.00 0.00 0.01 0.01 0.01 0.00 0.00 0.00 0.00 0.00 0.00 0.00 0.00 0.00 0.00 0.00 0.00 0.00 0.00 0.00
0.01 0.02 0.01 0.10 0.28 0.12 0.14 0.22 0.49 0.54 0.53 0.41 0.46 0.44 0.42 0.36 0.26 0.11 0.03 0.07 0.00 0.00 0.00 0.01 0.01 0.02 0.02 0.02 0.01 0.00 0.00 0.00 0.00 0.00 0.00 0.00 0.00 0.00 0.00 0.00 0.00 0.00 0.00
0.01 0.00 0.00 0.01 0.16 0.14 0.05 0.10 0.27 0.47 0.46 0.43 0.55 0.49 0.41 0.35 0.35 0.26 0.06 0.03 0.02 0.01 0.01 0.01 0.01 0.01 0.02 0.02 0.02 0.00 0.00 0.00 0.00 0.00 0.00 0.00 0.00 0.00 0.00 0.00 0.00 0.00 0.00
0.00 0.00 0.00 0.00 0.03 0.05 0.03 0.03 0.10 0.28 0.29 0.25 0.27 0.26 0.25 0.19 0.14 0.11 0.05 0.03 0.02 0.02 0.01 0.03 0.03 0.03 0.02 0.02 0.02 0.01 0.00 0.00 0.00 0.00 0.00 0.00 0.00 0.00 0.00 0.00 0.00 0.00 0.00
0.00 0.00 0.00 0.00 0.00 0.01 0.01 0.05 0.02 0.07 0.11 0.18 0.15 0.15 0.15 0.15 0.14 0.11 0.06 0.05 0.04 0.02 0.06 0.06 0.04 0.04 0.05 0.04 0.04 0.03 0.02 0.01 0.01 0.01 0.01 0.00 0.00 0.00 0.00 0.00 0.00 0.00 0.00
0.00 0.00 0.00 0.00 0.00 0.01 0.01 0.00 0.03 0.01 0.01 0.04 0.06 0.05 0.06 0.08 0.09 0.05 0.03 0.02 0.02 0.02 0.06 0.08 0.14 0.11 0.10 0.08 0.06 0.05 0.03 0.03 0.04 0.07 0.12 0.12 0.10 0.03 0.00 0.00 0.00 0.00 0.00

GFSSE_prec_precacc24_102.txt.gz
Total_Precipitation_Accumulation
0.20 0.01 0.01 0.00 0.00 0.00 0.00 0.00 0.00 0.00 0.00 0.00 0.00 0.00 0.00 0.00 0.00 0.00 0.00 0.00 0.00 0.01 0.00 0.00 0.00 0.00 0.00 0.00 0.00 0.00 0.00 0.00 0.00 0.00 0.00 0.00 0.00 0.00 0.00 0.00 0.00 0.01 0.01
0.12 0.06 0.04 0.01 0.00 0.01 0.00 0.00 0.00 0.00 0.00 0.00 0.00 0.00 0.00 0.00 0.00 0.00 0.00 0.00 0.00 0.01 0.00 0.00 0.00 0.00 0.00 0.00 0.00 0.00 0.00 0.00 0.00 0.00 0.00 0.00 0.01 0.01 0.01 0.01 0.03 0.02 0.02
0.37 0.44 0.39 0.08 0.01 0.02 0.01 0.00 0.00 0.00 0.00 0.00 0.00 0.00 0.00 0.00 0.00 0.00 0.00 0.01 0.00 0.00 0.00 0.00 0.00 0.00 0.00 0.00 0.00 0.00 0.00 0.00 0.00 0.00 0.00 0.00 0.01 0.02 0.02 0.01 0.03 0.04 0.03
1.15 0.83 0.82 0.56 0.08 0.03 0.02 0.01 0.00 0.00 0.00 0.00 0.00 0.03 0.03 0.02 0.00 0.00 0.00 0.00 0.00 0.00 0.00 0.00 0.00 0.00 0.00 0.00 0.00 0.00 0.00 0.00 0.00 0.00 0.00 0.00 0.01 0.02 0.02 0.01 0.01 0.01 0.02
0.89 1.09 0.98 0.95 0.82 0.31 0.14 0.04 0.01 0.04 0.01 0.00 0.02 0.09 0.07 0.03 0.02 0.01 0.00 0.00 0.00 0.00 0.00 0.00 0.00 0.00 0.00 0.00 0.00 0.00 0.00 0.00 0.00 0.00 0.00 0.00 0.01 0.01 0.00 0.00 0.00 0.00 0.01
0.77 0.96 1.14 0.89 0.63 0.50 0.50 0.18 0.04 0.07 0.01 0.00 0.01 0.03 0.09 0.15 0.03 0.00 0.00 0.00 0.00 0.00 0.00 0.00 0.00 0.00 0.00 0.00 0.00 0.00 0.00 0.00 0.00 0.00 0.00 0.00 0.00 0.00 0.00 0.00 0.00 0.00 0.00
0.74 1.46 2.53 2.11 1.59 0.81 0.76 0.65 0.30 0.14 0.04 0.00 0.01 0.05 0.09 0.51 0.18 0.01 0.00 0.01 0.01 0.00 0.00 0.00 0.00 0.00 0.00 0.00 0.00 0.00 0.00 0.00 0.00 0.00 0.00 0.00 0.00 0.00 0.00 0.00 0.00 0.00 0.00
0.82 1.58 3.79 4.33 3.80 3.14 1.98 1.74 1.50 1.05 0.50 0.15 0.05 0.05 0.02 0.19 0.29 0.05 0.00 0.00 0.00 0.00 0.00 0.00 0.00 0.00 0.00 0.00 0.00 0.00 0.00 0.00 0.00 0.00 0.00 0.00 0.00 0.00 0.00 0.00 0.00 0.00 0.00
1.37 2.30 3.26 5.84 3.47 2.87 3.65 3.19 3.31 2.19 1.39 0.52 0.19 0.10 0.06 0.04 0.01 0.01 0.00 0.00 0.00 0.00 0.00 0.00 0.00 0.00 0.00 0.00 0.00 0.00 0.00 0.00 0.00 0.00 0.00 0.00 0.00 0.00 0.00 0.00 0.00 0.00 0.00
1.30 3.04 3.69 4.58 3.42 2.34 2.86 3.68 3.19 3.29 2.37 1.11 0.36 0.23 0.09 0.08 0.02 0.00 0.00 0.00 0.00 0.00 0.00 0.00 0.00 0.00 0.00 0.00 0.00 0.00 0.00 0.00 0.00 0.00 0.00 0.00 0.00 0.00 0.00 0.00 0.00 0.00 0.00
0.30 0.89 2.24 4.34 3.94 2.60 2.04 3.11 2.90 3.51 2.83 1.47 0.61 0.37 0.16 0.05 0.01 0.00 0.00 0.00 0.00 0.00 0.00 0.00 0.00 0.00 0.00 0.00 0.00 0.00 0.00 0.00 0.00 0.00 0.00 0.00 0.00 0.00 0.00 0.00 0.00 0.00 0.00
0.18 0.17 0.63 2.94 5.18 3.22 2.43 1.82 2.13 2.85 4.41 1.68 0.52 0.35 0.20 0.04 0.01 0.02 0.00 0.00 0.00 0.00 0.00 0.00 0.00 0.00 0.00 0.00 0.00 0.00 0.00 0.00 0.00 0.00 0.00 0.00 0.00 0.00 0.00 0.00 0.00 0.00 0.00
0.08 0.13 0.12 1.47 3.30 2.88 2.51 2.16 2.00 2.32 4.01 2.99 0.62 0.28 0.16 0.05 0.08 0.06 0.02 0.02 0.00 0.00 0.00 0.00 0.00 0.00 0.00 0.00 0.00 0.00 0.00 0.00 0.00 0.00 0.00 0.00 0.00 0.00 0.00 0.00 0.00 0.00 0.00
0.03 0.08 0.10 0.14 1.41 1.66 1.62 1.95 1.83 1.21 1.58 3.11 1.12 0.48 0.12 0.06 0.10 0.06 0.02 0.00 0.00 0.00 0.00 0.00 0.00 0.00 0.00 0.00 0.00 0.00 0.00 0.00 0.00 0.00 0.00 0.00 0.00 0.00 0.00 0.00 0.00 0.00 0.00
0.09 0.04 0.10 0.16 0.52 1.33 1.58 1.72 1.40 0.67 0.62 1.41 1.40 0.53 0.15 0.04 0.06 0.06 0.04 0.00 0.00 0.00 0.00 0.00 0.00 0.00 0.00 0.00 0.00 0.00 0.00 0.00 0.00 0.00 0.00 0.00 0.00 0.00 0.00 0.00 0.00 0.00 0.00
0.16 0.03 0.06 0.11 0.17 0.60 1.38 1.12 1.16 0.65 0.29 0.65 1.35 0.47 0.23 0.07 0.03 0.00 0.02 0.02 0.00 0.00 0.00 0.00 0.00 0.00 0.00 0.00 0.00 0.00 0.00 0.00 0.00 0.00 0.00 0.00 0.00 0.00 0.00 0.00 0.00 0.00 0.00
0.30 0.08 0.05 0.06 0.08 0.49 0.93 0.94 0.91 0.70 0.37 0.32 0.75 0.55 0.47 0.16 0.03 0.01 0.03 0.03 0.01 0.00 0.00 0.00 0.00 0.00 0.00 0.00 0.00 0.00 0.00 0.00 0.00 0.00 0.00 0.00 0.00 0.00 0.00 0.00 0.00 0.00 0.00
0.30 0.15 0.09 0.05 0.10 0.29 0.63 0.76 0.90 0.76 0.46 0.33 0.36 0.50 0.56 0.41 0.11 0.08 0.05 0.02 0.00 0.00 0.00 0.00 0.00 0.00 0.00 0.00 0.00 0.00 0.00 0.00 0.00 0.00 0.00 0.00 0.00 0.00 0.00 0.00 0.00 0.00 0.00
0.11 0.13 0.20 0.13 0.11 0.30 0.49 0.54 0.82 0.64 0.49 0.35 0.37 0.41 0.37 0.37 0.19 0.03 0.04 0.06 0.03 0.00 0.00 0.00 0.00 0.00 0.00 0.00 0.00 0.00 0.00 0.00 0.00 0.00 0.00 0.00 0.00 0.00 0.00 0.00 0.00 0.00 0.00
0.11 0.06 0.25 0.25 0.19 0.16 0.33 0.38 0.78 0.63 0.53 0.51 0.40 0.39 0.35 0.31 0.33 0.16 0.10 0.05 0.06 0.03 0.02 0.00 0.00 0.00 0.00 0.00 0.00 0.00 0.00 0.00 0.00 0.00 0.00 0.00 0.00 0.00 0.00 0.00 0.00 0.00 0.00
0.05 0.04 0.11 0.23 0.30 0.17 0.09 0.33 0.78 0.72 0.58 0.58 0.48 0.40 0.36 0.27 0.21 0.20 0.07 0.05 0.01 0.01 0.03 0.00 0.00 0.01 0.01 0.01 0.00 0.00 0.00 0.00 0.00 0.00 0.00 0.00 0.00 0.00 0.00 0.00 0.00 0.00 0.00
0.01 0.02 0.01 0.09 0.25 0.09 0.10 0.22 0.50 0.54 0.56 0.48 0.52 0.48 0.39 0.31 0.22 0.12 0.03 0.08 0.00 0.00 0.01 0.01 0.01 0.02 0.02 0.02 0.01 0.00 0.00 0.00 0.00 0.00 0.00 0.00 0.00 0.00 0.00 0.00 0.00 0.00 0.00
0.01 0.00 0.00 0.01 0.12 0.12 0.05 0.10 0.31 0.51 0.59 0.70 0.69 0.62 0.48 0.39 0.35 0.27 0.07 0.05 0.03 0.01 0.01 0.01 0.01 0.01 0.02 0.02 0.02 0.00 0.00 0.00 0.00 0.00 0.00 0.00 0.00 0.00 0.00 0.00 0.00 0.00 0.00
0.00 0.00 0.00 0.00 0.02 0.03 0.01 0.02 0.14 0.47 0.50 0.62 0.59 0.40 0.40 0.33 0.22 0.15 0.07 0.05 0.04 0.03 0.01 0.03 0.03 0.03 0.02 0.02 0.02 0.01 0.00 0.00 0.01 0.00 0.00 0.00 0.00 0.00 0.00 0.00 0.00 0.00 0.00
0.00 0.00 0.00 0.00 0.00 0.01 0.00 0.00 0.03 0.14 0.26 0.42 0.54 0.49 0.38 0.32 0.21 0.12 0.09 0.07 0.07 0.06 0.10 0.07 0.04 0.04 0.05 0.04 0.04 0.03 0.02 0.01 0.01 0.01 0.01 0.00 0.00 0.00 0.00 0.00 0.00 0.00 0.00
0.00 0.00 0.00 0.00 0.00 0.01 0.00 0.00 0.01 0.01 0.02 0.13 0.29 0.32 0.30 0.25 0.19 0.14 0.10 0.07 0.08 0.09 0.14 0.12 0.15 0.11 0.10 0.08 0.06 0.06 0.03 0.03 0.04 0.07 0.12 0.13 0.10 0.03 0.00 0.00 0.00 0.00 0.00

GFSSE_prec_precacc24_105.txt.gz
Total_Precipitation_Accumulation
0.08 0.01 0.01 0.00 0.00 0.00 0.00 0.00 0.00 0.00 0.00 0.00 0.00 0.00 0.00 0.00 0.00 0.00 0.00 0.00 0.00 0.00 0.00 0.00 0.00 0.00 0.00 0.00 0.00 0.00 0.00 0.00 0.00 0.00 0.00 0.00 0.01 0.00 0.00 0.00 0.00 0.01 0.02
0.03 0.03 0.04 0.01 0.00 0.01 0.00 0.00 0.00 0.00 0.00 0.00 0.00 0.00 0.00 0.00 0.00 0.00 0.00 0.00 0.00 0.00 0.00 0.00 0.00 0.00 0.00 0.00 0.00 0.00 0.00 0.00 0.00 0.00 0.00 0.01 0.01 0.01 0.01 0.02 0.03 0.03 0.03
0.02 0.04 0.28 0.07 0.01 0.02 0.01 0.00 0.00 0.00 0.00 0.00 0.00 0.00 0.00 0.00 0.00 0.00 0.00 0.00 0.00 0.00 0.00 0.00 0.00 0.00 0.00 0.00 0.00 0.00 0.00 0.00 0.00 0.00 0.00 0.00 0.01 0.02 0.02 0.02 0.04 0.05 0.04
0.01 0.07 0.47 0.52 0.06 0.02 0.02 0.01 0.00 0.00 0.00 0.00 0.00 0.03 0.04 0.03 0.00 0.00 0.00 0.00 0.00 0.00 0.00 0.00 0.00 0.00 0.00 0.00 0.00 0.00 0.00 0.00 0.00 0.00 0.00 0.00 0.01 0.02 0.02 0.02 0.02 0.02 0.02
0.25 0.30 0.34 0.70 0.69 0.25 0.13 0.04 0.01 0.04 0.01 0.00 0.02 0.09 0.11 0.12 0.07 0.01 0.00 0.00 0.00 0.00 0.00 0.00 0.00 0.00 0.00 0.00 0.00 0.00 0.00 0.00 0.00 0.00 0.00 0.00 0.01 0.01 0.00 0.00 0.00 0.00 0.01
0.37 0.43 0.30 0.55 0.46 0.45 0.48 0.18 0.04 0.07 0.01 0.01 0.01 0.03 0.09 0.30 0.20 0.06 0.00 0.00 0.00 0.00 0.00 0.00 0.00 0.00 0.00 0.00 0.00 0.00 0.00 0.00 0.00 0.00 0.00 0.00 0.00 0.00 0.00 0.00 0.00 0.00 0.00
0.54 1.17 1.93 1.86 1.57 0.80 0.76 0.65 0.30 0.17 0.07 0.08 0.10 0.09 0.11 0.60 0.44 0.15 0.05 0.01 0.00 0.00 0.00 0.00 0.00 0.00 0.00 0.00 0.00 0.00 0.00 0.00 0.00 0.00 0.00 0.00 0.00 0.00 0.00 0.00 0.00 0.00 0.00
0.27 0.97 3.05 4.10 3.75 3.03 1.95 1.74 1.53 1.27 0.82 0.61 0.27 0.10 0.05 0.29 0.51 0.15 0.06 0.01 0.00 0.00 0.00 0.00 0.00 0.00 0.00 0.00 0.00 0.00 0.00 0.00 0.00 0.00 0.00 0.00 0.00 0.00 0.00 0.00 0.00 0.00 0.00
0.27 0.51 2.17 5.33 3.11 2.66 3.58 3.18 3.32 2.35 1.97 1.44 1.08 0.42 0.12 0.11 0.10 0.03 0.01 0.00 0.00 0.00 0.00 0.00 0.00 0.00 0.00 0.00 0.00 0.00 0.00 0.00 0.00 0.00 0.00 0.00 0.00 0.00 0.00 0.00 0.00 0.00 0.00
0.24 0.46 0.99 3.02 3.01 2.19 2.79 3.69 3.21 3.33 2.49 1.74 1.33 1.03 0.21 0.27 0.15 0.07 0.00 0.00 0.00 0.00 0.00 0.00 0.00 0.00 0.00 0.00 0.00 0.00 0.00 0.00 0.00 0.00 0.00 0.00 0.00 0.00 0.00 0.00 0.00 0.00 0.00
0.10 0.20 0.42 1.82 2.56 2.39 1.96 3.09 2.91 3.56 2.90 1.65 1.30 1.86 0.45 0.15 0.21 0.10 0.01 0.00 0.00 0.00 0.00 0.00 0.00 0.00 0.00 0.00 0.00 0.00 0.00 0.00 0.00 0.00 0.00 0.00 0.00 0.00 0.00 0.00 0.00 0.00 0.00
0.12 0.07 0.19 2.10 3.73 2.71 2.37 1.81 2.13 2.87 4.46 1.91 1.17 1.45 0.73 0.12 0.08 0.04 0.00 0.00 0.00 0.00 0.00 0.00 0.00 0.00 0.00 0.00 0.00 0.00 0.00 0.00 0.00 0.00 0.00 0.00 0.00 0.00 0.00 0.00 0.00 0.00 0.00
0.05 0.08 0.07 1.39 3.12 2.68 2.46 2.14 2.01 2.34 4.06 3.16 1.19 0.82 0.78 0.21 0.15 0.06 0.02 0.02 0.00 0.00 0.00 0.00 0.00 0.00 0.00 0.00 0.00 0.00 0.00 0.00 0.00 0.00 0.00 0.00 0.00 0.00 0.00 0.00 0.00 0.00 0.00
0.02 0.07 0.09 0.13 1.40 1.66 1.62 1.95 1.90 1.30 1.91 3.57 1.52 0.90 0.48 0.24 0.14 0.06 0.02 0.00 0.00 0.00 0.00 0.00 0.00 0.00 0.00 0.00 0.00 0.00 0.00 0.00 0.00 0.00 0.00 0.00 0.00 0.00 0.00 0.00 0.00 0.00 0.00
0.02 0.02 0.09 0.13 0.47 1.32 1.56 1.71 1.44 0.73 0.94 2.28 1.85 1.01 0.30 0.12 0.07 0.07 0.04 0.00 0.00 0.00 0.00 0.00 0.00 0.00 0.00 0.00 0.00 0.00 0.00 0.00 0.00 0.00 0.00 0.00 0.00 0.00 0.00 0.00 0.00 0.00 0.00
0.11 0.02 0.04 0.06 0.09 0.55 1.34 1.10 1.23 0.71 0.50 1.38 1.89 1.07 0.39 0.11 0.04 0.00 0.02 0.02 0.00 0.00 0.00 0.00 0.00 0.00 0.00 0.00 0.00 0.00 0.00 0.00 0.00 0.00 0.00 0.00 0.00 0.00 0.00 0.00 0.00 0.00 0.00
0.25 0.02 0.02 0.05 0.07 0.50 0.96 0.92 0.94 0.76 0.43 0.57 1.35 1.13 0.68 0.21 0.06 0.01 0.00 0.03 0.01 0.00 0.00 0.00 0.00 0.00 0.00 0.00 0.00 0.00 0.00 0.00 0.00 0.00 0.00 0.00 0.00 0.00 0.00 0.00 0.00 0.00 0.00
0.29 0.10 0.06 0.03 0.06 0.26 0.64 0.81 0.92 0.75 0.44 0.39 0.57 0.80 0.68 0.47 0.17 0.05 0.00 0.01 0.00 0.00 0.00 0.00 0.00 0.00 0.00 0.00 0.00 0.00 0.00 0.00 0.00 0.00 0.00 0.00 0.00 0.00 0.00 0.00 0.00 0.00 0.00
0.10 0.13 0.19 0.12 0.09 0.26 0.46 0.53 0.83 0.65 0.48 0.35 0.38 0.50 0.45 0.42 0.25 0.05 0.03 0.04 0.03 0.01 0.00 0.00 0.00 0.00 0.00 0.00 0.00 0.00 0.00 0.00 0.00 0.00 0.00 0.00 0.00 0.00 0.00 0.00 0.00 0.00 0.00
0.10 0.06 0.25 0.25 0.19 0.16 0.32 0.38 0.78 0.66 0.56 0.53 0.39 0.39 0.34 0.23 0.21 0.11 0.06 0.03 0.10 0.04 0.04 0.01 0.00 0.00 0.00 0.00 0.00 0.00 0.00 0.00 0.00 0.00 0.00 0.00 0.00 0.00 0.00 0.00 0.00 0.00 0.00
0.05 0.04 0.11 0.24 0.30 0.17 0.09 0.33 0.78 0.72 0.60 0.61 0.49 0.39 0.33 0.19 0.16 0.12 0.05 0.03 0.05 0.03 0.05 0.02 0.00 0.01 0.01 0.01 0.00 0.00 0.00 0.00 0.00 0.00 0.00 0.00 0.00 0.00 0.00 0.00 0.00 0.00 0.00
0.01 0.02 0.01 0.10 0.25 0.09 0.10 0.22 0.50 0.54 0.56 0.52 0.61 0.48 0.35 0.21 0.14 0.08 0.03 0.07 0.01 0.03 0.03 0.02 0.01 0.02 0.02 0.02 0.01 0.00 0.00 0.00 0.00 0.00 0.00 0.00 0.00 0.00 0.00 0.00 0.00 0.00 0.00
0.01 0.00 0.00 0.01 0.12 0.12 0.05 0.10 0.31 0.51 0.59 0.71 0.90 0.80 0.45 0.25 0.16 0.11 0.06 0.04 0.03 0.03 0.02 0.02 0.01 0.01 0.02 0.02 0.02 0.00 0.00 0.00 0.00 0.00 0.00 0.00 0.00 0.00 0.00 0.00 0.00 0.00 0.00
0.00 0.00 0.00 0.01 0.02 0.03 0.01 0.02 0.14 0.47 0.51 0.64 0.66 0.80 0.52 0.34 0.24 0.15 0.07 0.04 0.04 0.04 0.02 0.03 0.03 0.03 0.02 0.02 0.02 0.01 0.00 0.00 0.01 0.00 0.00 0.00 0.00 0.00 0.00 0.00 0.00 0.00 0.00
0.00 0.00 0.00 0.00 0.00 0.01 0.00 0.00 0.03 0.14 0.27 0.45 0.67 0.72 0.73 0.49 0.28 0.16 0.09 0.07 0.07 0.06 0.11 0.08 0.05 0.06 0.06 0.05 0.04 0.03 0.02 0.01 0.01 0.01 0.01 0.00 0.00 0.00 0.00 0.00 0.00 0.00 0.00
0.00 0.00 0.00 0.00 0.00 0.01 0.00 0.00 0.01 0.03 0.03 0.14 0.40 0.62 0.67 0.60 0.39 0.24 0.13 0.09 0.09 0.11 0.17 0.14 0.17 0.13 0.12 0.09 0.06 0.06 0.03 0.03 0.04 0.07 0.12 0.13 0.10 0.03 0.00 0.00 0.00 0.00 0.00

GFSSE_prec_precacc24_108.txt.gz
Total_Precipitation_Accumulation
0.04 0.00 0.00 0.00 0.00 0.00 0.00 0.00 0.00 0.00 0.00 0.00 0.00 0.00 0.00 0.00 0.00 0.01 0.00 0.00 0.00 0.00 0.00 0.00 0.00 0.00 0.00 0.00 0.00 0.00 0.00 0.00 0.00 0.00 0.01 0.01 0.01 0.01 0.01 0.00 0.00 0.01 0.03
0.02 0.00 0.02 0.01 0.00 0.01 0.00 0.00 0.00 0.00 0.00 0.00 0.00 0.00 0.00 0.00 0.00 0.00 0.00 0.00 0.00 0.00 0.00 0.00 0.00 0.00 0.00 0.00 0.00 0.00 0.00 0.00 0.00 0.00 0.01 0.01 0.02 0.02 0.01 0.02 0.04 0.04 0.04
0.02 0.01 0.02 0.00 0.00 0.02 0.01 0.00 0.00 0.00 0.00 0.00 0.00 0.00 0.00 0.00 0.00 0.00 0.00 0.00 0.00 0.00 0.00 0.00 0.00 0.00 0.00 0.00 0.00 0.00 0.00 0.00 0.00 0.00 0.00 0.00 0.02 0.03 0.02 0.02 0.04 0.05 0.05
0.01 0.05 0.00 0.00 0.00 0.02 0.02 0.01 0.00 0.00 0.00 0.00 0.00 0.03 0.04 0.03 0.00 0.00 0.00 0.00 0.00 0.00 0.00 0.00 0.00 0.00 0.00 0.00 0.00 0.00 0.00 0.00 0.00 0.00 0.00 0.00 0.01 0.03 0.03 0.02 0.02 0.02 0.03
0.24 0.23 0.08 0.03 0.07 0.17 0.12 0.04 0.01 0.04 0.01 0.01 0.02 0.09 0.11 0.12 0.07 0.01 0.00 0.00 0.00 0.00 0.00 0.00 0.00 0.00 0.00 0.00 0.00 0.00 0.00 0.00 0.00 0.00 0.00 0.00 0.01 0.01 0.01 0.01 0.01 0.00 0.01
0.37 0.41 0.22 0.13 0.08 0.27 0.48 0.18 0.04 0.07 0.01 0.02 0.10 0.08 0.10 0.30 0.20 0.06 0.00 0.00 0.00 0.00 0.00 0.00 0.00 0.00 0.00 0.00 0.00 0.00 0.00 0.00 0.00 0.00 0.00 0.00 0.00 0.01 0.00 0.00 0.00 0.00 0.00
0.53 1.16 1.70 1.28 0.89 0.59 0.73 0.65 0.31 0.17 0.07 0.09 0.24 0.39 0.35 0.66 0.45 0.17 0.07 0.01 0.00 0.00 0.00 0.00 0.00 0.00 0.00 0.00 0.00 0.00 0.00 0.00 0.00 0.00 0.00 0.00 0.00 0.00 0.00 0.00 0.00 0.00 0.00
0.22 0.79 2.29 3.20 2.90 2.34 1.85 1.74 1.53 1.34 0.96 0.67 0.33 0.29 0.28 0.48 0.53 0.17 0.08 0.03 0.01 0.00 0.00 0.00 0.00 0.00 0.00 0.00 0.00 0.00 0.00 0.00 0.00 0.00 0.00 0.00 0.00 0.00 0.00 0.00 0.00 0.00 0.00
0.15 0.21 1.06 3.42 2.52 2.07 3.20 3.15 3.31 2.37 2.12 1.74 1.20 0.59 0.28 0.23 0.19 0.05 0.01 0.01 0.00 0.00 0.00 0.00 0.00 0.00 0.00 0.00 0.00 0.00 0.00 0.00 0.00 0.00 0.00 0.00 0.00 0.00 0.00 0.00 0.00 0.00 0.00
0.15 0.17 0.25 0.76 1.22 1.19 2.43 3.60 3.18 3.40 2.71 1.95 1.51 1.23 0.41 0.43 0.27 0.15 0.01 0.00 0.00 0.00 0.00 0.00 0.00 0.00 0.00 0.00 0.00 0.00 0.00 0.00 0.00 0.00 0.00 0.00 0.00 0.00 0.00 0.00 0.00 0.00 0.00
0.09 0.17 0.09 0.24 0.49 1.03 1.54 2.98 2.84 3.60 3.09 1.92 1.52 2.02 0.78 0.34 0.35 0.22 0.01 0.00 0.00 0.00 0.00 0.00 0.00 0.00 0.00 0.00 0.00 0.00 0.00 0.00 0.00 0.00 0.00 0.00 0.00 0.00 0.00 0.00 0.00 0.00 0.00
0.11 0.07 0.05 0.61 0.92 1.13 1.64 1.69 2.09 2.90 4.53 2.18 1.46 1.68 1.38 0.46 0.37 0.19 0.03 0.00 0.00 0.00 0.00 0.00 0.00 0.00 0.00 0.00 0.00 0.00 0.00 0.00 0.00 0.00 0.00 0.00 0.00 0.00 0.00 0.00 0.00 0.00 0.00
0.04 0.08 0.02 1.04 1.72 1.26 1.31 2.01 2.01 2.34 4.07 3.27 1.38 0.99 1.40 0.52 0.45 0.25 0.04 0.02 0.00 0.00 0.00 0.00 0.00 0.00 0.00 0.00 0.00 0.00 0.00 0.00 0.00 0.00 0.00 0.00 0.00 0.00 0.00 0.00 0.00 0.00 0.00
0.01 0.07 0.08 0.12 1.25 1.35 1.18 1.80 1.90 1.30 1.94 3.66 1.64 0.98 0.75 0.76 0.31 0.17 0.04 0.00 0.00 0.00 0.00 0.00 0.00 0.00 0.00 0.00 0.00 0.00 0.00 0.00 0.00 0.00 0.00 0.00 0.00 0.00 0.00 0.00 0.00 0.00 0.00
0.01 0.02 0.08 0.12 0.47 1.30 1.53 1.67 1.44 0.76 1.03 2.43 1.96 1.18 0.38 0.48 0.24 0.09 0.05 0.00 0.00 0.00 0.00 0.00 0.00 0.00 0.00 0.00 0.00 0.00 0.00 0.00 0.00 0.00 0.00 0.00 0.00 0.00 0.00 0.00 0.00 0.00 0.00
0.06 0.02 0.04 0.05 0.08 0.54 1.33 1.10 1.23 0.76 0.76 1.65 2.04 1.22 0.43 0.24 0.20 0.02 0.02 0.02 0.00 0.00 0.00 0.00 0.00 0.00 0.00 0.00 0.00 0.00 0.00 0.00 0.00 0.00 0.00 0.00 0.00 0.00 0.00 0.00 0.00 0.00 0.00
0.20 0.02 0.02 0.02 0.04 0.46 0.88 0.91 0.94 0.79 0.59 0.94 1.62 1.27 0.74 0.30 0.17 0.03 0.01 0.03 0.01 0.00 0.00 0.00 0.00 0.00 0.00 0.00 0.00 0.00 0.00 0.00 0.00 0.00 0.00 0.00 0.00 0.00 0.00 0.00 0.00 0.00 0.00
0.27 0.05 0.04 0.01 0.03 0.25 0.63 0.81 0.92 0.76 0.51 0.59 0.97 1.07 0.78 0.51 0.21 0.05 0.00 0.01 0.00 0.00 0.00 0.00 0.00 0.00 0.00 0.00 0.00 0.00 0.00 0.00 0.00 0.00 0.00 0.00 0.00 0.00 0.00 0.00 0.00 0.00 0.00
0.10 0.10 0.13 0.08 0.08 0.24 0.44 0.53 0.82 0.65 0.49 0.46 0.74 0.84 0.63 0.47 0.27 0.05 0.03 0.04 0.03 0.00 0.00 0.00 0.00 0.00 0.00 0.00 0.00 0.00 0.00 0.00 0.00 0.00 0.00 0.00 0.00 0.00 0.00 0.00 0.00 0.00 0.00
0.10 0.05 0.22 0.19 0.18 0.14 0.31 0.36 0.77 0.65 0.57 0.54 0.47 0.57 0.54 0.33 0.20 0.08 0.04 0.03 0.10 0.04 0.04 0.01 0.00 0.00 0.00 0.00 0.00 0.00 0.00 0.00 0.00 0.00 0.00 0.00 0.00 0.00 0.00 0.00 0.00 0.00 0.00
0.04 0.03 0.11 0.23 0.30 0.16 0.09 0.33 0.78 0.72 0.60 0.62 0.49 0.40 0.40 0.25 0.17 0.10 0.03 0.01 0.04 0.03 0.05 0.02 0.00 0.01 0.01 0.01 0.00 0.00 0.00 0.00 0.00 0.00 0.00 0.00 0.00 0.00 0.00 0.00 0.00 0.00 0.00
0.01 0.02 0.01 0.10 0.25 0.09 0.10 0.22 0.50 0.56 0.57 0.52 0.61 0.48 0.36 0.23 0.14 0.08 0.03 0.01 0.01 0.03 0.03 0.02 0.01 0.02 0.02 0.02 0.01 0.00 0.00 0.00 0.00 0.00 0.00 0.00 0.00 0.00 0.00 0.00 0.00 0.00 0.00
0.01 0.00 0.00 0.01 0.12 0.12 0.05 0.10 0.31 0.51 0.62 0.76 0.94 0.81 0.46 0.27 0.13 0.08 0.06 0.02 0.03 0.03 0.02 0.02 0.01 0.01 0.02 0.02 0.02 0.00 0.00 0.00 0.00 0.00 0.00 0.00 0.00 0.00 0.00 0.00 0.00 0.00 0.00
0.00 0.00 0.00 0.01 0.02 0.03 0.01 0.02 0.14 0.47 0.51 0.66 0.71 0.94 0.57 0.37 0.20 0.12 0.08 0.04 0.04 0.05 0.03 0.04 0.03 0.03 0.02 0.02 0.02 0.01 0.00 0.00 0.01 0.00 0.00 0.00 0.00 0.00 0.00 0.00 0.00 0.00 0.00
0.00 0.00 0.00 0.00 0.00 0.01 0.00 0.00 0.03 0.14 0.27 0.45 0.68 0.99 1.08 0.69 0.39 0.18 0.11 0.06 0.08 0.08 0.16 0.10 0.06 0.08 0.07 0.05 0.04 0.03 0.02 0.01 0.01 0.01 0.01 0.00 0.00 0.00 0.00 0.00 0.00 0.00 0.00
0.00 0.00 0.00 0.00 0.00 0.01 0.00 0.00 0.01 0.03 0.03 0.15 0.41 0.67 1.19 1.06 0.66 0.39 0.18 0.11 0.12 0.13 0.21 0.21 0.22 0.16 0.16 0.12 0.07 0.06 0.03 0.03 0.04 0.07 0.12 0.13 0.10 0.03 0.00 0.00 0.00 0.00 0.00

GFSSE_prec_precacc24_111.txt.gz
Total_Precipitation_Accumulation
0.04 0.00 0.00 0.00 0.00 0.00 0.00 0.00 0.00 0.00 0.00 0.00 0.00 0.00 0.00 0.00 0.00 0.01 0.00 0.00 0.00 0.00 0.00 0.00 0.00 0.00 0.00 0.00 0.00 0.00 0.00 0.00 0.00 0.01 0.02 0.02 0.02 0.02 0.01 0.00 0.00 0.01 0.04
0.01 0.00 0.02 0.01 0.00 0.01 0.00 0.00 0.00 0.00 0.00 0.00 0.00 0.00 0.00 0.00 0.00 0.00 0.00 0.00 0.00 0.00 0.00 0.00 0.00 0.00 0.01 0.00 0.00 0.00 0.00 0.00 0.00 0.00 0.01 0.03 0.03 0.03 0.02 0.02 0.04 0.04 0.04
0.01 0.00 0.02 0.00 0.00 0.02 0.01 0.00 0.00 0.00 0.00 0.00 0.00 0.00 0.00 0.00 0.00 0.00 0.00 0.00 0.00 0.00 0.00 0.01 0.01 0.01 0.00 0.00 0.00 0.00 0.00 0.00 0.00 0.00 0.00 0.00 0.03 0.03 0.02 0.02 0.05 0.06 0.05
0.01 0.00 0.00 0.00 0.00 0.02 0.02 0.01 0.00 0.00 0.00 0.00 0.00 0.03 0.04 0.03 0.00 0.00 0.00 0.00 0.00 0.00 0.01 0.01 0.01 0.01 0.00 0.00 0.00 0.00 0.00 0.00 0.00 0.00 0.00 0.00 0.01 0.03 0.03 0.02 0.02 0.02 0.02
0.16 0.02 0.00 0.03 0.00 0.01 0.02 0.02 0.01 0.04 0.01 0.01 0.02 0.09 0.11 0.12 0.07 0.01 0.00 0.00 0.00 0.00 0.00 0.01 0.00 0.00 0.00 0.00 0.00 0.00 0.00 0.00 0.00 0.00 0.00 0.00 0.01 0.01 0.01 0.01 0.01 0.00 0.01
0.24 0.32 0.08 0.04 0.04 0.04 0.09 0.04 0.02 0.07 0.01 0.02 0.10 0.09 0.11 0.31 0.20 0.06 0.00 0.00 0.00 0.00 0.01 0.01 0.00 0.00 0.00 0.00 0.00 0.00 0.00 0.00 0.00 0.00 0.00 0.00 0.00 0.01 0.00 0.00 0.00 0.00 0.00
0.50 1.02 1.57 1.22 0.81 0.55 0.53 0.41 0.19 0.16 0.07 0.10 0.24 0.40 0.38 0.80 0.59 0.20 0.07 0.01 0.00 0.01 0.00 0.00 0.00 0.00 0.00 0.00 0.00 0.00 0.00 0.00 0.00 0.00 0.00 0.00 0.00 0.01 0.00 0.00 0.00 0.00 0.00
0.21 0.78 2.25 3.15 2.74 2.20 1.65 1.43 1.32 1.27 1.01 0.76 0.44 0.36 0.30 0.66 0.80 0.29 0.09 0.03 0.01 0.00 0.00 0.00 0.00 0.00 0.00 0.00 0.00 0.00 0.00 0.00 0.00 0.00 0.00 0.00 0.00 0.00 0.00 0.00 0.00 0.00 0.00
0.10 0.19 1.05 3.41 2.39 1.68 2.32 2.75 3.03 2.21 2.14 1.85 1.28 0.68 0.29 0.33 0.47 0.24 0.08 0.03 0.00 0.00 0.00 0.00 0.00 0.00 0.00 0.00 0.00 0.00 0.00 0.00 0.00 0.00 0.00 0.00 0.00 0.00 0.00 0.00 0.00 0.00 0.00
0.10 0.09 0.21 0.75 1.16 0.92 1.46 2.55 2.88 3.20 2.78 2.03 1.57 1.27 0.44 0.44 0.34 0.33 0.11 0.03 0.00 0.00 0.00 0.00 0.00 0.00 0.00 0.00 0.00 0.00 0.00 0.00 0.00 0.00 0.00 0.00 0.00 0.00 0.00 0.00 0.00 0.00 0.00
0.06 0.12 0.07 0.16 0.37 0.68 0.79 1.72 2.22 3.18 3.09 2.03 1.57 2.05 0.79 0.36 0.37 0.28 0.08 0.03 0.01 0.00 0.00 0.00 0.00 0.00 0.00 0.00 0.00 0.00 0.00 0.00 0.00 0.00 0.00 0.00 0.00 0.00 0.00 0.00 0.00 0.00 0.00
0.08 0.06 0.03 0.09 0.28 0.44 0.76 1.11 1.48 2.28 4.39 2.31 1.55 1.75 1.40 0.47 0.38 0.23 0.14 0.05 0.02 0.00 0.00 0.00 0.00 0.00 0.00 0.00 0.00 0.00 0.00 0.00 0.00 0.00 0.00 0.00 0.00 0.00 0.00 0.00 0.00 0.00 0.00
0.02 0.06 0.01 0.11 0.22 0.39 0.53 1.44 1.62 1.81 3.95 3.39 1.58 1.14 1.46 0.56 0.49 0.30 0.11 0.07 0.03 0.00 0.00 0.00 0.00 0.00 0.00 0.00 0.00 0.00 0.00 0.00 0.00 0.00 0.00 0.00 0.00 0.00 0.00 0.00 0.00 0.00 0.00
0.01 0.06 0.07 0.06 0.32 0.26 0.46 1.30 1.62 1.13 1.91 3.67 1.73 1.15 0.85 0.88 0.37 0.27 0.07 0.02 0.01 0.00 0.00 0.00 0.00 0.00 0.00 0.00 0.00 0.00 0.00 0.00 0.00 0.00 0.00 0.00 0.00 0.00 0.00 0.00 0.00 0.00 0.00
0.01 0.01 0.08 0.12 0.29 0.78 0.90 1.21 1.25 0.72 1.04 2.46 2.00 1.27 0.46 0.59 0.36 0.19 0.07 0.01 0.00 0.00 0.00 0.00 0.00 0.00 0.00 0.00 0.00 0.00 0.00 0.00 0.00 0.00 0.00 0.00 0.00 0.00 0.00 0.00 0.00 0.00 0.00
0.04 0.02 0.04 0.05 0.07 0.47 1.09 0.86 1.13 0.76 0.78 1.72 2.10 1.35 0.69 0.30 0.30 0.08 0.04 0.02 0.00 0.00 0.00 0.00 0.00 0.00 0.00 0.00 0.00 0.00 0.00 0.00 0.00 0.00 0.00 0.00 0.00 0.00 0.00 0.00 0.00 0.00 0.00
0.10 0.02 0.02 0.02 0.04 0.46 0.86 0.89 0.92 0.79 0.60 1.00 1.72 1.35 1.22 0.43 0.25 0.06 0.01 0.03 0.01 0.00 0.00 0.00 0.00 0.00 0.00 0.00 0.00 0.00 0.00 0.00 0.00 0.00 0.00 0.00 0.00 0.00 0.00 0.00 0.00 0.00 0.00
0.19 0.03 0.04 0.01 0.02 0.25 0.62 0.79 0.92 0.76 0.53 0.67 1.24 1.15 1.09 0.94 0.27 0.07 0.01 0.01 0.00 0.00 0.00 0.00 0.00 0.00 0.00 0.00 0.00 0.00 0.00 0.00 0.00 0.00 0.00 0.00 0.00 0.00 0.00 0.00 0.00 0.00 0.00
0.06 0.05 0.04 0.05 0.05 0.23 0.44 0.52 0.81 0.65 0.50 0.52 0.99 0.99 0.75 0.83 0.32 0.07 0.03 0.05 0.03 0.00 0.00 0.00 0.00 0.00 0.00 0.00 0.00 0.00 0.00 0.00 0.00 0.00 0.00 0.00 0.00 0.00 0.00 0.00 0.00 0.00 0.00
0.04 0.03 0.07 0.04 0.14 0.12 0.29 0.35 0.77 0.65 0.56 0.56 0.84 0.76 0.62 0.42 0.24 0.10 0.05 0.03 0.10 0.04 0.04 0.01 0.00 0.00 0.00 0.00 0.00 0.00 0.00 0.00 0.00 0.00 0.00 0.00 0.00 0.00 0.00 0.00 0.00 0.00 0.00
0.02 0.01 0.07 0.14 0.22 0.15 0.06 0.33 0.78 0.71 0.56 0.61 0.67 0.62 0.50 0.34 0.21 0.10 0.02 0.02 0.04 0.03 0.05 0.02 0.00 0.01 0.01 0.01 0.00 0.00 0.00 0.00 0.00 0.00 0.00 0.00 0.00 0.00 0.00 0.00 0.00 0.00 0.00
0.01 0.01 0.01 0.08 0.23 0.08 0.08 0.22 0.50 0.56 0.56 0.52 0.62 0.55 0.48 0.34 0.20 0.10 0.03 0.01 0.01 0.03 0.03 0.02 0.01 0.02 0.02 0.02 0.01 0.00 0.00 0.00 0.00 0.00 0.00 0.00 0.00 0.00 0.00 0.00 0.00 0.00 0.00
0.01 0.00 0.00 0.01 0.12 0.12 0.05 0.10 0.31 0.53 0.64 0.78 0.95 0.84 0.50 0.35 0.23 0.11 0.07 0.02 0.01 0.02 0.02 0.02 0.01 0.01 0.02 0.02 0.02 0.00 0.00 0.00 0.00 0.00 0.00 0.00 0.00 0.00 0.00 0.00 0.00 0.00 0.00
0.00 0.00 0.00 0.01 0.02 0.03 0.01 0.02 0.14 0.47 0.53 0.67 0.71 0.94 0.59 0.39 0.24 0.16 0.10 0.05 0.04 0.05 0.03 0.03 0.03 0.03 0.02 0.02 0.02 0.01 0.00 0.00 0.01 0.00 0.00 0.00 0.00 0.00 0.00 0.00 0.00 0.00 0.00
0.00 0.00 0.00 0.00 0.00 0.01 0.00 0.00 0.03 0.14 0.27 0.47 0.72 1.01 1.11 0.73 0.40 0.19 0.13 0.07 0.09 0.08 0.15 0.09 0.05 0.07 0.07 0.05 0.04 0.03 0.02 0.01 0.01 0.01 0.01 0.00 0.00 0.00 0.00 0.00 0.00 0.00 0.00
0.00 0.00 0.00 0.00 0.00 0.01 0.00 0.00 0.01 0.03 0.03 0.15 0.42 0.70 1.28 1.32 0.79 0.42 0.21 0.13 0.16 0.16 0.19 0.17 0.18 0.15 0.16 0.13 0.08 0.06 0.03 0.03 0.04 0.07 0.12 0.13 0.10 0.03 0.00 0.00 0.00 0.00 0.00

GFSSE_prec_precacc24_114.txt.gz
Total_Precipitation_Accumulation
0.01 0.00 0.00 0.00 0.00 0.00 0.00 0.00 0.00 0.00 0.00 0.00 0.00 0.00 0.00 0.00 0.00 0.00 0.00 0.00 0.00 0.00 0.00 0.00 0.00 0.00 0.01 0.01 0.00 0.00 0.00 0.01 0.01 0.02 0.03 0.03 0.03 0.02 0.01 0.00 0.00 0.01 0.05
0.01 0.00 0.02 0.01 0.00 0.01 0.00 0.00 0.00 0.00 0.00 0.00 0.00 0.00 0.00 0.00 0.00 0.00 0.00 0.00 0.00 0.00 0.00 0.00 0.00 0.00 0.01 0.01 0.00 0.00 0.00 0.00 0.00 0.01 0.02 0.04 0.05 0.03 0.02 0.01 0.03 0.04 0.03
0.00 0.00 0.01 0.01 0.00 0.01 0.01 0.00 0.00 0.00 0.01 0.01 0.01 0.00 0.00 0.00 0.00 0.00 0.00 0.00 0.00 0.00 0.01 0.01 0.01 0.02 0.02 0.01 0.00 0.00 0.00 0.00 0.00 0.00 0.00 0.00 0.03 0.04 0.02 0.02 0.05 0.05 0.05
0.00 0.00 0.00 0.00 0.00 0.02 0.01 0.01 0.00 0.00 0.02 0.02 0.01 0.03 0.04 0.03 0.00 0.00 0.00 0.00 0.00 0.01 0.01 0.01 0.02 0.03 0.02 0.00 0.00 0.00 0.00 0.00 0.00 0.00 0.00 0.00 0.02 0.04 0.04 0.02 0.02 0.02 0.02
0.02 0.00 0.00 0.00 0.00 0.01 0.02 0.01 0.00 0.04 0.01 0.03 0.03 0.09 0.10 0.12 0.08 0.03 0.02 0.01 0.00 0.01 0.01 0.02 0.02 0.02 0.00 0.00 0.00 0.00 0.00 0.00 0.00 0.00 0.00 0.00 0.01 0.02 0.01 0.01 0.00 0.00 0.00
0.11 0.12 0.05 0.04 0.03 0.04 0.09 0.03 0.00 0.06 0.01 0.03 0.11 0.20 0.13 0.32 0.21 0.08 0.01 0.00 0.00 0.00 0.02 0.03 0.02 0.00 0.00 0.00 0.00 0.00 0.00 0.00 0.00 0.00 0.00 0.00 0.00 0.01 0.00 0.00 0.00 0.00 0.01
0.22 0.76 1.29 1.08 0.78 0.55 0.53 0.41 0.18 0.13 0.07 0.10 0.28 0.65 0.61 1.05 0.71 0.30 0.12 0.03 0.01 0.01 0.04 0.04 0.01 0.00 0.00 0.00 0.00 0.00 0.00 0.00 0.00 0.00 0.00 0.00 0.00 0.01 0.00 0.00 0.00 0.00 0.00
0.09 0.57 1.92 2.83 2.62 2.17 1.65 1.43 1.31 1.22 0.94 0.75 0.49 0.49 0.52 0.92 0.91 0.39 0.18 0.09 0.03 0.03 0.04 0.01 0.01 0.00 0.00 0.00 0.00 0.00 0.00 0.00 0.00 0.00 0.00 0.00 0.00 0.00 0.00 0.00 0.00 0.00 0.00
0.04 0.17 0.95 3.17 2.37 1.67 2.31 2.74 3.03 2.16 2.01 1.75 1.28 0.72 0.34 0.35 0.48 0.27 0.18 0.09 0.06 0.04 0.02 0.01 0.00 0.00 0.00 0.00 0.00 0.00 0.00 0.00 0.00 0.00 0.00 0.00 0.00 0.00 0.00 0.00 0.00 0.00 0.00
0.00 0.01 0.15 0.63 1.03 0.81 1.41 2.50 2.87 3.14 2.58 1.89 1.47 1.25 0.44 0.45 0.35 0.36 0.21 0.14 0.05 0.01 0.01 0.00 0.00 0.00 0.00 0.00 0.00 0.00 0.00 0.00 0.00 0.00 0.00 0.00 0.00 0.00 0.00 0.00 0.00 0.00 0.00
0.02 0.02 0.04 0.12 0.21 0.36 0.60 1.55 2.13 3.10 2.85 1.82 1.43 1.99 0.78 0.36 0.38 0.30 0.12 0.09 0.09 0.03 0.00 0.00 0.00 0.00 0.00 0.00 0.00 0.00 0.00 0.00 0.00 0.00 0.00 0.00 0.00 0.00 0.00 0.00 0.00 0.00 0.00
0.06 0.04 0.03 0.04 0.11 0.28 0.46 0.71 1.19 2.10 4.07 2.00 1.39 1.70 1.40 0.47 0.39 0.24 0.17 0.09 0.07 0.02 0.00 0.00 0.00 0.00 0.00 0.00 0.00 0.00 0.00 0.00 0.00 0.00 0.00 0.00 0.00 0.00 0.00 0.00 0.00 0.00 0.00
0.01 0.06 0.01 0.07 0.04 0.16 0.26 0.88 1.28 1.57 3.53 3.06 1.45 1.09 1.47 0.56 0.50 0.30 0.17 0.21 0.08 0.01 0.00 0.00 0.00 0.00 0.00 0.00 0.00 0.00 0.00 0.00 0.00 0.00 0.00 0.00 0.00 0.00 0.00 0.00 0.00 0.00 0.00
0.01 0.05 0.05 0.05 0.06 0.09 0.21 0.60 1.40 0.98 1.60 3.44 1.60 1.14 0.92 0.90 0.38 0.28 0.12 0.12 0.06 0.00 0.00 0.00 0.00 0.00 0.00 0.00 0.00 0.00 0.00 0.00 0.00 0.00 0.00 0.00 0.00 0.00 0.00 0.00 0.00 0.00 0.00
0.01 0.01 0.05 0.12 0.13 0.19 0.31 0.68 1.07 0.62 0.94 2.40 1.96 1.26 0.55 0.67 0.41 0.21 0.13 0.04 0.01 0.00 0.00 0.00 0.00 0.00 0.00 0.00 0.00 0.00 0.00 0.00 0.00 0.00 0.00 0.00 0.00 0.00 0.00 0.00 0.00 0.00 0.00
0.02 0.01 0.02 0.05 0.06 0.21 0.43 0.49 0.94 0.66 0.75 1.71 2.10 1.36 0.71 0.33 0.38 0.16 0.09 0.04 0.00 0.00 0.00 0.00 0.00 0.00 0.00 0.00 0.00 0.00 0.00 0.00 0.00 0.00 0.00 0.00 0.00 0.00 0.00 0.00 0.00 0.00 0.00
0.02 0.01 0.01 0.02 0.04 0.28 0.49 0.53 0.68 0.68 0.58 0.99 1.70 1.30 1.21 0.47 0.31 0.18 0.11 0.05 0.01 0.00 0.00 0.00 0.00 0.00 0.00 0.00 0.00 0.00 0.00 0.00 0.00 0.00 0.00 0.00 0.00 0.00 0.00 0.00 0.00 0.00 0.00
0.05 0.02 0.02 0.01 0.02 0.24 0.52 0.61 0.71 0.66 0.51 0.66 1.22 1.18 1.17 1.11 0.35 0.18 0.11 0.06 0.02 0.01 0.00 0.00 0.00 0.00 0.00 0.00 0.00 0.00 0.00 0.00 0.00 0.00 0.00 0.00 0.00 0.00 0.00 0.00 0.00 0.00 0.00
0.03 0.04 0.03 0.04 0.03 0.22 0.42 0.47 0.77 0.64 0.49 0.51 0.99 1.04 0.83 1.27 0.66 0.14 0.08 0.08 0.05 0.02 0.00 0.00 0.00 0.00 0.00 0.00 0.00 0.00 0.00 0.00 0.00 0.00 0.00 0.00 0.00 0.00 0.00 0.00 0.00 0.00 0.00
0.01 0.01 0.03 0.02 0.02 0.08 0.24 0.33 0.73 0.64 0.55 0.55 0.85 0.80 0.70 0.89 0.83 0.23 0.09 0.05 0.11 0.05 0.04 0.01 0.00 0.00 0.00 0.00 0.00 0.00 0.00 0.00 0.00 0.00 0.00 0.00 0.00 0.00 0.00 0.00 0.00 0.00 0.00
0.00 0.00 0.01 0.03 0.08 0.13 0.05 0.31 0.73 0.68 0.55 0.60 0.70 0.67 0.56 0.65 0.57 0.31 0.06 0.04 0.06 0.04 0.05 0.02 0.00 0.01 0.01 0.01 0.00 0.00 0.00 0.00 0.00 0.00 0.00 0.00 0.00 0.00 0.00 0.00 0.00 0.00 0.00
0.00 0.00 0.00 0.02 0.06 0.06 0.06 0.20 0.47 0.55 0.56 0.51 0.62 0.58 0.53 0.57 0.39 0.17 0.07 0.03 0.02 0.03 0.03 0.02 0.01 0.02 0.02 0.02 0.01 0.00 0.00 0.00 0.00 0.00 0.00 0.00 0.00 0.00 0.00 0.00 0.00 0.00 0.00
0.00 0.00 0.00 0.01 0.08 0.10 0.04 0.07 0.30 0.52 0.63 0.78 0.95 0.86 0.58 0.49 0.32 0.17 0.07 0.03 0.02 0.02 0.01 0.01 0.00 0.01 0.02 0.02 0.02 0.00 0.00 0.00 0.00 0.00 0.00 0.00 0.00 0.00 0.00 0.00 0.00 0.00 0.00
0.00 0.00 0.00 0.01 0.01 0.03 0.01 0.01 0.14 0.47 0.52 0.68 0.72 0.95 0.62 0.46 0.35 0.25 0.13 0.05 0.04 0.04 0.02 0.02 0.01 0.02 0.02 0.02 0.02 0.01 0.00 0.00 0.01 0.00 0.00 0.00 0.00 0.00 0.00 0.00 0.00 0.00 0.00
0.00 0.00 0.00 0.00 0.00 0.01 0.00 0.00 0.03 0.14 0.27 0.47 0.72 1.02 1.13 0.75 0.45 0.27 0.18 0.09 0.09 0.09 0.14 0.06 0.04 0.05 0.06 0.04 0.04 0.03 0.02 0.01 0.01 0.01 0.01 0.00 0.00 0.00 0.00 0.00 0.00 0.00 0.00
0.00 0.00 0.00 0.00 0.00 0.02 0.01 0.00 0.01 0.03 0.03 0.15 0.42 0.70 1.30 1.36 0.81 0.45 0.26 0.17 0.16 0.16 0.19 0.15 0.13 0.11 0.14 0.12 0.08 0.05 0.03 0.03 0.04 0.06 0.12 0.12 0.10 0.03 0.00 0.00 0.00 0.00 0.00

GFSSE_prec_precacc24_117.txt.gz
Total_Precipitation_Accumulation
0.00 0.00 0.00 0.00 0.00 0.00 0.00 0.00 0.00 0.00 0.00 0.00 0.00 0.00 0.00 0.00 0.00 0.00 0.00 0.00 0.00 0.01 0.00 0.00 0.00 0.00 0.01 0.01 0.01 0.01 0.01 0.02 0.01 0.02 0.04 0.04 0.03 0.02 0.01 0.00 0.00 0.01 0.05
0.00 0.00 0.02 0.00 0.01 0.01 0.00 0.00 0.00 0.00 0.00 0.00 0.00 0.00 0.00 0.00 0.00 0.00 0.00 0.00 0.00 0.01 0.00 0.00 0.00 0.01 0.02 0.01 0.00 0.00 0.00 0.01 0.00 0.01 0.02 0.05 0.05 0.03 0.01 0.00 0.02 0.03 0.03
0.00 0.00 0.01 0.01 0.01 0.01 0.01 0.00 0.00 0.01 0.02 0.01 0.01 0.00 0.00 0.00 0.00 0.00 0.00 0.01 0.00 0.01 0.01 0.01 0.01 0.02 0.02 0.01 0.00 0.00 0.00 0.00 0.00 0.01 0.00 0.01 0.04 0.04 0.02 0.02 0.04 0.05 0.04
0.00 0.00 0.00 0.01 0.01 0.02 0.01 0.01 0.00 0.02 0.04 0.03 0.01 0.03 0.04 0.03 0.00 0.00 0.00 0.00 0.01 0.01 0.02 0.02 0.04 0.03 0.02 0.00 0.00 0.00 0.00 0.00 0.00 0.00 0.00 0.00 0.03 0.04 0.03 0.02 0.02 0.02 0.02
0.00 0.00 0.00 0.01 0.00 0.01 0.02 0.01 0.00 0.06 0.05 0.06 0.05 0.09 0.10 0.13 0.11 0.12 0.11 0.02 0.00 0.02 0.02 0.04 0.06 0.03 0.01 0.00 0.00 0.00 0.00 0.00 0.00 0.00 0.00 0.00 0.01 0.03 0.01 0.01 0.00 0.00 0.01
0.00 0.03 0.05 0.04 0.02 0.04 0.09 0.03 0.00 0.07 0.03 0.05 0.13 0.31 0.21 0.59 0.57 0.32 0.26 0.12 0.07 0.05 0.06 0.09 0.08 0.02 0.00 0.00 0.00 0.00 0.00 0.00 0.00 0.00 0.00 0.00 0.00 0.02 0.00 0.00 0.00 0.00 0.01
0.02 0.28 0.85 1.02 0.68 0.50 0.53 0.41 0.18 0.13 0.07 0.10 0.29 0.71 0.99 1.63 1.28 0.69 0.42 0.13 0.04 0.04 0.08 0.09 0.07 0.01 0.00 0.00 0.00 0.00 0.00 0.00 0.00 0.00 0.00 0.00 0.00 0.01 0.00 0.00 0.00 0.00 0.00
0.00 0.12 0.86 2.23 2.04 1.56 1.38 1.41 1.30 1.22 0.94 0.76 0.51 0.49 0.53 0.99 1.19 0.66 0.35 0.18 0.07 0.05 0.07 0.07 0.05 0.01 0.00 0.00 0.00 0.00 0.00 0.00 0.00 0.00 0.00 0.00 0.00 0.00 0.00 0.00 0.00 0.00 0.00
0.00 0.01 0.14 1.92 1.83 1.37 1.78 2.45 2.96 2.16 2.01 1.77 1.29 0.72 0.34 0.35 0.49 0.27 0.19 0.16 0.13 0.07 0.06 0.07 0.03 0.00 0.00 0.00 0.00 0.00 0.00 0.00 0.00 0.00 0.00 0.00 0.00 0.00 0.00 0.00 0.00 0.00 0.00
0.00 0.00 0.03 0.22 0.83 0.73 1.13 2.20 2.76 3.13 2.58 1.89 1.47 1.23 0.44 0.45 0.35 0.36 0.21 0.16 0.09 0.04 0.04 0.03 0.01 0.00 0.00 0.00 0.00 0.00 0.00 0.00 0.00 0.00 0.00 0.00 0.01 0.00 0.00 0.00 0.00 0.00 0.00
0.00 0.00 0.01 0.03 0.08 0.31 0.51 1.34 1.97 2.99 2.84 1.81 1.37 1.91 0.78 0.36 0.38 0.30 0.12 0.09 0.09 0.04 0.02 0.01 0.00 0.00 0.00 0.00 0.00 0.00 0.00 0.00 0.00 0.00 0.00 0.00 0.01 0.00 0.00 0.00 0.00 0.00 0.00
0.02 0.00 0.01 0.00 0.02 0.10 0.22 0.40 1.03 2.04 4.06 2.00 1.34 1.61 1.38 0.47 0.39 0.24 0.17 0.09 0.10 0.03 0.01 0.00 0.00 0.00 0.00 0.00 0.00 0.00 0.00 0.00 0.00 0.00 0.00 0.00 0.01 0.00 0.00 0.00 0.00 0.00 0.00
0.01 0.06 0.01 0.02 0.02 0.07 0.10 0.21 0.71 1.45 3.52 3.06 1.44 1.03 1.43 0.56 0.50 0.30 0.17 0.22 0.12 0.03 0.00 0.00 0.00 0.00 0.00 0.00 0.00 0.00 0.00 0.00 0.00 0.00 0.00 0.00 0.00 0.00 0.00 0.00 0.00 0.00 0.00
0.01 0.05 0.05 0.04 0.05 0.05 0.12 0.23 0.73 0.70 1.56 3.44 1.63 1.09 0.88 0.91 0.39 0.28 0.13 0.15 0.08 0.00 0.00 0.00 0.00 0.00 0.00 0.00 0.00 0.00 0.00 0.00 0.00 0.00 0.00 0.00 0.00 0.00 0.00 0.00 0.00 0.00 0.00
0.00 0.01 0.05 0.11 0.12 0.15 0.16 0.31 0.59 0.53 0.89 2.36 1.96 1.23 0.57 0.73 0.44 0.23 0.16 0.12 0.06 0.00 0.00 0.00 0.00 0.00 0.00 0.00 0.00 0.00 0.00 0.00 0.00 0.00 0.00 0.00 0.00 0.00 0.00 0.00 0.00 0.00 0.00
0.00 0.00 0.02 0.05 0.05 0.10 0.16 0.24 0.56 0.56 0.74 1.68 2.05 1.32 0.72 0.40 0.43 0.19 0.16 0.08 0.04 0.02 0.00 0.00 0.00 0.00 0.00 0.00 0.00 0.00 0.00 0.00 0.00 0.00 0.00 0.00 0.00 0.00 0.00 0.00 0.00 0.00 0.00
0.00 0.00 0.01 0.02 0.04 0.06 0.12 0.19 0.36 0.47 0.51 0.97 1.67 1.27 1.12 0.48 0.36 0.25 0.18 0.09 0.04 0.02 0.00 0.00 0.00 0.00 0.00 0.00 0.00 0.00 0.00 0.00 0.00 0.00 0.00 0.00 0.00 0.00 0.00 0.00 0.00 0.00 0.00
0.00 0.00 0.01 0.01 0.02 0.06 0.10 0.22 0.37 0.35 0.36 0.63 1.19 1.11 1.05 1.10 0.39 0.29 0.23 0.12 0.03 0.02 0.00 0.00 0.00 0.00 0.00 0.00 0.00 0.00 0.00 0.00 0.00 0.00 0.00 0.00 0.00 0.00 0.00 0.00 0.00 0.00 0.00
0.01 0.01 0.01 0.01 0.01 0.13 0.20 0.22 0.44 0.35 0.35 0.46 0.96 0.99 0.79 1.29 0.74 0.26 0.28 0.18 0.09 0.03 0.00 0.00 0.00 0.00 0.00 0.00 0.00 0.00 0.00 0.00 0.00 0.00 0.00 0.00 0.00 0.00 0.00 0.00 0.00 0.00 0.00
0.00 0.00 0.01 0.00 0.01 0.04 0.19 0.22 0.63 0.55 0.47 0.52 0.83 0.78 0.69 0.93 0.98 0.49 0.34 0.25 0.19 0.10 0.05 0.01 0.00 0.00 0.00 0.00 0.00 0.00 0.00 0.00 0.00 0.00 0.00 0.00 0.00 0.00 0.00 0.00 0.00 0.00 0.00
0.00 0.00 0.00 0.01 0.01 0.02 0.03 0.24 0.69 0.67 0.54 0.60 0.68 0.66 0.55 0.66 0.71 0.84 0.38 0.16 0.14 0.10 0.06 0.02 0.00 0.00 0.01 0.01 0.00 0.00 0.00 0.00 0.00 0.00 0.00 0.00 0.00 0.00 0.00 0.00 0.00 0.00 0.00
0.00 0.00 0.00 0.01 0.00 0.01 0.05 0.16 0.40 0.52 0.55 0.51 0.62 0.58 0.53 0.59 0.43 0.62 0.45 0.16 0.07 0.07 0.04 0.02 0.00 0.00 0.01 0.02 0.01 0.00 0.00 0.00 0.00 0.00 0.00 0.00 0.00 0.00 0.00 0.00 0.00 0.00 0.00
0.00 0.00 0.00 0.00 0.00 0.02 0.02 0.06 0.26 0.45 0.62 0.77 0.95 0.87 0.58 0.57 0.44 0.36 0.38 0.23 0.07 0.03 0.02 0.01 0.00 0.00 0.00 0.02 0.02 0.00 0.00 0.00 0.00 0.00 0.00 0.00 0.00 0.00 0.00 0.00 0.00 0.00 0.00
0.00 0.00 0.00 0.01 0.00 0.01 0.01 0.01 0.13 0.46 0.51 0.67 0.72 0.96 0.62 0.50 0.47 0.36 0.32 0.32 0.12 0.05 0.02 0.01 0.00 0.01 0.00 0.01 0.01 0.01 0.00 0.00 0.01 0.00 0.00 0.00 0.00 0.00 0.00 0.00 0.00 0.00 0.00
0.00 0.00 0.00 0.00 0.00 0.00 0.00 0.01 0.03 0.15 0.28 0.47 0.73 1.02 1.14 0.76 0.49 0.42 0.33 0.29 0.18 0.10 0.11 0.04 0.02 0.03 0.03 0.01 0.02 0.02 0.02 0.01 0.01 0.01 0.01 0.00 0.00 0.00 0.00 0.00 0.00 0.00 0.00
0.00 0.00 0.00 0.00 0.00 0.02 0.00 0.00 0.01 0.03 0.04 0.15 0.42 0.71 1.31 1.37 0.82 0.51 0.45 0.31 0.25 0.20 0.19 0.14 0.09 0.07 0.09 0.08 0.05 0.04 0.01 0.01 0.01 0.03 0.11 0.12 0.09 0.03 0.00 0.00 0.00 0.00 0.00

GFSSE_prec_precacc24_123.txt.gz
Total_Precipitation_Accumulation
0.00 0.00 0.00 0.00 0.00 0.00 0.00 0.00 0.00 0.00 0.00 0.00 0.02 0.00 0.00 0.00 0.00 0.00 0.00 0.00 0.00 0.01 0.05 0.02 0.02 0.01 0.02 0.01 0.01 0.01 0.01 0.02 0.01 0.04 0.07 0.07 0.04 0.03 0.03 0.06 0.04 0.02 0.08
0.00 0.00 0.00 0.00 0.00 0.00 0.00 0.00 0.00 0.00 0.00 0.00 0.01 0.00 0.03 0.01 0.00 0.00 0.00 0.00 0.02 0.06 0.04 0.02 0.04 0.04 0.03 0.02 0.03 0.00 0.00 0.01 0.00 0.02 0.02 0.06 0.06 0.03 0.01 0.05 0.04 0.04 0.04
0.00 0.00 0.00 0.01 0.01 0.00 0.00 0.00 0.00 0.01 0.02 0.01 0.01 0.04 0.06 0.01 0.00 0.00 0.01 0.03 0.06 0.16 0.10 0.05 0.09 0.09 0.02 0.02 0.00 0.00 0.00 0.00 0.00 0.02 0.01 0.01 0.03 0.03 0.02 0.03 0.04 0.04 0.03
0.00 0.00 0.00 0.01 0.01 0.00 0.00 0.00 0.00 0.02 0.04 0.03 0.01 0.05 0.08 0.04 0.00 0.02 0.02 0.06 0.20 0.29 0.18 0.08 0.21 0.23 0.03 0.01 0.00 0.00 0.00 0.00 0.00 0.00 0.00 0.00 0.03 0.04 0.02 0.01 0.03 0.02 0.02
0.00 0.00 0.00 0.00 0.00 0.00 0.00 0.01 0.00 0.06 0.05 0.06 0.06 0.09 0.13 0.14 0.11 0.17 0.35 0.49 0.36 0.36 0.36 0.18 0.18 0.11 0.04 0.00 0.00 0.00 0.00 0.00 0.00 0.00 0.00 0.00 0.02 0.04 0.03 0.03 0.01 0.02 0.05
0.00 0.00 0.00 0.00 0.00 0.01 0.04 0.02 0.00 0.07 0.03 0.04 0.13 0.31 0.22 0.75 0.84 0.97 1.28 1.93 1.40 1.32 0.60 0.51 0.37 0.16 0.03 0.00 0.00 0.00 0.00 0.00 0.00 0.00 0.00 0.00 0.02 0.04 0.02 0.01 0.01 0.01 0.01
0.00 0.00 0.00 0.00 0.00 0.00 0.09 0.23 0.16 0.13 0.08 0.11 0.29 0.71 1.00 1.65 1.42 1.09 0.88 0.81 0.70 0.91 0.52 0.34 0.21 0.03 0.00 0.00 0.00 0.00 0.00 0.00 0.00 0.00 0.00 0.00 0.02 0.02 0.01 0.00 0.00 0.00 0.00
0.00 0.00 0.00 0.00 0.00 0.01 0.02 0.32 1.00 1.21 0.94 0.76 0.55 0.58 0.57 0.99 1.20 0.68 0.37 0.28 0.18 0.20 0.23 0.21 0.12 0.01 0.00 0.00 0.00 0.00 0.00 0.00 0.00 0.00 0.00 0.00 0.01 0.01 0.00 0.00 0.00 0.00 0.00
0.00 0.00 0.00 0.00 0.00 0.01 0.04 0.14 0.96 1.69 1.92 1.74 1.35 0.79 0.40 0.36 0.49 0.27 0.19 0.16 0.13 0.09 0.12 0.16 0.08 0.03 0.01 0.00 0.00 0.00 0.00 0.00 0.00 0.00 0.00 0.00 0.01 0.01 0.00 0.00 0.00 0.00 0.00
0.00 0.00 0.00 0.00 0.00 0.00 0.01 0.14 0.81 1.54 1.73 1.74 1.47 1.25 0.45 0.45 0.36 0.36 0.21 0.16 0.09 0.04 0.04 0.04 0.04 0.04 0.03 0.00 0.00 0.00 0.00 0.00 0.00 0.00 0.00 0.00 0.01 0.01 0.00 0.00 0.00 0.00 0.00
0.00 0.00 0.00 0.00 0.00 0.00 0.02 0.13 0.58 1.34 1.61 1.47 1.30 1.92 0.79 0.37 0.38 0.30 0.12 0.09 0.09 0.04 0.02 0.01 0.10 0.02 0.04 0.01 0.00 0.00 0.00 0.00 0.00 0.00 0.00 0.00 0.01 0.01 0.00 0.00 0.00 0.00 0.00
0.00 0.00 0.00 0.00 0.00 0.00 0.06 0.05 0.34 1.05 1.86 1.57 1.33 1.61 1.41 0.52 0.43 0.25 0.17 0.11 0.12 0.05 0.06 0.23 0.31 0.19 0.05 0.01 0.00 0.00 0.00 0.00 0.00 0.00 0.00 0.00 0.01 0.01 0.01 0.00 0.00 0.00 0.00
0.00 0.00 0.00 0.00 0.00 0.00 0.03 0.04 0.48 1.15 2.04 2.03 1.33 1.04 1.49 0.62 0.55 0.35 0.24 0.25 0.25 0.14 0.16 0.25 0.18 0.14 0.05 0.00 0.00 0.00 0.00 0.00 0.00 0.00 0.00 0.00 0.01 0.01 0.01 0.00 0.00 0.00 0.01
0.00 0.00 0.00 0.00 0.01 0.01 0.01 0.06 0.41 0.44 1.13 2.36 1.43 1.09 0.99 0.96 0.42 0.29 0.18 0.20 0.16 0.12 0.12 0.05 0.05 0.08 0.03 0.00 0.00 0.00 0.00 0.00 0.00 0.00 0.00 0.00 0.01 0.01 0.01 0.01 0.01 0.01 0.01
0.00 0.00 0.00 0.00 0.04 0.06 0.08 0.12 0.29 0.20 0.54 1.89 1.69 1.15 0.62 0.75 0.45 0.28 0.24 0.16 0.10 0.11 0.12 0.08 0.05 0.06 0.01 0.00 0.00 0.00 0.00 0.00 0.00 0.00 0.00 0.00 0.01 0.01 0.01 0.01 0.01 0.01 0.00
0.00 0.00 0.00 0.00 0.02 0.06 0.10 0.16 0.27 0.22 0.51 1.22 1.65 1.22 0.71 0.43 0.45 0.24 0.22 0.24 0.24 0.25 0.18 0.13 0.05 0.04 0.00 0.00 0.01 0.01 0.00 0.00 0.00 0.00 0.00 0.00 0.00 0.01 0.01 0.01 0.01 0.00 0.00
0.00 0.00 0.00 0.01 0.01 0.04 0.10 0.10 0.18 0.18 0.27 0.73 1.22 1.03 1.05 0.48 0.42 0.31 0.23 0.23 0.20 0.30 0.41 0.32 0.15 0.05 0.00 0.01 0.02 0.00 0.00 0.00 0.00 0.00 0.00 0.00 0.00 0.00 0.01 0.01 0.01 0.00 0.00
0.00 0.00 0.00 0.00 0.01 0.02 0.05 0.10 0.11 0.10 0.13 0.44 0.94 0.82 0.89 1.07 0.43 0.39 0.30 0.19 0.16 0.26 0.39 0.39 0.13 0.04 0.01 0.02 0.04 0.01 0.00 0.00 0.00 0.00 0.00 0.00 0.00 0.00 0.00 0.01 0.00 0.00 0.00
0.00 0.00 0.00 0.00 0.00 0.01 0.01 0.03 0.07 0.11 0.12 0.25 0.68 0.70 0.61 1.24 0.76 0.30 0.32 0.26 0.23 0.15 0.19 0.28 0.16 0.03 0.01 0.02 0.03 0.01 0.00 0.00 0.00 0.00 0.00 0.00 0.00 0.00 0.00 0.00 0.00 0.00 0.00
0.00 0.00 0.00 0.00 0.00 0.00 0.00 0.01 0.04 0.08 0.12 0.15 0.55 0.46 0.45 0.86 0.98 0.53 0.40 0.36 0.32 0.33 0.25 0.20 0.13 0.03 0.00 0.00 0.02 0.01 0.00 0.00 0.00 0.00 0.00 0.00 0.00 0.00 0.00 0.00 0.00 0.00 0.00
0.00 0.00 0.00 0.00 0.00 0.00 0.00 0.02 0.04 0.02 0.05 0.12 0.32 0.33 0.27 0.53 0.67 0.86 0.57 0.32 0.28 0.36 0.35 0.28 0.12 0.03 0.02 0.02 0.03 0.02 0.01 0.00 0.00 0.00 0.00 0.00 0.00 0.00 0.00 0.00 0.00 0.00 0.00
0.00 0.00 0.00 0.00 0.00 0.00 0.00 0.00 0.01 0.04 0.07 0.17 0.30 0.24 0.22 0.43 0.39 0.64 0.71 0.53 0.24 0.26 0.35 0.36 0.30 0.06 0.02 0.04 0.02 0.01 0.02 0.03 0.01 0.00 0.00 0.00 0.00 0.00 0.00 0.00 0.00 0.00 0.00
0.00 0.00 0.00 0.00 0.00 0.00 0.00 0.00 0.05 0.07 0.25 0.44 0.61 0.54 0.24 0.41 0.41 0.41 0.58 0.67 0.39 0.28 0.35 0.27 0.28 0.12 0.02 0.03 0.02 0.00 0.00 0.01 0.01 0.00 0.00 0.00 0.00 0.00 0.00 0.00 0.00 0.00 0.00
0.00 0.00 0.00 0.00 0.00 0.00 0.00 0.00 0.05 0.21 0.26 0.43 0.48 0.73 0.42 0.38 0.45 0.38 0.39 0.63 0.59 0.36 0.29 0.25 0.21 0.09 0.02 0.01 0.01 0.01 0.00 0.00 0.01 0.01 0.00 0.00 0.00 0.00 0.00 0.00 0.00 0.00 0.00
0.00 0.00 0.00 0.00 0.00 0.00 0.00 0.01 0.02 0.10 0.19 0.33 0.59 0.89 1.02 0.66 0.44 0.42 0.39 0.52 0.60 0.46 0.40 0.26 0.25 0.17 0.06 0.02 0.01 0.00 0.00 0.00 0.00 0.00 0.00 0.00 0.00 0.00 0.00 0.00 0.00 0.00 0.00
0.00 0.00 0.00 0.00 0.00 0.02 0.01 0.01 0.01 0.02 0.04 0.12 0.37 0.69 1.30 1.33 0.80 0.50 0.46 0.52 0.62 0.61 0.47 0.36 0.28 0.16 0.11 0.07 0.04 0.01 0.00 0.00 0.00 0.00 0.00 0.00 0.00 0.00 0.00 0.00 0.00 0.00 0.00

GFSSE_prec_precacc24_129.txt.gz
Total_Precipitation_Accumulation
0.00 0.00 0.00 0.00 0.00 0.00 0.00 0.00 0.00 0.00 0.00 0.00 0.02 0.00 0.00 0.00 0.00 0.00 0.00 0.00 0.00 0.04 0.08 0.03 0.04 0.12 0.23 0.13 0.03 0.02 0.01 0.02 0.02 0.05 0.07 0.07 0.03 0.03 0.05 0.10 0.07 0.02 0.12
0.00 0.00 0.00 0.00 0.00 0.00 0.00 0.00 0.00 0.00 0.00 0.00 0.01 0.00 0.03 0.02 0.01 0.00 0.00 0.00 0.05 0.18 0.18 0.13 0.11 0.14 0.20 0.17 0.06 0.00 0.00 0.01 0.00 0.02 0.02 0.06 0.06 0.03 0.03 0.15 0.06 0.04 0.05
0.00 0.00 0.00 0.01 0.01 0.00 0.00 0.00 0.00 0.01 0.01 0.01 0.01 0.04 0.06 0.03 0.04 0.00 0.01 0.05 0.16 0.43 0.41 0.26 0.21 0.20 0.11 0.16 0.02 0.00 0.00 0.00 0.00 0.01 0.02 0.01 0.04 0.09 0.03 0.15 0.06 0.03 0.02
0.00 0.00 0.00 0.01 0.01 0.00 0.00 0.00 0.00 0.02 0.04 0.03 0.01 0.02 0.05 0.04 0.03 0.04 0.05 0.16 0.42 0.68 0.71 0.55 0.49 0.45 0.16 0.06 0.02 0.00 0.00 0.00 0.01 0.01 0.00 0.00 0.02 0.06 0.02 0.01 0.02 0.03 0.03
0.00 0.00 0.00 0.00 0.00 0.00 0.00 0.00 0.00 0.02 0.04 0.06 0.04 0.01 0.04 0.04 0.09 0.20 0.45 0.76 1.17 1.09 1.06 0.82 0.63 0.46 0.21 0.00 0.00 0.00 0.00 0.02 0.06 0.04 0.00 0.00 0.02 0.05 0.04 0.03 0.03 0.04 0.06
0.00 0.00 0.00 0.00 0.00 0.00 0.00 0.00 0.00 0.01 0.02 0.03 0.12 0.28 0.14 0.49 0.70 0.94 1.29 2.00 2.02 1.75 1.47 2.00 1.02 0.52 0.19 0.00 0.00 0.00 0.01 0.02 0.05 0.03 0.00 0.00 0.02 0.04 0.05 0.04 0.03 0.03 0.02
0.00 0.00 0.00 0.00 0.00 0.00 0.00 0.00 0.00 0.00 0.01 0.03 0.19 0.62 0.90 1.11 0.99 0.94 0.83 0.81 0.71 0.98 0.85 0.71 0.49 0.30 0.14 0.00 0.00 0.00 0.02 0.01 0.07 0.41 0.10 0.00 0.02 0.04 0.09 0.01 0.00 0.01 0.00
0.00 0.00 0.00 0.00 0.00 0.00 0.00 0.00 0.00 0.09 0.19 0.18 0.29 0.48 0.52 0.72 0.71 0.56 0.31 0.28 0.18 0.20 0.24 0.22 0.19 0.10 0.06 0.00 0.00 0.00 0.01 0.00 0.02 0.69 0.16 0.00 0.01 0.02 0.04 0.00 0.00 0.00 0.00
0.00 0.00 0.00 0.00 0.00 0.00 0.01 0.01 0.01 0.02 0.18 0.46 0.31 0.40 0.30 0.29 0.45 0.28 0.19 0.16 0.13 0.09 0.12 0.16 0.11 0.13 0.07 0.02 0.00 0.00 0.03 0.01 0.01 0.06 0.01 0.00 0.01 0.01 0.01 0.00 0.00 0.00 0.00
0.00 0.00 0.00 0.00 0.00 0.00 0.01 0.01 0.02 0.10 0.33 0.30 0.28 0.29 0.24 0.20 0.23 0.30 0.20 0.16 0.09 0.04 0.04 0.05 0.13 0.21 0.24 0.18 0.03 0.00 0.04 0.01 0.01 0.07 0.02 0.00 0.01 0.00 0.01 0.00 0.00 0.00 0.00
0.00 0.00 0.00 0.00 0.00 0.00 0.00 0.01 0.03 0.09 0.29 0.39 0.28 0.21 0.36 0.22 0.17 0.20 0.11 0.09 0.09 0.04 0.03 0.09 0.29 0.27 0.26 0.24 0.11 0.00 0.03 0.01 0.00 0.01 0.00 0.00 0.00 0.01 0.01 0.01 0.00 0.00 0.00
0.00 0.00 0.00 0.00 0.00 0.00 0.00 0.00 0.01 0.06 0.18 0.44 0.39 0.33 0.71 0.42 0.37 0.23 0.17 0.14 0.14 0.10 0.15 0.35 0.40 0.32 0.16 0.07 0.06 0.00 0.01 0.01 0.00 0.00 0.00 0.00 0.00 0.01 0.02 0.01 0.00 0.00 0.00
0.00 0.00 0.00 0.00 0.00 0.00 0.00 0.00 0.01 0.02 0.08 0.32 0.48 0.40 0.76 0.45 0.48 0.36 0.27 0.26 0.30 0.26 0.27 0.29 0.20 0.16 0.11 0.02 0.02 0.00 0.01 0.00 0.00 0.00 0.00 0.00 0.01 0.01 0.02 0.02 0.01 0.01 0.01
0.00 0.00 0.00 0.00 0.00 0.00 0.00 0.00 0.00 0.02 0.06 0.16 0.32 0.49 0.60 0.78 0.36 0.28 0.17 0.22 0.20 0.15 0.17 0.07 0.05 0.14 0.09 0.02 0.01 0.00 0.00 0.00 0.00 0.00 0.00 0.00 0.01 0.01 0.02 0.02 0.02 0.01 0.01
0.00 0.00 0.00 0.00 0.00 0.00 0.00 0.00 0.00 0.04 0.12 0.21 0.23 0.42 0.45 0.66 0.42 0.25 0.21 0.20 0.15 0.18 0.19 0.09 0.07 0.07 0.04 0.08 0.04 0.00 0.00 0.00 0.00 0.00 0.00 0.00 0.01 0.01 0.02 0.02 0.01 0.01 0.01
0.00 0.00 0.00 0.00 0.00 0.00 0.00 0.00 0.00 0.06 0.28 0.35 0.24 0.36 0.47 0.38 0.44 0.24 0.21 0.26 0.35 0.34 0.22 0.16 0.16 0.11 0.17 0.36 0.23 0.05 0.00 0.00 0.00 0.00 0.00 0.00 0.00 0.01 0.02 0.02 0.01 0.01 0.01
0.00 0.00 0.00 0.00 0.00 0.00 0.00 0.00 0.00 0.03 0.17 0.44 0.38 0.26 0.63 0.38 0.37 0.30 0.23 0.21 0.25 0.34 0.49 0.49 0.41 0.25 0.16 0.17 0.36 0.06 0.00 0.00 0.00 0.00 0.00 0.00 0.00 0.00 0.01 0.02 0.02 0.01 0.01
0.00 0.00 0.00 0.00 0.00 0.00 0.01 0.00 0.00 0.01 0.10 0.32 0.69 0.42 0.55 0.76 0.27 0.36 0.30 0.18 0.19 0.35 0.57 0.71 0.53 0.23 0.21 0.15 0.20 0.08 0.00 0.00 0.00 0.00 0.00 0.00 0.00 0.00 0.00 0.01 0.01 0.01 0.00
0.00 0.00 0.00 0.00 0.01 0.02 0.02 0.02 0.01 0.02 0.04 0.21 0.65 0.57 0.42 0.98 0.56 0.26 0.31 0.22 0.22 0.17 0.25 0.54 0.62 0.42 0.27 0.17 0.18 0.12 0.02 0.00 0.00 0.00 0.00 0.00 0.00 0.00 0.00 0.00 0.00 0.00 0.00
0.00 0.00 0.00 0.00 0.01 0.01 0.02 0.02 0.03 0.03 0.03 0.05 0.50 0.43 0.39 0.76 0.90 0.51 0.37 0.34 0.24 0.33 0.24 0.22 0.31 0.29 0.34 0.30 0.22 0.14 0.05 0.00 0.00 0.00 0.00 0.00 0.00 0.00 0.00 0.00 0.00 0.00 0.00
0.00 0.00 0.00 0.00 0.00 0.00 0.00 0.03 0.03 0.02 0.01 0.01 0.23 0.30 0.26 0.52 0.64 0.86 0.58 0.33 0.25 0.36 0.31 0.31 0.24 0.15 0.15 0.25 0.37 0.23 0.13 0.02 0.00 0.00 0.00 0.00 0.00 0.00 0.00 0.00 0.00 0.00 0.00
0.00 0.00 0.00 0.00 0.00 0.00 0.00 0.00 0.01 0.03 0.03 0.02 0.03 0.12 0.21 0.43 0.37 0.65 0.72 0.54 0.24 0.25 0.33 0.38 0.41 0.23 0.10 0.20 0.24 0.14 0.10 0.09 0.03 0.00 0.00 0.00 0.00 0.00 0.00 0.00 0.00 0.00 0.00
0.00 0.00 0.00 0.00 0.00 0.00 0.00 0.00 0.01 0.03 0.07 0.09 0.08 0.08 0.15 0.35 0.39 0.40 0.60 0.67 0.40 0.29 0.37 0.28 0.32 0.22 0.11 0.11 0.14 0.06 0.02 0.04 0.03 0.01 0.00 0.00 0.00 0.00 0.00 0.00 0.00 0.00 0.00
0.00 0.00 0.00 0.00 0.00 0.00 0.00 0.00 0.00 0.01 0.03 0.04 0.07 0.17 0.12 0.18 0.35 0.35 0.41 0.67 0.60 0.37 0.32 0.28 0.26 0.18 0.09 0.08 0.11 0.04 0.00 0.00 0.01 0.02 0.01 0.00 0.00 0.00 0.00 0.00 0.00 0.00 0.00
0.00 0.00 0.00 0.00 0.00 0.00 0.00 0.01 0.01 0.01 0.01 0.02 0.07 0.31 0.43 0.29 0.28 0.33 0.38 0.56 0.62 0.45 0.38 0.27 0.30 0.32 0.17 0.06 0.03 0.03 0.00 0.00 0.00 0.00 0.00 0.00 0.00 0.00 0.00 0.00 0.00 0.00 0.00
0.00 0.00 0.00 0.00 0.00 0.02 0.01 0.01 0.01 0.01 0.02 0.02 0.04 0.10 0.67 0.79 0.48 0.31 0.38 0.49 0.58 0.56 0.40 0.38 0.37 0.29 0.26 0.19 0.11 0.05 0.01 0.01 0.00 0.00 0.00 0.00 0.00 0.00 0.00 0.00 0.00 0.00 0.00

GFSSE_prec_precacc24_132.txt.gz
Total_Precipitation_Accumulation
0.00 0.00 0.00 0.00 0.00 0.00 0.00 0.00 0.00 0.00 0.00 0.00 0.02 0.00 0.00 0.00 0.00 0.00 0.00 0.00 0.01 0.04 0.09 0.04 0.07 0.16 0.29 0.20 0.13 0.10 0.17 0.19 0.07 0.04 0.07 0.06 0.02 0.02 0.05 0.10 0.07 0.02 0.12
0.00 0.00 0.00 0.00 0.00 0.00 0.00 0.00 0.00 0.00 0.00 0.00 0.01 0.00 0.03 0.02 0.01 0.00 0.00 0.01 0.06 0.21 0.24 0.17 0.14 0.17 0.26 0.22 0.13 0.13 0.10 0.07 0.04 0.03 0.02 0.05 0.05 0.02 0.04 0.17 0.05 0.04 0.05
0.00 0.00 0.00 0.01 0.01 0.00 0.00 0.00 0.00 0.01 0.01 0.01 0.01 0.04 0.06 0.03 0.04 0.00 0.01 0.05 0.16 0.43 0.42 0.29 0.24 0.26 0.17 0.19 0.07 0.05 0.03 0.03 0.02 0.02 0.02 0.02 0.04 0.09 0.05 0.25 0.06 0.03 0.02
0.00 0.00 0.00 0.01 0.01 0.00 0.00 0.00 0.00 0.02 0.04 0.03 0.01 0.02 0.05 0.04 0.03 0.04 0.05 0.16 0.42 0.68 0.71 0.54 0.49 0.46 0.19 0.08 0.04 0.02 0.02 0.01 0.01 0.01 0.00 0.00 0.02 0.06 0.03 0.03 0.03 0.04 0.03
0.00 0.00 0.00 0.00 0.00 0.00 0.00 0.00 0.00 0.02 0.04 0.05 0.04 0.01 0.04 0.04 0.09 0.20 0.45 0.76 1.17 1.09 1.06 0.82 0.63 0.46 0.22 0.00 0.00 0.01 0.02 0.03 0.06 0.04 0.00 0.00 0.02 0.05 0.04 0.03 0.03 0.05 0.07
0.00 0.00 0.00 0.00 0.00 0.00 0.00 0.00 0.00 0.01 0.02 0.02 0.03 0.23 0.13 0.49 0.70 0.93 1.29 2.00 2.02 1.75 1.47 1.99 1.02 0.52 0.19 0.00 0.00 0.01 0.02 0.02 0.05 0.03 0.00 0.00 0.02 0.04 0.05 0.04 0.03 0.04 0.03
0.00 0.00 0.00 0.00 0.00 0.00 0.00 0.00 0.00 0.00 0.01 0.01 0.05 0.32 0.66 1.04 0.99 0.93 0.81 0.81 0.71 0.98 0.85 0.71 0.49 0.30 0.14 0.00 0.00 0.03 0.03 0.02 0.09 0.52 0.16 0.01 0.02 0.04 0.10 0.01 0.01 0.02 0.01
0.00 0.00 0.00 0.00 0.00 0.00 0.00 0.00 0.00 0.02 0.06 0.11 0.22 0.29 0.29 0.52 0.69 0.53 0.30 0.26 0.17 0.20 0.24 0.22 0.19 0.10 0.06 0.00 0.00 0.03 0.04 0.02 0.04 0.76 0.19 0.01 0.01 0.02 0.05 0.00 0.00 0.00 0.00
0.00 0.00 0.00 0.00 0.00 0.00 0.00 0.00 0.00 0.01 0.03 0.15 0.18 0.24 0.14 0.17 0.35 0.26 0.19 0.16 0.13 0.09 0.12 0.16 0.11 0.13 0.07 0.02 0.00 0.00 0.09 0.01 0.01 0.07 0.05 0.00 0.01 0.01 0.01 0.00 0.00 0.00 0.00
0.00 0.00 0.00 0.00 0.00 0.00 0.01 0.01 0.01 0.02 0.11 0.09 0.09 0.08 0.04 0.04 0.11 0.22 0.20 0.16 0.09 0.04 0.04 0.05 0.13 0.21 0.24 0.21 0.05 0.02 0.09 0.06 0.03 0.07 0.06 0.04 0.02 0.01 0.01 0.00 0.00 0.00 0.00
0.00 0.00 0.00 0.00 0.00 0.00 0.00 0.01 0.02 0.02 0.10 0.12 0.06 0.06 0.03 0.02 0.03 0.08 0.11 0.09 0.09 0.04 0.03 0.09 0.29 0.27 0.26 0.24 0.13 0.04 0.07 0.06 0.06 0.01 0.05 0.07 0.01 0.01 0.02 0.01 0.01 0.00 0.01
0.00 0.00 0.00 0.00 0.00 0.00 0.00 0.00 0.01 0.03 0.11 0.16 0.10 0.10 0.06 0.08 0.07 0.07 0.14 0.14 0.14 0.10 0.15 0.35 0.40 0.32 0.16 0.07 0.06 0.07 0.05 0.01 0.03 0.00 0.00 0.01 0.01 0.01 0.02 0.02 0.01 0.01 0.01
0.00 0.00 0.00 0.00 0.00 0.00 0.00 0.00 0.01 0.02 0.07 0.21 0.30 0.23 0.15 0.14 0.17 0.17 0.25 0.27 0.30 0.26 0.27 0.29 0.20 0.16 0.11 0.02 0.03 0.08 0.03 0.01 0.00 0.00 0.00 0.00 0.01 0.02 0.02 0.02 0.01 0.01 0.01
0.00 0.00 0.00 0.00 0.00 0.00 0.00 0.00 0.00 0.02 0.03 0.07 0.21 0.40 0.34 0.26 0.19 0.17 0.16 0.22 0.21 0.15 0.17 0.07 0.05 0.14 0.09 0.02 0.01 0.01 0.01 0.00 0.00 0.00 0.00 0.00 0.01 0.02 0.02 0.02 0.02 0.02 0.01
0.00 0.00 0.00 0.00 0.00 0.00 0.00 0.00 0.00 0.01 0.02 0.05 0.12 0.25 0.36 0.30 0.26 0.22 0.21 0.20 0.16 0.18 0.19 0.09 0.07 0.07 0.04 0.08 0.04 0.02 0.00 0.00 0.00 0.00 0.00 0.00 0.01 0.02 0.02 0.02 0.02 0.02 0.01
0.00 0.00 0.00 0.00 0.00 0.00 0.00 0.00 0.00 0.00 0.02 0.08 0.10 0.21 0.43 0.24 0.28 0.22 0.20 0.26 0.35 0.34 0.22 0.16 0.16 0.12 0.25 0.47 0.40 0.20 0.05 0.00 0.00 0.00 0.00 0.00 0.00 0.01 0.02 0.02 0.02 0.02 0.01
0.00 0.00 0.00 0.00 0.00 0.00 0.00 0.00 0.00 0.00 0.01 0.08 0.11 0.12 0.57 0.28 0.27 0.28 0.23 0.21 0.25 0.35 0.49 0.49 0.41 0.25 0.18 0.19 0.41 0.14 0.03 0.00 0.00 0.00 0.00 0.00 0.00 0.00 0.01 0.02 0.02 0.02 0.01
0.00 0.00 0.00 0.00 0.00 0.00 0.00 0.00 0.00 0.00 0.02 0.12 0.29 0.15 0.43 0.68 0.23 0.35 0.30 0.18 0.19 0.39 0.60 0.72 0.54 0.24 0.21 0.15 0.21 0.10 0.01 0.00 0.00 0.00 0.00 0.00 0.00 0.00 0.00 0.01 0.01 0.01 0.01
0.00 0.00 0.00 0.00 0.02 0.04 0.07 0.03 0.02 0.01 0.03 0.10 0.30 0.23 0.23 0.87 0.52 0.26 0.31 0.22 0.22 0.21 0.32 0.55 0.62 0.43 0.28 0.17 0.20 0.16 0.04 0.00 0.00 0.00 0.00 0.00 0.00 0.00 0.00 0.00 0.00 0.00 0.00
0.00 0.00 0.00 0.01 0.03 0.07 0.08 0.05 0.04 0.03 0.03 0.04 0.42 0.25 0.20 0.66 0.86 0.52 0.39 0.35 0.24 0.36 0.31 0.27 0.31 0.29 0.36 0.32 0.29 0.29 0.10 0.01 0.00 0.00 0.00 0.00 0.00 0.00 0.00 0.00 0.00 0.00 0.00
0.00 0.00 0.00 0.00 0.00 0.06 0.05 0.06 0.05 0.03 0.03 0.02 0.23 0.28 0.20 0.48 0.71 0.99 0.70 0.42 0.28 0.40 0.41 0.38 0.25 0.15 0.15 0.25 0.41 0.35 0.23 0.07 0.01 0.00 0.00 0.00 0.00 0.00 0.00 0.00 0.00 0.00 0.00
0.00 0.00 0.00 0.00 0.00 0.00 0.00 0.01 0.03 0.02 0.02 0.01 0.03 0.11 0.21 0.42 0.43 0.74 0.82 0.65 0.30 0.29 0.36 0.40 0.42 0.24 0.11 0.20 0.24 0.16 0.16 0.20 0.08 0.00 0.00 0.00 0.00 0.00 0.00 0.00 0.00 0.00 0.00
0.00 0.00 0.00 0.00 0.00 0.00 0.00 0.00 0.01 0.03 0.03 0.04 0.04 0.07 0.15 0.35 0.41 0.46 0.69 0.76 0.44 0.31 0.38 0.32 0.34 0.23 0.12 0.12 0.14 0.06 0.04 0.09 0.04 0.02 0.00 0.00 0.00 0.00 0.00 0.00 0.00 0.00 0.00
0.00 0.00 0.00 0.00 0.00 0.00 0.00 0.00 0.00 0.01 0.03 0.03 0.02 0.04 0.09 0.18 0.38 0.39 0.46 0.74 0.67 0.41 0.36 0.32 0.28 0.18 0.11 0.09 0.11 0.04 0.00 0.00 0.01 0.02 0.01 0.00 0.00 0.00 0.00 0.00 0.00 0.00 0.00
0.00 0.00 0.00 0.00 0.00 0.00 0.00 0.00 0.01 0.01 0.01 0.02 0.05 0.05 0.11 0.10 0.16 0.34 0.40 0.61 0.66 0.50 0.39 0.30 0.32 0.32 0.16 0.07 0.03 0.03 0.00 0.00 0.00 0.00 0.01 0.01 0.01 0.00 0.00 0.00 0.00 0.00 0.00
0.00 0.00 0.00 0.00 0.00 0.01 0.01 0.00 0.01 0.01 0.02 0.02 0.03 0.07 0.18 0.34 0.20 0.17 0.36 0.52 0.62 0.59 0.40 0.36 0.34 0.27 0.23 0.17 0.11 0.06 0.01 0.01 0.00 0.00 0.00 0.00 0.00 0.00 0.00 0.00 0.00 0.00 0.00

GFSSE_prec_precacc24_138.txt.gz
Total_Precipitation_Accumulation
0.00 0.00 0.00 0.00 0.00 0.00 0.00 0.00 0.00 0.00 0.00 0.00 0.02 0.00 0.00 0.00 0.00 0.00 0.00 0.00 0.01 0.05 0.09 0.05 0.09 0.21 0.33 0.23 0.16 0.13 0.19 0.56 0.82 0.72 0.88 0.52 0.25 0.07 0.06 0.12 0.09 0.04 0.17
0.00 0.00 0.00 0.00 0.00 0.00 0.00 0.00 0.00 0.00 0.00 0.00 0.01 0.00 0.03 0.02 0.01 0.00 0.00 0.01 0.06 0.21 0.24 0.17 0.15 0.22 0.32 0.25 0.14 0.13 0.11 0.12 0.29 0.37 0.37 0.28 0.19 0.05 0.08 0.21 0.06 0.05 0.08
0.00 0.00 0.00 0.00 0.00 0.00 0.00 0.00 0.00 0.00 0.01 0.00 0.00 0.04 0.06 0.03 0.04 0.00 0.01 0.05 0.16 0.43 0.41 0.29 0.24 0.25 0.17 0.20 0.08 0.05 0.03 0.03 0.03 0.06 0.19 0.15 0.06 0.12 0.11 0.29 0.08 0.08 0.05
0.00 0.00 0.00 0.00 0.01 0.00 0.00 0.00 0.00 0.01 0.02 0.01 0.00 0.02 0.05 0.04 0.03 0.04 0.05 0.16 0.42 0.68 0.70 0.53 0.47 0.44 0.18 0.08 0.06 0.02 0.02 0.01 0.03 0.05 0.08 0.10 0.04 0.09 0.10 0.09 0.07 0.08 0.06
0.00 0.00 0.00 0.00 0.00 0.00 0.00 0.00 0.00 0.02 0.04 0.03 0.03 0.01 0.04 0.04 0.07 0.18 0.43 0.75 1.17 1.09 1.05 0.80 0.62 0.44 0.22 0.00 0.00 0.01 0.02 0.03 0.06 0.05 0.04 0.07 0.04 0.07 0.05 0.04 0.04 0.06 0.07
0.00 0.00 0.00 0.00 0.00 0.00 0.00 0.00 0.00 0.01 0.02 0.02 0.02 0.10 0.11 0.47 0.69 0.92 1.28 2.00 2.02 1.75 1.45 1.98 1.00 0.52 0.19 0.00 0.00 0.01 0.02 0.02 0.05 0.03 0.01 0.11 0.18 0.06 0.06 0.04 0.04 0.04 0.03
0.00 0.00 0.00 0.00 0.00 0.00 0.00 0.00 0.00 0.00 0.01 0.01 0.00 0.06 0.40 0.65 0.73 0.80 0.76 0.79 0.70 0.98 0.81 0.67 0.47 0.30 0.16 0.01 0.00 0.03 0.03 0.02 0.09 0.53 0.19 0.06 0.09 0.06 0.11 0.02 0.01 0.04 0.02
0.00 0.00 0.00 0.00 0.00 0.00 0.00 0.00 0.00 0.00 0.00 0.02 0.06 0.09 0.05 0.09 0.31 0.31 0.20 0.20 0.15 0.16 0.20 0.21 0.18 0.09 0.06 0.00 0.03 0.05 0.04 0.02 0.04 0.77 0.22 0.08 0.06 0.05 0.06 0.01 0.01 0.02 0.01
0.00 0.00 0.00 0.00 0.00 0.00 0.00 0.00 0.00 0.00 0.00 0.04 0.08 0.10 0.07 0.04 0.06 0.04 0.02 0.07 0.07 0.05 0.10 0.16 0.10 0.13 0.07 0.04 0.05 0.04 0.12 0.02 0.01 0.08 0.09 0.03 0.06 0.10 0.06 0.00 0.00 0.00 0.00
0.00 0.00 0.00 0.00 0.00 0.00 0.00 0.00 0.00 0.00 0.00 0.01 0.04 0.03 0.00 0.02 0.02 0.01 0.00 0.02 0.03 0.03 0.03 0.04 0.12 0.21 0.24 0.23 0.07 0.03 0.14 0.16 0.06 0.08 0.14 0.13 0.14 0.23 0.20 0.04 0.01 0.00 0.00
0.00 0.00 0.00 0.00 0.00 0.00 0.00 0.01 0.01 0.00 0.00 0.00 0.01 0.02 0.02 0.01 0.00 0.00 0.00 0.00 0.01 0.01 0.02 0.09 0.29 0.28 0.28 0.24 0.14 0.06 0.09 0.10 0.09 0.03 0.11 0.24 0.19 0.16 0.11 0.07 0.03 0.01 0.01
0.00 0.00 0.00 0.00 0.00 0.00 0.00 0.00 0.01 0.02 0.02 0.01 0.01 0.01 0.03 0.07 0.05 0.02 0.01 0.05 0.06 0.08 0.15 0.35 0.40 0.33 0.18 0.09 0.07 0.08 0.05 0.02 0.04 0.01 0.03 0.17 0.23 0.18 0.10 0.05 0.02 0.02 0.01
0.00 0.00 0.00 0.00 0.00 0.00 0.00 0.00 0.01 0.02 0.03 0.03 0.04 0.04 0.07 0.10 0.12 0.12 0.13 0.08 0.22 0.25 0.27 0.29 0.20 0.16 0.13 0.05 0.10 0.19 0.06 0.01 0.02 0.05 0.04 0.06 0.14 0.12 0.07 0.04 0.03 0.03 0.02
0.00 0.00 0.00 0.00 0.00 0.00 0.00 0.00 0.00 0.02 0.03 0.04 0.07 0.14 0.16 0.12 0.12 0.07 0.08 0.11 0.15 0.15 0.17 0.07 0.05 0.14 0.13 0.02 0.03 0.02 0.03 0.02 0.04 0.20 0.12 0.04 0.06 0.10 0.05 0.04 0.04 0.04 0.02
0.00 0.00 0.00 0.00 0.00 0.00 0.00 0.00 0.00 0.01 0.02 0.02 0.06 0.12 0.19 0.12 0.08 0.10 0.12 0.16 0.14 0.18 0.19 0.09 0.07 0.07 0.05 0.09 0.09 0.03 0.01 0.01 0.03 0.13 0.16 0.10 0.04 0.06 0.08 0.04 0.04 0.05 0.02
0.00 0.00 0.00 0.00 0.00 0.00 0.00 0.00 0.00 0.00 0.00 0.01 0.02 0.04 0.12 0.14 0.10 0.08 0.14 0.24 0.34 0.33 0.22 0.16 0.16 0.13 0.25 0.47 0.45 0.26 0.09 0.02 0.03 0.05 0.11 0.12 0.02 0.03 0.05 0.04 0.04 0.04 0.03
0.00 0.00 0.00 0.00 0.00 0.00 0.00 0.00 0.00 0.00 0.00 0.02 0.01 0.02 0.04 0.09 0.14 0.14 0.13 0.19 0.25 0.35 0.49 0.49 0.42 0.26 0.18 0.20 0.43 0.17 0.04 0.01 0.03 0.04 0.06 0.09 0.06 0.05 0.02 0.02 0.04 0.04 0.04
0.00 0.00 0.00 0.00 0.00 0.00 0.00 0.00 0.00 0.00 0.00 0.04 0.02 0.02 0.03 0.06 0.09 0.23 0.19 0.13 0.18 0.38 0.61 0.72 0.54 0.25 0.21 0.15 0.21 0.11 0.01 0.01 0.02 0.03 0.04 0.03 0.01 0.02 0.01 0.01 0.02 0.03 0.04
0.00 0.00 0.00 0.00 0.02 0.04 0.07 0.03 0.02 0.01 0.02 0.03 0.03 0.02 0.03 0.07 0.13 0.17 0.26 0.18 0.20 0.20 0.34 0.57 0.63 0.49 0.32 0.18 0.20 0.16 0.04 0.01 0.03 0.04 0.04 0.07 0.04 0.00 0.00 0.00 0.00 0.01 0.03
0.00 0.00 0.00 0.01 0.03 0.07 0.10 0.13 0.13 0.09 0.07 0.04 0.05 0.02 0.04 0.10 0.23 0.36 0.34 0.33 0.24 0.35 0.32 0.31 0.40 0.39 0.44 0.34 0.29 0.29 0.13 0.06 0.08 0.06 0.05 0.03 0.04 0.01 0.00 0.00 0.00 0.00 0.01
0.00 0.00 0.00 0.00 0.00 0.07 0.07 0.10 0.07 0.04 0.04 0.04 0.09 0.07 0.06 0.08 0.31 0.76 0.69 0.45 0.33 0.41 0.44 0.52 0.37 0.23 0.20 0.28 0.42 0.37 0.25 0.09 0.06 0.08 0.05 0.01 0.00 0.00 0.00 0.00 0.00 0.00 0.00
0.00 0.00 0.00 0.00 0.00 0.01 0.02 0.02 0.04 0.04 0.06 0.11 0.15 0.09 0.04 0.09 0.17 0.65 0.81 0.72 0.46 0.50 0.50 0.59 0.62 0.36 0.14 0.22 0.25 0.16 0.20 0.24 0.09 0.02 0.02 0.02 0.00 0.00 0.00 0.00 0.00 0.00 0.00
0.00 0.00 0.00 0.00 0.00 0.00 0.02 0.07 0.08 0.14 0.15 0.14 0.10 0.07 0.10 0.20 0.29 0.39 0.69 0.82 0.60 0.55 0.63 0.59 0.58 0.36 0.18 0.16 0.14 0.06 0.05 0.12 0.07 0.05 0.03 0.02 0.00 0.00 0.00 0.00 0.00 0.00 0.00
0.00 0.00 0.00 0.00 0.01 0.02 0.06 0.08 0.07 0.03 0.05 0.06 0.08 0.11 0.20 0.21 0.35 0.36 0.47 0.78 0.71 0.50 0.48 0.46 0.49 0.37 0.20 0.13 0.13 0.05 0.00 0.00 0.01 0.03 0.04 0.08 0.06 0.01 0.00 0.00 0.00 0.00 0.00
0.00 0.00 0.00 0.00 0.01 0.03 0.05 0.06 0.08 0.05 0.02 0.01 0.02 0.04 0.09 0.09 0.18 0.31 0.42 0.63 0.68 0.53 0.45 0.42 0.47 0.45 0.24 0.11 0.05 0.05 0.01 0.00 0.00 0.00 0.01 0.01 0.03 0.01 0.00 0.00 0.00 0.00 0.00
0.00 0.00 0.00 0.00 0.00 0.01 0.02 0.04 0.03 0.02 0.03 0.02 0.02 0.05 0.13 0.11 0.09 0.17 0.36 0.51 0.62 0.60 0.43 0.47 0.53 0.43 0.42 0.29 0.14 0.07 0.03 0.02 0.00 0.00 0.00 0.00 0.01 0.02 0.02 0.01 0.00 0.00 0.00

GFSSE_prec_precacc24_141.txt.gz
Total_Precipitation_Accumulation
0.00 0.00 0.00 0.00 0.00 0.00 0.00 0.00 0.00 0.00 0.00 0.00 0.02 0.00 0.00 0.00 0.00 0.00 0.00 0.00 0.00 0.04 0.09 0.04 0.09 0.21 0.33 0.23 0.15 0.13 0.19 0.57 0.82 0.73 1.01 0.85 0.82 0.42 0.24 0.22 0.10 0.05 0.23
0.00 0.00 0.00 0.00 0.00 0.00 0.00 0.00 0.00 0.00 0.00 0.00 0.01 0.00 0.03 0.02 0.01 0.00 0.00 0.01 0.06 0.21 0.24 0.17 0.15 0.22 0.31 0.25 0.14 0.13 0.11 0.11 0.29 0.37 0.38 0.36 0.45 0.39 0.28 0.44 0.14 0.07 0.17
0.00 0.00 0.00 0.00 0.00 0.00 0.00 0.00 0.00 0.00 0.00 0.00 0.00 0.04 0.06 0.03 0.04 0.00 0.01 0.05 0.16 0.43 0.40 0.28 0.24 0.25 0.16 0.20 0.08 0.05 0.03 0.03 0.03 0.06 0.20 0.21 0.19 0.28 0.29 0.48 0.15 0.11 0.12
0.00 0.00 0.00 0.00 0.00 0.00 0.00 0.00 0.00 0.00 0.00 0.00 0.00 0.02 0.05 0.04 0.03 0.04 0.05 0.16 0.42 0.68 0.70 0.52 0.46 0.44 0.18 0.08 0.06 0.02 0.02 0.01 0.03 0.05 0.09 0.15 0.14 0.21 0.20 0.28 0.16 0.11 0.08
0.00 0.00 0.00 0.00 0.00 0.00 0.00 0.00 0.00 0.00 0.00 0.00 0.01 0.01 0.04 0.04 0.05 0.09 0.34 0.73 1.17 1.08 1.04 0.79 0.59 0.44 0.21 0.00 0.00 0.01 0.02 0.03 0.06 0.05 0.05 0.12 0.05 0.14 0.14 0.14 0.08 0.08 0.08
0.00 0.00 0.00 0.00 0.00 0.00 0.00 0.00 0.00 0.01 0.01 0.00 0.00 0.00 0.02 0.20 0.32 0.67 1.03 1.88 1.95 1.71 1.42 1.93 0.94 0.50 0.19 0.00 0.00 0.01 0.02 0.02 0.05 0.03 0.02 0.20 0.35 0.14 0.14 0.09 0.05 0.04 0.03
0.00 0.00 0.00 0.00 0.00 0.00 0.00 0.00 0.00 0.00 0.01 0.01 0.00 0.00 0.02 0.08 0.16 0.40 0.46 0.69 0.66 0.94 0.77 0.62 0.42 0.29 0.16 0.01 0.00 0.03 0.03 0.02 0.09 0.53 0.19 0.07 0.24 0.14 0.12 0.02 0.02 0.05 0.03
0.00 0.00 0.00 0.00 0.00 0.00 0.00 0.00 0.00 0.00 0.00 0.01 0.04 0.09 0.04 0.01 0.02 0.04 0.03 0.10 0.11 0.15 0.17 0.15 0.14 0.09 0.06 0.00 0.03 0.05 0.04 0.02 0.04 0.77 0.22 0.09 0.12 0.07 0.07 0.01 0.01 0.03 0.01
0.00 0.00 0.00 0.00 0.00 0.00 0.00 0.00 0.00 0.00 0.00 0.02 0.07 0.10 0.07 0.04 0.05 0.03 0.00 0.00 0.00 0.02 0.06 0.09 0.08 0.13 0.07 0.05 0.05 0.04 0.12 0.03 0.03 0.10 0.09 0.04 0.09 0.15 0.11 0.01 0.00 0.00 0.00
0.00 0.00 0.00 0.00 0.00 0.00 0.00 0.00 0.00 0.00 0.00 0.01 0.04 0.03 0.00 0.02 0.02 0.01 0.00 0.00 0.00 0.00 0.00 0.02 0.12 0.21 0.25 0.26 0.08 0.06 0.17 0.16 0.06 0.11 0.17 0.13 0.15 0.31 0.34 0.08 0.01 0.00 0.00
0.00 0.00 0.00 0.00 0.00 0.00 0.00 0.00 0.01 0.00 0.00 0.00 0.01 0.02 0.02 0.01 0.00 0.00 0.00 0.00 0.00 0.00 0.00 0.08 0.28 0.28 0.28 0.25 0.15 0.15 0.16 0.10 0.09 0.05 0.17 0.35 0.23 0.25 0.26 0.15 0.03 0.01 0.01
0.00 0.00 0.00 0.00 0.00 0.00 0.00 0.00 0.01 0.01 0.01 0.00 0.01 0.01 0.03 0.07 0.05 0.02 0.01 0.05 0.04 0.07 0.14 0.35 0.40 0.33 0.18 0.09 0.11 0.21 0.11 0.02 0.05 0.01 0.05 0.25 0.28 0.32 0.19 0.13 0.06 0.03 0.01
0.00 0.00 0.00 0.00 0.00 0.00 0.00 0.00 0.01 0.02 0.02 0.01 0.01 0.03 0.07 0.10 0.12 0.12 0.13 0.07 0.18 0.23 0.27 0.28 0.19 0.16 0.13 0.05 0.12 0.21 0.07 0.01 0.03 0.05 0.13 0.11 0.16 0.21 0.09 0.04 0.04 0.03 0.02
0.00 0.00 0.00 0.00 0.00 0.00 0.00 0.00 0.00 0.02 0.02 0.02 0.02 0.07 0.14 0.11 0.11 0.07 0.07 0.08 0.12 0.15 0.17 0.07 0.05 0.14 0.13 0.02 0.03 0.02 0.03 0.03 0.09 0.21 0.18 0.16 0.10 0.21 0.12 0.05 0.04 0.05 0.03
0.00 0.00 0.00 0.00 0.00 0.00 0.00 0.00 0.00 0.01 0.01 0.01 0.01 0.04 0.11 0.06 0.05 0.08 0.10 0.08 0.10 0.18 0.19 0.09 0.07 0.07 0.05 0.09 0.09 0.03 0.01 0.01 0.03 0.13 0.19 0.26 0.17 0.16 0.15 0.09 0.05 0.06 0.03
0.00 0.00 0.00 0.00 0.00 0.00 0.00 0.00 0.00 0.00 0.00 0.01 0.01 0.01 0.05 0.08 0.05 0.05 0.07 0.19 0.31 0.31 0.22 0.16 0.16 0.13 0.25 0.47 0.45 0.26 0.09 0.02 0.03 0.05 0.12 0.23 0.17 0.12 0.09 0.06 0.04 0.06 0.04
0.00 0.00 0.00 0.00 0.00 0.00 0.00 0.00 0.00 0.00 0.00 0.01 0.01 0.01 0.03 0.07 0.08 0.06 0.06 0.16 0.22 0.33 0.49 0.49 0.42 0.26 0.18 0.20 0.43 0.17 0.04 0.01 0.03 0.04 0.07 0.13 0.21 0.16 0.08 0.04 0.05 0.07 0.05
0.00 0.00 0.00 0.00 0.00 0.00 0.00 0.00 0.00 0.00 0.00 0.04 0.02 0.01 0.02 0.04 0.05 0.12 0.08 0.07 0.17 0.37 0.61 0.72 0.54 0.25 0.21 0.15 0.21 0.11 0.01 0.01 0.02 0.03 0.04 0.04 0.05 0.07 0.07 0.02 0.02 0.05 0.05
0.00 0.00 0.00 0.00 0.02 0.04 0.07 0.03 0.02 0.01 0.02 0.03 0.03 0.02 0.02 0.03 0.05 0.06 0.05 0.08 0.16 0.18 0.34 0.57 0.63 0.51 0.33 0.18 0.20 0.16 0.04 0.01 0.03 0.04 0.04 0.08 0.07 0.06 0.04 0.00 0.00 0.01 0.03
0.00 0.00 0.00 0.01 0.03 0.07 0.10 0.13 0.13 0.09 0.07 0.04 0.05 0.02 0.03 0.05 0.08 0.10 0.09 0.13 0.16 0.31 0.32 0.31 0.40 0.43 0.49 0.35 0.30 0.30 0.13 0.06 0.08 0.06 0.05 0.05 0.07 0.08 0.07 0.01 0.00 0.00 0.01
0.00 0.00 0.00 0.00 0.00 0.07 0.07 0.10 0.07 0.04 0.04 0.06 0.11 0.10 0.06 0.06 0.16 0.23 0.38 0.34 0.25 0.35 0.44 0.52 0.39 0.24 0.25 0.32 0.44 0.38 0.26 0.09 0.06 0.08 0.06 0.03 0.03 0.02 0.02 0.01 0.00 0.00 0.00
0.00 0.00 0.00 0.00 0.00 0.01 0.02 0.02 0.04 0.04 0.08 0.18 0.23 0.14 0.05 0.08 0.12 0.19 0.43 0.58 0.41 0.47 0.49 0.60 0.64 0.42 0.19 0.32 0.29 0.17 0.20 0.24 0.09 0.02 0.02 0.02 0.01 0.00 0.00 0.00 0.00 0.00 0.00
0.00 0.00 0.00 0.00 0.00 0.00 0.02 0.08 0.10 0.16 0.24 0.27 0.20 0.22 0.22 0.28 0.25 0.26 0.41 0.63 0.56 0.57 0.64 0.60 0.61 0.45 0.26 0.23 0.19 0.08 0.05 0.12 0.07 0.05 0.03 0.02 0.00 0.00 0.00 0.00 0.00 0.00 0.00
0.00 0.00 0.00 0.00 0.01 0.02 0.06 0.09 0.11 0.05 0.05 0.06 0.08 0.12 0.25 0.33 0.45 0.49 0.46 0.63 0.71 0.55 0.50 0.49 0.59 0.50 0.34 0.19 0.19 0.06 0.00 0.00 0.01 0.03 0.04 0.08 0.06 0.01 0.00 0.00 0.00 0.00 0.00
0.00 0.00 0.00 0.00 0.01 0.03 0.05 0.09 0.12 0.15 0.16 0.08 0.07 0.05 0.09 0.11 0.20 0.26 0.42 0.59 0.67 0.59 0.48 0.45 0.50 0.50 0.30 0.15 0.06 0.08 0.02 0.00 0.00 0.00 0.01 0.01 0.03 0.01 0.00 0.00 0.00 0.00 0.00
0.00 0.00 0.00 0.02 0.04 0.04 0.07 0.11 0.11 0.11 0.11 0.07 0.11 0.19 0.22 0.13 0.10 0.11 0.18 0.39 0.56 0.61 0.44 0.48 0.54 0.45 0.46 0.33 0.19 0.09 0.04 0.03 0.01 0.00 0.00 0.00 0.01 0.02 0.02 0.01 0.00 0.00 0.00

GFSSE_prec_precacc24_144.txt.gz
Total_Precipitation_Accumulation
0.00 0.00 0.00 0.00 0.00 0.00 0.00 0.00 0.00 0.00 0.00 0.00 0.00 0.00 0.00 0.00 0.00 0.00 0.00 0.00 0.00 0.03 0.07 0.04 0.08 0.20 0.33 0.24 0.16 0.13 0.19 0.57 0.82 0.73 1.00 0.92 0.92 0.58 0.57 0.65 0.36 0.08 0.27
0.00 0.00 0.00 0.00 0.00 0.00 0.00 0.00 0.00 0.00 0.00 0.00 0.00 0.00 0.03 0.02 0.01 0.00 0.00 0.00 0.06 0.20 0.23 0.16 0.13 0.19 0.31 0.26 0.14 0.13 0.11 0.11 0.29 0.36 0.38 0.35 0.45 0.43 0.45 0.80 0.44 0.13 0.33
0.00 0.00 0.00 0.00 0.00 0.00 0.00 0.00 0.00 0.00 0.00 0.00 0.00 0.03 0.05 0.03 0.04 0.00 0.01 0.04 0.15 0.39 0.39 0.26 0.21 0.22 0.16 0.20 0.08 0.05 0.03 0.03 0.03 0.06 0.20 0.23 0.20 0.31 0.35 0.64 0.44 0.29 0.35
0.00 0.00 0.00 0.00 0.00 0.00 0.00 0.00 0.00 0.00 0.00 0.00 0.00 0.02 0.05 0.04 0.02 0.04 0.05 0.15 0.36 0.56 0.62 0.48 0.38 0.40 0.18 0.08 0.06 0.02 0.02 0.01 0.03 0.05 0.12 0.20 0.17 0.29 0.31 0.40 0.40 0.31 0.24
0.00 0.00 0.00 0.00 0.00 0.00 0.00 0.00 0.00 0.00 0.00 0.00 0.01 0.01 0.04 0.04 0.05 0.07 0.28 0.65 1.10 0.97 0.91 0.75 0.54 0.42 0.21 0.00 0.00 0.01 0.02 0.03 0.06 0.07 0.05 0.12 0.06 0.21 0.32 0.29 0.27 0.23 0.13
0.00 0.00 0.00 0.00 0.00 0.00 0.00 0.00 0.00 0.00 0.00 0.00 0.00 0.00 0.02 0.07 0.05 0.08 0.54 0.97 1.55 1.52 1.29 1.83 0.86 0.48 0.18 0.00 0.00 0.01 0.02 0.02 0.06 0.03 0.02 0.25 0.44 0.24 0.38 0.30 0.19 0.08 0.02
0.00 0.00 0.00 0.00 0.00 0.00 0.00 0.00 0.00 0.00 0.00 0.00 0.00 0.00 0.01 0.05 0.01 0.02 0.24 0.25 0.22 0.73 0.71 0.60 0.37 0.27 0.16 0.01 0.00 0.03 0.03 0.02 0.10 0.54 0.20 0.13 0.41 0.30 0.22 0.04 0.02 0.06 0.03
0.00 0.00 0.00 0.00 0.00 0.00 0.00 0.00 0.00 0.00 0.00 0.00 0.00 0.03 0.00 0.01 0.01 0.03 0.01 0.00 0.00 0.05 0.15 0.13 0.12 0.09 0.06 0.00 0.04 0.05 0.04 0.02 0.05 0.80 0.24 0.16 0.27 0.17 0.10 0.01 0.01 0.03 0.01
0.00 0.00 0.00 0.00 0.00 0.00 0.00 0.00 0.00 0.00 0.00 0.00 0.02 0.03 0.02 0.03 0.05 0.03 0.00 0.00 0.00 0.01 0.04 0.07 0.06 0.12 0.07 0.05 0.05 0.04 0.12 0.03 0.03 0.10 0.10 0.07 0.16 0.21 0.13 0.01 0.00 0.00 0.00
0.00 0.00 0.00 0.00 0.00 0.00 0.00 0.00 0.00 0.00 0.00 0.00 0.01 0.01 0.00 0.01 0.02 0.01 0.00 0.00 0.00 0.00 0.00 0.02 0.11 0.21 0.25 0.26 0.08 0.08 0.21 0.17 0.07 0.11 0.17 0.13 0.18 0.36 0.37 0.08 0.01 0.00 0.00
0.00 0.00 0.00 0.00 0.00 0.00 0.00 0.00 0.00 0.00 0.00 0.00 0.01 0.02 0.00 0.00 0.00 0.00 0.00 0.00 0.00 0.00 0.00 0.08 0.27 0.28 0.28 0.25 0.17 0.20 0.21 0.12 0.09 0.05 0.18 0.38 0.25 0.34 0.29 0.16 0.03 0.01 0.01
0.00 0.00 0.00 0.00 0.00 0.00 0.00 0.00 0.00 0.00 0.00 0.00 0.01 0.01 0.03 0.05 0.04 0.02 0.01 0.05 0.02 0.05 0.12 0.30 0.38 0.33 0.18 0.09 0.12 0.22 0.12 0.04 0.07 0.03 0.06 0.25 0.33 0.50 0.39 0.19 0.05 0.03 0.01
0.00 0.00 0.00 0.00 0.00 0.00 0.00 0.00 0.00 0.00 0.00 0.00 0.00 0.01 0.06 0.09 0.10 0.12 0.13 0.04 0.10 0.18 0.18 0.21 0.16 0.16 0.13 0.05 0.12 0.21 0.08 0.04 0.06 0.05 0.17 0.17 0.28 0.40 0.22 0.08 0.04 0.03 0.02
0.00 0.00 0.00 0.00 0.00 0.00 0.00 0.00 0.00 0.00 0.00 0.00 0.00 0.04 0.08 0.09 0.11 0.06 0.07 0.06 0.05 0.07 0.12 0.06 0.05 0.14 0.12 0.02 0.03 0.02 0.03 0.03 0.09 0.22 0.19 0.23 0.27 0.41 0.31 0.10 0.05 0.05 0.03
0.00 0.00 0.00 0.00 0.00 0.00 0.00 0.00 0.00 0.00 0.00 0.00 0.00 0.01 0.03 0.03 0.04 0.07 0.08 0.06 0.06 0.11 0.16 0.09 0.07 0.07 0.05 0.08 0.08 0.03 0.01 0.01 0.04 0.14 0.19 0.27 0.20 0.29 0.29 0.14 0.10 0.07 0.04
0.00 0.00 0.00 0.00 0.00 0.00 0.00 0.00 0.00 0.00 0.00 0.00 0.00 0.01 0.01 0.03 0.04 0.03 0.04 0.11 0.19 0.22 0.19 0.16 0.16 0.13 0.25 0.47 0.45 0.26 0.09 0.02 0.03 0.05 0.12 0.23 0.20 0.19 0.20 0.16 0.07 0.08 0.06
0.00 0.00 0.00 0.00 0.00 0.00 0.00 0.00 0.00 0.00 0.00 0.00 0.00 0.00 0.02 0.04 0.05 0.02 0.03 0.08 0.15 0.20 0.41 0.47 0.42 0.26 0.18 0.19 0.42 0.17 0.04 0.01 0.04 0.04 0.07 0.13 0.23 0.23 0.13 0.14 0.12 0.12 0.07
0.00 0.00 0.00 0.00 0.00 0.00 0.00 0.00 0.00 0.00 0.00 0.00 0.01 0.01 0.02 0.04 0.04 0.07 0.02 0.03 0.12 0.31 0.55 0.71 0.54 0.25 0.20 0.15 0.19 0.10 0.01 0.01 0.03 0.03 0.04 0.04 0.05 0.11 0.12 0.04 0.06 0.07 0.07
0.00 0.00 0.00 0.00 0.02 0.04 0.07 0.03 0.02 0.01 0.00 0.00 0.01 0.01 0.01 0.03 0.04 0.05 0.03 0.02 0.07 0.11 0.31 0.55 0.62 0.51 0.33 0.18 0.19 0.16 0.04 0.02 0.04 0.04 0.04 0.08 0.08 0.08 0.10 0.04 0.03 0.03 0.04
0.00 0.00 0.00 0.01 0.03 0.07 0.10 0.13 0.13 0.09 0.06 0.02 0.03 0.02 0.02 0.05 0.06 0.08 0.05 0.04 0.05 0.13 0.25 0.30 0.40 0.43 0.50 0.36 0.30 0.30 0.14 0.07 0.09 0.07 0.06 0.06 0.11 0.17 0.15 0.11 0.01 0.00 0.01
0.00 0.00 0.00 0.00 0.00 0.07 0.07 0.09 0.07 0.04 0.04 0.06 0.10 0.10 0.06 0.05 0.15 0.20 0.20 0.19 0.13 0.13 0.31 0.50 0.40 0.24 0.25 0.32 0.44 0.38 0.26 0.09 0.07 0.08 0.06 0.04 0.03 0.05 0.12 0.10 0.06 0.01 0.00
0.00 0.00 0.00 0.00 0.00 0.01 0.02 0.02 0.04 0.04 0.08 0.18 0.23 0.14 0.05 0.07 0.12 0.16 0.17 0.24 0.26 0.33 0.29 0.58 0.66 0.44 0.20 0.37 0.31 0.18 0.20 0.24 0.10 0.02 0.02 0.02 0.01 0.01 0.02 0.06 0.05 0.02 0.00
0.00 0.00 0.00 0.00 0.00 0.00 0.02 0.07 0.10 0.16 0.24 0.27 0.20 0.22 0.22 0.27 0.26 0.25 0.25 0.25 0.34 0.45 0.51 0.57 0.66 0.48 0.30 0.28 0.23 0.09 0.05 0.12 0.08 0.05 0.04 0.02 0.01 0.01 0.01 0.02 0.02 0.01 0.00
0.00 0.00 0.00 0.00 0.01 0.02 0.06 0.09 0.11 0.05 0.06 0.06 0.08 0.12 0.25 0.32 0.44 0.52 0.50 0.50 0.62 0.71 0.56 0.48 0.64 0.55 0.39 0.23 0.27 0.08 0.00 0.00 0.01 0.04 0.05 0.09 0.07 0.02 0.01 0.02 0.02 0.01 0.00
0.00 0.00 0.00 0.00 0.01 0.03 0.05 0.09 0.13 0.16 0.18 0.10 0.08 0.06 0.09 0.11 0.20 0.26 0.36 0.46 0.57 0.60 0.55 0.49 0.52 0.55 0.33 0.18 0.12 0.10 0.02 0.00 0.00 0.00 0.01 0.02 0.04 0.02 0.00 0.00 0.01 0.02 0.00
0.00 0.00 0.01 0.03 0.04 0.04 0.07 0.12 0.13 0.16 0.17 0.12 0.15 0.22 0.29 0.24 0.21 0.27 0.26 0.21 0.27 0.39 0.40 0.50 0.58 0.50 0.50 0.38 0.22 0.12 0.05 0.03 0.01 0.00 0.00 0.00 0.01 0.02 0.03 0.01 0.00 0.01 0.00

GFSSE_prec_precacc24_150.txt.gz
Total_Precipitation_Accumulation
0.00 0.00 0.00 0.00 0.00 0.00 0.00 0.00 0.00 0.00 0.00 0.00 0.00 0.00 0.00 0.00 0.00 0.00 0.00 0.00 0.00 0.03 0.03 0.01 0.05 0.18 0.32 0.24 0.18 0.13 0.19 0.57 0.82 0.72 0.99 0.90 0.91 0.58 0.53 0.62 0.70 0.62 0.78
0.00 0.00 0.00 0.00 0.00 0.00 0.00 0.00 0.00 0.00 0.00 0.00 0.00 0.00 0.00 0.00 0.00 0.00 0.00 0.00 0.03 0.11 0.17 0.11 0.09 0.15 0.23 0.21 0.13 0.13 0.11 0.11 0.29 0.36 0.37 0.34 0.45 0.43 0.43 0.76 0.74 0.65 0.99
0.00 0.00 0.00 0.00 0.00 0.00 0.00 0.00 0.00 0.00 0.00 0.00 0.00 0.00 0.00 0.00 0.00 0.00 0.00 0.00 0.06 0.15 0.21 0.21 0.17 0.16 0.09 0.06 0.06 0.05 0.03 0.03 0.03 0.05 0.18 0.23 0.19 0.28 0.34 0.60 0.68 0.79 0.96
0.00 0.00 0.00 0.00 0.00 0.00 0.00 0.00 0.00 0.00 0.00 0.00 0.00 0.00 0.00 0.00 0.00 0.00 0.00 0.01 0.06 0.08 0.22 0.37 0.23 0.16 0.12 0.03 0.04 0.02 0.02 0.01 0.03 0.05 0.16 0.23 0.16 0.28 0.31 0.45 0.53 0.78 1.16
0.00 0.00 0.00 0.00 0.00 0.00 0.00 0.00 0.00 0.00 0.00 0.00 0.00 0.00 0.00 0.00 0.00 0.00 0.00 0.00 0.01 0.06 0.15 0.23 0.28 0.18 0.10 0.00 0.00 0.01 0.02 0.02 0.03 0.07 0.37 0.21 0.06 0.22 0.49 0.48 0.43 1.04 1.02
0.00 0.00 0.00 0.00 0.00 0.00 0.00 0.00 0.00 0.00 0.00 0.00 0.00 0.00 0.00 0.00 0.00 0.00 0.00 0.00 0.00 0.01 0.03 0.20 0.24 0.19 0.14 0.00 0.00 0.01 0.02 0.01 0.03 0.33 1.25 0.44 0.49 0.27 0.64 0.66 0.43 0.46 0.40
0.00 0.00 0.00 0.00 0.00 0.00 0.00 0.00 0.00 0.00 0.00 0.00 0.00 0.00 0.00 0.01 0.00 0.00 0.00 0.00 0.00 0.00 0.00 0.02 0.06 0.06 0.14 0.01 0.00 0.03 0.03 0.02 0.14 0.51 0.42 0.24 0.49 0.40 0.41 0.25 0.14 0.10 0.10
0.00 0.00 0.00 0.00 0.00 0.00 0.00 0.00 0.00 0.00 0.00 0.00 0.00 0.00 0.00 0.00 0.01 0.00 0.00 0.00 0.00 0.00 0.00 0.00 0.01 0.01 0.03 0.00 0.03 0.05 0.04 0.02 0.10 0.82 0.32 0.24 0.33 0.31 0.17 0.04 0.04 0.05 0.02
0.00 0.00 0.00 0.00 0.00 0.00 0.00 0.00 0.00 0.00 0.00 0.00 0.00 0.00 0.00 0.00 0.02 0.01 0.00 0.00 0.00 0.00 0.00 0.00 0.00 0.01 0.00 0.04 0.06 0.05 0.12 0.03 0.08 0.20 0.26 0.16 0.22 0.38 0.20 0.04 0.00 0.00 0.00
0.00 0.00 0.00 0.00 0.00 0.00 0.00 0.00 0.00 0.00 0.00 0.00 0.00 0.00 0.00 0.00 0.00 0.00 0.00 0.00 0.00 0.00 0.00 0.00 0.03 0.06 0.07 0.13 0.06 0.08 0.22 0.17 0.13 0.25 0.35 0.31 0.28 0.42 0.39 0.09 0.01 0.00 0.00
0.00 0.00 0.00 0.00 0.00 0.00 0.00 0.00 0.00 0.00 0.00 0.00 0.00 0.01 0.00 0.00 0.00 0.00 0.00 0.00 0.00 0.00 0.00 0.01 0.05 0.12 0.09 0.07 0.10 0.20 0.21 0.12 0.16 0.09 0.25 0.43 0.34 0.38 0.29 0.17 0.04 0.01 0.01
0.00 0.00 0.00 0.00 0.00 0.00 0.00 0.00 0.00 0.00 0.00 0.00 0.00 0.00 0.00 0.00 0.00 0.00 0.00 0.02 0.00 0.01 0.04 0.02 0.00 0.01 0.03 0.02 0.07 0.22 0.12 0.06 0.09 0.05 0.15 0.31 0.49 0.64 0.63 0.40 0.11 0.03 0.01
0.00 0.00 0.00 0.00 0.00 0.00 0.00 0.00 0.00 0.00 0.00 0.00 0.00 0.00 0.00 0.00 0.00 0.00 0.00 0.01 0.00 0.02 0.01 0.01 0.00 0.00 0.02 0.03 0.10 0.21 0.08 0.04 0.07 0.09 0.30 0.20 0.39 0.59 0.55 0.37 0.10 0.03 0.02
0.00 0.00 0.00 0.00 0.00 0.00 0.00 0.00 0.00 0.00 0.00 0.00 0.00 0.00 0.00 0.01 0.01 0.00 0.00 0.00 0.00 0.00 0.00 0.00 0.00 0.00 0.03 0.00 0.02 0.02 0.03 0.03 0.09 0.25 0.29 0.24 0.29 0.50 0.53 0.34 0.19 0.10 0.02
0.00 0.00 0.00 0.00 0.00 0.00 0.00 0.00 0.00 0.00 0.00 0.00 0.00 0.00 0.01 0.00 0.00 0.00 0.00 0.00 0.00 0.00 0.00 0.00 0.00 0.00 0.01 0.03 0.07 0.03 0.01 0.01 0.05 0.16 0.23 0.27 0.20 0.34 0.40 0.24 0.28 0.19 0.05
0.00 0.00 0.00 0.00 0.00 0.00 0.00 0.00 0.00 0.00 0.00 0.00 0.00 0.00 0.00 0.00 0.00 0.00 0.00 0.01 0.03 0.00 0.00 0.01 0.04 0.05 0.18 0.28 0.41 0.26 0.09 0.02 0.04 0.06 0.12 0.23 0.23 0.23 0.26 0.26 0.14 0.18 0.15
0.00 0.00 0.00 0.00 0.00 0.00 0.00 0.00 0.00 0.00 0.00 0.00 0.00 0.00 0.00 0.00 0.01 0.00 0.00 0.00 0.01 0.00 0.01 0.04 0.10 0.09 0.10 0.11 0.39 0.17 0.04 0.01 0.05 0.06 0.07 0.13 0.24 0.27 0.15 0.20 0.31 0.22 0.15
0.00 0.00 0.00 0.00 0.00 0.00 0.02 0.04 0.01 0.00 0.00 0.00 0.00 0.00 0.00 0.01 0.00 0.01 0.00 0.00 0.00 0.05 0.08 0.16 0.07 0.05 0.08 0.08 0.14 0.08 0.01 0.01 0.03 0.03 0.04 0.04 0.05 0.11 0.12 0.04 0.09 0.13 0.13
0.00 0.00 0.00 0.00 0.02 0.05 0.09 0.12 0.17 0.04 0.00 0.00 0.00 0.00 0.01 0.01 0.02 0.01 0.01 0.01 0.00 0.05 0.11 0.06 0.05 0.16 0.13 0.08 0.13 0.13 0.04 0.02 0.04 0.04 0.04 0.08 0.08 0.08 0.11 0.06 0.03 0.04 0.04
0.00 0.00 0.00 0.01 0.03 0.07 0.10 0.14 0.17 0.22 0.08 0.02 0.02 0.01 0.01 0.03 0.04 0.05 0.04 0.02 0.02 0.09 0.11 0.09 0.10 0.17 0.22 0.18 0.22 0.26 0.13 0.07 0.09 0.08 0.07 0.06 0.11 0.18 0.17 0.17 0.05 0.01 0.02
0.00 0.00 0.00 0.00 0.00 0.07 0.07 0.09 0.07 0.04 0.04 0.06 0.10 0.09 0.05 0.05 0.16 0.18 0.19 0.16 0.12 0.10 0.15 0.25 0.17 0.12 0.12 0.21 0.37 0.39 0.29 0.10 0.08 0.09 0.07 0.04 0.03 0.06 0.15 0.19 0.12 0.06 0.01
0.00 0.00 0.00 0.00 0.00 0.01 0.02 0.02 0.04 0.03 0.08 0.18 0.23 0.14 0.04 0.06 0.21 0.20 0.16 0.22 0.25 0.30 0.22 0.31 0.29 0.24 0.13 0.21 0.27 0.25 0.22 0.21 0.08 0.02 0.03 0.03 0.02 0.01 0.03 0.11 0.12 0.10 0.04
0.00 0.00 0.00 0.00 0.00 0.00 0.02 0.07 0.10 0.15 0.23 0.26 0.19 0.21 0.22 0.26 0.25 0.36 0.25 0.26 0.29 0.39 0.37 0.40 0.37 0.31 0.23 0.24 0.18 0.12 0.05 0.12 0.07 0.05 0.05 0.03 0.02 0.02 0.01 0.04 0.07 0.08 0.05
0.00 0.00 0.00 0.00 0.01 0.02 0.06 0.09 0.11 0.04 0.05 0.06 0.08 0.12 0.25 0.32 0.44 0.55 0.56 0.53 0.53 0.56 0.54 0.48 0.53 0.48 0.45 0.30 0.37 0.22 0.12 0.09 0.10 0.09 0.06 0.09 0.07 0.03 0.02 0.02 0.03 0.06 0.05
0.00 0.00 0.00 0.00 0.01 0.03 0.05 0.09 0.12 0.15 0.17 0.09 0.08 0.05 0.09 0.11 0.21 0.28 0.46 0.54 0.61 0.57 0.46 0.59 0.52 0.50 0.48 0.47 0.40 0.33 0.20 0.17 0.21 0.22 0.14 0.07 0.06 0.04 0.02 0.02 0.02 0.03 0.03
0.00 0.00 0.01 0.03 0.04 0.04 0.07 0.11 0.12 0.15 0.17 0.12 0.15 0.23 0.30 0.26 0.25 0.35 0.38 0.37 0.43 0.46 0.42 0.50 0.47 0.40 0.59 0.55 0.42 0.29 0.14 0.08 0.07 0.11 0.15 0.15 0.09 0.07 0.05 0.02 0.01 0.02 0.02

GFSSE_prec_precacc24_153.txt.gz
Total_Precipitation_Accumulation
0.00 0.00 0.00 0.00 0.00 0.00 0.00 0.00 0.00 0.00 0.00 0.00 0.00 0.00 0.00 0.00 0.00 0.00 0.00 0.00 0.00 0.01 0.01 0.01 0.05 0.10 0.12 0.14 0.16 0.14 0.23 0.60 0.82 0.72 0.99 0.90 0.91 0.58 0.53 0.62 0.70 0.62 0.90
0.00 0.00 0.00 0.00 0.00 0.00 0.00 0.00 0.00 0.00 0.00 0.00 0.00 0.00 0.00 0.00 0.00 0.00 0.00 0.00 0.01 0.03 0.06 0.04 0.04 0.09 0.15 0.10 0.10 0.13 0.11 0.11 0.29 0.37 0.38 0.34 0.44 0.42 0.45 0.76 0.76 0.66 1.07
0.00 0.00 0.00 0.00 0.00 0.00 0.00 0.00 0.00 0.00 0.00 0.00 0.00 0.00 0.00 0.00 0.00 0.00 0.00 0.00 0.00 0.00 0.01 0.03 0.04 0.07 0.07 0.05 0.06 0.05 0.03 0.03 0.03 0.06 0.19 0.23 0.19 0.26 0.35 0.61 0.78 0.87 0.99
0.00 0.00 0.00 0.00 0.00 0.00 0.00 0.00 0.00 0.00 0.00 0.00 0.00 0.00 0.00 0.00 0.00 0.00 0.00 0.00 0.00 0.00 0.00 0.00 0.00 0.02 0.03 0.02 0.04 0.02 0.02 0.01 0.02 0.05 0.18 0.23 0.16 0.27 0.31 0.51 0.56 0.80 1.35
0.00 0.00 0.00 0.00 0.00 0.00 0.00 0.00 0.00 0.00 0.00 0.00 0.00 0.00 0.00 0.00 0.00 0.00 0.00 0.00 0.00 0.00 0.00 0.01 0.02 0.01 0.01 0.00 0.00 0.01 0.01 0.00 0.01 0.06 0.39 0.23 0.07 0.22 0.52 0.60 0.49 1.10 1.13
0.00 0.00 0.00 0.00 0.00 0.00 0.00 0.00 0.00 0.00 0.00 0.00 0.00 0.00 0.00 0.00 0.00 0.00 0.00 0.00 0.00 0.00 0.00 0.03 0.00 0.00 0.00 0.00 0.00 0.01 0.00 0.00 0.03 0.34 1.25 0.46 0.49 0.26 0.63 0.67 0.42 0.48 0.48
0.00 0.00 0.00 0.00 0.00 0.00 0.00 0.00 0.00 0.00 0.00 0.00 0.00 0.00 0.00 0.00 0.00 0.00 0.00 0.00 0.00 0.00 0.00 0.01 0.00 0.00 0.02 0.00 0.00 0.03 0.02 0.00 0.14 0.39 0.45 0.32 0.50 0.40 0.37 0.26 0.14 0.10 0.12
0.00 0.00 0.00 0.00 0.00 0.00 0.00 0.00 0.00 0.00 0.00 0.00 0.00 0.00 0.00 0.00 0.00 0.00 0.00 0.00 0.00 0.00 0.00 0.00 0.00 0.00 0.00 0.00 0.03 0.04 0.03 0.02 0.11 0.34 0.31 0.26 0.34 0.33 0.19 0.07 0.04 0.05 0.02
0.00 0.00 0.00 0.00 0.00 0.00 0.00 0.00 0.00 0.00 0.00 0.00 0.00 0.00 0.00 0.00 0.00 0.00 0.00 0.00 0.00 0.00 0.00 0.00 0.00 0.00 0.00 0.03 0.06 0.05 0.09 0.03 0.09 0.33 0.41 0.17 0.23 0.38 0.20 0.04 0.01 0.00 0.00
0.00 0.00 0.00 0.00 0.00 0.00 0.00 0.00 0.00 0.00 0.00 0.00 0.00 0.00 0.00 0.00 0.00 0.00 0.00 0.00 0.00 0.00 0.00 0.00 0.00 0.00 0.02 0.08 0.05 0.08 0.17 0.16 0.12 0.22 0.36 0.32 0.30 0.42 0.39 0.09 0.01 0.00 0.00
0.00 0.00 0.00 0.00 0.00 0.00 0.00 0.00 0.00 0.00 0.00 0.00 0.00 0.00 0.00 0.00 0.00 0.00 0.00 0.00 0.00 0.00 0.00 0.00 0.00 0.01 0.01 0.01 0.06 0.19 0.18 0.11 0.16 0.10 0.26 0.43 0.36 0.38 0.29 0.17 0.04 0.01 0.01
0.00 0.00 0.00 0.00 0.00 0.00 0.00 0.00 0.00 0.00 0.00 0.00 0.00 0.00 0.00 0.00 0.00 0.00 0.00 0.00 0.00 0.00 0.00 0.00 0.00 0.00 0.03 0.02 0.06 0.22 0.10 0.05 0.08 0.05 0.15 0.31 0.51 0.64 0.63 0.41 0.12 0.03 0.01
0.00 0.00 0.00 0.00 0.00 0.00 0.00 0.00 0.00 0.00 0.00 0.00 0.00 0.00 0.00 0.00 0.00 0.00 0.00 0.00 0.00 0.00 0.00 0.00 0.00 0.00 0.02 0.03 0.10 0.21 0.08 0.04 0.07 0.09 0.30 0.20 0.41 0.59 0.55 0.36 0.09 0.03 0.02
0.00 0.00 0.01 0.09 0.10 0.01 0.00 0.00 0.00 0.00 0.00 0.00 0.00 0.00 0.00 0.01 0.01 0.00 0.00 0.00 0.00 0.00 0.00 0.00 0.00 0.00 0.03 0.00 0.02 0.02 0.03 0.03 0.10 0.26 0.29 0.24 0.31 0.51 0.53 0.33 0.18 0.09 0.02
0.00 0.00 0.00 0.06 0.19 0.13 0.04 0.00 0.00 0.00 0.00 0.00 0.00 0.00 0.01 0.00 0.00 0.00 0.00 0.00 0.00 0.00 0.00 0.00 0.00 0.00 0.01 0.00 0.04 0.02 0.01 0.01 0.06 0.16 0.24 0.27 0.22 0.37 0.41 0.24 0.27 0.19 0.05
0.00 0.00 0.00 0.00 0.07 0.13 0.06 0.04 0.02 0.02 0.00 0.00 0.00 0.00 0.00 0.00 0.00 0.00 0.00 0.00 0.00 0.00 0.00 0.00 0.00 0.01 0.08 0.11 0.22 0.21 0.09 0.01 0.04 0.07 0.12 0.23 0.23 0.23 0.26 0.31 0.15 0.18 0.15
0.00 0.00 0.00 0.00 0.00 0.03 0.07 0.06 0.06 0.07 0.06 0.03 0.00 0.00 0.00 0.00 0.01 0.00 0.00 0.00 0.00 0.00 0.01 0.00 0.02 0.01 0.02 0.03 0.06 0.11 0.04 0.01 0.05 0.06 0.07 0.13 0.24 0.27 0.15 0.21 0.31 0.23 0.15
0.00 0.00 0.00 0.00 0.00 0.00 0.04 0.07 0.13 0.11 0.14 0.16 0.03 0.01 0.02 0.01 0.00 0.01 0.00 0.00 0.00 0.04 0.05 0.01 0.01 0.02 0.00 0.00 0.01 0.03 0.01 0.01 0.03 0.03 0.04 0.04 0.05 0.11 0.12 0.04 0.09 0.16 0.14
0.00 0.00 0.00 0.00 0.01 0.02 0.08 0.12 0.22 0.24 0.25 0.18 0.11 0.07 0.03 0.03 0.02 0.01 0.01 0.00 0.00 0.04 0.09 0.03 0.00 0.08 0.06 0.01 0.01 0.05 0.02 0.01 0.04 0.04 0.04 0.08 0.08 0.08 0.11 0.06 0.03 0.04 0.04
0.00 0.00 0.00 0.00 0.02 0.06 0.07 0.12 0.17 0.33 0.44 0.37 0.25 0.17 0.12 0.09 0.10 0.09 0.04 0.02 0.03 0.05 0.09 0.10 0.10 0.14 0.16 0.06 0.08 0.18 0.11 0.07 0.09 0.08 0.07 0.06 0.11 0.18 0.17 0.17 0.05 0.01 0.02
0.00 0.00 0.00 0.00 0.00 0.07 0.07 0.08 0.07 0.04 0.05 0.21 0.44 0.22 0.10 0.15 0.30 0.25 0.20 0.17 0.16 0.08 0.14 0.39 0.25 0.14 0.13 0.08 0.14 0.28 0.23 0.09 0.08 0.09 0.07 0.04 0.03 0.06 0.15 0.19 0.12 0.06 0.01
0.00 0.00 0.00 0.00 0.00 0.01 0.02 0.02 0.03 0.03 0.07 0.18 0.23 0.16 0.11 0.15 0.49 0.39 0.28 0.30 0.31 0.31 0.25 0.55 0.48 0.35 0.16 0.22 0.16 0.30 0.25 0.21 0.08 0.02 0.03 0.03 0.02 0.01 0.03 0.11 0.12 0.10 0.04
0.00 0.00 0.00 0.00 0.00 0.00 0.02 0.07 0.10 0.15 0.23 0.26 0.19 0.21 0.24 0.30 0.30 0.59 0.31 0.45 0.58 0.62 0.52 0.65 0.67 0.49 0.33 0.31 0.24 0.15 0.12 0.13 0.09 0.05 0.06 0.03 0.02 0.02 0.01 0.04 0.07 0.08 0.05
0.00 0.00 0.00 0.00 0.01 0.02 0.06 0.09 0.11 0.04 0.05 0.06 0.07 0.11 0.25 0.33 0.45 0.68 0.78 0.62 0.63 0.75 0.77 0.66 0.70 0.65 0.62 0.45 0.56 0.36 0.23 0.12 0.12 0.12 0.12 0.13 0.08 0.03 0.02 0.02 0.03 0.06 0.05
0.00 0.00 0.00 0.00 0.01 0.03 0.05 0.09 0.12 0.15 0.17 0.09 0.08 0.05 0.08 0.11 0.20 0.29 0.63 0.63 0.66 0.72 0.65 0.80 0.77 0.72 0.65 0.61 0.57 0.64 0.55 0.42 0.41 0.35 0.27 0.15 0.11 0.06 0.04 0.02 0.02 0.03 0.03
0.00 0.00 0.01 0.03 0.04 0.04 0.07 0.11 0.12 0.15 0.17 0.12 0.15 0.23 0.30 0.26 0.26 0.38 0.50 0.50 0.55 0.64 0.60 0.84 0.78 0.72 0.97 1.03 0.82 0.64 0.56 0.54 0.40 0.34 0.28 0.20 0.13 0.11 0.11 0.06 0.03 0.02 0.02

GFSSE_prec_precacc24_156.txt.gz
Total_Precipitation_Accumulation
0.00 0.00 0.00 0.00 0.00 0.00 0.00 0.00 0.00 0.00 0.00 0.00 0.00 0.00 0.00 0.00 0.00 0.00 0.00 0.00 0.00 0.00 0.00 0.00 0.02 0.06 0.07 0.06 0.07 0.06 0.06 0.43 0.78 0.72 0.99 0.90 0.91 0.58 0.53 0.65 0.77 0.63 0.94
0.00 0.00 0.00 0.00 0.00 0.00 0.00 0.00 0.00 0.00 0.00 0.00 0.00 0.00 0.00 0.00 0.00 0.00 0.00 0.00 0.00 0.00 0.00 0.00 0.01 0.06 0.09 0.06 0.03 0.01 0.02 0.05 0.26 0.36 0.38 0.34 0.44 0.43 0.45 0.76 0.88 0.68 1.08
0.00 0.00 0.00 0.00 0.00 0.00 0.00 0.00 0.00 0.00 0.00 0.00 0.00 0.00 0.00 0.00 0.00 0.00 0.00 0.00 0.00 0.00 0.00 0.00 0.01 0.01 0.01 0.02 0.01 0.00 0.00 0.00 0.01 0.05 0.19 0.21 0.19 0.25 0.32 0.53 0.85 0.87 0.99
0.00 0.00 0.00 0.00 0.00 0.00 0.00 0.00 0.00 0.00 0.00 0.00 0.00 0.00 0.00 0.00 0.00 0.00 0.00 0.00 0.00 0.00 0.00 0.00 0.00 0.00 0.00 0.01 0.02 0.00 0.00 0.00 0.02 0.05 0.18 0.23 0.16 0.26 0.30 0.54 0.62 0.83 1.34
0.00 0.00 0.00 0.00 0.00 0.00 0.00 0.00 0.00 0.00 0.00 0.00 0.00 0.00 0.00 0.00 0.00 0.00 0.00 0.00 0.00 0.00 0.00 0.01 0.02 0.01 0.00 0.00 0.00 0.00 0.00 0.00 0.01 0.06 0.39 0.23 0.07 0.22 0.53 0.62 0.49 1.09 1.14
0.00 0.00 0.00 0.00 0.00 0.00 0.00 0.00 0.00 0.00 0.00 0.00 0.00 0.00 0.00 0.00 0.00 0.00 0.00 0.00 0.00 0.00 0.00 0.03 0.00 0.00 0.00 0.00 0.00 0.00 0.00 0.00 0.03 0.34 1.25 0.46 0.50 0.26 0.64 0.68 0.42 0.47 0.48
0.00 0.00 0.00 0.00 0.00 0.00 0.00 0.00 0.00 0.00 0.00 0.00 0.00 0.00 0.00 0.00 0.00 0.00 0.00 0.00 0.00 0.00 0.00 0.01 0.00 0.00 0.02 0.00 0.00 0.00 0.00 0.00 0.13 0.28 0.41 0.32 0.51 0.43 0.36 0.26 0.13 0.09 0.11
0.00 0.00 0.00 0.00 0.00 0.00 0.00 0.00 0.00 0.00 0.00 0.00 0.00 0.00 0.00 0.00 0.00 0.00 0.00 0.00 0.00 0.00 0.00 0.00 0.00 0.00 0.00 0.00 0.03 0.02 0.00 0.00 0.09 0.27 0.28 0.25 0.36 0.39 0.18 0.07 0.04 0.05 0.02
0.00 0.00 0.00 0.00 0.00 0.00 0.00 0.00 0.00 0.00 0.00 0.00 0.00 0.00 0.00 0.00 0.00 0.00 0.00 0.00 0.00 0.00 0.00 0.00 0.00 0.00 0.00 0.03 0.06 0.05 0.03 0.02 0.08 0.32 0.37 0.16 0.24 0.40 0.20 0.04 0.01 0.00 0.01
0.00 0.00 0.00 0.00 0.00 0.00 0.00 0.00 0.00 0.00 0.00 0.00 0.00 0.00 0.00 0.00 0.00 0.00 0.00 0.00 0.00 0.00 0.00 0.00 0.00 0.00 0.01 0.05 0.02 0.06 0.13 0.11 0.10 0.22 0.32 0.28 0.34 0.44 0.38 0.09 0.01 0.00 0.00
0.00 0.00 0.00 0.00 0.00 0.00 0.00 0.00 0.00 0.00 0.00 0.00 0.00 0.00 0.00 0.00 0.00 0.00 0.00 0.00 0.00 0.00 0.00 0.00 0.00 0.01 0.01 0.01 0.04 0.16 0.15 0.06 0.10 0.09 0.20 0.36 0.40 0.41 0.28 0.17 0.04 0.01 0.00
0.00 0.00 0.00 0.00 0.00 0.00 0.00 0.00 0.00 0.00 0.00 0.00 0.00 0.00 0.00 0.00 0.00 0.00 0.00 0.00 0.00 0.00 0.00 0.00 0.00 0.00 0.03 0.02 0.05 0.16 0.07 0.04 0.06 0.05 0.15 0.30 0.52 0.64 0.63 0.41 0.12 0.02 0.01
0.00 0.00 0.00 0.02 0.03 0.02 0.01 0.01 0.00 0.00 0.00 0.00 0.00 0.00 0.00 0.00 0.00 0.00 0.00 0.00 0.00 0.00 0.00 0.00 0.00 0.00 0.02 0.03 0.09 0.13 0.05 0.03 0.06 0.09 0.30 0.20 0.42 0.59 0.55 0.36 0.09 0.03 0.01
0.00 0.00 0.01 0.10 0.20 0.12 0.08 0.09 0.06 0.03 0.01 0.00 0.00 0.00 0.00 0.01 0.01 0.00 0.00 0.00 0.00 0.00 0.00 0.00 0.00 0.00 0.03 0.00 0.02 0.01 0.02 0.03 0.10 0.26 0.29 0.24 0.31 0.52 0.53 0.33 0.18 0.08 0.02
0.00 0.00 0.00 0.06 0.20 0.15 0.13 0.12 0.07 0.08 0.09 0.04 0.00 0.00 0.01 0.00 0.00 0.00 0.00 0.00 0.00 0.00 0.00 0.00 0.00 0.00 0.01 0.00 0.04 0.01 0.01 0.01 0.06 0.16 0.24 0.27 0.22 0.40 0.41 0.25 0.27 0.18 0.05
0.00 0.00 0.00 0.00 0.07 0.13 0.08 0.08 0.09 0.10 0.11 0.13 0.07 0.01 0.00 0.00 0.00 0.00 0.00 0.00 0.00 0.00 0.00 0.00 0.00 0.00 0.00 0.00 0.06 0.06 0.04 0.01 0.04 0.07 0.12 0.23 0.23 0.24 0.27 0.33 0.18 0.18 0.15
0.00 0.00 0.00 0.00 0.00 0.03 0.07 0.07 0.07 0.10 0.14 0.14 0.08 0.04 0.02 0.01 0.01 0.00 0.00 0.00 0.00 0.00 0.01 0.00 0.01 0.00 0.00 0.00 0.02 0.03 0.01 0.01 0.05 0.06 0.07 0.13 0.24 0.27 0.15 0.21 0.32 0.27 0.16
0.00 0.00 0.00 0.00 0.00 0.00 0.03 0.07 0.13 0.11 0.15 0.20 0.11 0.09 0.14 0.06 0.01 0.02 0.01 0.00 0.00 0.01 0.04 0.01 0.01 0.02 0.00 0.00 0.00 0.01 0.00 0.00 0.03 0.03 0.04 0.04 0.05 0.11 0.12 0.04 0.09 0.17 0.17
0.00 0.00 0.00 0.00 0.00 0.00 0.02 0.09 0.20 0.24 0.26 0.20 0.16 0.13 0.10 0.11 0.16 0.20 0.10 0.01 0.01 0.01 0.03 0.07 0.03 0.09 0.05 0.01 0.00 0.04 0.01 0.01 0.04 0.04 0.04 0.08 0.08 0.08 0.11 0.06 0.03 0.04 0.05
0.00 0.00 0.00 0.00 0.00 0.00 0.02 0.09 0.14 0.31 0.43 0.37 0.25 0.19 0.16 0.13 0.16 0.21 0.17 0.08 0.11 0.14 0.06 0.09 0.17 0.20 0.16 0.04 0.02 0.10 0.11 0.08 0.10 0.08 0.07 0.06 0.11 0.18 0.17 0.17 0.05 0.01 0.02
0.00 0.00 0.00 0.00 0.00 0.00 0.02 0.04 0.04 0.02 0.03 0.20 0.43 0.22 0.10 0.14 0.21 0.17 0.12 0.13 0.20 0.12 0.12 0.39 0.40 0.31 0.18 0.12 0.21 0.26 0.20 0.08 0.08 0.09 0.07 0.04 0.03 0.06 0.15 0.19 0.12 0.06 0.01
0.00 0.00 0.00 0.00 0.00 0.01 0.01 0.02 0.02 0.03 0.07 0.17 0.23 0.16 0.10 0.14 0.49 0.39 0.34 0.34 0.38 0.35 0.35 0.66 0.62 0.63 0.34 0.35 0.42 0.58 0.36 0.23 0.07 0.09 0.10 0.05 0.02 0.01 0.04 0.12 0.12 0.10 0.04
0.00 0.00 0.00 0.00 0.00 0.00 0.02 0.07 0.10 0.15 0.23 0.26 0.19 0.21 0.24 0.28 0.28 0.57 0.32 0.53 0.74 0.86 0.63 0.84 0.94 0.75 0.48 0.50 0.50 0.39 0.26 0.15 0.16 0.17 0.14 0.10 0.06 0.02 0.01 0.05 0.08 0.08 0.05
0.00 0.00 0.00 0.00 0.01 0.02 0.06 0.09 0.11 0.04 0.05 0.06 0.07 0.11 0.22 0.30 0.41 0.64 0.76 0.67 0.74 0.91 0.96 0.90 1.08 0.99 0.93 0.67 0.80 0.66 0.51 0.41 0.34 0.22 0.18 0.18 0.16 0.07 0.03 0.03 0.03 0.07 0.06
0.00 0.00 0.00 0.00 0.01 0.03 0.05 0.09 0.12 0.15 0.17 0.09 0.08 0.04 0.06 0.09 0.17 0.25 0.60 0.59 0.69 0.82 0.78 1.00 1.00 1.06 1.07 1.16 0.98 0.97 0.96 0.76 0.69 0.61 0.37 0.22 0.21 0.16 0.13 0.09 0.09 0.09 0.05
0.00 0.00 0.01 0.03 0.04 0.04 0.07 0.11 0.12 0.15 0.17 0.12 0.15 0.21 0.26 0.24 0.24 0.36 0.47 0.45 0.50 0.61 0.61 0.89 0.98 0.95 1.18 1.27 1.12 0.95 0.83 0.81 0.61 0.49 0.42 0.34 0.22 0.18 0.17 0.16 0.10 0.06 0.07

GFSSE_prec_precacc24_159.txt.gz
Total_Precipitation_Accumulation
0.00 0.00 0.00 0.00 0.00 0.00 0.00 0.00 0.00 0.00 0.00 0.00 0.00 0.00 0.00 0.00 0.00 0.00 0.00 0.00 0.00 0.00 0.00 0.00 0.00 0.02 0.03 0.04 0.05 0.03 0.05 0.05 0.07 0.41 0.90 0.83 0.88 0.57 0.53 0.65 0.76 0.63 0.92
0.00 0.00 0.00 0.00 0.00 0.00 0.00 0.00 0.00 0.00 0.00 0.00 0.00 0.00 0.00 0.00 0.00 0.00 0.00 0.00 0.00 0.00 0.00 0.00 0.01 0.04 0.03 0.02 0.02 0.01 0.01 0.00 0.03 0.17 0.32 0.30 0.41 0.42 0.43 0.74 0.89 0.70 1.14
0.00 0.00 0.00 0.00 0.00 0.00 0.00 0.00 0.00 0.00 0.00 0.00 0.00 0.00 0.00 0.00 0.00 0.00 0.00 0.00 0.00 0.00 0.00 0.00 0.01 0.01 0.00 0.00 0.00 0.00 0.00 0.00 0.00 0.03 0.17 0.20 0.19 0.24 0.27 0.54 0.86 0.86 0.99
0.00 0.00 0.00 0.00 0.00 0.00 0.00 0.00 0.00 0.00 0.00 0.00 0.00 0.00 0.00 0.00 0.00 0.00 0.00 0.00 0.00 0.00 0.00 0.00 0.00 0.00 0.00 0.00 0.00 0.00 0.00 0.00 0.00 0.04 0.17 0.23 0.16 0.26 0.26 0.56 0.61 0.81 1.33
0.00 0.00 0.00 0.00 0.00 0.00 0.00 0.00 0.00 0.00 0.00 0.00 0.00 0.00 0.00 0.00 0.00 0.00 0.00 0.00 0.00 0.00 0.00 0.01 0.02 0.02 0.00 0.00 0.00 0.00 0.00 0.00 0.01 0.06 0.39 0.23 0.07 0.22 0.56 0.63 0.48 1.09 1.15
0.00 0.00 0.00 0.00 0.00 0.00 0.00 0.00 0.00 0.00 0.00 0.00 0.00 0.00 0.00 0.00 0.00 0.00 0.00 0.00 0.00 0.00 0.01 0.03 0.00 0.00 0.00 0.00 0.00 0.00 0.00 0.00 0.03 0.34 1.25 0.45 0.49 0.26 0.64 0.68 0.42 0.51 0.50
0.00 0.00 0.00 0.00 0.00 0.00 0.00 0.00 0.00 0.00 0.00 0.00 0.00 0.00 0.00 0.00 0.00 0.00 0.00 0.00 0.00 0.00 0.00 0.01 0.00 0.00 0.00 0.00 0.00 0.00 0.00 0.00 0.13 0.26 0.38 0.31 0.53 0.47 0.36 0.25 0.13 0.07 0.11
0.00 0.00 0.00 0.00 0.00 0.00 0.00 0.00 0.00 0.00 0.00 0.00 0.00 0.00 0.00 0.00 0.00 0.00 0.00 0.00 0.00 0.00 0.00 0.00 0.00 0.00 0.00 0.00 0.01 0.01 0.00 0.00 0.09 0.27 0.26 0.21 0.37 0.46 0.19 0.07 0.03 0.04 0.02
0.00 0.00 0.00 0.00 0.00 0.00 0.00 0.00 0.00 0.00 0.00 0.00 0.00 0.00 0.00 0.00 0.00 0.00 0.00 0.00 0.00 0.00 0.00 0.00 0.00 0.00 0.00 0.03 0.06 0.04 0.02 0.02 0.08 0.31 0.33 0.14 0.25 0.47 0.23 0.04 0.01 0.00 0.01
0.00 0.00 0.00 0.00 0.00 0.00 0.00 0.00 0.00 0.00 0.00 0.00 0.00 0.00 0.00 0.00 0.00 0.00 0.00 0.00 0.00 0.00 0.00 0.00 0.00 0.00 0.01 0.05 0.02 0.05 0.13 0.10 0.09 0.22 0.27 0.20 0.27 0.43 0.36 0.08 0.01 0.00 0.00
0.00 0.00 0.00 0.00 0.00 0.00 0.00 0.00 0.00 0.00 0.00 0.00 0.00 0.00 0.00 0.00 0.00 0.00 0.00 0.00 0.00 0.00 0.00 0.00 0.00 0.01 0.01 0.01 0.04 0.16 0.15 0.06 0.09 0.08 0.16 0.20 0.31 0.37 0.25 0.16 0.03 0.01 0.00
0.00 0.00 0.00 0.01 0.01 0.00 0.00 0.00 0.00 0.00 0.00 0.00 0.00 0.00 0.00 0.00 0.00 0.00 0.00 0.00 0.00 0.00 0.00 0.00 0.00 0.00 0.02 0.01 0.05 0.15 0.07 0.04 0.06 0.05 0.14 0.17 0.47 0.59 0.62 0.40 0.11 0.02 0.01
0.00 0.00 0.00 0.02 0.04 0.03 0.02 0.02 0.01 0.00 0.00 0.00 0.00 0.00 0.00 0.00 0.00 0.00 0.00 0.00 0.00 0.00 0.00 0.00 0.00 0.00 0.02 0.02 0.07 0.07 0.04 0.03 0.05 0.09 0.30 0.18 0.40 0.56 0.54 0.35 0.09 0.02 0.01
0.00 0.00 0.01 0.10 0.20 0.12 0.09 0.12 0.08 0.07 0.04 0.02 0.00 0.00 0.01 0.01 0.01 0.00 0.00 0.00 0.00 0.00 0.00 0.00 0.00 0.00 0.03 0.00 0.01 0.00 0.01 0.01 0.07 0.18 0.27 0.23 0.30 0.51 0.53 0.33 0.17 0.08 0.01
0.00 0.00 0.00 0.06 0.20 0.15 0.13 0.12 0.10 0.13 0.15 0.14 0.07 0.03 0.03 0.01 0.01 0.00 0.00 0.00 0.00 0.00 0.00 0.00 0.00 0.00 0.01 0.00 0.00 0.00 0.00 0.00 0.04 0.11 0.21 0.26 0.21 0.40 0.40 0.25 0.27 0.17 0.04
0.00 0.00 0.00 0.00 0.07 0.13 0.08 0.08 0.10 0.12 0.14 0.16 0.13 0.08 0.03 0.02 0.01 0.01 0.00 0.00 0.00 0.00 0.00 0.00 0.00 0.00 0.00 0.00 0.00 0.00 0.00 0.00 0.02 0.05 0.12 0.23 0.23 0.23 0.27 0.32 0.17 0.18 0.14
0.00 0.00 0.00 0.00 0.00 0.03 0.07 0.07 0.07 0.10 0.14 0.15 0.10 0.10 0.12 0.08 0.11 0.08 0.04 0.01 0.00 0.00 0.01 0.01 0.01 0.00 0.00 0.00 0.00 0.00 0.00 0.00 0.02 0.03 0.06 0.13 0.24 0.27 0.15 0.21 0.31 0.27 0.17
0.00 0.00 0.00 0.00 0.00 0.00 0.03 0.07 0.13 0.11 0.15 0.20 0.12 0.13 0.25 0.21 0.23 0.26 0.15 0.03 0.03 0.04 0.06 0.08 0.05 0.03 0.00 0.00 0.00 0.00 0.00 0.00 0.01 0.01 0.03 0.04 0.05 0.11 0.12 0.04 0.08 0.16 0.17
0.00 0.00 0.00 0.00 0.00 0.00 0.02 0.09 0.20 0.23 0.26 0.20 0.16 0.13 0.11 0.17 0.29 0.38 0.27 0.09 0.11 0.09 0.08 0.16 0.10 0.14 0.08 0.04 0.02 0.04 0.01 0.00 0.01 0.02 0.04 0.08 0.08 0.08 0.11 0.06 0.02 0.03 0.04
0.00 0.00 0.00 0.00 0.00 0.00 0.00 0.01 0.05 0.25 0.40 0.36 0.25 0.19 0.16 0.14 0.19 0.25 0.24 0.19 0.22 0.23 0.13 0.13 0.19 0.24 0.23 0.17 0.14 0.12 0.09 0.05 0.05 0.05 0.06 0.06 0.11 0.18 0.17 0.17 0.05 0.01 0.01
0.00 0.00 0.00 0.00 0.00 0.00 0.00 0.00 0.00 0.00 0.01 0.18 0.39 0.21 0.10 0.14 0.21 0.17 0.12 0.11 0.21 0.22 0.20 0.38 0.49 0.47 0.25 0.30 0.44 0.41 0.33 0.15 0.11 0.05 0.07 0.04 0.03 0.06 0.15 0.19 0.12 0.06 0.01
0.00 0.00 0.00 0.00 0.00 0.00 0.00 0.00 0.01 0.02 0.07 0.16 0.18 0.15 0.10 0.14 0.49 0.39 0.32 0.27 0.24 0.18 0.29 0.70 0.78 0.90 0.45 0.56 0.63 0.78 0.50 0.38 0.18 0.15 0.13 0.07 0.03 0.05 0.04 0.15 0.14 0.10 0.04
0.00 0.00 0.00 0.00 0.00 0.00 0.01 0.03 0.08 0.15 0.23 0.26 0.18 0.21 0.22 0.27 0.22 0.55 0.31 0.48 0.58 0.66 0.49 0.79 1.04 0.95 0.63 0.68 0.70 0.58 0.40 0.20 0.24 0.32 0.29 0.24 0.22 0.14 0.10 0.10 0.16 0.12 0.05
0.00 0.00 0.00 0.00 0.01 0.02 0.06 0.08 0.10 0.04 0.05 0.06 0.07 0.11 0.20 0.26 0.33 0.58 0.71 0.64 0.71 0.85 0.90 0.86 1.10 1.09 1.13 0.85 0.98 0.81 0.65 0.52 0.47 0.33 0.31 0.31 0.32 0.23 0.18 0.16 0.18 0.19 0.11
0.00 0.00 0.00 0.00 0.01 0.03 0.05 0.09 0.12 0.15 0.17 0.09 0.08 0.04 0.05 0.08 0.15 0.22 0.57 0.56 0.66 0.80 0.75 0.92 0.94 1.03 1.18 1.43 1.49 1.41 1.28 1.15 1.15 1.10 0.84 0.51 0.40 0.27 0.24 0.19 0.24 0.26 0.16
0.00 0.00 0.01 0.03 0.04 0.04 0.07 0.11 0.12 0.15 0.17 0.12 0.15 0.19 0.22 0.21 0.21 0.31 0.44 0.41 0.47 0.58 0.58 0.82 0.88 0.89 1.20 1.43 1.61 1.91 1.88 1.65 1.24 0.96 0.75 0.54 0.38 0.27 0.24 0.24 0.19 0.15 0.17

GFSSE_prec_precacc24_162.txt.gz
Total_Precipitation_Accumulation
0.00 0.00 0.00 0.00 0.00 0.00 0.00 0.00 0.00 0.00 0.00 0.00 0.00 0.00 0.00 0.00 0.00 0.00 0.00 0.00 0.00 0.00 0.00 0.00 0.00 0.01 0.02 0.04 0.04 0.03 0.04 0.05 0.02 0.03 0.16 0.41 0.68 0.52 0.51 0.63 0.75 0.60 0.88
0.00 0.00 0.00 0.00 0.00 0.00 0.00 0.00 0.00 0.00 0.00 0.00 0.00 0.00 0.00 0.00 0.00 0.00 0.00 0.00 0.00 0.00 0.00 0.00 0.00 0.01 0.02 0.02 0.01 0.01 0.01 0.00 0.00 0.01 0.01 0.08 0.27 0.39 0.41 0.72 0.89 0.68 1.12
0.00 0.00 0.00 0.00 0.00 0.00 0.00 0.00 0.00 0.00 0.00 0.00 0.00 0.00 0.00 0.00 0.00 0.00 0.00 0.00 0.00 0.00 0.00 0.00 0.00 0.00 0.00 0.00 0.00 0.00 0.00 0.00 0.00 0.01 0.02 0.08 0.16 0.20 0.26 0.51 0.85 0.82 0.97
0.00 0.00 0.00 0.00 0.00 0.00 0.00 0.00 0.00 0.00 0.00 0.00 0.00 0.00 0.00 0.00 0.00 0.00 0.00 0.00 0.00 0.00 0.00 0.00 0.00 0.01 0.00 0.00 0.00 0.00 0.00 0.00 0.00 0.02 0.11 0.14 0.15 0.23 0.24 0.50 0.58 0.78 1.32
0.00 0.00 0.00 0.00 0.00 0.00 0.00 0.00 0.00 0.00 0.00 0.00 0.00 0.00 0.00 0.00 0.00 0.00 0.00 0.00 0.00 0.00 0.00 0.01 0.02 0.02 0.00 0.00 0.00 0.00 0.00 0.00 0.01 0.06 0.35 0.16 0.04 0.21 0.56 0.63 0.48 1.09 1.15
0.00 0.00 0.00 0.00 0.00 0.00 0.00 0.00 0.00 0.00 0.00 0.00 0.00 0.00 0.00 0.00 0.00 0.00 0.00 0.00 0.00 0.00 0.00 0.01 0.00 0.00 0.00 0.00 0.00 0.00 0.00 0.00 0.03 0.34 1.25 0.35 0.34 0.26 0.64 0.67 0.43 0.55 0.56
0.00 0.00 0.00 0.00 0.00 0.00 0.00 0.00 0.00 0.00 0.00 0.00 0.00 0.00 0.00 0.00 0.00 0.00 0.00 0.00 0.00 0.00 0.01 0.00 0.00 0.00 0.00 0.00 0.00 0.00 0.00 0.00 0.13 0.26 0.37 0.27 0.47 0.51 0.35 0.25 0.13 0.09 0.13
0.00 0.00 0.00 0.00 0.00 0.00 0.00 0.00 0.00 0.00 0.00 0.00 0.00 0.00 0.00 0.00 0.00 0.00 0.00 0.00 0.00 0.00 0.00 0.00 0.00 0.00 0.00 0.00 0.00 0.00 0.00 0.00 0.09 0.27 0.26 0.18 0.34 0.49 0.20 0.06 0.03 0.03 0.01
0.00 0.00 0.00 0.00 0.00 0.01 0.01 0.00 0.00 0.00 0.00 0.00 0.00 0.00 0.00 0.00 0.00 0.00 0.00 0.00 0.00 0.00 0.00 0.00 0.00 0.00 0.00 0.01 0.01 0.01 0.01 0.01 0.08 0.31 0.33 0.14 0.23 0.44 0.23 0.04 0.01 0.00 0.01
0.00 0.00 0.00 0.00 0.00 0.00 0.02 0.01 0.00 0.00 0.00 0.00 0.00 0.00 0.00 0.00 0.00 0.00 0.00 0.00 0.00 0.00 0.00 0.00 0.00 0.00 0.01 0.02 0.01 0.05 0.08 0.01 0.07 0.21 0.25 0.19 0.25 0.33 0.26 0.07 0.00 0.00 0.00
0.00 0.00 0.00 0.00 0.00 0.00 0.00 0.00 0.00 0.00 0.00 0.00 0.00 0.00 0.00 0.00 0.00 0.00 0.00 0.00 0.00 0.00 0.00 0.00 0.00 0.00 0.00 0.01 0.03 0.14 0.13 0.02 0.07 0.07 0.15 0.19 0.24 0.30 0.24 0.14 0.02 0.00 0.00
0.00 0.00 0.00 0.01 0.01 0.00 0.00 0.00 0.00 0.00 0.00 0.00 0.00 0.00 0.01 0.01 0.00 0.00 0.00 0.00 0.00 0.00 0.00 0.00 0.00 0.00 0.00 0.00 0.05 0.15 0.07 0.04 0.04 0.04 0.12 0.14 0.31 0.47 0.56 0.38 0.11 0.01 0.00
0.00 0.00 0.00 0.02 0.04 0.03 0.02 0.02 0.02 0.01 0.02 0.02 0.00 0.01 0.02 0.02 0.02 0.01 0.01 0.00 0.00 0.00 0.00 0.00 0.00 0.00 0.00 0.00 0.01 0.02 0.02 0.03 0.04 0.04 0.26 0.14 0.31 0.50 0.50 0.35 0.08 0.01 0.01
0.00 0.00 0.01 0.10 0.20 0.12 0.09 0.12 0.08 0.07 0.05 0.04 0.03 0.02 0.04 0.03 0.03 0.01 0.02 0.01 0.01 0.00 0.00 0.00 0.00 0.00 0.00 0.00 0.00 0.00 0.00 0.01 0.05 0.05 0.17 0.20 0.27 0.47 0.50 0.33 0.17 0.06 0.01
0.00 0.00 0.00 0.06 0.20 0.15 0.13 0.12 0.10 0.13 0.16 0.15 0.09 0.06 0.07 0.10 0.07 0.04 0.02 0.01 0.01 0.01 0.00 0.00 0.00 0.00 0.00 0.00 0.00 0.00 0.00 0.00 0.03 0.04 0.08 0.16 0.19 0.37 0.37 0.25 0.26 0.16 0.04
0.00 0.00 0.00 0.00 0.07 0.13 0.08 0.08 0.10 0.12 0.14 0.16 0.14 0.10 0.08 0.08 0.10 0.08 0.07 0.03 0.01 0.01 0.01 0.01 0.00 0.00 0.00 0.00 0.00 0.00 0.00 0.00 0.01 0.02 0.01 0.11 0.21 0.21 0.25 0.33 0.20 0.17 0.15
0.00 0.00 0.00 0.00 0.00 0.03 0.07 0.07 0.07 0.10 0.14 0.15 0.10 0.10 0.13 0.11 0.15 0.16 0.13 0.08 0.04 0.02 0.04 0.08 0.02 0.01 0.00 0.01 0.00 0.00 0.00 0.00 0.02 0.02 0.01 0.04 0.18 0.23 0.14 0.20 0.31 0.27 0.20
0.00 0.00 0.00 0.00 0.00 0.00 0.03 0.07 0.13 0.11 0.15 0.20 0.12 0.13 0.25 0.21 0.23 0.29 0.24 0.13 0.09 0.09 0.11 0.13 0.06 0.03 0.02 0.04 0.01 0.01 0.01 0.00 0.01 0.00 0.00 0.00 0.04 0.09 0.11 0.04 0.08 0.15 0.16
0.00 0.00 0.00 0.00 0.00 0.00 0.02 0.09 0.20 0.23 0.26 0.20 0.16 0.13 0.11 0.17 0.29 0.37 0.28 0.13 0.15 0.14 0.16 0.26 0.18 0.15 0.08 0.06 0.05 0.09 0.05 0.01 0.01 0.00 0.00 0.01 0.04 0.07 0.11 0.06 0.02 0.03 0.03
0.00 0.00 0.00 0.00 0.00 0.00 0.00 0.01 0.05 0.25 0.39 0.35 0.24 0.18 0.16 0.14 0.19 0.25 0.23 0.19 0.25 0.29 0.22 0.25 0.33 0.33 0.25 0.24 0.24 0.16 0.15 0.06 0.03 0.02 0.02 0.02 0.07 0.17 0.17 0.17 0.05 0.01 0.01
0.00 0.00 0.00 0.00 0.00 0.00 0.00 0.00 0.00 0.00 0.01 0.17 0.36 0.16 0.07 0.14 0.21 0.17 0.12 0.11 0.22 0.24 0.25 0.41 0.54 0.58 0.31 0.41 0.61 0.48 0.36 0.21 0.14 0.02 0.03 0.03 0.03 0.06 0.15 0.19 0.12 0.06 0.01
0.00 0.00 0.00 0.00 0.00 0.00 0.00 0.00 0.00 0.00 0.02 0.07 0.09 0.09 0.09 0.12 0.49 0.38 0.31 0.26 0.23 0.16 0.27 0.61 0.63 0.84 0.57 0.76 0.82 0.88 0.54 0.42 0.22 0.18 0.12 0.06 0.06 0.07 0.06 0.16 0.14 0.10 0.04
0.00 0.00 0.00 0.00 0.00 0.00 0.00 0.00 0.02 0.03 0.10 0.14 0.11 0.16 0.16 0.21 0.18 0.53 0.30 0.47 0.57 0.62 0.39 0.61 0.83 0.85 0.62 0.79 0.96 1.03 0.94 0.58 0.32 0.35 0.32 0.26 0.28 0.20 0.17 0.20 0.32 0.27 0.12
0.00 0.00 0.00 0.00 0.00 0.00 0.00 0.01 0.04 0.02 0.01 0.00 0.00 0.02 0.07 0.18 0.28 0.54 0.69 0.62 0.69 0.83 0.86 0.76 0.93 0.96 1.08 0.84 1.05 0.94 0.81 0.70 0.64 0.39 0.35 0.32 0.35 0.32 0.30 0.26 0.26 0.31 0.25
0.00 0.00 0.00 0.00 0.00 0.00 0.00 0.03 0.04 0.11 0.16 0.09 0.07 0.02 0.02 0.04 0.10 0.19 0.51 0.54 0.65 0.79 0.74 0.89 0.86 0.97 1.14 1.43 1.52 1.59 1.54 1.42 1.45 1.37 1.01 0.59 0.46 0.41 0.50 0.56 0.62 0.52 0.29
0.00 0.00 0.01 0.02 0.04 0.04 0.05 0.08 0.10 0.13 0.16 0.12 0.15 0.19 0.20 0.18 0.20 0.30 0.41 0.40 0.45 0.57 0.57 0.79 0.81 0.82 1.07 1.34 1.60 1.96 2.10 2.09 1.96 1.86 1.68 1.16 0.64 0.42 0.38 0.40 0.40 0.43 0.43

GFSSE_prec_precacc24_165.txt.gz
Total_Precipitation_Accumulation
0.00 0.00 0.00 0.00 0.00 0.00 0.00 0.00 0.00 0.00 0.00 0.00 0.00 0.00 0.00 0.00 0.00 0.00 0.00 0.00 0.00 0.00 0.00 0.00 0.00 0.01 0.02 0.03 0.04 0.03 0.04 0.04 0.01 0.01 0.02 0.09 0.11 0.16 0.33 0.53 0.74 0.60 0.81
0.00 0.00 0.00 0.00 0.00 0.00 0.00 0.00 0.00 0.00 0.00 0.00 0.00 0.00 0.00 0.00 0.00 0.00 0.00 0.00 0.00 0.00 0.00 0.00 0.00 0.01 0.02 0.02 0.01 0.01 0.01 0.00 0.00 0.01 0.00 0.00 0.01 0.05 0.21 0.49 0.81 0.66 1.02
0.00 0.00 0.00 0.00 0.00 0.00 0.00 0.00 0.00 0.00 0.00 0.00 0.00 0.00 0.00 0.00 0.00 0.00 0.00 0.00 0.00 0.00 0.00 0.00 0.00 0.00 0.00 0.00 0.00 0.00 0.00 0.00 0.00 0.00 0.01 0.01 0.01 0.04 0.08 0.32 0.77 0.78 0.90
0.01 0.00 0.00 0.00 0.00 0.00 0.00 0.00 0.00 0.00 0.00 0.00 0.00 0.00 0.00 0.00 0.00 0.00 0.00 0.00 0.00 0.00 0.00 0.00 0.00 0.00 0.00 0.00 0.00 0.00 0.00 0.00 0.00 0.01 0.09 0.09 0.03 0.10 0.13 0.31 0.49 0.75 1.30
0.00 0.00 0.00 0.00 0.00 0.00 0.00 0.00 0.00 0.00 0.00 0.00 0.00 0.00 0.00 0.00 0.00 0.00 0.00 0.00 0.00 0.00 0.00 0.00 0.00 0.01 0.00 0.00 0.00 0.00 0.00 0.00 0.01 0.05 0.34 0.11 0.02 0.13 0.47 0.54 0.43 1.06 1.14
0.00 0.00 0.00 0.00 0.00 0.00 0.00 0.00 0.00 0.00 0.00 0.00 0.00 0.00 0.00 0.00 0.00 0.00 0.00 0.00 0.00 0.00 0.00 0.00 0.00 0.00 0.00 0.00 0.00 0.00 0.00 0.00 0.03 0.34 1.24 0.26 0.17 0.17 0.57 0.62 0.42 0.55 0.59
0.00 0.00 0.00 0.00 0.00 0.00 0.00 0.01 0.00 0.00 0.00 0.00 0.00 0.00 0.00 0.00 0.00 0.00 0.00 0.00 0.00 0.00 0.01 0.00 0.00 0.00 0.00 0.00 0.00 0.00 0.00 0.00 0.13 0.26 0.37 0.26 0.32 0.44 0.35 0.24 0.13 0.07 0.13
0.00 0.00 0.00 0.00 0.01 0.02 0.00 0.00 0.00 0.00 0.00 0.00 0.00 0.00 0.00 0.00 0.00 0.00 0.00 0.00 0.00 0.00 0.00 0.00 0.00 0.00 0.00 0.00 0.00 0.00 0.00 0.00 0.08 0.26 0.25 0.17 0.29 0.49 0.19 0.06 0.03 0.01 0.01
0.00 0.00 0.00 0.01 0.02 0.04 0.05 0.01 0.00 0.00 0.00 0.00 0.00 0.00 0.00 0.00 0.00 0.00 0.00 0.00 0.00 0.00 0.00 0.00 0.00 0.00 0.00 0.00 0.00 0.00 0.01 0.01 0.06 0.30 0.33 0.13 0.21 0.46 0.22 0.03 0.01 0.00 0.01
0.00 0.01 0.02 0.03 0.02 0.01 0.04 0.04 0.01 0.00 0.00 0.00 0.00 0.00 0.00 0.01 0.00 0.01 0.00 0.00 0.00 0.00 0.00 0.00 0.00 0.00 0.00 0.00 0.00 0.02 0.05 0.01 0.07 0.18 0.21 0.19 0.24 0.27 0.18 0.04 0.00 0.00 0.00
0.00 0.00 0.00 0.00 0.00 0.00 0.01 0.00 0.00 0.00 0.00 0.00 0.00 0.00 0.01 0.01 0.01 0.03 0.02 0.01 0.00 0.00 0.01 0.01 0.00 0.00 0.00 0.00 0.02 0.05 0.05 0.02 0.07 0.05 0.08 0.07 0.19 0.20 0.10 0.06 0.01 0.00 0.01
0.00 0.00 0.00 0.01 0.01 0.00 0.00 0.00 0.00 0.00 0.00 0.00 0.00 0.00 0.01 0.02 0.02 0.02 0.02 0.02 0.02 0.01 0.01 0.01 0.00 0.00 0.00 0.00 0.01 0.02 0.00 0.04 0.04 0.04 0.10 0.07 0.26 0.33 0.47 0.31 0.08 0.00 0.00
0.00 0.00 0.00 0.02 0.04 0.03 0.02 0.02 0.02 0.01 0.03 0.04 0.01 0.01 0.03 0.03 0.03 0.02 0.02 0.01 0.02 0.02 0.03 0.02 0.00 0.00 0.00 0.00 0.00 0.00 0.02 0.03 0.03 0.03 0.17 0.09 0.28 0.41 0.49 0.35 0.08 0.02 0.00
0.00 0.00 0.01 0.10 0.20 0.12 0.09 0.12 0.08 0.07 0.05 0.04 0.03 0.02 0.05 0.03 0.04 0.04 0.04 0.02 0.02 0.02 0.03 0.03 0.02 0.00 0.00 0.00 0.00 0.00 0.00 0.00 0.01 0.05 0.11 0.08 0.23 0.35 0.44 0.32 0.18 0.08 0.00
0.00 0.00 0.00 0.06 0.20 0.15 0.13 0.12 0.10 0.13 0.16 0.15 0.09 0.06 0.07 0.11 0.10 0.08 0.05 0.04 0.03 0.03 0.03 0.03 0.04 0.01 0.01 0.00 0.00 0.00 0.00 0.00 0.03 0.03 0.05 0.00 0.06 0.27 0.29 0.22 0.28 0.18 0.03
0.00 0.00 0.00 0.00 0.07 0.13 0.08 0.08 0.10 0.12 0.14 0.16 0.14 0.10 0.08 0.08 0.11 0.10 0.09 0.07 0.05 0.05 0.05 0.04 0.04 0.03 0.00 0.00 0.00 0.00 0.00 0.00 0.01 0.02 0.01 0.00 0.06 0.13 0.21 0.31 0.22 0.21 0.17
0.00 0.00 0.00 0.00 0.00 0.03 0.07 0.07 0.07 0.10 0.14 0.15 0.10 0.10 0.13 0.11 0.15 0.16 0.13 0.08 0.06 0.04 0.07 0.11 0.06 0.06 0.03 0.02 0.00 0.00 0.00 0.00 0.02 0.02 0.00 0.00 0.03 0.12 0.09 0.19 0.30 0.26 0.25
0.00 0.00 0.00 0.00 0.00 0.00 0.03 0.07 0.13 0.11 0.15 0.20 0.12 0.13 0.25 0.21 0.23 0.29 0.24 0.13 0.09 0.09 0.12 0.16 0.10 0.07 0.06 0.08 0.02 0.01 0.01 0.00 0.01 0.00 0.00 0.00 0.00 0.04 0.05 0.03 0.08 0.13 0.15
0.00 0.00 0.00 0.00 0.00 0.00 0.02 0.09 0.20 0.23 0.26 0.20 0.16 0.13 0.11 0.17 0.29 0.37 0.28 0.13 0.15 0.14 0.16 0.27 0.20 0.18 0.13 0.11 0.08 0.10 0.05 0.01 0.01 0.00 0.00 0.00 0.01 0.01 0.07 0.06 0.02 0.03 0.02
0.00 0.00 0.00 0.00 0.00 0.00 0.00 0.01 0.05 0.25 0.39 0.35 0.23 0.18 0.16 0.14 0.19 0.24 0.23 0.19 0.25 0.29 0.22 0.25 0.33 0.31 0.25 0.30 0.31 0.20 0.16 0.07 0.03 0.02 0.02 0.00 0.03 0.10 0.10 0.16 0.05 0.01 0.00
0.00 0.00 0.00 0.00 0.00 0.00 0.00 0.00 0.00 0.00 0.01 0.16 0.34 0.14 0.06 0.14 0.21 0.17 0.12 0.11 0.22 0.23 0.24 0.41 0.53 0.57 0.28 0.44 0.73 0.60 0.45 0.27 0.16 0.03 0.03 0.01 0.01 0.04 0.13 0.18 0.12 0.06 0.01
0.00 0.00 0.00 0.00 0.00 0.00 0.00 0.00 0.00 0.00 0.00 0.00 0.00 0.04 0.08 0.12 0.48 0.38 0.31 0.26 0.23 0.15 0.26 0.60 0.60 0.79 0.53 0.70 0.99 1.23 0.91 0.69 0.42 0.27 0.14 0.06 0.06 0.08 0.05 0.16 0.14 0.10 0.04
0.00 0.00 0.00 0.00 0.00 0.00 0.00 0.00 0.00 0.00 0.00 0.00 0.01 0.01 0.03 0.05 0.10 0.46 0.26 0.46 0.55 0.59 0.38 0.59 0.80 0.77 0.54 0.72 0.93 1.13 1.16 0.89 0.67 0.61 0.45 0.30 0.29 0.21 0.18 0.20 0.32 0.28 0.14
0.00 0.00 0.00 0.00 0.00 0.00 0.00 0.00 0.00 0.00 0.00 0.00 0.00 0.00 0.01 0.03 0.06 0.29 0.50 0.49 0.61 0.77 0.83 0.74 0.83 0.84 0.95 0.79 1.00 0.93 0.84 0.80 0.84 0.69 0.59 0.50 0.41 0.35 0.31 0.30 0.29 0.34 0.31
0.00 0.00 0.00 0.00 0.00 0.00 0.00 0.00 0.00 0.01 0.01 0.01 0.02 0.01 0.02 0.02 0.03 0.08 0.34 0.37 0.56 0.72 0.70 0.87 0.84 0.93 1.09 1.41 1.52 1.57 1.55 1.44 1.49 1.47 1.14 0.72 0.59 0.55 0.60 0.65 0.70 0.59 0.36
0.00 0.00 0.00 0.00 0.01 0.00 0.00 0.01 0.02 0.05 0.07 0.07 0.05 0.05 0.11 0.16 0.18 0.30 0.39 0.37 0.42 0.53 0.55 0.78 0.80 0.82 1.06 1.31 1.56 1.95 2.10 2.10 1.97 1.90 1.74 1.29 0.86 0.56 0.48 0.52 0.56 0.59 0.59

GFSSE_prec_precacc24_168.txt.gz
Total_Precipitation_Accumulation
0.00 0.00 0.00 0.00 0.00 0.00 0.00 0.00 0.00 0.00 0.00 0.00 0.00 0.00 0.00 0.00 0.00 0.00 0.00 0.00 0.00 0.00 0.00 0.00 0.00 0.00 0.01 0.02 0.03 0.02 0.03 0.04 0.01 0.01 0.01 0.01 0.01 0.00 0.01 0.09 0.48 0.56 0.77
0.00 0.00 0.00 0.00 0.00 0.00 0.00 0.00 0.00 0.00 0.00 0.00 0.00 0.00 0.00 0.00 0.00 0.00 0.00 0.00 0.00 0.00 0.00 0.00 0.00 0.00 0.01 0.00 0.00 0.00 0.01 0.00 0.00 0.01 0.00 0.00 0.01 0.01 0.03 0.13 0.51 0.60 0.86
0.00 0.00 0.00 0.00 0.00 0.00 0.00 0.00 0.00 0.00 0.00 0.00 0.00 0.00 0.00 0.00 0.00 0.00 0.00 0.00 0.00 0.00 0.00 0.00 0.00 0.00 0.00 0.00 0.00 0.00 0.00 0.00 0.00 0.00 0.01 0.00 0.01 0.00 0.02 0.16 0.48 0.62 0.67
0.01 0.00 0.00 0.00 0.00 0.00 0.00 0.00 0.00 0.00 0.00 0.00 0.00 0.00 0.00 0.00 0.00 0.00 0.00 0.00 0.00 0.00 0.00 0.00 0.00 0.00 0.00 0.00 0.00 0.00 0.00 0.00 0.00 0.01 0.06 0.03 0.00 0.01 0.03 0.20 0.25 0.56 1.14
0.00 0.00 0.00 0.00 0.00 0.00 0.00 0.00 0.00 0.00 0.00 0.00 0.00 0.00 0.00 0.00 0.00 0.00 0.00 0.00 0.00 0.00 0.00 0.00 0.00 0.01 0.00 0.00 0.00 0.00 0.00 0.00 0.01 0.04 0.34 0.11 0.01 0.05 0.28 0.38 0.25 0.91 1.08
0.00 0.00 0.00 0.00 0.00 0.00 0.00 0.00 0.00 0.00 0.00 0.00 0.00 0.01 0.00 0.00 0.00 0.00 0.00 0.00 0.01 0.01 0.00 0.00 0.00 0.00 0.00 0.00 0.00 0.00 0.00 0.00 0.02 0.34 1.24 0.21 0.09 0.07 0.32 0.42 0.28 0.51 0.59
0.00 0.00 0.00 0.00 0.00 0.00 0.00 0.01 0.00 0.00 0.00 0.00 0.00 0.01 0.01 0.02 0.02 0.00 0.00 0.00 0.00 0.01 0.02 0.00 0.00 0.00 0.00 0.00 0.00 0.00 0.00 0.00 0.12 0.26 0.36 0.20 0.15 0.28 0.25 0.23 0.13 0.07 0.13
0.00 0.00 0.00 0.00 0.02 0.02 0.01 0.00 0.00 0.00 0.00 0.00 0.00 0.00 0.01 0.02 0.01 0.02 0.01 0.00 0.00 0.00 0.01 0.00 0.00 0.00 0.00 0.00 0.00 0.00 0.00 0.00 0.08 0.23 0.23 0.10 0.13 0.39 0.16 0.06 0.03 0.01 0.01
0.00 0.01 0.01 0.01 0.03 0.05 0.07 0.02 0.00 0.00 0.00 0.00 0.00 0.00 0.00 0.01 0.00 0.00 0.01 0.01 0.00 0.00 0.00 0.00 0.00 0.00 0.00 0.00 0.00 0.00 0.00 0.00 0.06 0.29 0.32 0.10 0.14 0.40 0.21 0.03 0.01 0.00 0.01
0.00 0.02 0.02 0.03 0.02 0.01 0.05 0.04 0.01 0.00 0.00 0.00 0.00 0.00 0.00 0.01 0.01 0.02 0.03 0.04 0.02 0.01 0.01 0.00 0.00 0.00 0.00 0.00 0.00 0.00 0.00 0.00 0.07 0.18 0.21 0.19 0.21 0.21 0.16 0.04 0.00 0.00 0.00
0.00 0.00 0.00 0.00 0.00 0.00 0.01 0.00 0.00 0.00 0.00 0.00 0.00 0.00 0.01 0.01 0.01 0.04 0.06 0.03 0.02 0.02 0.04 0.02 0.00 0.00 0.00 0.00 0.00 0.00 0.00 0.00 0.07 0.05 0.08 0.05 0.17 0.11 0.07 0.05 0.01 0.00 0.02
0.00 0.00 0.00 0.01 0.01 0.00 0.00 0.00 0.00 0.00 0.00 0.00 0.00 0.00 0.01 0.02 0.04 0.05 0.03 0.02 0.03 0.02 0.03 0.02 0.00 0.00 0.00 0.00 0.00 0.00 0.00 0.02 0.02 0.03 0.09 0.06 0.21 0.15 0.27 0.25 0.08 0.00 0.02
0.00 0.00 0.00 0.02 0.04 0.03 0.02 0.02 0.02 0.01 0.02 0.04 0.01 0.01 0.03 0.03 0.03 0.06 0.06 0.07 0.07 0.05 0.09 0.08 0.05 0.05 0.03 0.01 0.00 0.00 0.00 0.00 0.01 0.03 0.14 0.03 0.16 0.22 0.36 0.32 0.08 0.02 0.01
0.00 0.00 0.01 0.10 0.20 0.12 0.09 0.12 0.08 0.07 0.05 0.04 0.03 0.02 0.05 0.03 0.03 0.04 0.04 0.03 0.06 0.07 0.10 0.13 0.12 0.07 0.04 0.04 0.03 0.01 0.00 0.00 0.01 0.04 0.10 0.01 0.05 0.15 0.24 0.27 0.17 0.08 0.01
0.00 0.00 0.00 0.06 0.20 0.15 0.13 0.12 0.10 0.13 0.16 0.15 0.09 0.06 0.07 0.11 0.10 0.08 0.05 0.04 0.04 0.04 0.06 0.11 0.15 0.10 0.06 0.03 0.04 0.03 0.01 0.00 0.02 0.03 0.05 0.00 0.03 0.14 0.15 0.16 0.25 0.18 0.03
0.00 0.00 0.00 0.00 0.07 0.13 0.08 0.08 0.10 0.12 0.14 0.16 0.14 0.10 0.08 0.08 0.11 0.10 0.09 0.07 0.05 0.05 0.05 0.06 0.07 0.08 0.06 0.05 0.04 0.04 0.03 0.01 0.02 0.02 0.01 0.00 0.03 0.05 0.09 0.22 0.22 0.22 0.18
0.00 0.00 0.00 0.00 0.00 0.03 0.07 0.07 0.07 0.10 0.14 0.15 0.10 0.10 0.13 0.11 0.15 0.16 0.13 0.08 0.06 0.04 0.07 0.11 0.06 0.07 0.07 0.08 0.05 0.05 0.06 0.03 0.04 0.02 0.00 0.00 0.01 0.04 0.03 0.09 0.22 0.22 0.25
0.00 0.00 0.00 0.00 0.00 0.00 0.03 0.07 0.13 0.11 0.15 0.20 0.12 0.13 0.25 0.21 0.23 0.28 0.24 0.13 0.09 0.09 0.12 0.16 0.10 0.07 0.07 0.11 0.06 0.05 0.08 0.07 0.05 0.03 0.01 0.00 0.00 0.00 0.00 0.00 0.03 0.11 0.13
0.00 0.00 0.00 0.00 0.00 0.00 0.02 0.09 0.20 0.23 0.26 0.20 0.16 0.13 0.11 0.17 0.29 0.37 0.28 0.13 0.15 0.14 0.16 0.27 0.20 0.18 0.13 0.11 0.09 0.12 0.08 0.05 0.05 0.06 0.05 0.01 0.00 0.00 0.01 0.02 0.00 0.01 0.01
0.00 0.00 0.00 0.00 0.00 0.00 0.00 0.01 0.05 0.25 0.39 0.35 0.23 0.18 0.16 0.14 0.19 0.24 0.23 0.19 0.24 0.28 0.21 0.24 0.33 0.31 0.24 0.30 0.31 0.20 0.16 0.08 0.05 0.06 0.08 0.07 0.05 0.03 0.02 0.07 0.04 0.01 0.00
0.00 0.00 0.00 0.00 0.00 0.00 0.00 0.00 0.00 0.00 0.01 0.16 0.34 0.13 0.06 0.14 0.21 0.16 0.11 0.10 0.21 0.23 0.24 0.41 0.52 0.57 0.28 0.43 0.73 0.60 0.45 0.27 0.19 0.08 0.08 0.08 0.08 0.07 0.05 0.11 0.06 0.05 0.01
0.00 0.00 0.00 0.00 0.00 0.00 0.00 0.00 0.00 0.00 0.00 0.00 0.00 0.03 0.07 0.12 0.48 0.37 0.30 0.26 0.22 0.14 0.25 0.57 0.58 0.77 0.51 0.66 0.97 1.22 0.90 0.68 0.42 0.33 0.26 0.21 0.17 0.16 0.10 0.14 0.11 0.08 0.04
0.00 0.00 0.00 0.00 0.00 0.00 0.00 0.00 0.00 0.00 0.00 0.00 0.00 0.00 0.02 0.05 0.10 0.43 0.22 0.41 0.52 0.55 0.33 0.55 0.75 0.74 0.51 0.66 0.89 1.13 1.16 0.89 0.67 0.62 0.51 0.38 0.35 0.26 0.23 0.23 0.34 0.29 0.15
0.00 0.00 0.00 0.00 0.00 0.00 0.00 0.00 0.00 0.00 0.00 0.00 0.00 0.00 0.00 0.02 0.06 0.23 0.40 0.32 0.36 0.49 0.69 0.68 0.77 0.79 0.90 0.76 0.92 0.91 0.86 0.82 0.86 0.69 0.60 0.55 0.51 0.44 0.35 0.30 0.29 0.34 0.33
0.00 0.00 0.00 0.00 0.00 0.00 0.00 0.00 0.00 0.00 0.00 0.00 0.00 0.00 0.00 0.01 0.03 0.07 0.33 0.27 0.32 0.51 0.57 0.78 0.79 0.87 1.07 1.39 1.48 1.56 1.55 1.45 1.50 1.48 1.15 0.73 0.66 0.66 0.69 0.70 0.71 0.59 0.37
0.00 0.00 0.00 0.00 0.00 0.00 0.00 0.00 0.00 0.00 0.00 0.01 0.01 0.02 0.02 0.03 0.07 0.13 0.28 0.34 0.40 0.49 0.49 0.71 0.74 0.77 1.02 1.27 1.54 1.93 2.10 2.12 1.99 1.92 1.75 1.29 0.87 0.60 0.56 0.64 0.69 0.65 0.63